﻿<?xml version="1.0" encoding="utf-8"?><gpx creator="Garmin Desktop App" version="1.1" xsi:schemaLocation="http://www.topografix.com/GPX/1/1 http://www.topografix.com/GPX/1/1/gpx.xsd http://www.garmin.com/xmlschemas/WaypointExtension/v1 http://www8.garmin.com/xmlschemas/WaypointExtensionv1.xsd http://www.garmin.com/xmlschemas/TrackPointExtension/v1 http://www.garmin.com/xmlschemas/TrackPointExtensionv1.xsd http://www.garmin.com/xmlschemas/GpxExtensions/v3 http://www8.garmin.com/xmlschemas/GpxExtensionsv3.xsd http://www.garmin.com/xmlschemas/ActivityExtension/v1 http://www8.garmin.com/xmlschemas/ActivityExtensionv1.xsd http://www.garmin.com/xmlschemas/AdventuresExtensions/v1 http://www8.garmin.com/xmlschemas/AdventuresExtensionv1.xsd http://www.garmin.com/xmlschemas/PressureExtension/v1 http://www.garmin.com/xmlschemas/PressureExtensionv1.xsd http://www.garmin.com/xmlschemas/TripExtensions/v1 http://www.garmin.com/xmlschemas/TripExtensionsv1.xsd http://www.garmin.com/xmlschemas/TripMetaDataExtensions/v1 http://www.garmin.com/xmlschemas/TripMetaDataExtensionsv1.xsd http://www.garmin.com/xmlschemas/ViaPointTransportationModeExtensions/v1 http://www.garmin.com/xmlschemas/ViaPointTransportationModeExtensionsv1.xsd http://www.garmin.com/xmlschemas/CreationTimeExtension/v1 http://www.garmin.com/xmlschemas/CreationTimeExtensionsv1.xsd http://www.garmin.com/xmlschemas/AccelerationExtension/v1 http://www.garmin.com/xmlschemas/AccelerationExtensionv1.xsd http://www.garmin.com/xmlschemas/PowerExtension/v1 http://www.garmin.com/xmlschemas/PowerExtensionv1.xsd http://www.garmin.com/xmlschemas/VideoExtension/v1 http://www.garmin.com/xmlschemas/VideoExtensionv1.xsd" xmlns="http://www.topografix.com/GPX/1/1" xmlns:xsi="http://www.w3.org/2001/XMLSchema-instance" xmlns:wptx1="http://www.garmin.com/xmlschemas/WaypointExtension/v1" xmlns:gpxtrx="http://www.garmin.com/xmlschemas/GpxExtensions/v3" xmlns:gpxtpx="http://www.garmin.com/xmlschemas/TrackPointExtension/v1" xmlns:gpxx="http://www.garmin.com/xmlschemas/GpxExtensions/v3" xmlns:trp="http://www.garmin.com/xmlschemas/TripExtensions/v1" xmlns:adv="http://www.garmin.com/xmlschemas/AdventuresExtensions/v1" xmlns:prs="http://www.garmin.com/xmlschemas/PressureExtension/v1" xmlns:tmd="http://www.garmin.com/xmlschemas/TripMetaDataExtensions/v1" xmlns:vptm="http://www.garmin.com/xmlschemas/ViaPointTransportationModeExtensions/v1" xmlns:ctx="http://www.garmin.com/xmlschemas/CreationTimeExtension/v1" xmlns:gpxacc="http://www.garmin.com/xmlschemas/AccelerationExtension/v1" xmlns:gpxpx="http://www.garmin.com/xmlschemas/PowerExtension/v1" xmlns:vidx1="http://www.garmin.com/xmlschemas/VideoExtension/v1">

  <metadata>
    <link href="http://www.garmin.com">
      <text>Garmin International</text>
    </link>
    <time>2017-06-29T14:05:39Z</time>
    <bounds maxlat="66.328910999000072" maxlon="14.184013959020376" minlat="63.403300987556577" minlon="10.437567019835114" />
  </metadata>

  <trk>
    <name>Track vom: 29 JUN 2017 07:27</name>
    <extensions>
      <gpxx:TrackExtension>
        <gpxx:DisplayColor>DarkGray</gpxx:DisplayColor>
      </gpxx:TrackExtension>
    </extensions>
    <trkseg>
      <trkpt lat="66.328910999000072" lon="14.184013959020376">
        <ele>55.409999999999997</ele>
        <time>2017-06-29T05:27:24Z</time>
      </trkpt>
      <trkpt lat="66.328901024535298" lon="14.183938018977642">
        <ele>30.899999999999999</ele>
        <time>2017-06-29T05:27:56Z</time>
      </trkpt>
      <trkpt lat="66.328897001221776" lon="14.183895019814372">
        <ele>32.82</ele>
        <time>2017-06-29T05:28:06Z</time>
      </trkpt>
      <trkpt lat="66.328898007050157" lon="14.183824025094509">
        <ele>34.259999999999998</ele>
        <time>2017-06-29T05:28:10Z</time>
      </trkpt>
      <trkpt lat="66.328886020928621" lon="14.183710031211376">
        <ele>33.780000000000001</ele>
        <time>2017-06-29T05:28:13Z</time>
      </trkpt>
      <trkpt lat="66.328875962644815" lon="14.18283998966217">
        <ele>32.82</ele>
        <time>2017-06-29T05:28:22Z</time>
      </trkpt>
      <trkpt lat="66.32886397652328" lon="14.18273102492094">
        <ele>32.82</ele>
        <time>2017-06-29T05:28:23Z</time>
      </trkpt>
      <trkpt lat="66.328495005145669" lon="14.181584967300296">
        <ele>31.859999999999999</ele>
        <time>2017-06-29T05:28:36Z</time>
      </trkpt>
      <trkpt lat="66.327638039365411" lon="14.180128024891019">
        <ele>31.379999999999999</ele>
        <time>2017-06-29T05:28:53Z</time>
      </trkpt>
      <trkpt lat="66.327277030795813" lon="14.179538022726774">
        <ele>31.859999999999999</ele>
        <time>2017-06-29T05:29:02Z</time>
      </trkpt>
      <trkpt lat="66.327270995825529" lon="14.179430985823274">
        <ele>31.379999999999999</ele>
        <time>2017-06-29T05:29:03Z</time>
      </trkpt>
      <trkpt lat="66.327278036624193" lon="14.179280027747154">
        <ele>31.859999999999999</ele>
        <time>2017-06-29T05:29:04Z</time>
      </trkpt>
      <trkpt lat="66.32729304023087" lon="14.179125968366861">
        <ele>31.379999999999999</ele>
        <time>2017-06-29T05:29:05Z</time>
      </trkpt>
      <trkpt lat="66.327312989160419" lon="14.178960006684065">
        <ele>31.379999999999999</ele>
        <time>2017-06-29T05:29:06Z</time>
      </trkpt>
      <trkpt lat="66.327494960278273" lon="14.177308017387986">
        <ele>32.82</ele>
        <time>2017-06-29T05:29:16Z</time>
      </trkpt>
      <trkpt lat="66.327482974156737" lon="14.17720802128315">
        <ele>32.82</ele>
        <time>2017-06-29T05:29:17Z</time>
      </trkpt>
      <trkpt lat="66.327453972771764" lon="14.177121017128229">
        <ele>32.82</ele>
        <time>2017-06-29T05:29:18Z</time>
      </trkpt>
      <trkpt lat="66.327408961951733" lon="14.177051028236747">
        <ele>32.340000000000003</ele>
        <time>2017-06-29T05:29:19Z</time>
      </trkpt>
      <trkpt lat="66.327349031344056" lon="14.17699403129518">
        <ele>32.340000000000003</ele>
        <time>2017-06-29T05:29:20Z</time>
      </trkpt>
      <trkpt lat="66.327287005260587" lon="14.176960000768304">
        <ele>32.340000000000003</ele>
        <time>2017-06-29T05:29:21Z</time>
      </trkpt>
      <trkpt lat="66.327222967520356" lon="14.176939968019724">
        <ele>32.340000000000003</ele>
        <time>2017-06-29T05:29:22Z</time>
      </trkpt>
      <trkpt lat="66.325927963480353" lon="14.176562028005719">
        <ele>28.02</ele>
        <time>2017-06-29T05:29:37Z</time>
      </trkpt>
      <trkpt lat="66.324224006384611" lon="14.175908993929625">
        <ele>19.84</ele>
        <time>2017-06-29T05:29:56Z</time>
      </trkpt>
      <trkpt lat="66.323363017290831" lon="14.175111036747694">
        <ele>16</ele>
        <time>2017-06-29T05:30:07Z</time>
      </trkpt>
      <trkpt lat="66.322121992707253" lon="14.174162959679961">
        <ele>13.119999999999999</ele>
        <time>2017-06-29T05:30:21Z</time>
      </trkpt>
      <trkpt lat="66.32177297025919" lon="14.173805974423885">
        <ele>11.19</ele>
        <time>2017-06-29T05:30:25Z</time>
      </trkpt>
      <trkpt lat="66.32067795842886" lon="14.172905003651977">
        <ele>11.19</ele>
        <time>2017-06-29T05:30:36Z</time>
      </trkpt>
      <trkpt lat="66.320593971759081" lon="14.172739963978529">
        <ele>11.19</ele>
        <time>2017-06-29T05:30:37Z</time>
      </trkpt>
      <trkpt lat="66.320524988695979" lon="14.172556987032294">
        <ele>11.67</ele>
        <time>2017-06-29T05:30:38Z</time>
      </trkpt>
      <trkpt lat="66.320466985926032" lon="14.172365041449666">
        <ele>11.67</ele>
        <time>2017-06-29T05:30:39Z</time>
      </trkpt>
      <trkpt lat="66.320421975106001" lon="14.172200001776218">
        <ele>11.19</ele>
        <time>2017-06-29T05:30:40Z</time>
      </trkpt>
      <trkpt lat="66.320387022569776" lon="14.17205398902297">
        <ele>11.19</ele>
        <time>2017-06-29T05:30:41Z</time>
      </trkpt>
      <trkpt lat="66.320304963737726" lon="14.171522995457053">
        <ele>11.19</ele>
        <time>2017-06-29T05:30:48Z</time>
      </trkpt>
      <trkpt lat="66.320266993716359" lon="14.171122005209327">
        <ele>11.19</ele>
        <time>2017-06-29T05:30:51Z</time>
      </trkpt>
      <trkpt lat="66.320238998159766" lon="14.170997031033039">
        <ele>11.19</ele>
        <time>2017-06-29T05:30:52Z</time>
      </trkpt>
      <trkpt lat="66.320199016481638" lon="14.170898962765932">
        <ele>11.19</ele>
        <time>2017-06-29T05:30:53Z</time>
      </trkpt>
      <trkpt lat="66.320143025368452" lon="14.170814976096153">
        <ele>11.19</ele>
        <time>2017-06-29T05:30:54Z</time>
      </trkpt>
      <trkpt lat="66.320078987628222" lon="14.170740963891149">
        <ele>10.710000000000001</ele>
        <time>2017-06-29T05:30:55Z</time>
      </trkpt>
      <trkpt lat="66.319875977933407" lon="14.170449022203684">
        <ele>10.710000000000001</ele>
        <time>2017-06-29T05:30:58Z</time>
      </trkpt>
      <trkpt lat="66.319805989041924" lon="14.170309966430068">
        <ele>10.710000000000001</ele>
        <time>2017-06-29T05:30:59Z</time>
      </trkpt>
      <trkpt lat="66.319659976288676" lon="14.170015007257462">
        <ele>10.710000000000001</ele>
        <time>2017-06-29T05:31:01Z</time>
      </trkpt>
      <trkpt lat="66.3187659624964" lon="14.169121999293566">
        <ele>15.039999999999999</ele>
        <time>2017-06-29T05:31:10Z</time>
      </trkpt>
      <trkpt lat="66.31855197250843" lon="14.16906701400876">
        <ele>16.48</ele>
        <time>2017-06-29T05:31:12Z</time>
      </trkpt>
      <trkpt lat="66.318444013595581" lon="14.169072965160012">
        <ele>16.960000000000001</ele>
        <time>2017-06-29T05:31:13Z</time>
      </trkpt>
      <trkpt lat="66.317782010883093" lon="14.169073970988393">
        <ele>20.32</ele>
        <time>2017-06-29T05:31:19Z</time>
      </trkpt>
      <trkpt lat="66.317674973979592" lon="14.169014962390065">
        <ele>20.809999999999999</ele>
        <time>2017-06-29T05:31:20Z</time>
      </trkpt>
      <trkpt lat="66.317580007016659" lon="14.168953020125628">
        <ele>20.809999999999999</ele>
        <time>2017-06-29T05:31:21Z</time>
      </trkpt>
      <trkpt lat="66.316792024299502" lon="14.168252041563392">
        <ele>23.210000000000001</ele>
        <time>2017-06-29T05:31:32Z</time>
      </trkpt>
      <trkpt lat="66.315600033849478" lon="14.167278986424208">
        <ele>28.98</ele>
        <time>2017-06-29T05:31:45Z</time>
      </trkpt>
      <trkpt lat="66.314589008688927" lon="14.165753982961178">
        <ele>37.630000000000003</ele>
        <time>2017-06-29T05:31:57Z</time>
      </trkpt>
      <trkpt lat="66.314416006207466" lon="14.165069013834">
        <ele>40.030000000000001</ele>
        <time>2017-06-29T05:32:00Z</time>
      </trkpt>
      <trkpt lat="66.314373007044196" lon="14.164818981662393">
        <ele>40.990000000000002</ele>
        <time>2017-06-29T05:32:01Z</time>
      </trkpt>
      <trkpt lat="66.314336964860559" lon="14.16455402970314">
        <ele>41.950000000000003</ele>
        <time>2017-06-29T05:32:02Z</time>
      </trkpt>
      <trkpt lat="66.314311986789107" lon="14.164280025288463">
        <ele>42.920000000000002</ele>
        <time>2017-06-29T05:32:03Z</time>
      </trkpt>
      <trkpt lat="66.314300000667572" lon="14.163992023095489">
        <ele>43.880000000000003</ele>
        <time>2017-06-29T05:32:04Z</time>
      </trkpt>
      <trkpt lat="66.314292037859559" lon="14.16371600702405">
        <ele>44.840000000000003</ele>
        <time>2017-06-29T05:32:05Z</time>
      </trkpt>
      <trkpt lat="66.31429698318243" lon="14.163431022316217">
        <ele>45.799999999999997</ele>
        <time>2017-06-29T05:32:06Z</time>
      </trkpt>
      <trkpt lat="66.314308969303966" lon="14.163148971274495">
        <ele>46.759999999999998</ele>
        <time>2017-06-29T05:32:07Z</time>
      </trkpt>
      <trkpt lat="66.314329002052546" lon="14.162868009880185">
        <ele>47.719999999999999</ele>
        <time>2017-06-29T05:32:08Z</time>
      </trkpt>
      <trkpt lat="66.314539974555373" lon="14.159799981862307">
        <ele>54.93</ele>
        <time>2017-06-29T05:32:21Z</time>
      </trkpt>
      <trkpt lat="66.314523965120316" lon="14.159627985209227">
        <ele>54.93</ele>
        <time>2017-06-29T05:32:22Z</time>
      </trkpt>
      <trkpt lat="66.314490018412471" lon="14.159464035183191">
        <ele>54.93</ele>
        <time>2017-06-29T05:32:23Z</time>
      </trkpt>
      <trkpt lat="66.314442995935678" lon="14.159309975802898">
        <ele>54.93</ele>
        <time>2017-06-29T05:32:24Z</time>
      </trkpt>
      <trkpt lat="66.314389016479254" lon="14.159148959442973">
        <ele>54.93</ele>
        <time>2017-06-29T05:32:25Z</time>
      </trkpt>
      <trkpt lat="66.314286002889276" lon="14.158777976408601">
        <ele>54.450000000000003</ele>
        <time>2017-06-29T05:32:27Z</time>
      </trkpt>
      <trkpt lat="66.314241997897625" lon="14.158567003905773">
        <ele>54.450000000000003</ele>
        <time>2017-06-29T05:32:28Z</time>
      </trkpt>
      <trkpt lat="66.314208973199129" lon="14.158338010311127">
        <ele>54.450000000000003</ele>
        <time>2017-06-29T05:32:29Z</time>
      </trkpt>
      <trkpt lat="66.314089028164744" lon="14.157353974878788">
        <ele>53.969999999999999</ele>
        <time>2017-06-29T05:32:33Z</time>
      </trkpt>
      <trkpt lat="66.314035970717669" lon="14.157110983505845">
        <ele>53.969999999999999</ele>
        <time>2017-06-29T05:32:34Z</time>
      </trkpt>
      <trkpt lat="66.313971010968089" lon="14.156875032931566">
        <ele>53.969999999999999</ele>
        <time>2017-06-29T05:32:35Z</time>
      </trkpt>
      <trkpt lat="66.313890041783452" lon="14.156652996316552">
        <ele>53.490000000000002</ele>
        <time>2017-06-29T05:32:36Z</time>
      </trkpt>
      <trkpt lat="66.313799014315009" lon="14.156447974964976">
        <ele>53.490000000000002</ele>
        <time>2017-06-29T05:32:37Z</time>
      </trkpt>
      <trkpt lat="66.31369398906827" lon="14.156268015503883">
        <ele>53.009999999999998</ele>
        <time>2017-06-29T05:32:38Z</time>
      </trkpt>
      <trkpt lat="66.313579995185137" lon="14.156122002750635">
        <ele>52.530000000000001</ele>
        <time>2017-06-29T05:32:39Z</time>
      </trkpt>
      <trkpt lat="66.313461977988482" lon="14.15598101913929">
        <ele>51.57</ele>
        <time>2017-06-29T05:32:40Z</time>
      </trkpt>
      <trkpt lat="66.311790961772203" lon="14.154538996517658">
        <ele>42.439999999999998</ele>
        <time>2017-06-29T05:32:54Z</time>
      </trkpt>
      <trkpt lat="66.310602994635701" lon="14.153999034315348">
        <ele>39.07</ele>
        <time>2017-06-29T05:33:04Z</time>
      </trkpt>
      <trkpt lat="66.309564979746938" lon="14.15338103659451">
        <ele>37.149999999999999</ele>
        <time>2017-06-29T05:33:11Z</time>
      </trkpt>
      <trkpt lat="66.30860298871994" lon="14.151854021474719">
        <ele>33.299999999999997</ele>
        <time>2017-06-29T05:33:19Z</time>
      </trkpt>
      <trkpt lat="66.308522019535303" lon="14.151636008173227">
        <ele>32.82</ele>
        <time>2017-06-29T05:33:20Z</time>
      </trkpt>
      <trkpt lat="66.308455970138311" lon="14.151400979608297">
        <ele>32.340000000000003</ele>
        <time>2017-06-29T05:33:21Z</time>
      </trkpt>
      <trkpt lat="66.308325966820121" lon="14.15093201212585">
        <ele>31.379999999999999</ele>
        <time>2017-06-29T05:33:23Z</time>
      </trkpt>
      <trkpt lat="66.308252038434148" lon="14.150731014087796">
        <ele>30.899999999999999</ele>
        <time>2017-06-29T05:33:24Z</time>
      </trkpt>
      <trkpt lat="66.308168973773718" lon="14.150547031313181">
        <ele>30.899999999999999</ele>
        <time>2017-06-29T05:33:25Z</time>
      </trkpt>
      <trkpt lat="66.307504959404469" lon="14.148492040112615">
        <ele>27.050000000000001</ele>
        <time>2017-06-29T05:33:33Z</time>
      </trkpt>
      <trkpt lat="66.306722005829215" lon="14.146396983414888">
        <ele>22.73</ele>
        <time>2017-06-29T05:33:43Z</time>
      </trkpt>
      <trkpt lat="66.306512961164117" lon="14.145897002890706">
        <ele>21.289999999999999</ele>
        <time>2017-06-29T05:33:46Z</time>
      </trkpt>
      <trkpt lat="66.30643199197948" lon="14.145792983472347">
        <ele>21.289999999999999</ele>
        <time>2017-06-29T05:33:47Z</time>
      </trkpt>
      <trkpt lat="66.306338030844927" lon="14.145719977095723">
        <ele>20.809999999999999</ele>
        <time>2017-06-29T05:33:48Z</time>
      </trkpt>
      <trkpt lat="66.305168000981212" lon="14.145087981596589">
        <ele>16</ele>
        <time>2017-06-29T05:33:57Z</time>
      </trkpt>
      <trkpt lat="66.304745972156525" lon="14.144652960821986">
        <ele>14.56</ele>
        <time>2017-06-29T05:34:00Z</time>
      </trkpt>
      <trkpt lat="66.304619992151856" lon="14.144448023289442">
        <ele>14.56</ele>
        <time>2017-06-29T05:34:01Z</time>
      </trkpt>
      <trkpt lat="66.304500969126821" lon="14.144221963360906">
        <ele>14.08</ele>
        <time>2017-06-29T05:34:02Z</time>
      </trkpt>
      <trkpt lat="66.30439099855721" lon="14.143973020836711">
        <ele>13.6</ele>
        <time>2017-06-29T05:34:03Z</time>
      </trkpt>
      <trkpt lat="66.304292008280754" lon="14.143705973401666">
        <ele>13.6</ele>
        <time>2017-06-29T05:34:04Z</time>
      </trkpt>
      <trkpt lat="66.304203998297453" lon="14.143420988693833">
        <ele>13.6</ele>
        <time>2017-06-29T05:34:05Z</time>
      </trkpt>
      <trkpt lat="66.304127974435687" lon="14.143122006207705">
        <ele>13.6</ele>
        <time>2017-06-29T05:34:06Z</time>
      </trkpt>
      <trkpt lat="66.304064020514488" lon="14.14281103760004">
        <ele>13.6</ele>
        <time>2017-06-29T05:34:07Z</time>
      </trkpt>
      <trkpt lat="66.304015992209315" lon="14.142491016536951">
        <ele>13.6</ele>
        <time>2017-06-29T05:34:08Z</time>
      </trkpt>
      <trkpt lat="66.303984979167581" lon="14.142162026837468">
        <ele>14.08</ele>
        <time>2017-06-29T05:34:09Z</time>
      </trkpt>
      <trkpt lat="66.303965030238032" lon="14.14182398468256">
        <ele>14.08</ele>
        <time>2017-06-29T05:34:10Z</time>
      </trkpt>
      <trkpt lat="66.303956983610988" lon="14.141476973891258">
        <ele>14.56</ele>
        <time>2017-06-29T05:34:11Z</time>
      </trkpt>
      <trkpt lat="66.303956983610988" lon="14.141137003898621">
        <ele>14.56</ele>
        <time>2017-06-29T05:34:12Z</time>
      </trkpt>
      <trkpt lat="66.304215984418988" lon="14.138186993077397">
        <ele>13.119999999999999</ele>
        <time>2017-06-29T05:34:21Z</time>
      </trkpt>
      <trkpt lat="66.304874969646335" lon="14.135468993335962">
        <ele>11.19</ele>
        <time>2017-06-29T05:34:31Z</time>
      </trkpt>
      <trkpt lat="66.305238995701075" lon="14.134589983150363">
        <ele>10.710000000000001</ele>
        <time>2017-06-29T05:34:37Z</time>
      </trkpt>
      <trkpt lat="66.305267997086048" lon="14.134550001472235">
        <ele>10.710000000000001</ele>
        <time>2017-06-29T05:34:38Z</time>
      </trkpt>
      <trkpt lat="66.305290963500738" lon="14.134537009522319">
        <ele>10.23</ele>
        <time>2017-06-29T05:34:39Z</time>
      </trkpt>
      <trkpt lat="66.305514005944133" lon="14.134400971233845">
        <ele>10.710000000000001</ele>
        <time>2017-06-29T05:34:45Z</time>
      </trkpt>
      <trkpt lat="66.305538984015584" lon="14.134309021756053">
        <ele>11.19</ele>
        <time>2017-06-29T05:34:46Z</time>
      </trkpt>
      <trkpt lat="66.305547030642629" lon="14.134184969589114">
        <ele>11.19</ele>
        <time>2017-06-29T05:34:47Z</time>
      </trkpt>
      <trkpt lat="66.305533032864332" lon="14.134053960442543">
        <ele>11.19</ele>
        <time>2017-06-29T05:34:48Z</time>
      </trkpt>
      <trkpt lat="66.305501013994217" lon="14.13391700014472">
        <ele>11.19</ele>
        <time>2017-06-29T05:34:49Z</time>
      </trkpt>
      <trkpt lat="66.305468995124102" lon="14.133757995441556">
        <ele>10.710000000000001</ele>
        <time>2017-06-29T05:34:50Z</time>
      </trkpt>
      <trkpt lat="66.305439993739128" lon="14.133583987131715">
        <ele>10.710000000000001</ele>
        <time>2017-06-29T05:34:51Z</time>
      </trkpt>
      <trkpt lat="66.305419960990548" lon="14.133383994922042">
        <ele>10.710000000000001</ele>
        <time>2017-06-29T05:34:52Z</time>
      </trkpt>
      <trkpt lat="66.305409986525774" lon="14.133177967742085">
        <ele>10.710000000000001</ele>
        <time>2017-06-29T05:34:53Z</time>
      </trkpt>
      <trkpt lat="66.305408980697393" lon="14.132976969704032">
        <ele>10.23</ele>
        <time>2017-06-29T05:34:54Z</time>
      </trkpt>
      <trkpt lat="66.305410992354155" lon="14.1327990218997">
        <ele>9.75</ele>
        <time>2017-06-29T05:34:55Z</time>
      </trkpt>
      <trkpt lat="66.305375033989549" lon="14.132280014455318">
        <ele>9.75</ele>
        <time>2017-06-29T05:34:58Z</time>
      </trkpt>
      <trkpt lat="66.305333040654659" lon="14.132102988660336">
        <ele>9.75</ele>
        <time>2017-06-29T05:34:59Z</time>
      </trkpt>
      <trkpt lat="66.305278977379203" lon="14.131925962865353">
        <ele>9.75</ele>
        <time>2017-06-29T05:35:00Z</time>
      </trkpt>
      <trkpt lat="66.304732980206609" lon="14.129724958911538">
        <ele>9.75</ele>
        <time>2017-06-29T05:35:10Z</time>
      </trkpt>
      <trkpt lat="66.304510021582246" lon="14.127115001901984">
        <ele>9.75</ele>
        <time>2017-06-29T05:35:19Z</time>
      </trkpt>
      <trkpt lat="66.304340958595276" lon="14.12194998934865">
        <ele>7.35</ele>
        <time>2017-06-29T05:35:34Z</time>
      </trkpt>
      <trkpt lat="66.304264012724161" lon="14.118700996041298">
        <ele>10.710000000000001</ele>
        <time>2017-06-29T05:35:43Z</time>
      </trkpt>
      <trkpt lat="66.304223025217652" lon="14.118348034098744">
        <ele>10.710000000000001</ele>
        <time>2017-06-29T05:35:44Z</time>
      </trkpt>
      <trkpt lat="66.304169967770576" lon="14.11799599416554">
        <ele>11.19</ele>
        <time>2017-06-29T05:35:45Z</time>
      </trkpt>
      <trkpt lat="66.304106013849378" lon="14.117668010294437">
        <ele>11.67</ele>
        <time>2017-06-29T05:35:46Z</time>
      </trkpt>
      <trkpt lat="66.304029989987612" lon="14.117347989231348">
        <ele>12.15</ele>
        <time>2017-06-29T05:35:47Z</time>
      </trkpt>
      <trkpt lat="66.303946003317833" lon="14.117044983431697">
        <ele>12.630000000000001</ele>
        <time>2017-06-29T05:35:48Z</time>
      </trkpt>
      <trkpt lat="66.303853970021009" lon="14.116743989288807">
        <ele>13.119999999999999</ele>
        <time>2017-06-29T05:35:49Z</time>
      </trkpt>
      <trkpt lat="66.303751962259412" lon="14.116464033722878">
        <ele>13.119999999999999</ele>
        <time>2017-06-29T05:35:50Z</time>
      </trkpt>
      <trkpt lat="66.303638974204659" lon="14.116196986287832">
        <ele>13.119999999999999</ele>
        <time>2017-06-29T05:35:51Z</time>
      </trkpt>
      <trkpt lat="66.303521040827036" lon="14.115947037935257">
        <ele>13.119999999999999</ele>
        <time>2017-06-29T05:35:52Z</time>
      </trkpt>
      <trkpt lat="66.303399000316858" lon="14.115721983835101">
        <ele>13.6</ele>
        <time>2017-06-29T05:35:53Z</time>
      </trkpt>
      <trkpt lat="66.301614996045828" lon="14.113074978813529">
        <ele>9.75</ele>
        <time>2017-06-29T05:36:06Z</time>
      </trkpt>
      <trkpt lat="66.300511015579104" lon="14.111320981755853">
        <ele>8.310000000000001</ele>
        <time>2017-06-29T05:36:14Z</time>
      </trkpt>
      <trkpt lat="66.299897963181138" lon="14.109312007203698">
        <ele>7.35</ele>
        <time>2017-06-29T05:36:20Z</time>
      </trkpt>
      <trkpt lat="66.299837026745081" lon="14.108912022784352">
        <ele>7.35</ele>
        <time>2017-06-29T05:36:21Z</time>
      </trkpt>
      <trkpt lat="66.29979201592505" lon="14.108494017273188">
        <ele>7.83</ele>
        <time>2017-06-29T05:36:22Z</time>
      </trkpt>
      <trkpt lat="66.299757985398173" lon="14.108076011762023">
        <ele>7.83</ele>
        <time>2017-06-29T05:36:23Z</time>
      </trkpt>
      <trkpt lat="66.299732001498342" lon="14.107650965452194">
        <ele>7.35</ele>
        <time>2017-06-29T05:36:24Z</time>
      </trkpt>
      <trkpt lat="66.299430001527071" lon="14.103101016953588">
        <ele>10.710000000000001</ele>
        <time>2017-06-29T05:36:35Z</time>
      </trkpt>
      <trkpt lat="66.298705972731113" lon="14.099220028147101">
        <ele>7.83</ele>
        <time>2017-06-29T05:36:45Z</time>
      </trkpt>
      <trkpt lat="66.297855963930488" lon="14.09674602560699">
        <ele>8.310000000000001</ele>
        <time>2017-06-29T05:36:53Z</time>
      </trkpt>
      <trkpt lat="66.296683000400662" lon="14.095117002725601">
        <ele>10.710000000000001</ele>
        <time>2017-06-29T05:37:01Z</time>
      </trkpt>
      <trkpt lat="66.295291017740965" lon="14.09264300018549">
        <ele>14.08</ele>
        <time>2017-06-29T05:37:11Z</time>
      </trkpt>
      <trkpt lat="66.294734962284565" lon="14.091648990288377">
        <ele>14.56</ele>
        <time>2017-06-29T05:37:15Z</time>
      </trkpt>
      <trkpt lat="66.294575035572052" lon="14.091462995857">
        <ele>15.039999999999999</ele>
        <time>2017-06-29T05:37:16Z</time>
      </trkpt>
      <trkpt lat="66.293128989636898" lon="14.089921982958913">
        <ele>20.809999999999999</ele>
        <time>2017-06-29T05:37:25Z</time>
      </trkpt>
      <trkpt lat="66.292996974661946" lon="14.08965895883739">
        <ele>21.77</ele>
        <time>2017-06-29T05:37:26Z</time>
      </trkpt>
      <trkpt lat="66.2928750179708" lon="14.089363999664783">
        <ele>23.210000000000001</ele>
        <time>2017-06-29T05:37:27Z</time>
      </trkpt>
      <trkpt lat="66.292764963582158" lon="14.089031992480159">
        <ele>24.649999999999999</ele>
        <time>2017-06-29T05:37:28Z</time>
      </trkpt>
      <trkpt lat="66.292661027982831" lon="14.088689005002379">
        <ele>25.609999999999999</ele>
        <time>2017-06-29T05:37:29Z</time>
      </trkpt>
      <trkpt lat="66.291537014767528" lon="14.085094006732106">
        <ele>28.98</ele>
        <time>2017-06-29T05:37:40Z</time>
      </trkpt>
      <trkpt lat="66.290910970419645" lon="14.082228988409042">
        <ele>22.73</ele>
        <time>2017-06-29T05:37:48Z</time>
      </trkpt>
      <trkpt lat="66.290116030722857" lon="14.075423972681165">
        <ele>10.23</ele>
        <time>2017-06-29T05:38:05Z</time>
      </trkpt>
      <trkpt lat="66.290020979940891" lon="14.069695025682449">
        <ele>8.789999999999999</ele>
        <time>2017-06-29T05:38:18Z</time>
      </trkpt>
      <trkpt lat="66.289945039898157" lon="14.064445020630956">
        <ele>9.75</ele>
        <time>2017-06-29T05:38:30Z</time>
      </trkpt>
      <trkpt lat="66.289363000541925" lon="14.059862969443202">
        <ele>8.789999999999999</ele>
        <time>2017-06-29T05:38:41Z</time>
      </trkpt>
      <trkpt lat="66.288650035858154" lon="14.054741961881518">
        <ele>11.67</ele>
        <time>2017-06-29T05:38:53Z</time>
      </trkpt>
      <trkpt lat="66.287821987643838" lon="14.050930961966515">
        <ele>19.84</ele>
        <time>2017-06-29T05:39:03Z</time>
      </trkpt>
      <trkpt lat="66.286734016612172" lon="14.048592997714877">
        <ele>15.52</ele>
        <time>2017-06-29T05:39:12Z</time>
      </trkpt>
      <trkpt lat="66.285213958472013" lon="14.046875964850187">
        <ele>15.039999999999999</ele>
        <time>2017-06-29T05:39:22Z</time>
      </trkpt>
      <trkpt lat="66.282382970675826" lon="14.044834971427917">
        <ele>22.25</ele>
        <time>2017-06-29T05:39:39Z</time>
      </trkpt>
      <trkpt lat="66.281158961355686" lon="14.043167978525162">
        <ele>24.170000000000002</ele>
        <time>2017-06-29T05:39:47Z</time>
      </trkpt>
      <trkpt lat="66.280427975580096" lon="14.04079900123179">
        <ele>33.299999999999997</ele>
        <time>2017-06-29T05:39:54Z</time>
      </trkpt>
      <trkpt lat="66.279600011184812" lon="14.037712030112743">
        <ele>40.030000000000001</ele>
        <time>2017-06-29T05:40:03Z</time>
      </trkpt>
      <trkpt lat="66.278818985447288" lon="14.036404034122825">
        <ele>40.030000000000001</ele>
        <time>2017-06-29T05:40:09Z</time>
      </trkpt>
      <trkpt lat="66.278669033199549" lon="14.036281993612647">
        <ele>40.030000000000001</ele>
        <time>2017-06-29T05:40:10Z</time>
      </trkpt>
      <trkpt lat="66.278512962162495" lon="14.036195995286107">
        <ele>39.549999999999997</ele>
        <time>2017-06-29T05:40:11Z</time>
      </trkpt>
      <trkpt lat="66.278351023793221" lon="14.036145033314824">
        <ele>38.590000000000003</ele>
        <time>2017-06-29T05:40:12Z</time>
      </trkpt>
      <trkpt lat="66.278184978291392" lon="14.036119971424341">
        <ele>38.109999999999999</ele>
        <time>2017-06-29T05:40:13Z</time>
      </trkpt>
      <trkpt lat="66.276679001748562" lon="14.035700960084796">
        <ele>30.420000000000002</ele>
        <time>2017-06-29T05:40:22Z</time>
      </trkpt>
      <trkpt lat="66.276533994823694" lon="14.035518988966942">
        <ele>29.940000000000001</ele>
        <time>2017-06-29T05:40:23Z</time>
      </trkpt>
      <trkpt lat="66.276399968191981" lon="14.035296030342579">
        <ele>29.460000000000001</ele>
        <time>2017-06-29T05:40:24Z</time>
      </trkpt>
      <trkpt lat="66.276281028985977" lon="14.035034012049437">
        <ele>28.98</ele>
        <time>2017-06-29T05:40:25Z</time>
      </trkpt>
      <trkpt lat="66.276176003739238" lon="14.034734023734927">
        <ele>28.5</ele>
        <time>2017-06-29T05:40:26Z</time>
      </trkpt>
      <trkpt lat="66.276083970442414" lon="14.034391036257148">
        <ele>28.02</ele>
        <time>2017-06-29T05:40:27Z</time>
      </trkpt>
      <trkpt lat="66.27600803039968" lon="14.034018041566014">
        <ele>27.050000000000001</ele>
        <time>2017-06-29T05:40:28Z</time>
      </trkpt>
      <trkpt lat="66.275946004316211" lon="14.03362300246954">
        <ele>26.57</ele>
        <time>2017-06-29T05:40:29Z</time>
      </trkpt>
      <trkpt lat="66.275890013203025" lon="14.033211031928658">
        <ele>25.609999999999999</ele>
        <time>2017-06-29T05:40:30Z</time>
      </trkpt>
      <trkpt lat="66.275181993842125" lon="14.029185036197305">
        <ele>15.52</ele>
        <time>2017-06-29T05:40:40Z</time>
      </trkpt>
      <trkpt lat="66.27343101426959" lon="14.02064697816968">
        <ele>20.32</ele>
        <time>2017-06-29T05:41:02Z</time>
      </trkpt>
      <trkpt lat="66.272587040439248" lon="14.013825030997396">
        <ele>13.119999999999999</ele>
        <time>2017-06-29T05:41:18Z</time>
      </trkpt>
      <trkpt lat="66.272732969373465" lon="14.010255010798573">
        <ele>13.119999999999999</ele>
        <time>2017-06-29T05:41:26Z</time>
      </trkpt>
      <trkpt lat="66.27300001680851" lon="14.003836987540126">
        <ele>17.920000000000002</ele>
        <time>2017-06-29T05:41:40Z</time>
      </trkpt>
      <trkpt lat="66.27280899323523" lon="13.998874984681606">
        <ele>25.609999999999999</ele>
        <time>2017-06-29T05:41:51Z</time>
      </trkpt>
      <trkpt lat="66.27293698489666" lon="13.992957025766373">
        <ele>24.649999999999999</ele>
        <time>2017-06-29T05:42:04Z</time>
      </trkpt>
      <trkpt lat="66.272537000477314" lon="13.989945994690061">
        <ele>20.809999999999999</ele>
        <time>2017-06-29T05:42:11Z</time>
      </trkpt>
      <trkpt lat="66.270924992859364" lon="13.983396040275693">
        <ele>16.960000000000001</ele>
        <time>2017-06-29T05:42:28Z</time>
      </trkpt>
      <trkpt lat="66.269710035994649" lon="13.979497030377388">
        <ele>22.73</ele>
        <time>2017-06-29T05:42:39Z</time>
      </trkpt>
      <trkpt lat="66.268637990579009" lon="13.977663991972804">
        <ele>23.690000000000001</ele>
        <time>2017-06-29T05:42:46Z</time>
      </trkpt>
      <trkpt lat="66.266748961061239" lon="13.976308973506093">
        <ele>21.77</ele>
        <time>2017-06-29T05:42:57Z</time>
      </trkpt>
      <trkpt lat="66.263872962445021" lon="13.975068032741547">
        <ele>33.780000000000001</ele>
        <time>2017-06-29T05:43:14Z</time>
      </trkpt>
      <trkpt lat="66.26131497323513" lon="13.974249036982656">
        <ele>38.590000000000003</ele>
        <time>2017-06-29T05:43:29Z</time>
      </trkpt>
      <trkpt lat="66.25974596478045" lon="13.974521029740572">
        <ele>28.5</ele>
        <time>2017-06-29T05:43:38Z</time>
      </trkpt>
      <trkpt lat="66.258047958835959" lon="13.97464700974524">
        <ele>21.289999999999999</ele>
        <time>2017-06-29T05:43:48Z</time>
      </trkpt>
      <trkpt lat="66.256035966798663" lon="13.975755013525486">
        <ele>25.129999999999999</ele>
        <time>2017-06-29T05:44:01Z</time>
      </trkpt>
      <trkpt lat="66.254389006644487" lon="13.976971982046962">
        <ele>19.84</ele>
        <time>2017-06-29T05:44:11Z</time>
      </trkpt>
      <trkpt lat="66.253017978742719" lon="13.97836497053504">
        <ele>8.789999999999999</ele>
        <time>2017-06-29T05:44:20Z</time>
      </trkpt>
      <trkpt lat="66.25287196598947" lon="13.978412998840213">
        <ele>8.310000000000001</ele>
        <time>2017-06-29T05:44:21Z</time>
      </trkpt>
      <trkpt lat="66.252722013741732" lon="13.978434037417173">
        <ele>7.83</ele>
        <time>2017-06-29T05:44:22Z</time>
      </trkpt>
      <trkpt lat="66.251518959179521" lon="13.977872030809522">
        <ele>6.87</ele>
        <time>2017-06-29T05:44:30Z</time>
      </trkpt>
      <trkpt lat="66.250081965699792" lon="13.976066987961531">
        <ele>7.83</ele>
        <time>2017-06-29T05:44:40Z</time>
      </trkpt>
      <trkpt lat="66.248973961919546" lon="13.973558032885194">
        <ele>8.789999999999999</ele>
        <time>2017-06-29T05:44:49Z</time>
      </trkpt>
      <trkpt lat="66.248332997784019" lon="13.970506014302373">
        <ele>10.710000000000001</ele>
        <time>2017-06-29T05:44:57Z</time>
      </trkpt>
      <trkpt lat="66.247473014518619" lon="13.965784991160035">
        <ele>8.310000000000001</ele>
        <time>2017-06-29T05:45:08Z</time>
      </trkpt>
      <trkpt lat="66.246694000437856" lon="13.961828984320164">
        <ele>12.630000000000001</ele>
        <time>2017-06-29T05:45:18Z</time>
      </trkpt>
      <trkpt lat="66.246266020461917" lon="13.958287965506315">
        <ele>16.960000000000001</ele>
        <time>2017-06-29T05:45:27Z</time>
      </trkpt>
      <trkpt lat="66.246185973286629" lon="13.957943972200155">
        <ele>17.440000000000001</ele>
        <time>2017-06-29T05:45:28Z</time>
      </trkpt>
      <trkpt lat="66.246094023808837" lon="13.95761095918715">
        <ele>17.920000000000002</ele>
        <time>2017-06-29T05:45:29Z</time>
      </trkpt>
      <trkpt lat="66.245986986905336" lon="13.957294961437583">
        <ele>17.440000000000001</ele>
        <time>2017-06-29T05:45:30Z</time>
      </trkpt>
      <trkpt lat="66.245867041870952" lon="13.956993967294693">
        <ele>16.960000000000001</ele>
        <time>2017-06-29T05:45:31Z</time>
      </trkpt>
      <trkpt lat="66.245740978047252" lon="13.956704037263989">
        <ele>16.48</ele>
        <time>2017-06-29T05:45:32Z</time>
      </trkpt>
      <trkpt lat="66.245610974729061" lon="13.956426009535789">
        <ele>16</ele>
        <time>2017-06-29T05:45:33Z</time>
      </trkpt>
      <trkpt lat="66.244165012612939" lon="13.953422019258142">
        <ele>15.039999999999999</ele>
        <time>2017-06-29T05:45:43Z</time>
      </trkpt>
      <trkpt lat="66.243839040398598" lon="13.952855989336967">
        <ele>15.039999999999999</ele>
        <time>2017-06-29T05:45:45Z</time>
      </trkpt>
      <trkpt lat="66.243657991290092" lon="13.952628001570702">
        <ele>15.039999999999999</ele>
        <time>2017-06-29T05:45:46Z</time>
      </trkpt>
      <trkpt lat="66.243462022393942" lon="13.952448964118958">
        <ele>14.56</ele>
        <time>2017-06-29T05:45:47Z</time>
      </trkpt>
      <trkpt lat="66.243258006870747" lon="13.952315021306276">
        <ele>14.08</ele>
        <time>2017-06-29T05:45:48Z</time>
      </trkpt>
      <trkpt lat="66.2430480401963" lon="13.952236985787749">
        <ele>12.630000000000001</ele>
        <time>2017-06-29T05:45:49Z</time>
      </trkpt>
      <trkpt lat="66.242832960560918" lon="13.952190969139338">
        <ele>11.19</ele>
        <time>2017-06-29T05:45:50Z</time>
      </trkpt>
      <trkpt lat="66.242199037224054" lon="13.951965998858213">
        <ele>8.310000000000001</ele>
        <time>2017-06-29T05:45:53Z</time>
      </trkpt>
      <trkpt lat="66.241995021700859" lon="13.951789978891611">
        <ele>7.83</ele>
        <time>2017-06-29T05:45:54Z</time>
      </trkpt>
      <trkpt lat="66.241793017834425" lon="13.951561991125345">
        <ele>6.39</ele>
        <time>2017-06-29T05:45:55Z</time>
      </trkpt>
      <trkpt lat="66.241606017574668" lon="13.951293015852571">
        <ele>7.35</ele>
        <time>2017-06-29T05:45:56Z</time>
      </trkpt>
      <trkpt lat="66.241426980122924" lon="13.950994033366442">
        <ele>7.83</ele>
        <time>2017-06-29T05:45:57Z</time>
      </trkpt>
      <trkpt lat="66.241253977641463" lon="13.95066998898983">
        <ele>8.789999999999999</ele>
        <time>2017-06-29T05:45:58Z</time>
      </trkpt>
      <trkpt lat="66.240426013246179" lon="13.949022023007274">
        <ele>13.6</ele>
        <time>2017-06-29T05:46:03Z</time>
      </trkpt>
      <trkpt lat="66.240286035463214" lon="13.948630001395941">
        <ele>14.56</ele>
        <time>2017-06-29T05:46:04Z</time>
      </trkpt>
      <trkpt lat="66.240156032145023" lon="13.948202021420002">
        <ele>15.039999999999999</ele>
        <time>2017-06-29T05:46:05Z</time>
      </trkpt>
      <trkpt lat="66.24004396609962" lon="13.947735987603664">
        <ele>16.48</ele>
        <time>2017-06-29T05:46:06Z</time>
      </trkpt>
      <trkpt lat="66.239940030500293" lon="13.947247993201017">
        <ele>16.960000000000001</ele>
        <time>2017-06-29T05:46:07Z</time>
      </trkpt>
      <trkpt lat="66.239844979718328" lon="13.946746001020074">
        <ele>18.399999999999999</ele>
        <time>2017-06-29T05:46:08Z</time>
      </trkpt>
      <trkpt lat="66.238808976486325" lon="13.942305017262697">
        <ele>20.809999999999999</ele>
        <time>2017-06-29T05:46:17Z</time>
      </trkpt>
      <trkpt lat="66.238716021180153" lon="13.941811993718147">
        <ele>18.879999999999999</ele>
        <time>2017-06-29T05:46:18Z</time>
      </trkpt>
      <trkpt lat="66.238651983439922" lon="13.94130296073854">
        <ele>19.359999999999999</ele>
        <time>2017-06-29T05:46:19Z</time>
      </trkpt>
      <trkpt lat="66.238615019246936" lon="13.940801974385977">
        <ele>20.32</ele>
        <time>2017-06-29T05:46:20Z</time>
      </trkpt>
      <trkpt lat="66.238600015640259" lon="13.940268969163299">
        <ele>22.25</ele>
        <time>2017-06-29T05:46:21Z</time>
      </trkpt>
      <trkpt lat="66.238601021468639" lon="13.939728001132607">
        <ele>23.210000000000001</ele>
        <time>2017-06-29T05:46:22Z</time>
      </trkpt>
      <trkpt lat="66.238617030903697" lon="13.93917596898973">
        <ele>24.170000000000002</ele>
        <time>2017-06-29T05:46:23Z</time>
      </trkpt>
      <trkpt lat="66.238489039242268" lon="13.935920018702745">
        <ele>21.289999999999999</ele>
        <time>2017-06-29T05:46:29Z</time>
      </trkpt>
      <trkpt lat="66.237968020141125" lon="13.93255895934999">
        <ele>20.809999999999999</ele>
        <time>2017-06-29T05:46:36Z</time>
      </trkpt>
      <trkpt lat="66.237838016822934" lon="13.932155035436153">
        <ele>20.32</ele>
        <time>2017-06-29T05:46:37Z</time>
      </trkpt>
      <trkpt lat="66.237693009898067" lon="13.931787991896272">
        <ele>19.84</ele>
        <time>2017-06-29T05:46:38Z</time>
      </trkpt>
      <trkpt lat="66.237534005194902" lon="13.931451039388776">
        <ele>19.359999999999999</ele>
        <time>2017-06-29T05:46:39Z</time>
      </trkpt>
      <trkpt lat="66.237366031855345" lon="13.931140992790461">
        <ele>18.399999999999999</ele>
        <time>2017-06-29T05:46:40Z</time>
      </trkpt>
      <trkpt lat="66.237182971090078" lon="13.930866988375783">
        <ele>17.440000000000001</ele>
        <time>2017-06-29T05:46:41Z</time>
      </trkpt>
      <trkpt lat="66.236988008022308" lon="13.930630031973124">
        <ele>16</ele>
        <time>2017-06-29T05:46:42Z</time>
      </trkpt>
      <trkpt lat="66.236790027469397" lon="13.930430961772799">
        <ele>15.52</ele>
        <time>2017-06-29T05:46:43Z</time>
      </trkpt>
      <trkpt lat="66.235990980640054" lon="13.929466037079692">
        <ele>13.6</ele>
        <time>2017-06-29T05:46:47Z</time>
      </trkpt>
      <trkpt lat="66.235814038664103" lon="13.929126989096403">
        <ele>13.6</ele>
        <time>2017-06-29T05:46:48Z</time>
      </trkpt>
      <trkpt lat="66.235657967627048" lon="13.928762041032314">
        <ele>13.6</ele>
        <time>2017-06-29T05:46:49Z</time>
      </trkpt>
      <trkpt lat="66.235521007329226" lon="13.928377982228994">
        <ele>14.08</ele>
        <time>2017-06-29T05:46:50Z</time>
      </trkpt>
      <trkpt lat="66.23540299013257" lon="13.927962994202971">
        <ele>15.039999999999999</ele>
        <time>2017-06-29T05:46:51Z</time>
      </trkpt>
      <trkpt lat="66.235299976542592" lon="13.927535014227033">
        <ele>15.52</ele>
        <time>2017-06-29T05:46:52Z</time>
      </trkpt>
      <trkpt lat="66.235213978216052" lon="13.927092030644417">
        <ele>16.48</ele>
        <time>2017-06-29T05:46:53Z</time>
      </trkpt>
      <trkpt lat="66.23514499515295" lon="13.926639994606376">
        <ele>17.920000000000002</ele>
        <time>2017-06-29T05:46:54Z</time>
      </trkpt>
      <trkpt lat="66.235093027353287" lon="13.926181001588702">
        <ele>18.879999999999999</ele>
        <time>2017-06-29T05:46:55Z</time>
      </trkpt>
      <trkpt lat="66.235052039846778" lon="13.925708010792732">
        <ele>19.359999999999999</ele>
        <time>2017-06-29T05:46:56Z</time>
      </trkpt>
      <trkpt lat="66.235026977956295" lon="13.925233008340001">
        <ele>20.809999999999999</ele>
        <time>2017-06-29T05:46:57Z</time>
      </trkpt>
      <trkpt lat="66.23501499183476" lon="13.924760017544031">
        <ele>21.77</ele>
        <time>2017-06-29T05:46:58Z</time>
      </trkpt>
      <trkpt lat="66.234701005741954" lon="13.920921022072434">
        <ele>28.02</ele>
        <time>2017-06-29T05:47:06Z</time>
      </trkpt>
      <trkpt lat="66.233935989439487" lon="13.918479960411787">
        <ele>32.340000000000003</ele>
        <time>2017-06-29T05:47:12Z</time>
      </trkpt>
      <trkpt lat="66.232982967048883" lon="13.915021000429988">
        <ele>36.670000000000002</ele>
        <time>2017-06-29T05:47:20Z</time>
      </trkpt>
      <trkpt lat="66.232665963470936" lon="13.911421978846192">
        <ele>37.149999999999999</ele>
        <time>2017-06-29T05:47:27Z</time>
      </trkpt>
      <trkpt lat="66.232913983985782" lon="13.907689014449716">
        <ele>34.259999999999998</ele>
        <time>2017-06-29T05:47:34Z</time>
      </trkpt>
      <trkpt lat="66.233378006145358" lon="13.902450995519757">
        <ele>23.210000000000001</ele>
        <time>2017-06-29T05:47:44Z</time>
      </trkpt>
      <trkpt lat="66.233297036960721" lon="13.898573024198413">
        <ele>13.6</ele>
        <time>2017-06-29T05:47:52Z</time>
      </trkpt>
      <trkpt lat="66.23323299922049" lon="13.896720036864281">
        <ele>9.75</ele>
        <time>2017-06-29T05:47:58Z</time>
      </trkpt>
      <trkpt lat="66.233194023370743" lon="13.896062979474664">
        <ele>7.35</ele>
        <time>2017-06-29T05:48:05Z</time>
      </trkpt>
      <trkpt lat="66.233176002278924" lon="13.895799033343792">
        <ele>7.35</ele>
        <time>2017-06-29T05:48:17Z</time>
      </trkpt>
      <trkpt lat="66.233047004789114" lon="13.894082000479102">
        <ele>6.39</ele>
        <time>2017-06-29T05:48:30Z</time>
      </trkpt>
      <trkpt lat="66.232666969299316" lon="13.891260987147689">
        <ele>5.91</ele>
        <time>2017-06-29T05:48:42Z</time>
      </trkpt>
      <trkpt lat="66.231822995468974" lon="13.887189980596304">
        <ele>3.98</ele>
        <time>2017-06-29T05:48:55Z</time>
      </trkpt>
      <trkpt lat="66.230997964739799" lon="13.882614970207214">
        <ele>1.58</ele>
        <time>2017-06-29T05:49:08Z</time>
      </trkpt>
      <trkpt lat="66.230710968375206" lon="13.877999978139997">
        <ele>5.42</ele>
        <time>2017-06-29T05:49:19Z</time>
      </trkpt>
      <trkpt lat="66.230062963441014" lon="13.873739959672093">
        <ele>3.02</ele>
        <time>2017-06-29T05:49:29Z</time>
      </trkpt>
      <trkpt lat="66.229196023195982" lon="13.867688979953527">
        <ele>6.87</ele>
        <time>2017-06-29T05:49:43Z</time>
      </trkpt>
      <trkpt lat="66.228399993851781" lon="13.860799977555871">
        <ele>15.039999999999999</ele>
        <time>2017-06-29T05:49:59Z</time>
      </trkpt>
      <trkpt lat="66.227571023628116" lon="13.858357993885875">
        <ele>18.399999999999999</ele>
        <time>2017-06-29T05:50:06Z</time>
      </trkpt>
      <trkpt lat="66.226433012634516" lon="13.856876995414495">
        <ele>20.32</ele>
        <time>2017-06-29T05:50:13Z</time>
      </trkpt>
      <trkpt lat="66.224996019154787" lon="13.856124971061945">
        <ele>20.809999999999999</ele>
        <time>2017-06-29T05:50:21Z</time>
      </trkpt>
      <trkpt lat="66.223807968199253" lon="13.854583958163857">
        <ele>21.77</ele>
        <time>2017-06-29T05:50:28Z</time>
      </trkpt>
      <trkpt lat="66.222135024145246" lon="13.851399002596736">
        <ele>19.84</ele>
        <time>2017-06-29T05:50:39Z</time>
      </trkpt>
      <trkpt lat="66.221375958994031" lon="13.847887990996242">
        <ele>16</ele>
        <time>2017-06-29T05:50:47Z</time>
      </trkpt>
      <trkpt lat="66.220585964620113" lon="13.843625960871577">
        <ele>9.75</ele>
        <time>2017-06-29T05:50:57Z</time>
      </trkpt>
      <trkpt lat="66.219533029943705" lon="13.84072900749743">
        <ele>9.27</ele>
        <time>2017-06-29T05:51:05Z</time>
      </trkpt>
      <trkpt lat="66.218462996184826" lon="13.837782014161348">
        <ele>12.630000000000001</ele>
        <time>2017-06-29T05:51:14Z</time>
      </trkpt>
      <trkpt lat="66.217729998752475" lon="13.83529401384294">
        <ele>12.15</ele>
        <time>2017-06-29T05:51:21Z</time>
      </trkpt>
      <trkpt lat="66.216977974399924" lon="13.832031022757292">
        <ele>12.15</ele>
        <time>2017-06-29T05:51:27Z</time>
      </trkpt>
      <trkpt lat="66.215715995058417" lon="13.826828962191939">
        <ele>17.920000000000002</ele>
        <time>2017-06-29T05:51:36Z</time>
      </trkpt>
      <trkpt lat="66.214339016005397" lon="13.821337977424264">
        <ele>24.170000000000002</ele>
        <time>2017-06-29T05:51:47Z</time>
      </trkpt>
      <trkpt lat="66.213356992229819" lon="13.81600197404623">
        <ele>20.809999999999999</ele>
        <time>2017-06-29T05:51:57Z</time>
      </trkpt>
      <trkpt lat="66.212782999500632" lon="13.813497964292765">
        <ele>19.84</ele>
        <time>2017-06-29T05:52:02Z</time>
      </trkpt>
      <trkpt lat="66.21262701228261" lon="13.813095968216658">
        <ele>19.84</ele>
        <time>2017-06-29T05:52:03Z</time>
      </trkpt>
      <trkpt lat="66.212459038943052" lon="13.812720961868763">
        <ele>20.809999999999999</ele>
        <time>2017-06-29T05:52:04Z</time>
      </trkpt>
      <trkpt lat="66.212278995662928" lon="13.812376968562603">
        <ele>21.289999999999999</ele>
        <time>2017-06-29T05:52:05Z</time>
      </trkpt>
      <trkpt lat="66.212087972089648" lon="13.812062982469797">
        <ele>21.77</ele>
        <time>2017-06-29T05:52:06Z</time>
      </trkpt>
      <trkpt lat="66.211887979879975" lon="13.811772968620062">
        <ele>22.25</ele>
        <time>2017-06-29T05:52:07Z</time>
      </trkpt>
      <trkpt lat="66.210518041625619" lon="13.809645976871252">
        <ele>23.690000000000001</ele>
        <time>2017-06-29T05:52:14Z</time>
      </trkpt>
      <trkpt lat="66.210366999730468" lon="13.809217996895313">
        <ele>24.649999999999999</ele>
        <time>2017-06-29T05:52:15Z</time>
      </trkpt>
      <trkpt lat="66.209031008183956" lon="13.804563023149967">
        <ele>37.149999999999999</ele>
        <time>2017-06-29T05:52:25Z</time>
      </trkpt>
      <trkpt lat="66.20800900273025" lon="13.802365036681294">
        <ele>44.359999999999999</ele>
        <time>2017-06-29T05:52:31Z</time>
      </trkpt>
      <trkpt lat="66.206930000334978" lon="13.799516027793288">
        <ele>51.090000000000003</ele>
        <time>2017-06-29T05:52:38Z</time>
      </trkpt>
      <trkpt lat="66.206146040931344" lon="13.796004010364413">
        <ele>56.859999999999999</ele>
        <time>2017-06-29T05:52:45Z</time>
      </trkpt>
      <trkpt lat="66.205474985763431" lon="13.793611982837319">
        <ele>61.659999999999997</ele>
        <time>2017-06-29T05:52:50Z</time>
      </trkpt>
      <trkpt lat="66.205299971625209" lon="13.793233959004283">
        <ele>62.140000000000001</ele>
        <time>2017-06-29T05:52:51Z</time>
      </trkpt>
      <trkpt lat="66.205110959708691" lon="13.792890971526504">
        <ele>63.100000000000001</ele>
        <time>2017-06-29T05:52:52Z</time>
      </trkpt>
      <trkpt lat="66.204910967499018" lon="13.792585032060742">
        <ele>63.100000000000001</ele>
        <time>2017-06-29T05:52:53Z</time>
      </trkpt>
      <trkpt lat="66.204703012481332" lon="13.792315972968936">
        <ele>63.579999999999998</ele>
        <time>2017-06-29T05:52:54Z</time>
      </trkpt>
      <trkpt lat="66.204489022493362" lon="13.792091002687812">
        <ele>64.069999999999993</ele>
        <time>2017-06-29T05:52:55Z</time>
      </trkpt>
      <trkpt lat="66.204262962564826" lon="13.791909031569958">
        <ele>64.069999999999993</ele>
        <time>2017-06-29T05:52:56Z</time>
      </trkpt>
      <trkpt lat="66.204028017818928" lon="13.791778022423387">
        <ele>64.069999999999993</ele>
        <time>2017-06-29T05:52:57Z</time>
      </trkpt>
      <trkpt lat="66.203789971768856" lon="13.791697975248098">
        <ele>63.579999999999998</ele>
        <time>2017-06-29T05:52:58Z</time>
      </trkpt>
      <trkpt lat="66.203544968739152" lon="13.791674003005028">
        <ele>63.100000000000001</ele>
        <time>2017-06-29T05:52:59Z</time>
      </trkpt>
      <trkpt lat="66.203298037871718" lon="13.791689006611705">
        <ele>62.140000000000001</ele>
        <time>2017-06-29T05:53:00Z</time>
      </trkpt>
      <trkpt lat="66.203050017356873" lon="13.791753966361284">
        <ele>61.18</ele>
        <time>2017-06-29T05:53:01Z</time>
      </trkpt>
      <trkpt lat="66.202806020155549" lon="13.791851028800011">
        <ele>60.700000000000003</ele>
        <time>2017-06-29T05:53:02Z</time>
      </trkpt>
      <trkpt lat="66.202571997419" lon="13.791964016854763">
        <ele>60.219999999999999</ele>
        <time>2017-06-29T05:53:03Z</time>
      </trkpt>
      <trkpt lat="66.200880026444793" lon="13.792888037860394">
        <ele>55.409999999999997</ele>
        <time>2017-06-29T05:53:11Z</time>
      </trkpt>
      <trkpt lat="66.190484035760164" lon="13.798861987888813">
        <ele>47.240000000000002</ele>
        <time>2017-06-29T05:54:00Z</time>
      </trkpt>
      <trkpt lat="66.179394023492932" lon="13.798391008749604">
        <ele>3.02</ele>
        <time>2017-06-29T05:54:53Z</time>
      </trkpt>
      <trkpt lat="66.178255006670952" lon="13.799871001392603">
        <ele>0.14</ele>
        <time>2017-06-29T05:55:00Z</time>
      </trkpt>
      <trkpt lat="66.177386976778507" lon="13.802536027505994">
        <ele>-0.34</ele>
        <time>2017-06-29T05:55:07Z</time>
      </trkpt>
      <trkpt lat="66.17638198658824" lon="13.807241041213274">
        <ele>-2.75</ele>
        <time>2017-06-29T05:55:18Z</time>
      </trkpt>
      <trkpt lat="66.17560800164938" lon="13.811858966946602">
        <ele>-3.23</ele>
        <time>2017-06-29T05:55:29Z</time>
      </trkpt>
      <trkpt lat="66.174697978422046" lon="13.815063033252954">
        <ele>-0.34</ele>
        <time>2017-06-29T05:55:37Z</time>
      </trkpt>
      <trkpt lat="66.173674967139959" lon="13.818585025146604">
        <ele>2.54</ele>
        <time>2017-06-29T05:55:46Z</time>
      </trkpt>
      <trkpt lat="66.172958984971046" lon="13.821590021252632">
        <ele>0.62</ele>
        <time>2017-06-29T05:55:54Z</time>
      </trkpt>
      <trkpt lat="66.172025995329022" lon="13.82334602996707">
        <ele>0.14</ele>
        <time>2017-06-29T05:56:00Z</time>
      </trkpt>
      <trkpt lat="66.170598976314068" lon="13.824942028149962">
        <ele>2.06</ele>
        <time>2017-06-29T05:56:08Z</time>
      </trkpt>
      <trkpt lat="66.169632961973548" lon="13.827412007376552">
        <ele>0.62</ele>
        <time>2017-06-29T05:56:15Z</time>
      </trkpt>
      <trkpt lat="66.168662002310157" lon="13.829747037962079">
        <ele>-0.82</ele>
        <time>2017-06-29T05:56:22Z</time>
      </trkpt>
      <trkpt lat="66.167383007705212" lon="13.832015013322234">
        <ele>-2.75</ele>
        <time>2017-06-29T05:56:30Z</time>
      </trkpt>
      <trkpt lat="66.167044965550303" lon="13.833150006830692">
        <ele>-2.75</ele>
        <time>2017-06-29T05:56:33Z</time>
      </trkpt>
      <trkpt lat="66.166324960067868" lon="13.836495978757739">
        <ele>-0.34</ele>
        <time>2017-06-29T05:56:41Z</time>
      </trkpt>
      <trkpt lat="66.166024971753359" lon="13.840035991743207">
        <ele>6.39</ele>
        <time>2017-06-29T05:56:49Z</time>
      </trkpt>
      <trkpt lat="66.165042025968432" lon="13.842809982597828">
        <ele>8.310000000000001</ele>
        <time>2017-06-29T05:56:57Z</time>
      </trkpt>
      <trkpt lat="66.163746016100049" lon="13.844379996880889">
        <ele>4.46</ele>
        <time>2017-06-29T05:57:04Z</time>
      </trkpt>
      <trkpt lat="66.162490993738174" lon="13.844663975760341">
        <ele>2.06</ele>
        <time>2017-06-29T05:57:10Z</time>
      </trkpt>
      <trkpt lat="66.161089958623052" lon="13.843882028013468">
        <ele>1.58</ele>
        <time>2017-06-29T05:57:17Z</time>
      </trkpt>
      <trkpt lat="66.158687034621835" lon="13.841455969959497">
        <ele>4.94</ele>
        <time>2017-06-29T05:57:30Z</time>
      </trkpt>
      <trkpt lat="66.156429033726454" lon="13.839129991829395">
        <ele>-0.82</ele>
        <time>2017-06-29T05:57:42Z</time>
      </trkpt>
      <trkpt lat="66.153991995379329" lon="13.836649032309651">
        <ele>-0.82</ele>
        <time>2017-06-29T05:57:55Z</time>
      </trkpt>
      <trkpt lat="66.15081399679184" lon="13.833486037328839">
        <ele>0.62</ele>
        <time>2017-06-29T05:58:12Z</time>
      </trkpt>
      <trkpt lat="66.147058987990022" lon="13.829977959394455">
        <ele>2.54</ele>
        <time>2017-06-29T05:58:32Z</time>
      </trkpt>
      <trkpt lat="66.145639009773731" lon="13.829916017130017">
        <ele>3.98</ele>
        <time>2017-06-29T05:58:39Z</time>
      </trkpt>
      <trkpt lat="66.143844025209546" lon="13.831131979823112">
        <ele>2.06</ele>
        <time>2017-06-29T05:58:48Z</time>
      </trkpt>
      <trkpt lat="66.141734970733523" lon="13.832289017736912">
        <ele>0.62</ele>
        <time>2017-06-29T05:58:58Z</time>
      </trkpt>
      <trkpt lat="66.14045899361372" lon="13.831546967849135">
        <ele>2.54</ele>
        <time>2017-06-29T05:59:04Z</time>
      </trkpt>
      <trkpt lat="66.138834999874234" lon="13.829704960808158">
        <ele>2.54</ele>
        <time>2017-06-29T05:59:13Z</time>
      </trkpt>
      <trkpt lat="66.137269008904696" lon="13.827286027371883">
        <ele>1.1</ele>
        <time>2017-06-29T05:59:22Z</time>
      </trkpt>
      <trkpt lat="66.136397961527109" lon="13.824619995430112">
        <ele>2.06</ele>
        <time>2017-06-29T05:59:29Z</time>
      </trkpt>
      <trkpt lat="66.135200019925833" lon="13.82143503986299">
        <ele>3.02</ele>
        <time>2017-06-29T05:59:38Z</time>
      </trkpt>
      <trkpt lat="66.133940974250436" lon="13.819886986166239">
        <ele>4.94</ele>
        <time>2017-06-29T05:59:45Z</time>
      </trkpt>
      <trkpt lat="66.132370037958026" lon="13.819240992888808">
        <ele>7.35</ele>
        <time>2017-06-29T05:59:52Z</time>
      </trkpt>
      <trkpt lat="66.130398027598858" lon="13.818532973527908">
        <ele>13.6</ele>
        <time>2017-06-29T05:59:59Z</time>
      </trkpt>
      <trkpt lat="66.127365035936236" lon="13.817395968362689">
        <ele>18.879999999999999</ele>
        <time>2017-06-29T06:00:11Z</time>
      </trkpt>
      <trkpt lat="66.12415200099349" lon="13.816101970151067">
        <ele>29.460000000000001</ele>
        <time>2017-06-29T06:00:26Z</time>
      </trkpt>
      <trkpt lat="66.122659016400576" lon="13.814719039946795">
        <ele>34.259999999999998</ele>
        <time>2017-06-29T06:00:34Z</time>
      </trkpt>
      <trkpt lat="66.120715001598001" lon="13.811968015506864">
        <ele>39.549999999999997</ele>
        <time>2017-06-29T06:00:45Z</time>
      </trkpt>
      <trkpt lat="66.119528040289879" lon="13.81155202165246">
        <ele>39.07</ele>
        <time>2017-06-29T06:00:51Z</time>
      </trkpt>
      <trkpt lat="66.117778988555074" lon="13.81080100312829">
        <ele>26.57</ele>
        <time>2017-06-29T06:01:00Z</time>
      </trkpt>
      <trkpt lat="66.116551039740443" lon="13.808880960568786">
        <ele>15.52</ele>
        <time>2017-06-29T06:01:07Z</time>
      </trkpt>
      <trkpt lat="66.116027003154159" lon="13.807994993403554">
        <ele>10.710000000000001</ele>
        <time>2017-06-29T06:01:10Z</time>
      </trkpt>
      <trkpt lat="66.11583698540926" lon="13.807777985930443">
        <ele>9.75</ele>
        <time>2017-06-29T06:01:11Z</time>
      </trkpt>
      <trkpt lat="66.115641016513109" lon="13.80760096013546">
        <ele>8.310000000000001</ele>
        <time>2017-06-29T06:01:12Z</time>
      </trkpt>
      <trkpt lat="66.115440018475056" lon="13.807467017322779">
        <ele>7.35</ele>
        <time>2017-06-29T06:01:13Z</time>
      </trkpt>
      <trkpt lat="66.11523600295186" lon="13.807370960712433">
        <ele>6.39</ele>
        <time>2017-06-29T06:01:14Z</time>
      </trkpt>
      <trkpt lat="66.115026958286762" lon="13.807312035933137">
        <ele>5.42</ele>
        <time>2017-06-29T06:01:15Z</time>
      </trkpt>
      <trkpt lat="66.114814979955554" lon="13.807282028719783">
        <ele>4.94</ele>
        <time>2017-06-29T06:01:16Z</time>
      </trkpt>
      <trkpt lat="66.112040989100933" lon="13.807571958750486">
        <ele>2.06</ele>
        <time>2017-06-29T06:01:29Z</time>
      </trkpt>
      <trkpt lat="66.109960014000535" lon="13.808127008378506">
        <ele>6.87</ele>
        <time>2017-06-29T06:01:39Z</time>
      </trkpt>
      <trkpt lat="66.109775025397539" lon="13.808323983103037">
        <ele>8.310000000000001</ele>
        <time>2017-06-29T06:01:40Z</time>
      </trkpt>
      <trkpt lat="66.109600011259317" lon="13.80856697447598">
        <ele>9.75</ele>
        <time>2017-06-29T06:01:41Z</time>
      </trkpt>
      <trkpt lat="66.109433965757489" lon="13.808854976668954">
        <ele>10.710000000000001</ele>
        <time>2017-06-29T06:01:42Z</time>
      </trkpt>
      <trkpt lat="66.109273033216596" lon="13.809171980246902">
        <ele>12.15</ele>
        <time>2017-06-29T06:01:43Z</time>
      </trkpt>
      <trkpt lat="66.109116040170193" lon="13.80949099548161">
        <ele>13.6</ele>
        <time>2017-06-29T06:01:44Z</time>
      </trkpt>
      <trkpt lat="66.108783027157187" lon="13.810062976554036">
        <ele>16.48</ele>
        <time>2017-06-29T06:01:46Z</time>
      </trkpt>
      <trkpt lat="66.108603989705443" lon="13.810289036482573">
        <ele>17.440000000000001</ele>
        <time>2017-06-29T06:01:47Z</time>
      </trkpt>
      <trkpt lat="66.108413971960545" lon="13.810468995943666">
        <ele>18.879999999999999</ele>
        <time>2017-06-29T06:01:48Z</time>
      </trkpt>
      <trkpt lat="66.108213979750872" lon="13.810591036453843">
        <ele>20.32</ele>
        <time>2017-06-29T06:01:49Z</time>
      </trkpt>
      <trkpt lat="66.108010970056057" lon="13.810662031173706">
        <ele>22.25</ele>
        <time>2017-06-29T06:01:50Z</time>
      </trkpt>
      <trkpt lat="66.107805026695132" lon="13.810673011466861">
        <ele>24.170000000000002</ele>
        <time>2017-06-29T06:01:51Z</time>
      </trkpt>
      <trkpt lat="66.107598999515176" lon="13.810618026182055">
        <ele>26.09</ele>
        <time>2017-06-29T06:01:52Z</time>
      </trkpt>
      <trkpt lat="66.107395989820361" lon="13.810518030077219">
        <ele>28.02</ele>
        <time>2017-06-29T06:01:53Z</time>
      </trkpt>
      <trkpt lat="66.107195997610688" lon="13.810362964868546">
        <ele>29.460000000000001</ele>
        <time>2017-06-29T06:01:54Z</time>
      </trkpt>
      <trkpt lat="66.107001034542918" lon="13.810164984315634">
        <ele>30.899999999999999</ele>
        <time>2017-06-29T06:01:55Z</time>
      </trkpt>
      <trkpt lat="66.106815962120891" lon="13.809931967407465">
        <ele>31.859999999999999</ele>
        <time>2017-06-29T06:01:56Z</time>
      </trkpt>
      <trkpt lat="66.106632985174656" lon="13.809672966599464">
        <ele>32.340000000000003</ele>
        <time>2017-06-29T06:01:57Z</time>
      </trkpt>
      <trkpt lat="66.104802964255214" lon="13.80719200707972">
        <ele>36.670000000000002</ele>
        <time>2017-06-29T06:02:07Z</time>
      </trkpt>
      <trkpt lat="66.103379968553782" lon="13.806858994066715">
        <ele>43.399999999999999</ele>
        <time>2017-06-29T06:02:14Z</time>
      </trkpt>
      <trkpt lat="66.101993015035987" lon="13.80794302560389">
        <ele>43.399999999999999</ele>
        <time>2017-06-29T06:02:21Z</time>
      </trkpt>
      <trkpt lat="66.099648009985685" lon="13.811329985037446">
        <ele>45.799999999999997</ele>
        <time>2017-06-29T06:02:34Z</time>
      </trkpt>
      <trkpt lat="66.097258999943733" lon="13.81440999917686">
        <ele>46.759999999999998</ele>
        <time>2017-06-29T06:02:46Z</time>
      </trkpt>
      <trkpt lat="66.094895973801613" lon="13.815582962706685">
        <ele>37.630000000000003</ele>
        <time>2017-06-29T06:02:57Z</time>
      </trkpt>
      <trkpt lat="66.093068970367312" lon="13.816484017297626">
        <ele>24.649999999999999</ele>
        <time>2017-06-29T06:03:06Z</time>
      </trkpt>
      <trkpt lat="66.091373981907964" lon="13.815736016258597">
        <ele>18.879999999999999</ele>
        <time>2017-06-29T06:03:14Z</time>
      </trkpt>
      <trkpt lat="66.09014100395143" lon="13.815912958234549">
        <ele>17.440000000000001</ele>
        <time>2017-06-29T06:03:20Z</time>
      </trkpt>
      <trkpt lat="66.089071976020932" lon="13.817328996956348">
        <ele>11.67</ele>
        <time>2017-06-29T06:03:26Z</time>
      </trkpt>
      <trkpt lat="66.087458040565252" lon="13.819426987320185">
        <ele>3.02</ele>
        <time>2017-06-29T06:03:35Z</time>
      </trkpt>
      <trkpt lat="66.086068991571665" lon="13.820396019145846">
        <ele>3.98</ele>
        <time>2017-06-29T06:03:42Z</time>
      </trkpt>
      <trkpt lat="66.085892971605062" lon="13.820657031610608">
        <ele>3.98</ele>
        <time>2017-06-29T06:03:43Z</time>
      </trkpt>
      <trkpt lat="66.085731033235788" lon="13.820957019925117">
        <ele>3.98</ele>
        <time>2017-06-29T06:03:44Z</time>
      </trkpt>
      <trkpt lat="66.08558502048254" lon="13.821294978260994">
        <ele>4.46</ele>
        <time>2017-06-29T06:03:45Z</time>
      </trkpt>
      <trkpt lat="66.085449988022447" lon="13.821654981002212">
        <ele>4.46</ele>
        <time>2017-06-29T06:03:46Z</time>
      </trkpt>
      <trkpt lat="66.085329037159681" lon="13.822049014270306">
        <ele>4.46</ele>
        <time>2017-06-29T06:03:47Z</time>
      </trkpt>
      <trkpt lat="66.085223006084561" lon="13.82246601395309">
        <ele>3.98</ele>
        <time>2017-06-29T06:03:48Z</time>
      </trkpt>
      <trkpt lat="66.085132984444499" lon="13.822902040556073">
        <ele>3.98</ele>
        <time>2017-06-29T06:03:49Z</time>
      </trkpt>
      <trkpt lat="66.085058972239494" lon="13.82334896363318">
        <ele>3.5</ele>
        <time>2017-06-29T06:03:50Z</time>
      </trkpt>
      <trkpt lat="66.085000969469547" lon="13.823816003277898">
        <ele>3.5</ele>
        <time>2017-06-29T06:03:51Z</time>
      </trkpt>
      <trkpt lat="66.084965011104941" lon="13.82429301738739">
        <ele>3.02</ele>
        <time>2017-06-29T06:03:52Z</time>
      </trkpt>
      <trkpt lat="66.084943972527981" lon="13.824780005961657">
        <ele>2.54</ele>
        <time>2017-06-29T06:03:53Z</time>
      </trkpt>
      <trkpt lat="66.084933998063207" lon="13.825277974829078">
        <ele>2.54</ele>
        <time>2017-06-29T06:03:54Z</time>
      </trkpt>
      <trkpt lat="66.084841964766383" lon="13.827725993469357">
        <ele>1.1</ele>
        <time>2017-06-29T06:03:59Z</time>
      </trkpt>
      <trkpt lat="66.084786979481578" lon="13.828169982880354">
        <ele>1.1</ele>
        <time>2017-06-29T06:04:00Z</time>
      </trkpt>
      <trkpt lat="66.084712967276573" lon="13.828586982563138">
        <ele>0.62</ele>
        <time>2017-06-29T06:04:01Z</time>
      </trkpt>
      <trkpt lat="66.084620011970401" lon="13.828972969204187">
        <ele>0.62</ele>
        <time>2017-06-29T06:04:02Z</time>
      </trkpt>
      <trkpt lat="66.084507023915648" lon="13.829317968338728">
        <ele>1.1</ele>
        <time>2017-06-29T06:04:03Z</time>
      </trkpt>
      <trkpt lat="66.084372997283936" lon="13.82962197996676">
        <ele>1.58</ele>
        <time>2017-06-29T06:04:04Z</time>
      </trkpt>
      <trkpt lat="66.084222039207816" lon="13.829883998259902">
        <ele>1.58</ele>
        <time>2017-06-29T06:04:05Z</time>
      </trkpt>
      <trkpt lat="66.084061022847891" lon="13.830078961327672">
        <ele>2.06</ele>
        <time>2017-06-29T06:04:06Z</time>
      </trkpt>
      <trkpt lat="66.083891037851572" lon="13.830208964645863">
        <ele>2.06</ele>
        <time>2017-06-29T06:04:07Z</time>
      </trkpt>
      <trkpt lat="66.083719041198492" lon="13.830283982679248">
        <ele>2.54</ele>
        <time>2017-06-29T06:04:08Z</time>
      </trkpt>
      <trkpt lat="66.08354696072638" lon="13.830297980457544">
        <ele>3.02</ele>
        <time>2017-06-29T06:04:09Z</time>
      </trkpt>
      <trkpt lat="66.083376975730062" lon="13.830259004607797">
        <ele>3.5</ele>
        <time>2017-06-29T06:04:10Z</time>
      </trkpt>
      <trkpt lat="66.083215037360787" lon="13.830175017938018">
        <ele>3.98</ele>
        <time>2017-06-29T06:04:11Z</time>
      </trkpt>
      <trkpt lat="66.083060977980494" lon="13.830050965771079">
        <ele>4.46</ele>
        <time>2017-06-29T06:04:12Z</time>
      </trkpt>
      <trkpt lat="66.082914965227246" lon="13.829903025180101">
        <ele>4.94</ele>
        <time>2017-06-29T06:04:13Z</time>
      </trkpt>
      <trkpt lat="66.082778004929423" lon="13.829732034355402">
        <ele>4.94</ele>
        <time>2017-06-29T06:04:14Z</time>
      </trkpt>
      <trkpt lat="66.082652024924755" lon="13.82953598164022">
        <ele>4.94</ele>
        <time>2017-06-29T06:04:15Z</time>
      </trkpt>
      <trkpt lat="66.082537025213242" lon="13.829330960288644">
        <ele>5.42</ele>
        <time>2017-06-29T06:04:16Z</time>
      </trkpt>
      <trkpt lat="66.082429988309741" lon="13.829114958643913">
        <ele>5.42</ele>
        <time>2017-06-29T06:04:17Z</time>
      </trkpt>
      <trkpt lat="66.082326974719763" lon="13.828882025554776">
        <ele>5.91</ele>
        <time>2017-06-29T06:04:18Z</time>
      </trkpt>
      <trkpt lat="66.081559024751186" lon="13.82629101164639">
        <ele>5.42</ele>
        <time>2017-06-29T06:04:27Z</time>
      </trkpt>
      <trkpt lat="66.080523021519184" lon="13.822778994217515">
        <ele>4.46</ele>
        <time>2017-06-29T06:04:38Z</time>
      </trkpt>
      <trkpt lat="66.079450976103544" lon="13.82128500379622">
        <ele>3.5</ele>
        <time>2017-06-29T06:04:45Z</time>
      </trkpt>
      <trkpt lat="66.077692033722997" lon="13.820424014702439">
        <ele>5.42</ele>
        <time>2017-06-29T06:04:55Z</time>
      </trkpt>
      <trkpt lat="66.076806988567114" lon="13.819177038967609">
        <ele>12.15</ele>
        <time>2017-06-29T06:05:01Z</time>
      </trkpt>
      <trkpt lat="66.076694000512362" lon="13.818876966834068">
        <ele>12.630000000000001</ele>
        <time>2017-06-29T06:05:02Z</time>
      </trkpt>
      <trkpt lat="66.076507000252604" lon="13.81825502961874">
        <ele>14.08</ele>
        <time>2017-06-29T06:05:04Z</time>
      </trkpt>
      <trkpt lat="66.07587500475347" lon="13.815970961004496">
        <ele>22.73</ele>
        <time>2017-06-29T06:05:11Z</time>
      </trkpt>
      <trkpt lat="66.075747013092041" lon="13.815680025145411">
        <ele>23.690000000000001</ele>
        <time>2017-06-29T06:05:12Z</time>
      </trkpt>
      <trkpt lat="66.075607035309076" lon="13.815397974103689">
        <ele>25.129999999999999</ele>
        <time>2017-06-29T06:05:13Z</time>
      </trkpt>
      <trkpt lat="66.074630040675402" lon="13.81303402595222">
        <ele>32.340000000000003</ele>
        <time>2017-06-29T06:05:20Z</time>
      </trkpt>
      <trkpt lat="66.07407096773386" lon="13.809729963541031">
        <ele>35.229999999999997</ele>
        <time>2017-06-29T06:05:27Z</time>
      </trkpt>
      <trkpt lat="66.073479037731886" lon="13.805653005838394">
        <ele>38.590000000000003</ele>
        <time>2017-06-29T06:05:36Z</time>
      </trkpt>
      <trkpt lat="66.073308968916535" lon="13.804310979321599">
        <ele>39.07</ele>
        <time>2017-06-29T06:05:39Z</time>
      </trkpt>
      <trkpt lat="66.073291031643748" lon="13.803901020437479">
        <ele>39.07</ele>
        <time>2017-06-29T06:05:40Z</time>
      </trkpt>
      <trkpt lat="66.047178972512484" lon="13.6262640170753">
        <ele>180.87</ele>
        <time>2017-06-29T06:10:53Z</time>
      </trkpt>
      <trkpt lat="66.046858029440045" lon="13.623337978497148">
        <ele>201.53</ele>
        <time>2017-06-29T06:10:59Z</time>
      </trkpt>
      <trkpt lat="66.047074031084776" lon="13.62029199488461">
        <ele>206.34</ele>
        <time>2017-06-29T06:11:05Z</time>
      </trkpt>
      <trkpt lat="66.047909036278725" lon="13.616190981119871">
        <ele>202.49000000000001</ele>
        <time>2017-06-29T06:11:14Z</time>
      </trkpt>
      <trkpt lat="66.048404993489385" lon="13.61195501871407">
        <ele>197.21000000000001</ele>
        <time>2017-06-29T06:11:23Z</time>
      </trkpt>
      <trkpt lat="66.048427959904075" lon="13.607788039371371">
        <ele>194.80000000000001</ele>
        <time>2017-06-29T06:11:31Z</time>
      </trkpt>
      <trkpt lat="66.048461990430951" lon="13.601054018363357">
        <ele>187.11000000000001</ele>
        <time>2017-06-29T06:11:44Z</time>
      </trkpt>
      <trkpt lat="66.048600962385535" lon="13.600028995424509">
        <ele>185.66999999999999</ele>
        <time>2017-06-29T06:11:46Z</time>
      </trkpt>
      <trkpt lat="66.048691989853978" lon="13.599507976323366">
        <ele>184.71000000000001</ele>
        <time>2017-06-29T06:11:47Z</time>
      </trkpt>
      <trkpt lat="66.04880397208035" lon="13.599029034376144">
        <ele>183.75</ele>
        <time>2017-06-29T06:11:48Z</time>
      </trkpt>
      <trkpt lat="66.048956019803882" lon="13.598565012216568">
        <ele>181.83000000000001</ele>
        <time>2017-06-29T06:11:49Z</time>
      </trkpt>
      <trkpt lat="66.049094991758466" lon="13.598086992278695">
        <ele>179.90000000000001</ele>
        <time>2017-06-29T06:11:50Z</time>
      </trkpt>
      <trkpt lat="66.049244021996856" lon="13.597630010917783">
        <ele>178.46000000000001</ele>
        <time>2017-06-29T06:11:51Z</time>
      </trkpt>
      <trkpt lat="66.049396991729736" lon="13.597199013456702">
        <ele>177.5</ele>
        <time>2017-06-29T06:11:52Z</time>
      </trkpt>
      <trkpt lat="66.049562031403184" lon="13.596789976581931">
        <ele>176.06</ele>
        <time>2017-06-29T06:11:53Z</time>
      </trkpt>
      <trkpt lat="66.05045503936708" lon="13.594999015331268">
        <ele>172.69</ele>
        <time>2017-06-29T06:11:58Z</time>
      </trkpt>
      <trkpt lat="66.05060800909996" lon="13.594576986506581">
        <ele>171.72999999999999</ele>
        <time>2017-06-29T06:11:59Z</time>
      </trkpt>
      <trkpt lat="66.050747986882925" lon="13.594131991267204">
        <ele>170.28999999999999</ele>
        <time>2017-06-29T06:12:00Z</time>
      </trkpt>
      <trkpt lat="66.050874972715974" lon="13.593667969107628">
        <ele>169.33000000000001</ele>
        <time>2017-06-29T06:12:01Z</time>
      </trkpt>
      <trkpt lat="66.050989972427487" lon="13.593182992190123">
        <ele>168.37</ele>
        <time>2017-06-29T06:12:02Z</time>
      </trkpt>
      <trkpt lat="66.051088040694594" lon="13.592673959210515">
        <ele>167.41</ele>
        <time>2017-06-29T06:12:03Z</time>
      </trkpt>
      <trkpt lat="66.051163980737329" lon="13.592155035585165">
        <ele>166.44999999999999</ele>
        <time>2017-06-29T06:12:04Z</time>
      </trkpt>
      <trkpt lat="66.051223995164037" lon="13.591622030362487">
        <ele>165.47999999999999</ele>
        <time>2017-06-29T06:12:05Z</time>
      </trkpt>
      <trkpt lat="66.051706960424781" lon="13.587509030476213">
        <ele>157.31</ele>
        <time>2017-06-29T06:12:13Z</time>
      </trkpt>
      <trkpt lat="66.052689990028739" lon="13.583254041150212">
        <ele>150.58000000000001</ele>
        <time>2017-06-29T06:12:22Z</time>
      </trkpt>
      <trkpt lat="66.054215999320149" lon="13.579416973516345">
        <ele>143.84999999999999</ele>
        <time>2017-06-29T06:12:32Z</time>
      </trkpt>
      <trkpt lat="66.056616995483637" lon="13.573696995154023">
        <ele>140.00999999999999</ele>
        <time>2017-06-29T06:12:48Z</time>
      </trkpt>
      <trkpt lat="66.057230969890952" lon="13.571040015667677">
        <ele>141.93000000000001</ele>
        <time>2017-06-29T06:12:54Z</time>
      </trkpt>
      <trkpt lat="66.057366002351046" lon="13.5679080337286">
        <ele>145.30000000000001</ele>
        <time>2017-06-29T06:13:00Z</time>
      </trkpt>
      <trkpt lat="66.056961994618177" lon="13.564183032140136">
        <ele>152.99000000000001</ele>
        <time>2017-06-29T06:13:07Z</time>
      </trkpt>
      <trkpt lat="66.05576204136014" lon="13.556850962340832">
        <ele>166.93000000000001</ele>
        <time>2017-06-29T06:13:21Z</time>
      </trkpt>
      <trkpt lat="66.054696030914783" lon="13.5546750202775">
        <ele>169.81</ele>
        <time>2017-06-29T06:13:27Z</time>
      </trkpt>
      <trkpt lat="66.053172033280134" lon="13.552306964993477">
        <ele>169.81</ele>
        <time>2017-06-29T06:13:35Z</time>
      </trkpt>
      <trkpt lat="66.052216999232769" lon="13.549315966665745">
        <ele>168.37</ele>
        <time>2017-06-29T06:13:42Z</time>
      </trkpt>
      <trkpt lat="66.05142499320209" lon="13.547414029017091">
        <ele>166.44999999999999</ele>
        <time>2017-06-29T06:13:48Z</time>
      </trkpt>
      <trkpt lat="66.051277974620461" lon="13.547225017100573">
        <ele>165.47999999999999</ele>
        <time>2017-06-29T06:13:49Z</time>
      </trkpt>
      <trkpt lat="66.051119975745678" lon="13.54706802405417">
        <ele>164.52000000000001</ele>
        <time>2017-06-29T06:13:50Z</time>
      </trkpt>
      <trkpt lat="66.050957031548023" lon="13.546933997422457">
        <ele>163.56</ele>
        <time>2017-06-29T06:13:51Z</time>
      </trkpt>
      <trkpt lat="66.050790986046195" lon="13.546820003539324">
        <ele>162.59999999999999</ele>
        <time>2017-06-29T06:13:52Z</time>
      </trkpt>
      <trkpt lat="66.050169970840216" lon="13.546456983312964">
        <ele>161.63999999999999</ele>
        <time>2017-06-29T06:13:56Z</time>
      </trkpt>
      <trkpt lat="66.050038039684296" lon="13.546294961124659">
        <ele>160.19999999999999</ele>
        <time>2017-06-29T06:13:57Z</time>
      </trkpt>
      <trkpt lat="66.049914993345737" lon="13.546098992228508">
        <ele>159.72</ele>
        <time>2017-06-29T06:13:58Z</time>
      </trkpt>
      <trkpt lat="66.049800999462605" lon="13.545856000855565">
        <ele>158.75</ele>
        <time>2017-06-29T06:13:59Z</time>
      </trkpt>
      <trkpt lat="66.049702009186149" lon="13.545556012541056">
        <ele>157.78999999999999</ele>
        <time>2017-06-29T06:14:00Z</time>
      </trkpt>
      <trkpt lat="66.04961802251637" lon="13.54520296677947">
        <ele>156.83000000000001</ele>
        <time>2017-06-29T06:14:01Z</time>
      </trkpt>
      <trkpt lat="66.049545016139746" lon="13.544827038422227">
        <ele>155.87</ele>
        <time>2017-06-29T06:14:02Z</time>
      </trkpt>
      <trkpt lat="66.049482990056276" lon="13.544426970183849">
        <ele>155.87</ele>
        <time>2017-06-29T06:14:03Z</time>
      </trkpt>
      <trkpt lat="66.0492969956249" lon="13.541574021801353">
        <ele>144.81999999999999</ele>
        <time>2017-06-29T06:14:10Z</time>
      </trkpt>
      <trkpt lat="66.04929800145328" lon="13.536917958408594">
        <ele>133.28</ele>
        <time>2017-06-29T06:14:21Z</time>
      </trkpt>
      <trkpt lat="66.049135979264975" lon="13.534417971968651">
        <ele>134.72</ele>
        <time>2017-06-29T06:14:27Z</time>
      </trkpt>
      <trkpt lat="66.049068002030253" lon="13.534031985327601">
        <ele>136.16</ele>
        <time>2017-06-29T06:14:28Z</time>
      </trkpt>
      <trkpt lat="66.048987032845616" lon="13.53368204087019">
        <ele>137.13</ele>
        <time>2017-06-29T06:14:29Z</time>
      </trkpt>
      <trkpt lat="66.048887958750129" lon="13.533346010372043">
        <ele>139.05000000000001</ele>
        <time>2017-06-29T06:14:30Z</time>
      </trkpt>
      <trkpt lat="66.04878100566566" lon="13.533028000965714">
        <ele>140.49000000000001</ele>
        <time>2017-06-29T06:14:31Z</time>
      </trkpt>
      <trkpt lat="66.047882968559861" lon="13.530524997040629">
        <ele>141.93000000000001</ele>
        <time>2017-06-29T06:14:39Z</time>
      </trkpt>
      <trkpt lat="66.047636037692428" lon="13.529969025403261">
        <ele>142.41</ele>
        <time>2017-06-29T06:14:41Z</time>
      </trkpt>
      <trkpt lat="66.047501005232334" lon="13.529727039858699">
        <ele>141.93000000000001</ele>
        <time>2017-06-29T06:14:42Z</time>
      </trkpt>
      <trkpt lat="66.047359015792608" lon="13.529511960223317">
        <ele>141.93000000000001</ele>
        <time>2017-06-29T06:14:43Z</time>
      </trkpt>
      <trkpt lat="66.046819975599647" lon="13.528588023036718">
        <ele>141.44999999999999</ele>
        <time>2017-06-29T06:14:47Z</time>
      </trkpt>
      <trkpt lat="66.046701958402991" lon="13.528288034722209">
        <ele>140.49000000000001</ele>
        <time>2017-06-29T06:14:48Z</time>
      </trkpt>
      <trkpt lat="66.046590982005" lon="13.527958039194345">
        <ele>140.49000000000001</ele>
        <time>2017-06-29T06:14:49Z</time>
      </trkpt>
      <trkpt lat="66.045596972107887" lon="13.524020975455642">
        <ele>138.09</ele>
        <time>2017-06-29T06:14:59Z</time>
      </trkpt>
      <trkpt lat="66.044884007424116" lon="13.519602036103606">
        <ele>134.72</ele>
        <time>2017-06-29T06:15:09Z</time>
      </trkpt>
      <trkpt lat="66.044281013309956" lon="13.516419008374214">
        <ele>138.09</ele>
        <time>2017-06-29T06:15:16Z</time>
      </trkpt>
      <trkpt lat="66.042985003441572" lon="13.512512035667896">
        <ele>143.84999999999999</ele>
        <time>2017-06-29T06:15:26Z</time>
      </trkpt>
      <trkpt lat="66.041574999690056" lon="13.508625011891127">
        <ele>143.37</ele>
        <time>2017-06-29T06:15:36Z</time>
      </trkpt>
      <trkpt lat="66.040776036679745" lon="13.504874026402831">
        <ele>143.37</ele>
        <time>2017-06-29T06:15:44Z</time>
      </trkpt>
      <trkpt lat="66.039789989590645" lon="13.498552981764078">
        <ele>136.16</ele>
        <time>2017-06-29T06:15:57Z</time>
      </trkpt>
      <trkpt lat="66.039712959900498" lon="13.498117038980126">
        <ele>135.68000000000001</ele>
        <time>2017-06-29T06:15:58Z</time>
      </trkpt>
      <trkpt lat="66.03960701264441" lon="13.497723005712032">
        <ele>135.19999999999999</ele>
        <time>2017-06-29T06:15:59Z</time>
      </trkpt>
      <trkpt lat="66.039482038468122" lon="13.497369037941098">
        <ele>134.72</ele>
        <time>2017-06-29T06:16:00Z</time>
      </trkpt>
      <trkpt lat="66.038969988003373" lon="13.49589197896421">
        <ele>132.31999999999999</ele>
        <time>2017-06-29T06:16:04Z</time>
      </trkpt>
      <trkpt lat="66.038873009383678" lon="13.495456958189607">
        <ele>131.84</ele>
        <time>2017-06-29T06:16:05Z</time>
      </trkpt>
      <trkpt lat="66.038036998361349" lon="13.492508037015796">
        <ele>127.03</ele>
        <time>2017-06-29T06:16:12Z</time>
      </trkpt>
      <trkpt lat="66.03659899905324" lon="13.488768031820655">
        <ele>121.73999999999999</ele>
        <time>2017-06-29T06:16:22Z</time>
      </trkpt>
      <trkpt lat="66.036501014605165" lon="13.488323036581278">
        <ele>121.26000000000001</ele>
        <time>2017-06-29T06:16:23Z</time>
      </trkpt>
      <trkpt lat="66.035545980557799" lon="13.483782978728414">
        <ele>116.94</ele>
        <time>2017-06-29T06:16:33Z</time>
      </trkpt>
      <trkpt lat="66.034527998417616" lon="13.480010032653809">
        <ele>115.01000000000001</ele>
        <time>2017-06-29T06:16:42Z</time>
      </trkpt>
      <trkpt lat="66.032983968034387" lon="13.475365033373237">
        <ele>115.01000000000001</ele>
        <time>2017-06-29T06:16:54Z</time>
      </trkpt>
      <trkpt lat="66.032355995848775" lon="13.472814001142979">
        <ele>113.09</ele>
        <time>2017-06-29T06:17:00Z</time>
      </trkpt>
      <trkpt lat="66.032218029722571" lon="13.472449975088239">
        <ele>113.09</ele>
        <time>2017-06-29T06:17:01Z</time>
      </trkpt>
      <trkpt lat="66.030451962724328" lon="13.468957990407944">
        <ele>111.17</ele>
        <time>2017-06-29T06:17:12Z</time>
      </trkpt>
      <trkpt lat="66.028958978131413" lon="13.465430969372392">
        <ele>106.36</ele>
        <time>2017-06-29T06:17:22Z</time>
      </trkpt>
      <trkpt lat="66.026927959173918" lon="13.461874024942517">
        <ele>94.829999999999998</ele>
        <time>2017-06-29T06:17:34Z</time>
      </trkpt>
      <trkpt lat="66.02542701177299" lon="13.45947696827352">
        <ele>86.180000000000007</ele>
        <time>2017-06-29T06:17:43Z</time>
      </trkpt>
      <trkpt lat="66.024085991084576" lon="13.457145961001515">
        <ele>81.370000000000005</ele>
        <time>2017-06-29T06:17:51Z</time>
      </trkpt>
      <trkpt lat="66.022989973425865" lon="13.454906987026334">
        <ele>82.810000000000002</ele>
        <time>2017-06-29T06:17:58Z</time>
      </trkpt>
      <trkpt lat="66.02280699647963" lon="13.454686040058732">
        <ele>81.849999999999994</ele>
        <time>2017-06-29T06:17:59Z</time>
      </trkpt>
      <trkpt lat="66.022615972906351" lon="13.454498033970594">
        <ele>80.890000000000001</ele>
        <time>2017-06-29T06:18:00Z</time>
      </trkpt>
      <trkpt lat="66.020413963124156" lon="13.453090041875839">
        <ele>77.519999999999996</ele>
        <time>2017-06-29T06:18:11Z</time>
      </trkpt>
      <trkpt lat="66.019322974607348" lon="13.45317997969687">
        <ele>77.040000000000006</ele>
        <time>2017-06-29T06:18:18Z</time>
      </trkpt>
      <trkpt lat="66.018526023253798" lon="13.453751038759947">
        <ele>77.040000000000006</ele>
        <time>2017-06-29T06:18:26Z</time>
      </trkpt>
      <trkpt lat="66.017478033900261" lon="13.455175962299109">
        <ele>79.930000000000007</ele>
        <time>2017-06-29T06:18:37Z</time>
      </trkpt>
      <trkpt lat="66.016514031216502" lon="13.455549962818623">
        <ele>89.060000000000002</ele>
        <time>2017-06-29T06:18:44Z</time>
      </trkpt>
      <trkpt lat="66.015497976914048" lon="13.454745970666409">
        <ele>93.870000000000005</ele>
        <time>2017-06-29T06:18:51Z</time>
      </trkpt>
      <trkpt lat="66.014591977000237" lon="13.452672036364675">
        <ele>94.829999999999998</ele>
        <time>2017-06-29T06:18:58Z</time>
      </trkpt>
      <trkpt lat="66.012474037706852" lon="13.447395041584969">
        <ele>94.349999999999994</ele>
        <time>2017-06-29T06:19:13Z</time>
      </trkpt>
      <trkpt lat="66.01107501424849" lon="13.445383971557021">
        <ele>89.540000000000006</ele>
        <time>2017-06-29T06:19:21Z</time>
      </trkpt>
      <trkpt lat="66.009823009371758" lon="13.444395996630192">
        <ele>82.810000000000002</ele>
        <time>2017-06-29T06:19:28Z</time>
      </trkpt>
      <trkpt lat="66.009656963869929" lon="13.444406976923347">
        <ele>81.370000000000005</ele>
        <time>2017-06-29T06:19:29Z</time>
      </trkpt>
      <trkpt lat="66.009491002187133" lon="13.444470008835196">
        <ele>79.930000000000007</ele>
        <time>2017-06-29T06:19:30Z</time>
      </trkpt>
      <trkpt lat="66.009330991655588" lon="13.444593977183104">
        <ele>78.480000000000004</ele>
        <time>2017-06-29T06:19:31Z</time>
      </trkpt>
      <trkpt lat="66.009172992780805" lon="13.444751976057887">
        <ele>77.040000000000006</ele>
        <time>2017-06-29T06:19:32Z</time>
      </trkpt>
      <trkpt lat="66.009018011391163" lon="13.44495196826756">
        <ele>76.079999999999998</ele>
        <time>2017-06-29T06:19:33Z</time>
      </trkpt>
      <trkpt lat="66.008866969496012" lon="13.445189008489251">
        <ele>75.120000000000005</ele>
        <time>2017-06-29T06:19:34Z</time>
      </trkpt>
      <trkpt lat="66.008719028905034" lon="13.445455972105265">
        <ele>74.159999999999997</ele>
        <time>2017-06-29T06:19:35Z</time>
      </trkpt>
      <trkpt lat="66.006936030462384" lon="13.448614021763206">
        <ele>61.18</ele>
        <time>2017-06-29T06:19:46Z</time>
      </trkpt>
      <trkpt lat="66.005736999213696" lon="13.449508035555482">
        <ele>54.450000000000003</ele>
        <time>2017-06-29T06:19:52Z</time>
      </trkpt>
      <trkpt lat="66.00400697439909" lon="13.449463024735451">
        <ele>46.759999999999998</ele>
        <time>2017-06-29T06:20:00Z</time>
      </trkpt>
      <trkpt lat="66.000923020765185" lon="13.448542021214962">
        <ele>38.109999999999999</ele>
        <time>2017-06-29T06:20:14Z</time>
      </trkpt>
      <trkpt lat="65.996847990900278" lon="13.447319017723203">
        <ele>37.149999999999999</ele>
        <time>2017-06-29T06:20:33Z</time>
      </trkpt>
      <trkpt lat="65.994967008009553" lon="13.44686103053391">
        <ele>38.109999999999999</ele>
        <time>2017-06-29T06:20:43Z</time>
      </trkpt>
      <trkpt lat="65.993787003681064" lon="13.446112023666501">
        <ele>38.590000000000003</ele>
        <time>2017-06-29T06:20:52Z</time>
      </trkpt>
      <trkpt lat="65.99197399802506" lon="13.444515019655228">
        <ele>40.030000000000001</ele>
        <time>2017-06-29T06:21:03Z</time>
      </trkpt>
      <trkpt lat="65.990434996783733" lon="13.442826988175511">
        <ele>40.990000000000002</ele>
        <time>2017-06-29T06:21:12Z</time>
      </trkpt>
      <trkpt lat="65.98963301628828" lon="13.44159996137023">
        <ele>42.439999999999998</ele>
        <time>2017-06-29T06:21:17Z</time>
      </trkpt>
      <trkpt lat="65.989464037120342" lon="13.441455038264394">
        <ele>42.439999999999998</ele>
        <time>2017-06-29T06:21:18Z</time>
      </trkpt>
      <trkpt lat="65.989298997446895" lon="13.44136199913919">
        <ele>42.920000000000002</ele>
        <time>2017-06-29T06:21:19Z</time>
      </trkpt>
      <trkpt lat="65.988701032474637" lon="13.441198971122503">
        <ele>42.439999999999998</ele>
        <time>2017-06-29T06:21:23Z</time>
      </trkpt>
      <trkpt lat="65.988570023328066" lon="13.44125303439796">
        <ele>41.950000000000003</ele>
        <time>2017-06-29T06:21:24Z</time>
      </trkpt>
      <trkpt lat="65.988437002524734" lon="13.441315982490778">
        <ele>41.950000000000003</ele>
        <time>2017-06-29T06:21:25Z</time>
      </trkpt>
      <trkpt lat="65.987274013459682" lon="13.442005980759859">
        <ele>42.439999999999998</ele>
        <time>2017-06-29T06:21:32Z</time>
      </trkpt>
      <trkpt lat="65.986030977219343" lon="13.442361038178205">
        <ele>41.469999999999999</ele>
        <time>2017-06-29T06:21:38Z</time>
      </trkpt>
      <trkpt lat="65.985822016373277" lon="13.442309992387891">
        <ele>41.469999999999999</ele>
        <time>2017-06-29T06:21:39Z</time>
      </trkpt>
      <trkpt lat="65.984171032905579" lon="13.441558973863721">
        <ele>40.990000000000002</ele>
        <time>2017-06-29T06:21:47Z</time>
      </trkpt>
      <trkpt lat="65.983974980190396" lon="13.441329980269074">
        <ele>40.990000000000002</ele>
        <time>2017-06-29T06:21:48Z</time>
      </trkpt>
      <trkpt lat="65.983790997415781" lon="13.441048013046384">
        <ele>41.469999999999999</ele>
        <time>2017-06-29T06:21:49Z</time>
      </trkpt>
      <trkpt lat="65.9823929797858" lon="13.439269959926605">
        <ele>42.920000000000002</ele>
        <time>2017-06-29T06:21:56Z</time>
      </trkpt>
      <trkpt lat="65.979115990921855" lon="13.436260018497705">
        <ele>45.799999999999997</ele>
        <time>2017-06-29T06:22:11Z</time>
      </trkpt>
      <trkpt lat="65.978920022025704" lon="13.43603597022593">
        <ele>45.799999999999997</ele>
        <time>2017-06-29T06:22:12Z</time>
      </trkpt>
      <trkpt lat="65.978736039251089" lon="13.435756014660001">
        <ele>46.759999999999998</ele>
        <time>2017-06-29T06:22:13Z</time>
      </trkpt>
      <trkpt lat="65.978561025112867" lon="13.43543297611177">
        <ele>48.200000000000003</ele>
        <time>2017-06-29T06:22:14Z</time>
      </trkpt>
      <trkpt lat="65.978055009618402" lon="13.434514990076423">
        <ele>51.090000000000003</ele>
        <time>2017-06-29T06:22:17Z</time>
      </trkpt>
      <trkpt lat="65.977873038500547" lon="13.434297982603312">
        <ele>51.57</ele>
        <time>2017-06-29T06:22:18Z</time>
      </trkpt>
      <trkpt lat="65.976407965645194" lon="13.433288969099522">
        <ele>49.649999999999999</ele>
        <time>2017-06-29T06:22:25Z</time>
      </trkpt>
      <trkpt lat="65.973169030621648" lon="13.431828003376722">
        <ele>48.68</ele>
        <time>2017-06-29T06:22:40Z</time>
      </trkpt>
      <trkpt lat="65.971129965037107" lon="13.430922003462911">
        <ele>45.32</ele>
        <time>2017-06-29T06:22:51Z</time>
      </trkpt>
      <trkpt lat="65.969383008778095" lon="13.429758008569479">
        <ele>41.469999999999999</ele>
        <time>2017-06-29T06:23:02Z</time>
      </trkpt>
      <trkpt lat="65.96900699660182" lon="13.42920295894146">
        <ele>39.549999999999997</ele>
        <time>2017-06-29T06:23:05Z</time>
      </trkpt>
      <trkpt lat="65.968909012153745" lon="13.428974971175194">
        <ele>39.07</ele>
        <time>2017-06-29T06:23:06Z</time>
      </trkpt>
      <trkpt lat="65.968823013827205" lon="13.428716976195574">
        <ele>38.590000000000003</ele>
        <time>2017-06-29T06:23:07Z</time>
      </trkpt>
      <trkpt lat="65.968758976086974" lon="13.428424028679729">
        <ele>38.109999999999999</ele>
        <time>2017-06-29T06:23:08Z</time>
      </trkpt>
      <trkpt lat="65.968707008287311" lon="13.428095038980246">
        <ele>38.109999999999999</ele>
        <time>2017-06-29T06:23:09Z</time>
      </trkpt>
      <trkpt lat="65.968667026609182" lon="13.427752973511815">
        <ele>38.109999999999999</ele>
        <time>2017-06-29T06:23:10Z</time>
      </trkpt>
      <trkpt lat="65.968264024704695" lon="13.424792988225818">
        <ele>38.109999999999999</ele>
        <time>2017-06-29T06:23:18Z</time>
      </trkpt>
      <trkpt lat="65.968167968094349" lon="13.424459975212812">
        <ele>38.109999999999999</ele>
        <time>2017-06-29T06:23:19Z</time>
      </trkpt>
      <trkpt lat="65.968050034716725" lon="13.424170967191458">
        <ele>38.109999999999999</ele>
        <time>2017-06-29T06:23:20Z</time>
      </trkpt>
      <trkpt lat="65.967913996428251" lon="13.423935016617179">
        <ele>38.109999999999999</ele>
        <time>2017-06-29T06:23:21Z</time>
      </trkpt>
      <trkpt lat="65.967769995331764" lon="13.42374499887228">
        <ele>38.109999999999999</ele>
        <time>2017-06-29T06:23:22Z</time>
      </trkpt>
      <trkpt lat="65.967614008113742" lon="13.423570990562439">
        <ele>38.590000000000003</ele>
        <time>2017-06-29T06:23:23Z</time>
      </trkpt>
      <trkpt lat="65.966162011027336" lon="13.422487964853644">
        <ele>38.109999999999999</ele>
        <time>2017-06-29T06:23:32Z</time>
      </trkpt>
      <trkpt lat="65.96584701910615" lon="13.42241101898253">
        <ele>36.189999999999998</ele>
        <time>2017-06-29T06:23:34Z</time>
      </trkpt>
      <trkpt lat="65.965681979432702" lon="13.4224349912256">
        <ele>35.229999999999997</ele>
        <time>2017-06-29T06:23:35Z</time>
      </trkpt>
      <trkpt lat="65.964071983471513" lon="13.422659039497375">
        <ele>39.07</ele>
        <time>2017-06-29T06:23:44Z</time>
      </trkpt>
      <trkpt lat="65.962217990309" lon="13.422006005421281">
        <ele>37.149999999999999</ele>
        <time>2017-06-29T06:23:53Z</time>
      </trkpt>
      <trkpt lat="65.958748972043395" lon="13.420726004987955">
        <ele>36.189999999999998</ele>
        <time>2017-06-29T06:24:09Z</time>
      </trkpt>
      <trkpt lat="65.957927964627743" lon="13.42050296254456">
        <ele>36.189999999999998</ele>
        <time>2017-06-29T06:24:13Z</time>
      </trkpt>
      <trkpt lat="65.957740964367986" lon="13.420545039698482">
        <ele>36.189999999999998</ele>
        <time>2017-06-29T06:24:14Z</time>
      </trkpt>
      <trkpt lat="65.95755597576499" lon="13.420656016096473">
        <ele>36.189999999999998</ele>
        <time>2017-06-29T06:24:15Z</time>
      </trkpt>
      <trkpt lat="65.957381967455149" lon="13.420827006921172">
        <ele>36.670000000000002</ele>
        <time>2017-06-29T06:24:16Z</time>
      </trkpt>
      <trkpt lat="65.957213994115591" lon="13.421028004959226">
        <ele>37.630000000000003</ele>
        <time>2017-06-29T06:24:17Z</time>
      </trkpt>
      <trkpt lat="65.956896990537643" lon="13.421318018808961">
        <ele>39.07</ele>
        <time>2017-06-29T06:24:19Z</time>
      </trkpt>
      <trkpt lat="65.956742009148002" lon="13.421361017972231">
        <ele>39.549999999999997</ele>
        <time>2017-06-29T06:24:20Z</time>
      </trkpt>
      <trkpt lat="65.95658803358674" lon="13.421307038515806">
        <ele>40.509999999999998</ele>
        <time>2017-06-29T06:24:21Z</time>
      </trkpt>
      <trkpt lat="65.956433974206448" lon="13.421158008277416">
        <ele>40.990000000000002</ele>
        <time>2017-06-29T06:24:22Z</time>
      </trkpt>
      <trkpt lat="65.956276981160045" lon="13.420938989147544">
        <ele>40.990000000000002</ele>
        <time>2017-06-29T06:24:23Z</time>
      </trkpt>
      <trkpt lat="65.956123005598783" lon="13.420679988339543">
        <ele>40.990000000000002</ele>
        <time>2017-06-29T06:24:24Z</time>
      </trkpt>
      <trkpt lat="65.955967018380761" lon="13.420397015288472">
        <ele>40.990000000000002</ele>
        <time>2017-06-29T06:24:25Z</time>
      </trkpt>
      <trkpt lat="65.953928958624601" lon="13.416702020913363">
        <ele>40.509999999999998</ele>
        <time>2017-06-29T06:24:37Z</time>
      </trkpt>
      <trkpt lat="65.952348969876766" lon="13.414965961128473">
        <ele>40.509999999999998</ele>
        <time>2017-06-29T06:24:45Z</time>
      </trkpt>
      <trkpt lat="65.951741030439734" lon="13.41459296643734">
        <ele>40.990000000000002</ele>
        <time>2017-06-29T06:24:48Z</time>
      </trkpt>
      <trkpt lat="65.951540032401681" lon="13.414565976709127">
        <ele>40.990000000000002</ele>
        <time>2017-06-29T06:24:49Z</time>
      </trkpt>
      <trkpt lat="65.951341968029737" lon="13.414601013064384">
        <ele>40.509999999999998</ele>
        <time>2017-06-29T06:24:50Z</time>
      </trkpt>
      <trkpt lat="65.951148010790348" lon="13.414704026654363">
        <ele>40.509999999999998</ele>
        <time>2017-06-29T06:24:51Z</time>
      </trkpt>
      <trkpt lat="65.950952963903546" lon="13.41485096141696">
        <ele>40.990000000000002</ele>
        <time>2017-06-29T06:24:52Z</time>
      </trkpt>
      <trkpt lat="65.950761018320918" lon="13.415023041889071">
        <ele>40.990000000000002</ele>
        <time>2017-06-29T06:24:53Z</time>
      </trkpt>
      <trkpt lat="65.950199011713266" lon="13.415684960782528">
        <ele>41.469999999999999</ele>
        <time>2017-06-29T06:24:56Z</time>
      </trkpt>
      <trkpt lat="65.95003598369658" lon="13.415974974632263">
        <ele>41.950000000000003</ele>
        <time>2017-06-29T06:24:57Z</time>
      </trkpt>
      <trkpt lat="65.949891982600093" lon="13.416304970160127">
        <ele>42.439999999999998</ele>
        <time>2017-06-29T06:24:58Z</time>
      </trkpt>
      <trkpt lat="65.949771031737328" lon="13.416670002043247">
        <ele>42.920000000000002</ele>
        <time>2017-06-29T06:24:59Z</time>
      </trkpt>
      <trkpt lat="65.949663994833827" lon="13.41706202365458">
        <ele>43.399999999999999</ele>
        <time>2017-06-29T06:25:00Z</time>
      </trkpt>
      <trkpt lat="65.949570033699274" lon="13.4174719825387">
        <ele>43.880000000000003</ele>
        <time>2017-06-29T06:25:01Z</time>
      </trkpt>
      <trkpt lat="65.949165020138025" lon="13.419039985165">
        <ele>46.280000000000001</ele>
        <time>2017-06-29T06:25:05Z</time>
      </trkpt>
      <trkpt lat="65.949055971577764" lon="13.419308038428426">
        <ele>46.759999999999998</ele>
        <time>2017-06-29T06:25:06Z</time>
      </trkpt>
      <trkpt lat="65.948939966037869" lon="13.419483974575996">
        <ele>46.759999999999998</ele>
        <time>2017-06-29T06:25:07Z</time>
      </trkpt>
      <trkpt lat="65.948813986033201" lon="13.419569972902536">
        <ele>47.240000000000002</ele>
        <time>2017-06-29T06:25:08Z</time>
      </trkpt>
      <trkpt lat="65.948671996593475" lon="13.419562010094523">
        <ele>47.240000000000002</ele>
        <time>2017-06-29T06:25:09Z</time>
      </trkpt>
      <trkpt lat="65.948527995496988" lon="13.419477017596364">
        <ele>46.759999999999998</ele>
        <time>2017-06-29T06:25:10Z</time>
      </trkpt>
      <trkpt lat="65.948383994400501" lon="13.419324969872832">
        <ele>46.759999999999998</ele>
        <time>2017-06-29T06:25:11Z</time>
      </trkpt>
      <trkpt lat="65.948239993304014" lon="13.419124977663159">
        <ele>47.240000000000002</ele>
        <time>2017-06-29T06:25:12Z</time>
      </trkpt>
      <trkpt lat="65.948099009692669" lon="13.418873017653823">
        <ele>47.719999999999999</ele>
        <time>2017-06-29T06:25:13Z</time>
      </trkpt>
      <trkpt lat="65.947963977232575" lon="13.418581997975707">
        <ele>48.200000000000003</ele>
        <time>2017-06-29T06:25:14Z</time>
      </trkpt>
      <trkpt lat="65.947839003056288" lon="13.418242027983069">
        <ele>48.200000000000003</ele>
        <time>2017-06-29T06:25:15Z</time>
      </trkpt>
      <trkpt lat="65.947716040536761" lon="13.417884958907962">
        <ele>48.68</ele>
        <time>2017-06-29T06:25:16Z</time>
      </trkpt>
      <trkpt lat="65.946493959054351" lon="13.414215026423335">
        <ele>50.130000000000003</ele>
        <time>2017-06-29T06:25:26Z</time>
      </trkpt>
      <trkpt lat="65.946374014019966" lon="13.413962982594967">
        <ele>49.159999999999997</ele>
        <time>2017-06-29T06:25:27Z</time>
      </trkpt>
      <trkpt lat="65.946244010701776" lon="13.413763996213675">
        <ele>48.200000000000003</ele>
        <time>2017-06-29T06:25:28Z</time>
      </trkpt>
      <trkpt lat="65.946106966584921" lon="13.413638016209006">
        <ele>47.240000000000002</ele>
        <time>2017-06-29T06:25:29Z</time>
      </trkpt>
      <trkpt lat="65.945964977145195" lon="13.413597028702497">
        <ele>46.759999999999998</ele>
        <time>2017-06-29T06:25:30Z</time>
      </trkpt>
      <trkpt lat="65.945819970220327" lon="13.413638016209006">
        <ele>45.799999999999997</ele>
        <time>2017-06-29T06:25:31Z</time>
      </trkpt>
      <trkpt lat="65.945674041286111" lon="13.413717979565263">
        <ele>45.32</ele>
        <time>2017-06-29T06:25:32Z</time>
      </trkpt>
      <trkpt lat="65.945526016876101" lon="13.413786040619016">
        <ele>44.359999999999999</ele>
        <time>2017-06-29T06:25:33Z</time>
      </trkpt>
      <trkpt lat="65.94537103548646" lon="13.413800038397312">
        <ele>43.880000000000003</ele>
        <time>2017-06-29T06:25:34Z</time>
      </trkpt>
      <trkpt lat="65.945209013298154" lon="13.413743041455746">
        <ele>42.920000000000002</ele>
        <time>2017-06-29T06:25:35Z</time>
      </trkpt>
      <trkpt lat="65.945044979453087" lon="13.413644973188639">
        <ele>42.439999999999998</ele>
        <time>2017-06-29T06:25:36Z</time>
      </trkpt>
      <trkpt lat="65.944874994456768" lon="13.413526033982635">
        <ele>42.920000000000002</ele>
        <time>2017-06-29T06:25:37Z</time>
      </trkpt>
      <trkpt lat="65.942943971604109" lon="13.412073031067848">
        <ele>42.920000000000002</ele>
        <time>2017-06-29T06:25:47Z</time>
      </trkpt>
      <trkpt lat="65.940398974344134" lon="13.410219037905335">
        <ele>35.710000000000001</ele>
        <time>2017-06-29T06:26:00Z</time>
      </trkpt>
      <trkpt lat="65.937922960147262" lon="13.408957980573177">
        <ele>33.780000000000001</ele>
        <time>2017-06-29T06:26:12Z</time>
      </trkpt>
      <trkpt lat="65.93643500469625" lon="13.409385960549116">
        <ele>34.740000000000002</ele>
        <time>2017-06-29T06:26:19Z</time>
      </trkpt>
      <trkpt lat="65.936061004176736" lon="13.409742023795843">
        <ele>36.189999999999998</ele>
        <time>2017-06-29T06:26:21Z</time>
      </trkpt>
      <trkpt lat="65.935904011130333" lon="13.409999012947083">
        <ele>37.149999999999999</ele>
        <time>2017-06-29T06:26:22Z</time>
      </trkpt>
      <trkpt lat="65.935770990327001" lon="13.410304030403495">
        <ele>38.109999999999999</ele>
        <time>2017-06-29T06:26:23Z</time>
      </trkpt>
      <trkpt lat="65.935667976737022" lon="13.410665960982442">
        <ele>39.07</ele>
        <time>2017-06-29T06:26:24Z</time>
      </trkpt>
      <trkpt lat="65.935578038915992" lon="13.411062005907297">
        <ele>40.030000000000001</ele>
        <time>2017-06-29T06:26:25Z</time>
      </trkpt>
      <trkpt lat="65.935506960377097" lon="13.411487974226475">
        <ele>40.990000000000002</ele>
        <time>2017-06-29T06:26:26Z</time>
      </trkpt>
      <trkpt lat="65.934774968773127" lon="13.414164986461401">
        <ele>46.759999999999998</ele>
        <time>2017-06-29T06:26:33Z</time>
      </trkpt>
      <trkpt lat="65.933976005762815" lon="13.415205013006926">
        <ele>50.609999999999999</ele>
        <time>2017-06-29T06:26:38Z</time>
      </trkpt>
      <trkpt lat="65.933797974139452" lon="13.41527902521193">
        <ele>51.090000000000003</ele>
        <time>2017-06-29T06:26:39Z</time>
      </trkpt>
      <trkpt lat="65.933617008849978" lon="13.41528195887804">
        <ele>51.090000000000003</ele>
        <time>2017-06-29T06:26:40Z</time>
      </trkpt>
      <trkpt lat="65.933435037732124" lon="13.415211969986558">
        <ele>51.090000000000003</ele>
        <time>2017-06-29T06:26:41Z</time>
      </trkpt>
      <trkpt lat="65.933257006108761" lon="13.415098981931806">
        <ele>51.090000000000003</ele>
        <time>2017-06-29T06:26:42Z</time>
      </trkpt>
      <trkpt lat="65.93308299779892" lon="13.41493796557188">
        <ele>51.090000000000003</ele>
        <time>2017-06-29T06:26:43Z</time>
      </trkpt>
      <trkpt lat="65.932914018630981" lon="13.414720958098769">
        <ele>51.090000000000003</ele>
        <time>2017-06-29T06:26:44Z</time>
      </trkpt>
      <trkpt lat="65.932746967300773" lon="13.414466986432672">
        <ele>51.090000000000003</ele>
        <time>2017-06-29T06:26:45Z</time>
      </trkpt>
      <trkpt lat="65.931338975206017" lon="13.411684026941657">
        <ele>54.93</ele>
        <time>2017-06-29T06:26:54Z</time>
      </trkpt>
      <trkpt lat="65.930245975032449" lon="13.408022979274392">
        <ele>64.549999999999997</ele>
        <time>2017-06-29T06:27:03Z</time>
      </trkpt>
      <trkpt lat="65.930116977542639" lon="13.40776196680963">
        <ele>64.549999999999997</ele>
        <time>2017-06-29T06:27:04Z</time>
      </trkpt>
      <trkpt lat="65.929979011416435" lon="13.4075459651649">
        <ele>63.579999999999998</ele>
        <time>2017-06-29T06:27:05Z</time>
      </trkpt>
      <trkpt lat="65.929826041683555" lon="13.407357959076762">
        <ele>62.140000000000001</ele>
        <time>2017-06-29T06:27:06Z</time>
      </trkpt>
      <trkpt lat="65.929658990353346" lon="13.407182022929192">
        <ele>60.700000000000003</ele>
        <time>2017-06-29T06:27:07Z</time>
      </trkpt>
      <trkpt lat="65.928827002644539" lon="13.40655799023807">
        <ele>54.450000000000003</ele>
        <time>2017-06-29T06:27:13Z</time>
      </trkpt>
      <trkpt lat="65.927761998027563" lon="13.406223971396685">
        <ele>46.759999999999998</ele>
        <time>2017-06-29T06:27:20Z</time>
      </trkpt>
      <trkpt lat="65.927614979445934" lon="13.406048035249114">
        <ele>45.799999999999997</ele>
        <time>2017-06-29T06:27:21Z</time>
      </trkpt>
      <trkpt lat="65.92747500166297" lon="13.405800014734268">
        <ele>44.359999999999999</ele>
        <time>2017-06-29T06:27:22Z</time>
      </trkpt>
      <trkpt lat="65.927339969202876" lon="13.40550497174263">
        <ele>42.920000000000002</ele>
        <time>2017-06-29T06:27:23Z</time>
      </trkpt>
      <trkpt lat="65.927208960056305" lon="13.405178999528289">
        <ele>41.469999999999999</ele>
        <time>2017-06-29T06:27:24Z</time>
      </trkpt>
      <trkpt lat="65.925931977108121" lon="13.40127102099359">
        <ele>31.859999999999999</ele>
        <time>2017-06-29T06:27:34Z</time>
      </trkpt>
      <trkpt lat="65.924587016925216" lon="13.397090965881944">
        <ele>36.670000000000002</ele>
        <time>2017-06-29T06:27:45Z</time>
      </trkpt>
      <trkpt lat="65.923529975116253" lon="13.394601959735155">
        <ele>37.630000000000003</ele>
        <time>2017-06-29T06:27:54Z</time>
      </trkpt>
      <trkpt lat="65.922118965536356" lon="13.392917029559612">
        <ele>36.189999999999998</ele>
        <time>2017-06-29T06:28:03Z</time>
      </trkpt>
      <trkpt lat="65.921450005844235" lon="13.392315963283181">
        <ele>40.990000000000002</ele>
        <time>2017-06-29T06:28:07Z</time>
      </trkpt>
      <trkpt lat="65.921310028061271" lon="13.392090993002057">
        <ele>41.950000000000003</ele>
        <time>2017-06-29T06:28:08Z</time>
      </trkpt>
      <trkpt lat="65.921191005036235" lon="13.391831992194057">
        <ele>42.920000000000002</ele>
        <time>2017-06-29T06:28:09Z</time>
      </trkpt>
      <trkpt lat="65.921090003103018" lon="13.39153996668756">
        <ele>42.920000000000002</ele>
        <time>2017-06-29T06:28:10Z</time>
      </trkpt>
      <trkpt lat="65.921005010604858" lon="13.391220029443502">
        <ele>41.950000000000003</ele>
        <time>2017-06-29T06:28:11Z</time>
      </trkpt>
      <trkpt lat="65.920926975086331" lon="13.390863966196775">
        <ele>41.950000000000003</ele>
        <time>2017-06-29T06:28:12Z</time>
      </trkpt>
      <trkpt lat="65.920865032821894" lon="13.390492983162403">
        <ele>40.990000000000002</ele>
        <time>2017-06-29T06:28:13Z</time>
      </trkpt>
      <trkpt lat="65.92081499285996" lon="13.390104984864593">
        <ele>40.030000000000001</ele>
        <time>2017-06-29T06:28:14Z</time>
      </trkpt>
      <trkpt lat="65.920779034495354" lon="13.389695025980473">
        <ele>39.07</ele>
        <time>2017-06-29T06:28:15Z</time>
      </trkpt>
      <trkpt lat="65.920759001746774" lon="13.389268973842263">
        <ele>38.590000000000003</ele>
        <time>2017-06-29T06:28:16Z</time>
      </trkpt>
      <trkpt lat="65.920757995918393" lon="13.388822972774506">
        <ele>38.109999999999999</ele>
        <time>2017-06-29T06:28:17Z</time>
      </trkpt>
      <trkpt lat="65.920768976211548" lon="13.388373032212257">
        <ele>38.109999999999999</ele>
        <time>2017-06-29T06:28:18Z</time>
      </trkpt>
      <trkpt lat="65.920790014788508" lon="13.387914039194584">
        <ele>38.109999999999999</ele>
        <time>2017-06-29T06:28:19Z</time>
      </trkpt>
      <trkpt lat="65.920990006998181" lon="13.383453022688627">
        <ele>35.229999999999997</ele>
        <time>2017-06-29T06:28:29Z</time>
      </trkpt>
      <trkpt lat="65.920808035880327" lon="13.380618011578918">
        <ele>33.299999999999997</ele>
        <time>2017-06-29T06:28:36Z</time>
      </trkpt>
      <trkpt lat="65.920741986483335" lon="13.380232024937868">
        <ele>33.780000000000001</ele>
        <time>2017-06-29T06:28:37Z</time>
      </trkpt>
      <trkpt lat="65.92066302895546" lon="13.379859030246735">
        <ele>33.780000000000001</ele>
        <time>2017-06-29T06:28:38Z</time>
      </trkpt>
      <trkpt lat="65.919541027396917" lon="13.375978963449597">
        <ele>33.299999999999997</ele>
        <time>2017-06-29T06:28:49Z</time>
      </trkpt>
      <trkpt lat="65.919218994677067" lon="13.375045973807573">
        <ele>33.299999999999997</ele>
        <time>2017-06-29T06:28:52Z</time>
      </trkpt>
      <trkpt lat="65.91909896582365" lon="13.37480197660625">
        <ele>33.299999999999997</ele>
        <time>2017-06-29T06:28:53Z</time>
      </trkpt>
      <trkpt lat="65.918965023010969" lon="13.374613970518112">
        <ele>33.299999999999997</ele>
        <time>2017-06-29T06:28:54Z</time>
      </trkpt>
      <trkpt lat="65.918821021914482" lon="13.37447902187705">
        <ele>33.780000000000001</ele>
        <time>2017-06-29T06:28:55Z</time>
      </trkpt>
      <trkpt lat="65.91866796836257" lon="13.374409032985568">
        <ele>33.780000000000001</ele>
        <time>2017-06-29T06:28:56Z</time>
      </trkpt>
      <trkpt lat="65.918513992801309" lon="13.374404003843665">
        <ele>34.259999999999998</ele>
        <time>2017-06-29T06:28:57Z</time>
      </trkpt>
      <trkpt lat="65.918365968391299" lon="13.374470975250006">
        <ele>33.780000000000001</ele>
        <time>2017-06-29T06:28:58Z</time>
      </trkpt>
      <trkpt lat="65.918228002265096" lon="13.374577006325126">
        <ele>33.780000000000001</ele>
        <time>2017-06-29T06:28:59Z</time>
      </trkpt>
      <trkpt lat="65.918094981461763" lon="13.374740034341812">
        <ele>33.780000000000001</ele>
        <time>2017-06-29T06:29:00Z</time>
      </trkpt>
      <trkpt lat="65.917969001457095" lon="13.374934997409582">
        <ele>33.780000000000001</ele>
        <time>2017-06-29T06:29:01Z</time>
      </trkpt>
      <trkpt lat="65.917331976816058" lon="13.376211980357766">
        <ele>36.189999999999998</ele>
        <time>2017-06-29T06:29:06Z</time>
      </trkpt>
      <trkpt lat="65.917176995426416" lon="13.376436028629541">
        <ele>36.670000000000002</ele>
        <time>2017-06-29T06:29:07Z</time>
      </trkpt>
      <trkpt lat="65.917003992944956" lon="13.376604001969099">
        <ele>37.149999999999999</ele>
        <time>2017-06-29T06:29:08Z</time>
      </trkpt>
      <trkpt lat="65.915806973353028" lon="13.377324007451534">
        <ele>38.590000000000003</ele>
        <time>2017-06-29T06:29:14Z</time>
      </trkpt>
      <trkpt lat="65.915628019720316" lon="13.377347979694605">
        <ele>39.549999999999997</ele>
        <time>2017-06-29T06:29:15Z</time>
      </trkpt>
      <trkpt lat="65.915455017238855" lon="13.377298023551702">
        <ele>39.549999999999997</ele>
        <time>2017-06-29T06:29:16Z</time>
      </trkpt>
      <trkpt lat="65.915280003100634" lon="13.377191992476583">
        <ele>39.549999999999997</ele>
        <time>2017-06-29T06:29:17Z</time>
      </trkpt>
      <trkpt lat="65.915104988962412" lon="13.377044973894954">
        <ele>40.509999999999998</ele>
        <time>2017-06-29T06:29:18Z</time>
      </trkpt>
      <trkpt lat="65.914933998137712" lon="13.376850010827184">
        <ele>40.990000000000002</ele>
        <time>2017-06-29T06:29:19Z</time>
      </trkpt>
      <trkpt lat="65.914760995656252" lon="13.376630991697311">
        <ele>40.990000000000002</ele>
        <time>2017-06-29T06:29:20Z</time>
      </trkpt>
      <trkpt lat="65.913457022979856" lon="13.374295039102435">
        <ele>40.509999999999998</ele>
        <time>2017-06-29T06:29:28Z</time>
      </trkpt>
      <trkpt lat="65.912830978631973" lon="13.373253000900149">
        <ele>40.509999999999998</ele>
        <time>2017-06-29T06:29:32Z</time>
      </trkpt>
      <trkpt lat="65.912669040262699" lon="13.373106988146901">
        <ele>40.509999999999998</ele>
        <time>2017-06-29T06:29:33Z</time>
      </trkpt>
      <trkpt lat="65.912498971447349" lon="13.373020989820361">
        <ele>40.509999999999998</ele>
        <time>2017-06-29T06:29:34Z</time>
      </trkpt>
      <trkpt lat="65.912335021421313" lon="13.372970027849078">
        <ele>40.509999999999998</ele>
        <time>2017-06-29T06:29:35Z</time>
      </trkpt>
      <trkpt lat="65.912181967869401" lon="13.372943960130215">
        <ele>40.030000000000001</ele>
        <time>2017-06-29T06:29:36Z</time>
      </trkpt>
      <trkpt lat="65.912007037550211" lon="13.372937003150582">
        <ele>40.509999999999998</ele>
        <time>2017-06-29T06:29:38Z</time>
      </trkpt>
      <trkpt lat="65.91196496039629" lon="13.37295301258564">
        <ele>40.509999999999998</ele>
        <time>2017-06-29T06:29:39Z</time>
      </trkpt>
      <trkpt lat="65.911937970668077" lon="13.372971033677459">
        <ele>40.509999999999998</ele>
        <time>2017-06-29T06:29:40Z</time>
      </trkpt>
      <trkpt lat="65.911913998425007" lon="13.373020989820361">
        <ele>40.509999999999998</ele>
        <time>2017-06-29T06:29:50Z</time>
      </trkpt>
      <trkpt lat="65.911912992596626" lon="13.373031970113516">
        <ele>40.509999999999998</ele>
        <time>2017-06-29T06:31:23Z</time>
      </trkpt>
      <trkpt lat="65.911918021738529" lon="13.373035993427038">
        <ele>40.990000000000002</ele>
        <time>2017-06-29T06:33:39Z</time>
      </trkpt>
      <trkpt lat="65.91191902756691" lon="13.373038005083799">
        <ele>40.990000000000002</ele>
        <time>2017-06-29T06:35:37Z</time>
      </trkpt>
      <trkpt lat="65.911907963454723" lon="13.373030964285135">
        <ele>40.990000000000002</ele>
        <time>2017-06-29T06:37:29Z</time>
      </trkpt>
      <trkpt lat="65.911891032010317" lon="13.373009003698826">
        <ele>40.990000000000002</ele>
        <time>2017-06-29T06:37:30Z</time>
      </trkpt>
      <trkpt lat="65.911875022575259" lon="13.372986959293485">
        <ele>40.990000000000002</ele>
        <time>2017-06-29T06:37:31Z</time>
      </trkpt>
      <trkpt lat="65.911703025922179" lon="13.372641960158944">
        <ele>41.950000000000003</ele>
        <time>2017-06-29T06:37:37Z</time>
      </trkpt>
      <trkpt lat="65.911616021767259" lon="13.372501982375979">
        <ele>42.439999999999998</ele>
        <time>2017-06-29T06:37:38Z</time>
      </trkpt>
      <trkpt lat="65.911440001800656" lon="13.372154971584678">
        <ele>42.920000000000002</ele>
        <time>2017-06-29T06:37:40Z</time>
      </trkpt>
      <trkpt lat="65.911352997645736" lon="13.371949028223753">
        <ele>42.920000000000002</ele>
        <time>2017-06-29T06:37:41Z</time>
      </trkpt>
      <trkpt lat="65.911266999319196" lon="13.371719028800726">
        <ele>42.920000000000002</ele>
        <time>2017-06-29T06:37:42Z</time>
      </trkpt>
      <trkpt lat="65.91118804179132" lon="13.371463967487216">
        <ele>42.920000000000002</ele>
        <time>2017-06-29T06:37:43Z</time>
      </trkpt>
      <trkpt lat="65.911115035414696" lon="13.371184011921287">
        <ele>42.920000000000002</ele>
        <time>2017-06-29T06:37:44Z</time>
      </trkpt>
      <trkpt lat="65.911056026816368" lon="13.370874971151352">
        <ele>42.920000000000002</ele>
        <time>2017-06-29T06:37:45Z</time>
      </trkpt>
      <trkpt lat="65.911002969369292" lon="13.370562996715307">
        <ele>43.399999999999999</ele>
        <time>2017-06-29T06:37:46Z</time>
      </trkpt>
      <trkpt lat="65.910957958549261" lon="13.370250016450882">
        <ele>43.880000000000003</ele>
        <time>2017-06-29T06:37:47Z</time>
      </trkpt>
      <trkpt lat="65.910408021882176" lon="13.366123018786311">
        <ele>47.240000000000002</ele>
        <time>2017-06-29T06:38:00Z</time>
      </trkpt>
      <trkpt lat="65.909644011408091" lon="13.364089988172054">
        <ele>50.609999999999999</ele>
        <time>2017-06-29T06:38:08Z</time>
      </trkpt>
      <trkpt lat="65.909476038068533" lon="13.363497974351048">
        <ele>51.090000000000003</ele>
        <time>2017-06-29T06:38:10Z</time>
      </trkpt>
      <trkpt lat="65.909404959529638" lon="13.363164961338043">
        <ele>51.090000000000003</ele>
        <time>2017-06-29T06:38:11Z</time>
      </trkpt>
      <trkpt lat="65.908775981515646" lon="13.359223958104849">
        <ele>49.159999999999997</ele>
        <time>2017-06-29T06:38:21Z</time>
      </trkpt>
      <trkpt lat="65.908426959067583" lon="13.356300015002489">
        <ele>47.719999999999999</ele>
        <time>2017-06-29T06:38:28Z</time>
      </trkpt>
      <trkpt lat="65.908433999866247" lon="13.355858037248254">
        <ele>47.240000000000002</ele>
        <time>2017-06-29T06:38:29Z</time>
      </trkpt>
      <trkpt lat="65.908455038443208" lon="13.355410024523735">
        <ele>46.759999999999998</ele>
        <time>2017-06-29T06:38:30Z</time>
      </trkpt>
      <trkpt lat="65.908542964607477" lon="13.351827012374997">
        <ele>43.399999999999999</ele>
        <time>2017-06-29T06:38:38Z</time>
      </trkpt>
      <trkpt lat="65.908239036798477" lon="13.347675958648324">
        <ele>43.399999999999999</ele>
        <time>2017-06-29T06:38:48Z</time>
      </trkpt>
      <trkpt lat="65.907969977706671" lon="13.345047980546951">
        <ele>42.439999999999998</ele>
        <time>2017-06-29T06:38:54Z</time>
      </trkpt>
      <trkpt lat="65.907893031835556" lon="13.344686971977353">
        <ele>42.439999999999998</ele>
        <time>2017-06-29T06:38:55Z</time>
      </trkpt>
      <trkpt lat="65.90779596939683" lon="13.344371980056167">
        <ele>42.920000000000002</ele>
        <time>2017-06-29T06:38:56Z</time>
      </trkpt>
      <trkpt lat="65.907679041847587" lon="13.344100993126631">
        <ele>43.399999999999999</ele>
        <time>2017-06-29T06:38:57Z</time>
      </trkpt>
      <trkpt lat="65.907549960538745" lon="13.343856995925307">
        <ele>43.880000000000003</ele>
        <time>2017-06-29T06:38:58Z</time>
      </trkpt>
      <trkpt lat="65.906199971213937" lon="13.340889969840646">
        <ele>47.719999999999999</ele>
        <time>2017-06-29T06:39:08Z</time>
      </trkpt>
      <trkpt lat="65.906066028401256" lon="13.340633986517787">
        <ele>47.719999999999999</ele>
        <time>2017-06-29T06:39:09Z</time>
      </trkpt>
      <trkpt lat="65.905921021476388" lon="13.340425025671721">
        <ele>48.200000000000003</ele>
        <time>2017-06-29T06:39:10Z</time>
      </trkpt>
      <trkpt lat="65.905768973752856" lon="13.340256968513131">
        <ele>48.68</ele>
        <time>2017-06-29T06:39:11Z</time>
      </trkpt>
      <trkpt lat="65.905608041211963" lon="13.340143980458379">
        <ele>48.68</ele>
        <time>2017-06-29T06:39:12Z</time>
      </trkpt>
      <trkpt lat="65.905444007366896" lon="13.340041972696781">
        <ele>48.68</ele>
        <time>2017-06-29T06:39:13Z</time>
      </trkpt>
      <trkpt lat="65.904692988842726" lon="13.339470997452736">
        <ele>50.130000000000003</ele>
        <time>2017-06-29T06:39:18Z</time>
      </trkpt>
      <trkpt lat="65.904589975252748" lon="13.339291037991643">
        <ele>50.609999999999999</ele>
        <time>2017-06-29T06:39:19Z</time>
      </trkpt>
      <trkpt lat="65.90450800023973" lon="13.339074030518532">
        <ele>50.609999999999999</ele>
        <time>2017-06-29T06:39:20Z</time>
      </trkpt>
      <trkpt lat="65.904446979984641" lon="13.338810000568628">
        <ele>50.130000000000003</ele>
        <time>2017-06-29T06:39:21Z</time>
      </trkpt>
      <trkpt lat="65.9043990354985" lon="13.338502971455455">
        <ele>50.609999999999999</ele>
        <time>2017-06-29T06:39:22Z</time>
      </trkpt>
      <trkpt lat="65.904368022456765" lon="13.338174987584352">
        <ele>50.609999999999999</ele>
        <time>2017-06-29T06:39:23Z</time>
      </trkpt>
      <trkpt lat="65.904352013021708" lon="13.337813979014754">
        <ele>51.090000000000003</ele>
        <time>2017-06-29T06:39:24Z</time>
      </trkpt>
      <trkpt lat="65.904348995536566" lon="13.33743897266686">
        <ele>51.090000000000003</ele>
        <time>2017-06-29T06:39:25Z</time>
      </trkpt>
      <trkpt lat="65.904362993314862" lon="13.337039994075894">
        <ele>51.090000000000003</ele>
        <time>2017-06-29T06:39:26Z</time>
      </trkpt>
      <trkpt lat="65.904382020235062" lon="13.3366459608078">
        <ele>51.57</ele>
        <time>2017-06-29T06:39:27Z</time>
      </trkpt>
      <trkpt lat="65.904410015791655" lon="13.336242958903313">
        <ele>51.57</ele>
        <time>2017-06-29T06:39:28Z</time>
      </trkpt>
      <trkpt lat="65.904806982725859" lon="13.332973010838032">
        <ele>51.57</ele>
        <time>2017-06-29T06:39:35Z</time>
      </trkpt>
      <trkpt lat="65.905449036508799" lon="13.32800698466599">
        <ele>52.049999999999997</ele>
        <time>2017-06-29T06:39:45Z</time>
      </trkpt>
      <trkpt lat="65.906115984544158" lon="13.323640013113618">
        <ele>56.859999999999999</ele>
        <time>2017-06-29T06:39:55Z</time>
      </trkpt>
      <trkpt lat="65.906258979812264" lon="13.319368008524179">
        <ele>59.259999999999998</ele>
        <time>2017-06-29T06:40:04Z</time>
      </trkpt>
      <trkpt lat="65.906254034489393" lon="13.313883980736136">
        <ele>56.369999999999997</ele>
        <time>2017-06-29T06:40:15Z</time>
      </trkpt>
      <trkpt lat="65.906213968992233" lon="13.30968196503818">
        <ele>47.719999999999999</ele>
        <time>2017-06-29T06:40:22Z</time>
      </trkpt>
      <trkpt lat="65.906000984832644" lon="13.305537030100822">
        <ele>39.549999999999997</ele>
        <time>2017-06-29T06:40:30Z</time>
      </trkpt>
      <trkpt lat="65.905278967693448" lon="13.302307985723019">
        <ele>33.780000000000001</ele>
        <time>2017-06-29T06:40:37Z</time>
      </trkpt>
      <trkpt lat="65.90414104051888" lon="13.298911973834038">
        <ele>37.149999999999999</ele>
        <time>2017-06-29T06:40:46Z</time>
      </trkpt>
      <trkpt lat="65.903147030621767" lon="13.294950015842915">
        <ele>39.07</ele>
        <time>2017-06-29T06:40:56Z</time>
      </trkpt>
      <trkpt lat="65.901595959439874" lon="13.287200024351478">
        <ele>42.439999999999998</ele>
        <time>2017-06-29T06:41:14Z</time>
      </trkpt>
      <trkpt lat="65.899894014000893" lon="13.281551040709019">
        <ele>47.719999999999999</ele>
        <time>2017-06-29T06:41:28Z</time>
      </trkpt>
      <trkpt lat="65.899743977934122" lon="13.281257003545761">
        <ele>48.200000000000003</ele>
        <time>2017-06-29T06:41:29Z</time>
      </trkpt>
      <trkpt lat="65.899584973230958" lon="13.280987022444606">
        <ele>48.200000000000003</ele>
        <time>2017-06-29T06:41:30Z</time>
      </trkpt>
      <trkpt lat="65.897980006411672" lon="13.278435990214348">
        <ele>47.240000000000002</ele>
        <time>2017-06-29T06:41:40Z</time>
      </trkpt>
      <trkpt lat="65.896493978798389" lon="13.274872004985809">
        <ele>51.090000000000003</ele>
        <time>2017-06-29T06:41:50Z</time>
      </trkpt>
      <trkpt lat="65.894912984222174" lon="13.27162703499198">
        <ele>48.68</ele>
        <time>2017-06-29T06:42:00Z</time>
      </trkpt>
      <trkpt lat="65.893860971555114" lon="13.270193981006742">
        <ele>44.359999999999999</ele>
        <time>2017-06-29T06:42:06Z</time>
      </trkpt>
      <trkpt lat="65.893728034570813" lon="13.26988996937871">
        <ele>43.880000000000003</ele>
        <time>2017-06-29T06:42:07Z</time>
      </trkpt>
      <trkpt lat="65.893603982403874" lon="13.26954698190093">
        <ele>42.439999999999998</ele>
        <time>2017-06-29T06:42:08Z</time>
      </trkpt>
      <trkpt lat="65.893489988520741" lon="13.269167030230165">
        <ele>40.990000000000002</ele>
        <time>2017-06-29T06:42:09Z</time>
      </trkpt>
      <trkpt lat="65.893377000465989" lon="13.268755981698632">
        <ele>40.030000000000001</ele>
        <time>2017-06-29T06:42:10Z</time>
      </trkpt>
      <trkpt lat="65.892338985577226" lon="13.264937018975616">
        <ele>33.299999999999997</ele>
        <time>2017-06-29T06:42:19Z</time>
      </trkpt>
      <trkpt lat="65.891064014285803" lon="13.262504003942013">
        <ele>32.82</ele>
        <time>2017-06-29T06:42:27Z</time>
      </trkpt>
      <trkpt lat="65.889018997550011" lon="13.259776029735804">
        <ele>36.189999999999998</ele>
        <time>2017-06-29T06:42:39Z</time>
      </trkpt>
      <trkpt lat="65.887724999338388" lon="13.25704000890255">
        <ele>44.359999999999999</ele>
        <time>2017-06-29T06:42:48Z</time>
      </trkpt>
      <trkpt lat="65.886575002223253" lon="13.252768004313111">
        <ele>45.32</ele>
        <time>2017-06-29T06:42:59Z</time>
      </trkpt>
      <trkpt lat="65.886281970888376" lon="13.248638994991779">
        <ele>39.07</ele>
        <time>2017-06-29T06:43:07Z</time>
      </trkpt>
      <trkpt lat="65.886000003665686" lon="13.24374002404511">
        <ele>34.740000000000002</ele>
        <time>2017-06-29T06:43:15Z</time>
      </trkpt>
      <trkpt lat="65.885775033384562" lon="13.238159017637372">
        <ele>45.799999999999997</ele>
        <time>2017-06-29T06:43:25Z</time>
      </trkpt>
      <trkpt lat="65.885411007329822" lon="13.230649000033736">
        <ele>65.989999999999995</ele>
        <time>2017-06-29T06:43:40Z</time>
      </trkpt>
      <trkpt lat="65.88530003093183" lon="13.229860011488199">
        <ele>68.870000000000005</ele>
        <time>2017-06-29T06:43:42Z</time>
      </trkpt>
      <trkpt lat="65.885223001241684" lon="13.229490034282207">
        <ele>70.310000000000002</ele>
        <time>2017-06-29T06:43:43Z</time>
      </trkpt>
      <trkpt lat="65.885132979601622" lon="13.22913103736937">
        <ele>71.760000000000005</ele>
        <time>2017-06-29T06:43:44Z</time>
      </trkpt>
      <trkpt lat="65.885030971840024" lon="13.228782014921308">
        <ele>72.719999999999999</ele>
        <time>2017-06-29T06:43:45Z</time>
      </trkpt>
      <trkpt lat="65.884913960471749" lon="13.228454031050205">
        <ele>74.159999999999997</ele>
        <time>2017-06-29T06:43:46Z</time>
      </trkpt>
      <trkpt lat="65.88478404097259" lon="13.22814398445189">
        <ele>75.599999999999994</ele>
        <time>2017-06-29T06:43:47Z</time>
      </trkpt>
      <trkpt lat="65.884642973542213" lon="13.227847013622522">
        <ele>77.040000000000006</ele>
        <time>2017-06-29T06:43:48Z</time>
      </trkpt>
      <trkpt lat="65.884494027122855" lon="13.227552976459265">
        <ele>78.480000000000004</ele>
        <time>2017-06-29T06:43:49Z</time>
      </trkpt>
      <trkpt lat="65.882667023688555" lon="13.223854964599013">
        <ele>84.730000000000004</ele>
        <time>2017-06-29T06:44:01Z</time>
      </trkpt>
      <trkpt lat="65.881421975791454" lon="13.220488037914038">
        <ele>87.140000000000001</ele>
        <time>2017-06-29T06:44:11Z</time>
      </trkpt>
      <trkpt lat="65.881183007732034" lon="13.219995014369488">
        <ele>87.140000000000001</ele>
        <time>2017-06-29T06:44:13Z</time>
      </trkpt>
      <trkpt lat="65.881045963615179" lon="13.219812959432602">
        <ele>87.140000000000001</ele>
        <time>2017-06-29T06:44:14Z</time>
      </trkpt>
      <trkpt lat="65.880898023024201" lon="13.21967700496316">
        <ele>87.140000000000001</ele>
        <time>2017-06-29T06:44:15Z</time>
      </trkpt>
      <trkpt lat="65.880742035806179" lon="13.219594024121761">
        <ele>87.140000000000001</ele>
        <time>2017-06-29T06:44:16Z</time>
      </trkpt>
      <trkpt lat="65.880591999739408" lon="13.219579020515084">
        <ele>87.140000000000001</ele>
        <time>2017-06-29T06:44:17Z</time>
      </trkpt>
      <trkpt lat="65.880446992814541" lon="13.219648003578186">
        <ele>87.140000000000001</ele>
        <time>2017-06-29T06:44:18Z</time>
      </trkpt>
      <trkpt lat="65.880308020859957" lon="13.219792004674673">
        <ele>87.140000000000001</ele>
        <time>2017-06-29T06:44:19Z</time>
      </trkpt>
      <trkpt lat="65.880182040855289" lon="13.220013035461307">
        <ele>87.620000000000005</ele>
        <time>2017-06-29T06:44:20Z</time>
      </trkpt>
      <trkpt lat="65.880075003951788" lon="13.220282010734081">
        <ele>88.579999999999998</ele>
        <time>2017-06-29T06:44:21Z</time>
      </trkpt>
      <trkpt lat="65.879987999796867" lon="13.220607982948422">
        <ele>89.060000000000002</ele>
        <time>2017-06-29T06:44:22Z</time>
      </trkpt>
      <trkpt lat="65.879914993420243" lon="13.220972009003162">
        <ele>90.019999999999996</ele>
        <time>2017-06-29T06:44:23Z</time>
      </trkpt>
      <trkpt lat="65.879851961508393" lon="13.221368975937366">
        <ele>90.980000000000004</ele>
        <time>2017-06-29T06:44:24Z</time>
      </trkpt>
      <trkpt lat="65.879323985427618" lon="13.22423399426043">
        <ele>97.230000000000004</ele>
        <time>2017-06-29T06:44:31Z</time>
      </trkpt>
      <trkpt lat="65.879210997372866" lon="13.22457698173821">
        <ele>98.189999999999998</ele>
        <time>2017-06-29T06:44:32Z</time>
      </trkpt>
      <trkpt lat="65.877926973626018" lon="13.227500002831221">
        <ele>94.829999999999998</ele>
        <time>2017-06-29T06:44:41Z</time>
      </trkpt>
      <trkpt lat="65.877325991168618" lon="13.228504993021488">
        <ele>92.900000000000006</ele>
        <time>2017-06-29T06:44:45Z</time>
      </trkpt>
      <trkpt lat="65.877162041142583" lon="13.228639019653201">
        <ele>91.459999999999994</ele>
        <time>2017-06-29T06:44:46Z</time>
      </trkpt>
      <trkpt lat="65.876989038661122" lon="13.228713031858206">
        <ele>90.5</ele>
        <time>2017-06-29T06:44:47Z</time>
      </trkpt>
      <trkpt lat="65.876808995380998" lon="13.228701967746019">
        <ele>90.019999999999996</ele>
        <time>2017-06-29T06:44:48Z</time>
      </trkpt>
      <trkpt lat="65.876631969586015" lon="13.228607000783086">
        <ele>89.540000000000006</ele>
        <time>2017-06-29T06:44:49Z</time>
      </trkpt>
      <trkpt lat="65.876456033438444" lon="13.228451013565063">
        <ele>89.060000000000002</ele>
        <time>2017-06-29T06:44:50Z</time>
      </trkpt>
      <trkpt lat="65.876282025128603" lon="13.228244986385107">
        <ele>89.060000000000002</ele>
        <time>2017-06-29T06:44:51Z</time>
      </trkpt>
      <trkpt lat="65.876116985455155" lon="13.228025967255235">
        <ele>89.060000000000002</ele>
        <time>2017-06-29T06:44:52Z</time>
      </trkpt>
      <trkpt lat="65.874340021982789" lon="13.225445011630654">
        <ele>89.060000000000002</ele>
        <time>2017-06-29T06:45:03Z</time>
      </trkpt>
      <trkpt lat="65.872631035745144" lon="13.22225603275001">
        <ele>84.25</ele>
        <time>2017-06-29T06:45:14Z</time>
      </trkpt>
      <trkpt lat="65.872089983895421" lon="13.219706006348133">
        <ele>78.480000000000004</ele>
        <time>2017-06-29T06:45:20Z</time>
      </trkpt>
      <trkpt lat="65.871932990849018" lon="13.21716696023941">
        <ele>71.760000000000005</ele>
        <time>2017-06-29T06:45:26Z</time>
      </trkpt>
      <trkpt lat="65.871904995292425" lon="13.215901041403413">
        <ele>67.909999999999997</ele>
        <time>2017-06-29T06:45:32Z</time>
      </trkpt>
      <trkpt lat="65.871879011392593" lon="13.21550901979208">
        <ele>66.469999999999999</ele>
        <time>2017-06-29T06:45:40Z</time>
      </trkpt>
      <trkpt lat="65.871774991974235" lon="13.215005015954375">
        <ele>64.549999999999997</ele>
        <time>2017-06-29T06:46:43Z</time>
      </trkpt>
      <trkpt lat="65.871314993128181" lon="13.213413963094354">
        <ele>59.740000000000002</ele>
        <time>2017-06-29T06:46:50Z</time>
      </trkpt>
      <trkpt lat="65.870191985741258" lon="13.210678026080132">
        <ele>50.130000000000003</ele>
        <time>2017-06-29T06:47:00Z</time>
      </trkpt>
      <trkpt lat="65.869046011939645" lon="13.208791008219123">
        <ele>44.359999999999999</ele>
        <time>2017-06-29T06:47:08Z</time>
      </trkpt>
      <trkpt lat="65.867236023768783" lon="13.207401959225535">
        <ele>31.379999999999999</ele>
        <time>2017-06-29T06:47:18Z</time>
      </trkpt>
      <trkpt lat="65.866256011649966" lon="13.206889992579818">
        <ele>23.690000000000001</ele>
        <time>2017-06-29T06:47:23Z</time>
      </trkpt>
      <trkpt lat="65.86607001721859" lon="13.206716990098357">
        <ele>22.25</ele>
        <time>2017-06-29T06:47:24Z</time>
      </trkpt>
      <trkpt lat="65.865893997251987" lon="13.206496965140104">
        <ele>20.809999999999999</ele>
        <time>2017-06-29T06:47:25Z</time>
      </trkpt>
      <trkpt lat="65.865722000598907" lon="13.206225978210568">
        <ele>19.359999999999999</ele>
        <time>2017-06-29T06:47:26Z</time>
      </trkpt>
      <trkpt lat="65.865558972582221" lon="13.20592800155282">
        <ele>17.440000000000001</ele>
        <time>2017-06-29T06:47:27Z</time>
      </trkpt>
      <trkpt lat="65.864378968253732" lon="13.203451987355947">
        <ele>7.83</ele>
        <time>2017-06-29T06:47:35Z</time>
      </trkpt>
      <trkpt lat="65.864267991855741" lon="13.203084021806717">
        <ele>6.39</ele>
        <time>2017-06-29T06:47:36Z</time>
      </trkpt>
      <trkpt lat="65.864172019064426" lon="13.202686971053481">
        <ele>4.94</ele>
        <time>2017-06-29T06:47:37Z</time>
      </trkpt>
      <trkpt lat="65.864093983545899" lon="13.202271983027458">
        <ele>3.5</ele>
        <time>2017-06-29T06:47:38Z</time>
      </trkpt>
      <trkpt lat="65.864030029624701" lon="13.201839979737997">
        <ele>2.54</ele>
        <time>2017-06-29T06:47:39Z</time>
      </trkpt>
      <trkpt lat="65.863980995491147" lon="13.201402025297284">
        <ele>1.1</ele>
        <time>2017-06-29T06:47:40Z</time>
      </trkpt>
      <trkpt lat="65.863524014130235" lon="13.198506999760866">
        <ele>-5.63</ele>
        <time>2017-06-29T06:47:48Z</time>
      </trkpt>
      <trkpt lat="65.86345000192523" lon="13.198241963982582">
        <ele>-6.11</ele>
        <time>2017-06-29T06:47:49Z</time>
      </trkpt>
      <trkpt lat="65.862511983141303" lon="13.195867035537958">
        <ele>-5.15</ele>
        <time>2017-06-29T06:47:59Z</time>
      </trkpt>
      <trkpt lat="65.860874997451901" lon="13.192184027284384">
        <ele>-3.71</ele>
        <time>2017-06-29T06:48:15Z</time>
      </trkpt>
      <trkpt lat="65.860755974426866" lon="13.1920260284096">
        <ele>-3.23</ele>
        <time>2017-06-29T06:48:16Z</time>
      </trkpt>
      <trkpt lat="65.860632006078959" lon="13.191913962364197">
        <ele>-3.23</ele>
        <time>2017-06-29T06:48:17Z</time>
      </trkpt>
      <trkpt lat="65.860504014417529" lon="13.191839028149843">
        <ele>-3.23</ele>
        <time>2017-06-29T06:48:18Z</time>
      </trkpt>
      <trkpt lat="65.860368981957436" lon="13.191792005673051">
        <ele>-3.23</ele>
        <time>2017-06-29T06:48:19Z</time>
      </trkpt>
      <trkpt lat="65.860233027487993" lon="13.191778007894754">
        <ele>-3.23</ele>
        <time>2017-06-29T06:48:20Z</time>
      </trkpt>
      <trkpt lat="65.860092965885997" lon="13.191802985966206">
        <ele>-3.71</ele>
        <time>2017-06-29T06:48:21Z</time>
      </trkpt>
      <trkpt lat="65.859952988103032" lon="13.191873980686069">
        <ele>-3.71</ele>
        <time>2017-06-29T06:48:22Z</time>
      </trkpt>
      <trkpt lat="65.859815021976829" lon="13.191993003711104">
        <ele>-4.19</ele>
        <time>2017-06-29T06:48:23Z</time>
      </trkpt>
      <trkpt lat="65.859680995345116" lon="13.192143039777875">
        <ele>-4.19</ele>
        <time>2017-06-29T06:48:24Z</time>
      </trkpt>
      <trkpt lat="65.859545962885022" lon="13.192318975925446">
        <ele>-4.67</ele>
        <time>2017-06-29T06:48:25Z</time>
      </trkpt>
      <trkpt lat="65.85790503770113" lon="13.194228038191795">
        <ele>-4.67</ele>
        <time>2017-06-29T06:48:36Z</time>
      </trkpt>
      <trkpt lat="65.856029000133276" lon="13.195060025900602">
        <ele>-4.19</ele>
        <time>2017-06-29T06:48:47Z</time>
      </trkpt>
      <trkpt lat="65.853969985619187" lon="13.195578027516603">
        <ele>2.54</ele>
        <time>2017-06-29T06:49:00Z</time>
      </trkpt>
      <trkpt lat="65.852005016058683" lon="13.196682007983327">
        <ele>-0.34</ele>
        <time>2017-06-29T06:49:12Z</time>
      </trkpt>
      <trkpt lat="65.850340034812689" lon="13.196400962769985">
        <ele>-1.3</ele>
        <time>2017-06-29T06:49:22Z</time>
      </trkpt>
      <trkpt lat="65.848846966400743" lon="13.19649500772357">
        <ele>-0.82</ele>
        <time>2017-06-29T06:49:32Z</time>
      </trkpt>
      <trkpt lat="65.847177961841226" lon="13.197847008705139">
        <ele>-1.3</ele>
        <time>2017-06-29T06:49:44Z</time>
      </trkpt>
      <trkpt lat="65.845432011410594" lon="13.199730003252625">
        <ele>-1.3</ele>
        <time>2017-06-29T06:49:58Z</time>
      </trkpt>
      <trkpt lat="65.84381103515625" lon="13.201775019988418">
        <ele>-2.75</ele>
        <time>2017-06-29T06:50:13Z</time>
      </trkpt>
      <trkpt lat="65.843592016026378" lon="13.202005019411445">
        <ele>-3.23</ele>
        <time>2017-06-29T06:50:16Z</time>
      </trkpt>
      <trkpt lat="65.843521021306515" lon="13.202037960290909">
        <ele>-3.71</ele>
        <time>2017-06-29T06:50:17Z</time>
      </trkpt>
      <trkpt lat="65.843273000791669" lon="13.202142985537648">
        <ele>-4.19</ele>
        <time>2017-06-29T06:50:21Z</time>
      </trkpt>
      <trkpt lat="65.843230001628399" lon="13.202228983864188">
        <ele>-5.15</ele>
        <time>2017-06-29T06:50:22Z</time>
      </trkpt>
      <trkpt lat="65.843199994415045" lon="13.202351024374366">
        <ele>-6.11</ele>
        <time>2017-06-29T06:50:23Z</time>
      </trkpt>
      <trkpt lat="65.843190019950271" lon="13.202507011592388">
        <ele>-6.11</ele>
        <time>2017-06-29T06:50:24Z</time>
      </trkpt>
      <trkpt lat="65.843193037435412" lon="13.202695017680526">
        <ele>-5.63</ele>
        <time>2017-06-29T06:50:25Z</time>
      </trkpt>
      <trkpt lat="65.843204017728567" lon="13.202912025153637">
        <ele>-5.63</ele>
        <time>2017-06-29T06:50:26Z</time>
      </trkpt>
      <trkpt lat="65.843193037435412" lon="13.203677041456103">
        <ele>-5.63</ele>
        <time>2017-06-29T06:50:29Z</time>
      </trkpt>
      <trkpt lat="65.843165963888168" lon="13.203955991193652">
        <ele>-5.63</ele>
        <time>2017-06-29T06:50:30Z</time>
      </trkpt>
      <trkpt lat="65.843119025230408" lon="13.204221026971936">
        <ele>-5.63</ele>
        <time>2017-06-29T06:50:31Z</time>
      </trkpt>
      <trkpt lat="65.843045013025403" lon="13.204451026394963">
        <ele>-5.15</ele>
        <time>2017-06-29T06:50:32Z</time>
      </trkpt>
      <trkpt lat="65.84295398555696" lon="13.204648001119494">
        <ele>-4.67</ele>
        <time>2017-06-29T06:50:33Z</time>
      </trkpt>
      <trkpt lat="65.84284401498735" lon="13.204816980287433">
        <ele>-4.19</ele>
        <time>2017-06-29T06:50:34Z</time>
      </trkpt>
      <trkpt lat="65.842723986133933" lon="13.204963998869061">
        <ele>-4.19</ele>
        <time>2017-06-29T06:50:35Z</time>
      </trkpt>
      <trkpt lat="65.842599011957645" lon="13.205102970823646">
        <ele>-4.67</ele>
        <time>2017-06-29T06:50:36Z</time>
      </trkpt>
      <trkpt lat="65.841447003185749" lon="13.206662004813552">
        <ele>-3.71</ele>
        <time>2017-06-29T06:50:45Z</time>
      </trkpt>
      <trkpt lat="65.841338960453868" lon="13.206945983693004">
        <ele>-3.71</ele>
        <time>2017-06-29T06:50:46Z</time>
      </trkpt>
      <trkpt lat="65.841241981834173" lon="13.207263993099332">
        <ele>-3.71</ele>
        <time>2017-06-29T06:50:47Z</time>
      </trkpt>
      <trkpt lat="65.840587019920349" lon="13.209502967074513">
        <ele>-3.23</ele>
        <time>2017-06-29T06:50:54Z</time>
      </trkpt>
      <trkpt lat="65.84046196192503" lon="13.209765991196036">
        <ele>-3.23</ele>
        <time>2017-06-29T06:50:55Z</time>
      </trkpt>
      <trkpt lat="65.840325001627207" lon="13.209986016154289">
        <ele>-3.23</ele>
        <time>2017-06-29T06:50:56Z</time>
      </trkpt>
      <trkpt lat="65.840170020237565" lon="13.210168993100524">
        <ele>-3.23</ele>
        <time>2017-06-29T06:50:57Z</time>
      </trkpt>
      <trkpt lat="65.840001963078976" lon="13.210307965055108">
        <ele>-2.75</ele>
        <time>2017-06-29T06:50:58Z</time>
      </trkpt>
      <trkpt lat="65.839828960597515" lon="13.210398992523551">
        <ele>-2.75</ele>
        <time>2017-06-29T06:50:59Z</time>
      </trkpt>
      <trkpt lat="65.839653024449944" lon="13.210453977808356">
        <ele>-2.75</ele>
        <time>2017-06-29T06:51:00Z</time>
      </trkpt>
      <trkpt lat="65.839475998654962" lon="13.210449032485485">
        <ele>-2.75</ele>
        <time>2017-06-29T06:51:01Z</time>
      </trkpt>
      <trkpt lat="65.839296039193869" lon="13.210402010008693">
        <ele>-2.75</ele>
        <time>2017-06-29T06:51:02Z</time>
      </trkpt>
      <trkpt lat="65.839119013398886" lon="13.210296984761953">
        <ele>-2.75</ele>
        <time>2017-06-29T06:51:03Z</time>
      </trkpt>
      <trkpt lat="65.838939975947142" lon="13.210151977837086">
        <ele>-2.75</ele>
        <time>2017-06-29T06:51:04Z</time>
      </trkpt>
      <trkpt lat="65.838764039799571" lon="13.210001019760966">
        <ele>-3.23</ele>
        <time>2017-06-29T06:51:05Z</time>
      </trkpt>
      <trkpt lat="65.837039966136217" lon="13.209135001525283">
        <ele>-2.75</ele>
        <time>2017-06-29T06:51:14Z</time>
      </trkpt>
      <trkpt lat="65.835968004539609" lon="13.208967028185725">
        <ele>-2.75</ele>
        <time>2017-06-29T06:51:20Z</time>
      </trkpt>
      <trkpt lat="65.835825009271502" lon="13.209047997370362">
        <ele>-2.75</ele>
        <time>2017-06-29T06:51:21Z</time>
      </trkpt>
      <trkpt lat="65.835688970983028" lon="13.209199961274862">
        <ele>-2.27</ele>
        <time>2017-06-29T06:51:22Z</time>
      </trkpt>
      <trkpt lat="65.835566008463502" lon="13.209402970969677">
        <ele>-1.79</ele>
        <time>2017-06-29T06:51:23Z</time>
      </trkpt>
      <trkpt lat="65.83545695990324" lon="13.209659038111567">
        <ele>-1.3</ele>
        <time>2017-06-29T06:51:24Z</time>
      </trkpt>
      <trkpt lat="65.835370039567351" lon="13.209948968142271">
        <ele>-1.3</ele>
        <time>2017-06-29T06:51:25Z</time>
      </trkpt>
      <trkpt lat="65.835298961028457" lon="13.210266977548599">
        <ele>-0.82</ele>
        <time>2017-06-29T06:51:26Z</time>
      </trkpt>
      <trkpt lat="65.83524196408689" lon="13.210595967248082">
        <ele>-0.82</ele>
        <time>2017-06-29T06:51:27Z</time>
      </trkpt>
      <trkpt lat="65.83519603125751" lon="13.210936021059752">
        <ele>-0.34</ele>
        <time>2017-06-29T06:51:28Z</time>
      </trkpt>
      <trkpt lat="65.835101986303926" lon="13.21153499186039">
        <ele>-0.82</ele>
        <time>2017-06-29T06:51:30Z</time>
      </trkpt>
      <trkpt lat="65.835040966048837" lon="13.211773037910461">
        <ele>-1.3</ele>
        <time>2017-06-29T06:51:31Z</time>
      </trkpt>
      <trkpt lat="65.834970977157354" lon="13.211952997371554">
        <ele>-1.79</ele>
        <time>2017-06-29T06:51:32Z</time>
      </trkpt>
      <trkpt lat="65.834898976609111" lon="13.212073026224971">
        <ele>-2.27</ele>
        <time>2017-06-29T06:51:33Z</time>
      </trkpt>
      <trkpt lat="65.834827981889248" lon="13.212144020944834">
        <ele>-2.27</ele>
        <time>2017-06-29T06:51:34Z</time>
      </trkpt>
      <trkpt lat="65.834764027968049" lon="13.212203029543161">
        <ele>-2.27</ele>
        <time>2017-06-29T06:51:35Z</time>
      </trkpt>
      <trkpt lat="65.834678029641509" lon="13.212363962084055">
        <ele>-3.23</ele>
        <time>2017-06-29T06:51:37Z</time>
      </trkpt>
      <trkpt lat="65.834670988842845" lon="13.212491031736135">
        <ele>-3.23</ele>
        <time>2017-06-29T06:51:38Z</time>
      </trkpt>
      <trkpt lat="65.834694039076567" lon="13.21263000369072">
        <ele>-3.71</ele>
        <time>2017-06-29T06:51:39Z</time>
      </trkpt>
      <trkpt lat="65.834733014926314" lon="13.212769981473684">
        <ele>-3.71</ele>
        <time>2017-06-29T06:51:40Z</time>
      </trkpt>
      <trkpt lat="65.834780959412456" lon="13.212938960641623">
        <ele>-3.71</ele>
        <time>2017-06-29T06:51:41Z</time>
      </trkpt>
      <trkpt lat="65.83487500436604" lon="13.213397031649947">
        <ele>-3.71</ele>
        <time>2017-06-29T06:51:43Z</time>
      </trkpt>
      <trkpt lat="65.835093017667532" lon="13.215702977031469">
        <ele>-3.71</ele>
        <time>2017-06-29T06:51:50Z</time>
      </trkpt>
      <trkpt lat="65.834893025457859" lon="13.218436986207962">
        <ele>-2.27</ele>
        <time>2017-06-29T06:51:57Z</time>
      </trkpt>
      <trkpt lat="65.834602005779743" lon="13.222485026344657">
        <ele>-1.79</ele>
        <time>2017-06-29T06:52:07Z</time>
      </trkpt>
      <trkpt lat="65.834440989419818" lon="13.224130980670452">
        <ele>-0.82</ele>
        <time>2017-06-29T06:52:11Z</time>
      </trkpt>
      <trkpt lat="65.834367983043194" lon="13.224510010331869">
        <ele>-0.82</ele>
        <time>2017-06-29T06:52:12Z</time>
      </trkpt>
      <trkpt lat="65.834280978888273" lon="13.224875964224339">
        <ele>-0.82</ele>
        <time>2017-06-29T06:52:13Z</time>
      </trkpt>
      <trkpt lat="65.83418701775372" lon="13.22522004134953">
        <ele>-0.34</ele>
        <time>2017-06-29T06:52:14Z</time>
      </trkpt>
      <trkpt lat="65.834085009992123" lon="13.225555988028646">
        <ele>0.14</ele>
        <time>2017-06-29T06:52:15Z</time>
      </trkpt>
      <trkpt lat="65.833973027765751" lon="13.225881960242987">
        <ele>0.14</ele>
        <time>2017-06-29T06:52:16Z</time>
      </trkpt>
      <trkpt lat="65.833848975598812" lon="13.22618898935616">
        <ele>0.14</ele>
        <time>2017-06-29T06:52:17Z</time>
      </trkpt>
      <trkpt lat="65.833716038614511" lon="13.226471040397882">
        <ele>0.62</ele>
        <time>2017-06-29T06:52:18Z</time>
      </trkpt>
      <trkpt lat="65.833576982840896" lon="13.226739009842277">
        <ele>0.62</ele>
        <time>2017-06-29T06:52:19Z</time>
      </trkpt>
      <trkpt lat="65.831428030505776" lon="13.230317998677492">
        <ele>0.14</ele>
        <time>2017-06-29T06:52:33Z</time>
      </trkpt>
      <trkpt lat="65.830669971182942" lon="13.231732025742531">
        <ele>-0.34</ele>
        <time>2017-06-29T06:52:38Z</time>
      </trkpt>
      <trkpt lat="65.830500992015004" lon="13.231953978538513">
        <ele>-0.34</ele>
        <time>2017-06-29T06:52:39Z</time>
      </trkpt>
      <trkpt lat="65.830321032553911" lon="13.232149025425315">
        <ele>-0.34</ele>
        <time>2017-06-29T06:52:40Z</time>
      </trkpt>
      <trkpt lat="65.82941603846848" lon="13.233115039765835">
        <ele>1.1</ele>
        <time>2017-06-29T06:52:45Z</time>
      </trkpt>
      <trkpt lat="65.829258961603045" lon="13.233399018645287">
        <ele>1.58</ele>
        <time>2017-06-29T06:52:46Z</time>
      </trkpt>
      <trkpt lat="65.829110015183687" lon="13.233713004738092">
        <ele>1.58</ele>
        <time>2017-06-29T06:52:47Z</time>
      </trkpt>
      <trkpt lat="65.82840601913631" lon="13.235364994034171">
        <ele>3.98</ele>
        <time>2017-06-29T06:52:52Z</time>
      </trkpt>
      <trkpt lat="65.828249026089907" lon="13.23562198318541">
        <ele>4.46</ele>
        <time>2017-06-29T06:52:53Z</time>
      </trkpt>
      <trkpt lat="65.828079041093588" lon="13.235831027850509">
        <ele>5.42</ele>
        <time>2017-06-29T06:52:54Z</time>
      </trkpt>
      <trkpt lat="65.827897991985083" lon="13.235996989533305">
        <ele>6.39</ele>
        <time>2017-06-29T06:52:55Z</time>
      </trkpt>
      <trkpt lat="65.827710991725326" lon="13.236117018386722">
        <ele>7.35</ele>
        <time>2017-06-29T06:52:56Z</time>
      </trkpt>
      <trkpt lat="65.827517034485936" lon="13.236198993399739">
        <ele>8.310000000000001</ele>
        <time>2017-06-29T06:52:57Z</time>
      </trkpt>
      <trkpt lat="65.827316036447883" lon="13.236236041411757">
        <ele>8.789999999999999</ele>
        <time>2017-06-29T06:52:58Z</time>
      </trkpt>
      <trkpt lat="65.827111015096307" lon="13.236227994784713">
        <ele>8.789999999999999</ele>
        <time>2017-06-29T06:52:59Z</time>
      </trkpt>
      <trkpt lat="65.826905993744731" lon="13.236209973692894">
        <ele>9.27</ele>
        <time>2017-06-29T06:53:00Z</time>
      </trkpt>
      <trkpt lat="65.826487988233566" lon="13.236215002834797">
        <ele>8.789999999999999</ele>
        <time>2017-06-29T06:53:02Z</time>
      </trkpt>
      <trkpt lat="65.82628003321588" lon="13.236269988119602">
        <ele>8.789999999999999</ele>
        <time>2017-06-29T06:53:03Z</time>
      </trkpt>
      <trkpt lat="65.826079035177827" lon="13.236382976174355">
        <ele>8.789999999999999</ele>
        <time>2017-06-29T06:53:04Z</time>
      </trkpt>
      <trkpt lat="65.825888011604548" lon="13.236553966999054">
        <ele>7.83</ele>
        <time>2017-06-29T06:53:05Z</time>
      </trkpt>
      <trkpt lat="65.825704028829932" lon="13.236781032755971">
        <ele>6.87</ele>
        <time>2017-06-29T06:53:06Z</time>
      </trkpt>
      <trkpt lat="65.825530020520091" lon="13.237061994150281">
        <ele>6.87</ele>
        <time>2017-06-29T06:53:07Z</time>
      </trkpt>
      <trkpt lat="65.825371015816927" lon="13.237391989678144">
        <ele>6.39</ele>
        <time>2017-06-29T06:53:08Z</time>
      </trkpt>
      <trkpt lat="65.825226008892059" lon="13.2377690076828">
        <ele>5.91</ele>
        <time>2017-06-29T06:53:09Z</time>
      </trkpt>
      <trkpt lat="65.825099023059011" lon="13.238189024850726">
        <ele>5.91</ele>
        <time>2017-06-29T06:53:10Z</time>
      </trkpt>
      <trkpt lat="65.824993997812271" lon="13.238634020090103">
        <ele>5.42</ele>
        <time>2017-06-29T06:53:11Z</time>
      </trkpt>
      <trkpt lat="65.824915040284395" lon="13.239097036421299">
        <ele>4.46</ele>
        <time>2017-06-29T06:53:12Z</time>
      </trkpt>
      <trkpt lat="65.824851002544165" lon="13.239591987803578">
        <ele>4.46</ele>
        <time>2017-06-29T06:53:13Z</time>
      </trkpt>
      <trkpt lat="65.824813032522798" lon="13.240101020783186">
        <ele>3.98</ele>
        <time>2017-06-29T06:53:14Z</time>
      </trkpt>
      <trkpt lat="65.824783025309443" lon="13.240617010742426">
        <ele>3.5</ele>
        <time>2017-06-29T06:53:15Z</time>
      </trkpt>
      <trkpt lat="65.824250020086765" lon="13.244904018938541">
        <ele>11.19</ele>
        <time>2017-06-29T06:53:24Z</time>
      </trkpt>
      <trkpt lat="65.823593968525529" lon="13.246955992653966">
        <ele>17.440000000000001</ele>
        <time>2017-06-29T06:53:30Z</time>
      </trkpt>
      <trkpt lat="65.817657988518476" lon="13.249206030741334">
        <ele>22.25</ele>
        <time>2017-06-29T06:53:59Z</time>
      </trkpt>
      <trkpt lat="65.816147988662124" lon="13.25113101862371">
        <ele>21.289999999999999</ele>
        <time>2017-06-29T06:54:07Z</time>
      </trkpt>
      <trkpt lat="65.814590966328979" lon="13.252783007919788">
        <ele>21.289999999999999</ele>
        <time>2017-06-29T06:54:15Z</time>
      </trkpt>
      <trkpt lat="65.812924979254603" lon="13.253421960398555">
        <ele>25.129999999999999</ele>
        <time>2017-06-29T06:54:23Z</time>
      </trkpt>
      <trkpt lat="65.811051037162542" lon="13.254366014152765">
        <ele>25.609999999999999</ele>
        <time>2017-06-29T06:54:32Z</time>
      </trkpt>
      <trkpt lat="65.810616016387939" lon="13.254313040524721">
        <ele>26.57</ele>
        <time>2017-06-29T06:54:34Z</time>
      </trkpt>
      <trkpt lat="65.809158990159631" lon="13.253303021192551">
        <ele>22.73</ele>
        <time>2017-06-29T06:54:41Z</time>
      </trkpt>
      <trkpt lat="65.807379009202123" lon="13.251208970323205">
        <ele>21.77</ele>
        <time>2017-06-29T06:54:50Z</time>
      </trkpt>
      <trkpt lat="65.805432982742786" lon="13.249221034348011">
        <ele>21.77</ele>
        <time>2017-06-29T06:55:00Z</time>
      </trkpt>
      <trkpt lat="65.803857017308474" lon="13.246676037088037">
        <ele>22.25</ele>
        <time>2017-06-29T06:55:09Z</time>
      </trkpt>
      <trkpt lat="65.801713010296226" lon="13.24477300979197">
        <ele>24.649999999999999</ele>
        <time>2017-06-29T06:55:20Z</time>
      </trkpt>
      <trkpt lat="65.801300033926964" lon="13.244704026728868">
        <ele>25.609999999999999</ele>
        <time>2017-06-29T06:55:22Z</time>
      </trkpt>
      <trkpt lat="65.801091995090246" lon="13.244735039770603">
        <ele>26.09</ele>
        <time>2017-06-29T06:55:23Z</time>
      </trkpt>
      <trkpt lat="65.800882028415799" lon="13.244812991470098">
        <ele>27.050000000000001</ele>
        <time>2017-06-29T06:55:24Z</time>
      </trkpt>
      <trkpt lat="65.800677007064223" lon="13.244946012273431">
        <ele>27.530000000000001</ele>
        <time>2017-06-29T06:55:25Z</time>
      </trkpt>
      <trkpt lat="65.800472991541028" lon="13.245127983391285">
        <ele>28.02</ele>
        <time>2017-06-29T06:55:26Z</time>
      </trkpt>
      <trkpt lat="65.800278028473258" lon="13.245355971157551">
        <ele>28.5</ele>
        <time>2017-06-29T06:55:27Z</time>
      </trkpt>
      <trkpt lat="65.800092034041882" lon="13.24563299305737">
        <ele>28.98</ele>
        <time>2017-06-29T06:55:28Z</time>
      </trkpt>
      <trkpt lat="65.799915008246899" lon="13.245955025777221">
        <ele>28.98</ele>
        <time>2017-06-29T06:55:29Z</time>
      </trkpt>
      <trkpt lat="65.79974602907896" lon="13.246308993548155">
        <ele>28.98</ele>
        <time>2017-06-29T06:55:30Z</time>
      </trkpt>
      <trkpt lat="65.798329990357161" lon="13.248872011899948">
        <ele>29.940000000000001</ele>
        <time>2017-06-29T06:55:38Z</time>
      </trkpt>
      <trkpt lat="65.795859005302191" lon="13.25113202445209">
        <ele>30.899999999999999</ele>
        <time>2017-06-29T06:55:50Z</time>
      </trkpt>
      <trkpt lat="65.794452019035816" lon="13.252710001543164">
        <ele>32.340000000000003</ele>
        <time>2017-06-29T06:55:57Z</time>
      </trkpt>
      <trkpt lat="65.794285973533988" lon="13.25306598097086">
        <ele>32.340000000000003</ele>
        <time>2017-06-29T06:55:58Z</time>
      </trkpt>
      <trkpt lat="65.794130992144346" lon="13.253459008410573">
        <ele>32.340000000000003</ele>
        <time>2017-06-29T06:55:59Z</time>
      </trkpt>
      <trkpt lat="65.79398900270462" lon="13.253882965072989">
        <ele>32.82</ele>
        <time>2017-06-29T06:56:00Z</time>
      </trkpt>
      <trkpt lat="65.793862016871572" lon="13.254327038303018">
        <ele>33.299999999999997</ele>
        <time>2017-06-29T06:56:01Z</time>
      </trkpt>
      <trkpt lat="65.792907988652587" lon="13.258664002642035">
        <ele>33.780000000000001</ele>
        <time>2017-06-29T06:56:10Z</time>
      </trkpt>
      <trkpt lat="65.791593035683036" lon="13.263688031584024">
        <ele>36.189999999999998</ele>
        <time>2017-06-29T06:56:21Z</time>
      </trkpt>
      <trkpt lat="65.789883965626359" lon="13.266162034124136">
        <ele>36.189999999999998</ele>
        <time>2017-06-29T06:56:30Z</time>
      </trkpt>
      <trkpt lat="65.78838000074029" lon="13.26858096756041">
        <ele>35.229999999999997</ele>
        <time>2017-06-29T06:56:38Z</time>
      </trkpt>
      <trkpt lat="65.78709396533668" lon="13.269669022411108">
        <ele>34.740000000000002</ele>
        <time>2017-06-29T06:56:44Z</time>
      </trkpt>
      <trkpt lat="65.785665018483996" lon="13.270943993702531">
        <ele>35.710000000000001</ele>
        <time>2017-06-29T06:56:51Z</time>
      </trkpt>
      <trkpt lat="65.783637017011642" lon="13.273829966783524">
        <ele>34.740000000000002</ele>
        <time>2017-06-29T06:57:02Z</time>
      </trkpt>
      <trkpt lat="65.782260959967971" lon="13.276186035946012">
        <ele>37.149999999999999</ele>
        <time>2017-06-29T06:57:10Z</time>
      </trkpt>
      <trkpt lat="65.781417991966009" lon="13.279201006516814">
        <ele>37.630000000000003</ele>
        <time>2017-06-29T06:57:17Z</time>
      </trkpt>
      <trkpt lat="65.780615005642176" lon="13.283976009115577">
        <ele>36.189999999999998</ele>
        <time>2017-06-29T06:57:27Z</time>
      </trkpt>
      <trkpt lat="65.779749993234873" lon="13.28619696199894">
        <ele>36.189999999999998</ele>
        <time>2017-06-29T06:57:33Z</time>
      </trkpt>
      <trkpt lat="65.778409978374839" lon="13.287979960441589">
        <ele>37.630000000000003</ele>
        <time>2017-06-29T06:57:40Z</time>
      </trkpt>
      <trkpt lat="65.7766920235008" lon="13.289873013272882">
        <ele>38.109999999999999</ele>
        <time>2017-06-29T06:57:49Z</time>
      </trkpt>
      <trkpt lat="65.775418980047107" lon="13.290168978273869">
        <ele>38.109999999999999</ele>
        <time>2017-06-29T06:57:55Z</time>
      </trkpt>
      <trkpt lat="65.772961992770433" lon="13.289340008050203">
        <ele>40.509999999999998</ele>
        <time>2017-06-29T06:58:06Z</time>
      </trkpt>
      <trkpt lat="65.770529983565211" lon="13.289659023284912">
        <ele>42.920000000000002</ele>
        <time>2017-06-29T06:58:17Z</time>
      </trkpt>
      <trkpt lat="65.767112011089921" lon="13.290380034595728">
        <ele>41.950000000000003</ele>
        <time>2017-06-29T06:58:32Z</time>
      </trkpt>
      <trkpt lat="65.76377903111279" lon="13.291623992845416">
        <ele>43.399999999999999</ele>
        <time>2017-06-29T06:58:47Z</time>
      </trkpt>
      <trkpt lat="65.761342998594046" lon="13.291517039760947">
        <ele>47.719999999999999</ele>
        <time>2017-06-29T06:58:58Z</time>
      </trkpt>
      <trkpt lat="65.76113898307085" lon="13.291346970945597">
        <ele>48.200000000000003</ele>
        <time>2017-06-29T06:58:59Z</time>
      </trkpt>
      <trkpt lat="65.760946031659842" lon="13.291122000664473">
        <ele>49.159999999999997</ele>
        <time>2017-06-29T06:59:00Z</time>
      </trkpt>
      <trkpt lat="65.760759031400084" lon="13.290864005684853">
        <ele>49.649999999999999</ele>
        <time>2017-06-29T06:59:01Z</time>
      </trkpt>
      <trkpt lat="65.760580999776721" lon="13.290568040683866">
        <ele>50.130000000000003</ele>
        <time>2017-06-29T06:59:02Z</time>
      </trkpt>
      <trkpt lat="65.760415960103273" lon="13.29023402184248">
        <ele>50.609999999999999</ele>
        <time>2017-06-29T06:59:03Z</time>
      </trkpt>
      <trkpt lat="65.760261984542012" lon="13.289862032979727">
        <ele>50.609999999999999</ele>
        <time>2017-06-29T06:59:04Z</time>
      </trkpt>
      <trkpt lat="65.760117983445525" lon="13.289461964741349">
        <ele>50.609999999999999</ele>
        <time>2017-06-29T06:59:05Z</time>
      </trkpt>
      <trkpt lat="65.759980017319322" lon="13.289042031392455">
        <ele>50.609999999999999</ele>
        <time>2017-06-29T06:59:06Z</time>
      </trkpt>
      <trkpt lat="65.758309001103044" lon="13.284827023744583">
        <ele>51.57</ele>
        <time>2017-06-29T06:59:17Z</time>
      </trkpt>
      <trkpt lat="65.756382001563907" lon="13.28228797763586">
        <ele>54.450000000000003</ele>
        <time>2017-06-29T06:59:27Z</time>
      </trkpt>
      <trkpt lat="65.75518598780036" lon="13.279914977028966">
        <ele>56.859999999999999</ele>
        <time>2017-06-29T06:59:34Z</time>
      </trkpt>
      <trkpt lat="65.753987962380052" lon="13.277115002274513">
        <ele>60.700000000000003</ele>
        <time>2017-06-29T06:59:42Z</time>
      </trkpt>
      <trkpt lat="65.753540033474565" lon="13.276127027347684">
        <ele>61.659999999999997</ele>
        <time>2017-06-29T06:59:45Z</time>
      </trkpt>
      <trkpt lat="65.753372982144356" lon="13.275874983519316">
        <ele>61.659999999999997</ele>
        <time>2017-06-29T06:59:46Z</time>
      </trkpt>
      <trkpt lat="65.753195034340024" lon="13.275680020451546">
        <ele>62.140000000000001</ele>
        <time>2017-06-29T06:59:47Z</time>
      </trkpt>
      <trkpt lat="65.753006022423506" lon="13.2755390368402">
        <ele>62.140000000000001</ele>
        <time>2017-06-29T06:59:48Z</time>
      </trkpt>
      <trkpt lat="65.752808041870594" lon="13.275439962744713">
        <ele>62.140000000000001</ele>
        <time>2017-06-29T06:59:49Z</time>
      </trkpt>
      <trkpt lat="65.752606960013509" lon="13.275367962196469">
        <ele>62.140000000000001</ele>
        <time>2017-06-29T06:59:50Z</time>
      </trkpt>
      <trkpt lat="65.752400010824203" lon="13.275320017710328">
        <ele>62.619999999999997</ele>
        <time>2017-06-29T06:59:51Z</time>
      </trkpt>
      <trkpt lat="65.748557997867465" lon="13.274746024981141">
        <ele>64.069999999999993</ele>
        <time>2017-06-29T07:00:09Z</time>
      </trkpt>
      <trkpt lat="65.74491698294878" lon="13.27425098977983">
        <ele>67.909999999999997</ele>
        <time>2017-06-29T07:00:26Z</time>
      </trkpt>
      <trkpt lat="65.744715984910727" lon="13.274355009198189">
        <ele>68.390000000000001</ele>
        <time>2017-06-29T07:00:27Z</time>
      </trkpt>
      <trkpt lat="65.744524039328098" lon="13.274522982537746">
        <ele>68.870000000000005</ele>
        <time>2017-06-29T07:00:28Z</time>
      </trkpt>
      <trkpt lat="65.74433796107769" lon="13.274713000282645">
        <ele>69.829999999999998</ele>
        <time>2017-06-29T07:00:29Z</time>
      </trkpt>
      <trkpt lat="65.744158001616597" lon="13.274945011362433">
        <ele>70.310000000000002</ele>
        <time>2017-06-29T07:00:30Z</time>
      </trkpt>
      <trkpt lat="65.743987010791898" lon="13.275206023827195">
        <ele>71.269999999999996</ele>
        <time>2017-06-29T07:00:31Z</time>
      </trkpt>
      <trkpt lat="65.743819959461689" lon="13.275501988828182">
        <ele>71.760000000000005</ele>
        <time>2017-06-29T07:00:32Z</time>
      </trkpt>
      <trkpt lat="65.743663972243667" lon="13.275827039033175">
        <ele>71.760000000000005</ele>
        <time>2017-06-29T07:00:33Z</time>
      </trkpt>
      <trkpt lat="65.743515025824308" lon="13.27618402428925">
        <ele>72.239999999999995</ele>
        <time>2017-06-29T07:00:34Z</time>
      </trkpt>
      <trkpt lat="65.743379993364215" lon="13.276564981788397">
        <ele>72.239999999999995</ele>
        <time>2017-06-29T07:00:35Z</time>
      </trkpt>
      <trkpt lat="65.743256025016308" lon="13.276963038370013">
        <ele>72.239999999999995</ele>
        <time>2017-06-29T07:00:36Z</time>
      </trkpt>
      <trkpt lat="65.743143036961555" lon="13.277389006689191">
        <ele>71.760000000000005</ele>
        <time>2017-06-29T07:00:37Z</time>
      </trkpt>
      <trkpt lat="65.742457984015346" lon="13.279792014509439">
        <ele>68.870000000000005</ele>
        <time>2017-06-29T07:00:43Z</time>
      </trkpt>
      <trkpt lat="65.742299985140562" lon="13.2801169808954">
        <ele>68.870000000000005</ele>
        <time>2017-06-29T07:00:44Z</time>
      </trkpt>
      <trkpt lat="65.742125976830721" lon="13.280397020280361">
        <ele>68.870000000000005</ele>
        <time>2017-06-29T07:00:45Z</time>
      </trkpt>
      <trkpt lat="65.741937970742583" lon="13.280627019703388">
        <ele>68.390000000000001</ele>
        <time>2017-06-29T07:00:46Z</time>
      </trkpt>
      <trkpt lat="65.741738984361291" lon="13.280791975557804">
        <ele>68.390000000000001</ele>
        <time>2017-06-29T07:00:47Z</time>
      </trkpt>
      <trkpt lat="65.741532035171986" lon="13.280914016067982">
        <ele>68.390000000000001</ele>
        <time>2017-06-29T07:00:48Z</time>
      </trkpt>
      <trkpt lat="65.741319973021746" lon="13.280980987474322">
        <ele>68.390000000000001</ele>
        <time>2017-06-29T07:00:49Z</time>
      </trkpt>
      <trkpt lat="65.741106988862157" lon="13.281010994687676">
        <ele>67.909999999999997</ele>
        <time>2017-06-29T07:00:50Z</time>
      </trkpt>
      <trkpt lat="65.740896016359329" lon="13.281031027436256">
        <ele>67.909999999999997</ele>
        <time>2017-06-29T07:00:51Z</time>
      </trkpt>
      <trkpt lat="65.740482034161687" lon="13.281150972470641">
        <ele>67.909999999999997</ele>
        <time>2017-06-29T07:00:53Z</time>
      </trkpt>
      <trkpt lat="65.740279024466872" lon="13.281271001324058">
        <ele>67.909999999999997</ele>
        <time>2017-06-29T07:00:54Z</time>
      </trkpt>
      <trkpt lat="65.738752009347081" lon="13.28284403309226">
        <ele>66.950000000000003</ele>
        <time>2017-06-29T07:01:02Z</time>
      </trkpt>
      <trkpt lat="65.737969977781177" lon="13.283406961709261">
        <ele>66.469999999999999</ele>
        <time>2017-06-29T07:01:06Z</time>
      </trkpt>
      <trkpt lat="65.737766968086362" lon="13.283437974750996">
        <ele>66.469999999999999</ele>
        <time>2017-06-29T07:01:07Z</time>
      </trkpt>
      <trkpt lat="65.737563036382198" lon="13.28342598862946">
        <ele>65.989999999999995</ele>
        <time>2017-06-29T07:01:08Z</time>
      </trkpt>
      <trkpt lat="65.737359020859003" lon="13.283349964767694">
        <ele>66.469999999999999</ele>
        <time>2017-06-29T07:01:09Z</time>
      </trkpt>
      <trkpt lat="65.737160034477711" lon="13.283218033611774">
        <ele>66.469999999999999</ele>
        <time>2017-06-29T07:01:10Z</time>
      </trkpt>
      <trkpt lat="65.73696699924767" lon="13.283031033352017">
        <ele>66.469999999999999</ele>
        <time>2017-06-29T07:01:11Z</time>
      </trkpt>
      <trkpt lat="65.736782010644674" lon="13.282791981473565">
        <ele>66.469999999999999</ele>
        <time>2017-06-29T07:01:12Z</time>
      </trkpt>
      <trkpt lat="65.736612025648355" lon="13.282508002594113">
        <ele>66.469999999999999</ele>
        <time>2017-06-29T07:01:13Z</time>
      </trkpt>
      <trkpt lat="65.736456038430333" lon="13.282173983752728">
        <ele>66.469999999999999</ele>
        <time>2017-06-29T07:01:14Z</time>
      </trkpt>
      <trkpt lat="65.736315976828337" lon="13.281799983233213">
        <ele>66.469999999999999</ele>
        <time>2017-06-29T07:01:15Z</time>
      </trkpt>
      <trkpt lat="65.73619200848043" lon="13.281396981328726">
        <ele>66.469999999999999</ele>
        <time>2017-06-29T07:01:16Z</time>
      </trkpt>
      <trkpt lat="65.736078014597297" lon="13.280971013009548">
        <ele>66.950000000000003</ele>
        <time>2017-06-29T07:01:17Z</time>
      </trkpt>
      <trkpt lat="65.735626984387636" lon="13.279364034533501">
        <ele>67.430000000000007</ele>
        <time>2017-06-29T07:01:21Z</time>
      </trkpt>
      <trkpt lat="65.735481977462769" lon="13.279032027348876">
        <ele>67.430000000000007</ele>
        <time>2017-06-29T07:01:22Z</time>
      </trkpt>
      <trkpt lat="65.735320961102843" lon="13.278724998235703">
        <ele>67.430000000000007</ele>
        <time>2017-06-29T07:01:23Z</time>
      </trkpt>
      <trkpt lat="65.733505021780729" lon="13.276302041485906">
        <ele>68.390000000000001</ele>
        <time>2017-06-29T07:01:33Z</time>
      </trkpt>
      <trkpt lat="65.733301006257534" lon="13.276230962947011">
        <ele>68.390000000000001</ele>
        <time>2017-06-29T07:01:34Z</time>
      </trkpt>
      <trkpt lat="65.733089027926326" lon="13.27622601762414">
        <ele>68.870000000000005</ele>
        <time>2017-06-29T07:01:35Z</time>
      </trkpt>
      <trkpt lat="65.731130009517074" lon="13.276267005130649">
        <ele>72.239999999999995</ele>
        <time>2017-06-29T07:01:44Z</time>
      </trkpt>
      <trkpt lat="65.729620009660721" lon="13.276558024808764">
        <ele>73.680000000000007</ele>
        <time>2017-06-29T07:01:51Z</time>
      </trkpt>
      <trkpt lat="65.72826499119401" lon="13.278306992724538">
        <ele>75.599999999999994</ele>
        <time>2017-06-29T07:01:58Z</time>
      </trkpt>
      <trkpt lat="65.726178986951709" lon="13.281987989321351">
        <ele>83.769999999999996</ele>
        <time>2017-06-29T07:02:10Z</time>
      </trkpt>
      <trkpt lat="65.72450696490705" lon="13.284984016790986">
        <ele>90.5</ele>
        <time>2017-06-29T07:02:20Z</time>
      </trkpt>
      <trkpt lat="65.723585039377213" lon="13.288482036441565">
        <ele>95.790000000000006</ele>
        <time>2017-06-29T07:02:28Z</time>
      </trkpt>
      <trkpt lat="65.722511988133192" lon="13.290122961625457">
        <ele>99.150000000000006</ele>
        <time>2017-06-29T07:02:34Z</time>
      </trkpt>
      <trkpt lat="65.720794033259153" lon="13.291042959317565">
        <ele>106.84</ele>
        <time>2017-06-29T07:02:42Z</time>
      </trkpt>
      <trkpt lat="65.719084963202477" lon="13.291119989007711">
        <ele>115.01000000000001</ele>
        <time>2017-06-29T07:02:50Z</time>
      </trkpt>
      <trkpt lat="65.717388968914747" lon="13.289824984967709">
        <ele>114.53</ele>
        <time>2017-06-29T07:02:58Z</time>
      </trkpt>
      <trkpt lat="65.713473027572036" lon="13.286345992237329">
        <ele>111.65000000000001</ele>
        <time>2017-06-29T07:03:17Z</time>
      </trkpt>
      <trkpt lat="65.712041985243559" lon="13.283967040479183">
        <ele>114.05</ele>
        <time>2017-06-29T07:03:25Z</time>
      </trkpt>
      <trkpt lat="65.711912987753749" lon="13.283564038574696">
        <ele>114.05</ele>
        <time>2017-06-29T07:03:26Z</time>
      </trkpt>
      <trkpt lat="65.71180796250701" lon="13.283128011971712">
        <ele>114.53</ele>
        <time>2017-06-29T07:03:27Z</time>
      </trkpt>
      <trkpt lat="65.71172196418047" lon="13.282670024782419">
        <ele>115.01000000000001</ele>
        <time>2017-06-29T07:03:28Z</time>
      </trkpt>
      <trkpt lat="65.711653986945748" lon="13.282190999016166">
        <ele>115.01000000000001</ele>
        <time>2017-06-29T07:03:29Z</time>
      </trkpt>
      <trkpt lat="65.711600007489324" lon="13.281691018491983">
        <ele>115.01000000000001</ele>
        <time>2017-06-29T07:03:30Z</time>
      </trkpt>
      <trkpt lat="65.711417030543089" lon="13.280185963958502">
        <ele>114.05</ele>
        <time>2017-06-29T07:03:33Z</time>
      </trkpt>
      <trkpt lat="65.711324997246265" lon="13.279696963727474">
        <ele>113.56999999999999</ele>
        <time>2017-06-29T07:03:34Z</time>
      </trkpt>
      <trkpt lat="65.711216032505035" lon="13.279229002073407">
        <ele>113.09</ele>
        <time>2017-06-29T07:03:35Z</time>
      </trkpt>
      <trkpt lat="65.709664961323142" lon="13.274053009226918">
        <ele>109.73</ele>
        <time>2017-06-29T07:03:47Z</time>
      </trkpt>
      <trkpt lat="65.708488980308175" lon="13.271905984729528">
        <ele>113.56999999999999</ele>
        <time>2017-06-29T07:03:54Z</time>
      </trkpt>
      <trkpt lat="65.706626018509269" lon="13.270413000136614">
        <ele>117.42</ele>
        <time>2017-06-29T07:04:03Z</time>
      </trkpt>
      <trkpt lat="65.705293966457248" lon="13.270378969609737">
        <ele>116.45999999999999</ele>
        <time>2017-06-29T07:04:09Z</time>
      </trkpt>
      <trkpt lat="65.70331902243197" lon="13.271206011995673">
        <ele>115.5</ele>
        <time>2017-06-29T07:04:18Z</time>
      </trkpt>
      <trkpt lat="65.701828971505165" lon="13.270603017881513">
        <ele>117.42</ele>
        <time>2017-06-29T07:04:25Z</time>
      </trkpt>
      <trkpt lat="65.700540002435446" lon="13.268828988075256">
        <ele>123.19</ele>
        <time>2017-06-29T07:04:32Z</time>
      </trkpt>
      <trkpt lat="65.699171992018819" lon="13.265788033604622">
        <ele>128.94999999999999</ele>
        <time>2017-06-29T07:04:41Z</time>
      </trkpt>
      <trkpt lat="65.69784396328032" lon="13.264190023764968">
        <ele>127.51000000000001</ele>
        <time>2017-06-29T07:04:48Z</time>
      </trkpt>
      <trkpt lat="65.695456964895129" lon="13.262473996728659">
        <ele>115.98</ele>
        <time>2017-06-29T07:04:59Z</time>
      </trkpt>
      <trkpt lat="65.693830037489533" lon="13.260974977165461">
        <ele>115.01000000000001</ele>
        <time>2017-06-29T07:05:07Z</time>
      </trkpt>
      <trkpt lat="65.692248037084937" lon="13.259367998689413">
        <ele>113.56999999999999</ele>
        <time>2017-06-29T07:05:15Z</time>
      </trkpt>
      <trkpt lat="65.69023797288537" lon="13.259245036169887">
        <ele>111.65000000000001</ele>
        <time>2017-06-29T07:05:24Z</time>
      </trkpt>
      <trkpt lat="65.688246013596654" lon="13.258627960458398">
        <ele>102.52</ele>
        <time>2017-06-29T07:05:33Z</time>
      </trkpt>
      <trkpt lat="65.685875024646521" lon="13.257936034351587">
        <ele>91.459999999999994</ele>
        <time>2017-06-29T07:05:43Z</time>
      </trkpt>
      <trkpt lat="65.683151995763183" lon="13.257966041564941">
        <ele>90.5</ele>
        <time>2017-06-29T07:05:55Z</time>
      </trkpt>
      <trkpt lat="65.679490026086569" lon="13.257680973038077">
        <ele>87.140000000000001</ele>
        <time>2017-06-29T07:06:11Z</time>
      </trkpt>
      <trkpt lat="65.677738962695003" lon="13.258544979617">
        <ele>87.140000000000001</ele>
        <time>2017-06-29T07:06:19Z</time>
      </trkpt>
      <trkpt lat="65.672564981505275" lon="13.261943003162742">
        <ele>75.599999999999994</ele>
        <time>2017-06-29T07:06:43Z</time>
      </trkpt>
      <trkpt lat="65.670887008309364" lon="13.263704963028431">
        <ele>67.430000000000007</ele>
        <time>2017-06-29T07:06:51Z</time>
      </trkpt>
      <trkpt lat="65.669003007933497" lon="13.266796041280031">
        <ele>63.579999999999998</ele>
        <time>2017-06-29T07:07:01Z</time>
      </trkpt>
      <trkpt lat="65.667531983926892" lon="13.267774963751435">
        <ele>64.069999999999993</ele>
        <time>2017-06-29T07:07:08Z</time>
      </trkpt>
      <trkpt lat="65.6653540302068" lon="13.26827703975141">
        <ele>64.069999999999993</ele>
        <time>2017-06-29T07:07:18Z</time>
      </trkpt>
      <trkpt lat="65.663736993446946" lon="13.269834984093904">
        <ele>63.579999999999998</ele>
        <time>2017-06-29T07:07:26Z</time>
      </trkpt>
      <trkpt lat="65.661904038861394" lon="13.271337021142244">
        <ele>68.870000000000005</ele>
        <time>2017-06-29T07:07:35Z</time>
      </trkpt>
      <trkpt lat="65.660105030983686" lon="13.272643005475402">
        <ele>81.849999999999994</ele>
        <time>2017-06-29T07:07:44Z</time>
      </trkpt>
      <trkpt lat="65.658527975901961" lon="13.274061977863312">
        <ele>92.900000000000006</ele>
        <time>2017-06-29T07:07:52Z</time>
      </trkpt>
      <trkpt lat="65.656854026019573" lon="13.274635970592499">
        <ele>104.92</ele>
        <time>2017-06-29T07:08:00Z</time>
      </trkpt>
      <trkpt lat="65.653970986604691" lon="13.277107961475849">
        <ele>120.3</ele>
        <time>2017-06-29T07:08:14Z</time>
      </trkpt>
      <trkpt lat="65.650485036894679" lon="13.279769970104098">
        <ele>114.53</ele>
        <time>2017-06-29T07:08:30Z</time>
      </trkpt>
      <trkpt lat="65.646734973415732" lon="13.281151978299022">
        <ele>108.77</ele>
        <time>2017-06-29T07:08:46Z</time>
      </trkpt>
      <trkpt lat="65.642792964354157" lon="13.281806018203497">
        <ele>108.77</ele>
        <time>2017-06-29T07:09:03Z</time>
      </trkpt>
      <trkpt lat="65.641020024195313" lon="13.281415002420545">
        <ele>108.77</ele>
        <time>2017-06-29T07:09:11Z</time>
      </trkpt>
      <trkpt lat="65.639111967757344" lon="13.279970968142152">
        <ele>108.77</ele>
        <time>2017-06-29T07:09:20Z</time>
      </trkpt>
      <trkpt lat="65.637541031464934" lon="13.280216977000237">
        <ele>110.69</ele>
        <time>2017-06-29T07:09:27Z</time>
      </trkpt>
      <trkpt lat="65.636181989684701" lon="13.281678026542068">
        <ele>114.53</ele>
        <time>2017-06-29T07:09:34Z</time>
      </trkpt>
      <trkpt lat="65.635115979239345" lon="13.28417700715363">
        <ele>115.98</ele>
        <time>2017-06-29T07:09:41Z</time>
      </trkpt>
      <trkpt lat="65.634004035964608" lon="13.288112981244922">
        <ele>110.69</ele>
        <time>2017-06-29T07:09:50Z</time>
      </trkpt>
      <trkpt lat="65.633684014901519" lon="13.288811026141047">
        <ele>108.29000000000001</ele>
        <time>2017-06-29T07:09:52Z</time>
      </trkpt>
      <trkpt lat="65.633501037955284" lon="13.289109002798796">
        <ele>107.31999999999999</ele>
        <time>2017-06-29T07:09:53Z</time>
      </trkpt>
      <trkpt lat="65.633304985240102" lon="13.289363980293274">
        <ele>105.88</ele>
        <time>2017-06-29T07:09:54Z</time>
      </trkpt>
      <trkpt lat="65.633093006908894" lon="13.289590962231159">
        <ele>104.92</ele>
        <time>2017-06-29T07:09:55Z</time>
      </trkpt>
      <trkpt lat="65.632883962243795" lon="13.289778968319297">
        <ele>103</ele>
        <time>2017-06-29T07:09:56Z</time>
      </trkpt>
      <trkpt lat="65.632662009447813" lon="13.289923975244164">
        <ele>102.52</ele>
        <time>2017-06-29T07:09:57Z</time>
      </trkpt>
      <trkpt lat="65.632433015853167" lon="13.290025983005762">
        <ele>102.04000000000001</ele>
        <time>2017-06-29T07:09:58Z</time>
      </trkpt>
      <trkpt lat="65.632201004773378" lon="13.290083985775709">
        <ele>101.08</ele>
        <time>2017-06-29T07:09:59Z</time>
      </trkpt>
      <trkpt lat="65.631969999521971" lon="13.290098989382386">
        <ele>101.08</ele>
        <time>2017-06-29T07:10:00Z</time>
      </trkpt>
      <trkpt lat="65.631737988442183" lon="13.290078034624457">
        <ele>100.59999999999999</ele>
        <time>2017-06-29T07:10:01Z</time>
      </trkpt>
      <trkpt lat="65.631510000675917" lon="13.290031012147665">
        <ele>100.11</ele>
        <time>2017-06-29T07:10:02Z</time>
      </trkpt>
      <trkpt lat="65.629040021449327" lon="13.289711996912956">
        <ele>95.310000000000002</ele>
        <time>2017-06-29T07:10:13Z</time>
      </trkpt>
      <trkpt lat="65.627503031864762" lon="13.290854031220078">
        <ele>87.620000000000005</ele>
        <time>2017-06-29T07:10:20Z</time>
      </trkpt>
      <trkpt lat="65.625326000154018" lon="13.293690970167518">
        <ele>73.200000000000003</ele>
        <time>2017-06-29T07:10:31Z</time>
      </trkpt>
      <trkpt lat="65.6248779874295" lon="13.294347021728754">
        <ele>69.349999999999994</ele>
        <time>2017-06-29T07:10:36Z</time>
      </trkpt>
      <trkpt lat="65.624414971098304" lon="13.29537196084857">
        <ele>63.100000000000001</ele>
        <time>2017-06-29T07:10:45Z</time>
      </trkpt>
      <trkpt lat="65.62380300834775" lon="13.297352017834783">
        <ele>56.369999999999997</ele>
        <time>2017-06-29T07:10:53Z</time>
      </trkpt>
      <trkpt lat="65.623178975656629" lon="13.300665970891714">
        <ele>47.240000000000002</ele>
        <time>2017-06-29T07:11:02Z</time>
      </trkpt>
      <trkpt lat="65.622440027073026" lon="13.30362000502646">
        <ele>41.950000000000003</ele>
        <time>2017-06-29T07:11:11Z</time>
      </trkpt>
      <trkpt lat="65.621789004653692" lon="13.304637987166643">
        <ele>40.030000000000001</ele>
        <time>2017-06-29T07:11:17Z</time>
      </trkpt>
      <trkpt lat="65.621708035469055" lon="13.304669000208378">
        <ele>39.549999999999997</ele>
        <time>2017-06-29T07:11:18Z</time>
      </trkpt>
      <trkpt lat="65.62163301743567" lon="13.304647961631417">
        <ele>39.07</ele>
        <time>2017-06-29T07:11:19Z</time>
      </trkpt>
      <trkpt lat="65.621577026322484" lon="13.304550983011723">
        <ele>38.590000000000003</ele>
        <time>2017-06-29T07:11:20Z</time>
      </trkpt>
      <trkpt lat="65.621536960825324" lon="13.304404970258474">
        <ele>38.109999999999999</ele>
        <time>2017-06-29T07:11:21Z</time>
      </trkpt>
      <trkpt lat="65.621536038815975" lon="13.304218975827098">
        <ele>37.630000000000003</ele>
        <time>2017-06-29T07:11:22Z</time>
      </trkpt>
      <trkpt lat="65.621567973867059" lon="13.304025018587708">
        <ele>37.630000000000003</ele>
        <time>2017-06-29T07:11:23Z</time>
      </trkpt>
      <trkpt lat="65.621621031314135" lon="13.303833995014429">
        <ele>37.149999999999999</ele>
        <time>2017-06-29T07:11:24Z</time>
      </trkpt>
      <trkpt lat="65.621703006327152" lon="13.303661998361349">
        <ele>37.149999999999999</ele>
        <time>2017-06-29T07:11:25Z</time>
      </trkpt>
      <trkpt lat="65.621804008260369" lon="13.303510034456849">
        <ele>37.149999999999999</ele>
        <time>2017-06-29T07:11:26Z</time>
      </trkpt>
      <trkpt lat="65.621919007971883" lon="13.303356980904937">
        <ele>36.670000000000002</ele>
        <time>2017-06-29T07:11:27Z</time>
      </trkpt>
      <trkpt lat="65.622755018994212" lon="13.301803981885314">
        <ele>38.109999999999999</ele>
        <time>2017-06-29T07:11:34Z</time>
      </trkpt>
      <trkpt lat="65.622844034805894" lon="13.301498964428902">
        <ele>37.630000000000003</ele>
        <time>2017-06-29T07:11:35Z</time>
      </trkpt>
      <trkpt lat="65.622910000383854" lon="13.30117198638618">
        <ele>37.630000000000003</ele>
        <time>2017-06-29T07:11:36Z</time>
      </trkpt>
      <trkpt lat="65.622954005375504" lon="13.300821958109736">
        <ele>38.109999999999999</ele>
        <time>2017-06-29T07:11:37Z</time>
      </trkpt>
      <trkpt lat="65.622972026467323" lon="13.300452986732125">
        <ele>38.109999999999999</ele>
        <time>2017-06-29T07:11:38Z</time>
      </trkpt>
      <trkpt lat="65.622970014810562" lon="13.300080997869372">
        <ele>38.109999999999999</ele>
        <time>2017-06-29T07:11:39Z</time>
      </trkpt>
      <trkpt lat="65.622956017032266" lon="13.299704985693097">
        <ele>38.109999999999999</ele>
        <time>2017-06-29T07:11:40Z</time>
      </trkpt>
      <trkpt lat="65.622845962643623" lon="13.296611979603767">
        <ele>37.149999999999999</ele>
        <time>2017-06-29T07:11:48Z</time>
      </trkpt>
      <trkpt lat="65.622873036190867" lon="13.296271003782749">
        <ele>37.149999999999999</ele>
        <time>2017-06-29T07:11:49Z</time>
      </trkpt>
      <trkpt lat="65.622916035354137" lon="13.29592801630497">
        <ele>37.149999999999999</ele>
        <time>2017-06-29T07:11:50Z</time>
      </trkpt>
      <trkpt lat="65.623389026150107" lon="13.293563984334469">
        <ele>37.149999999999999</ele>
        <time>2017-06-29T07:11:58Z</time>
      </trkpt>
      <trkpt lat="65.623462032526731" lon="13.293396010994911">
        <ele>37.149999999999999</ele>
        <time>2017-06-29T07:11:59Z</time>
      </trkpt>
      <trkpt lat="65.623549036681652" lon="13.293274976313114">
        <ele>36.670000000000002</ele>
        <time>2017-06-29T07:12:00Z</time>
      </trkpt>
      <trkpt lat="65.623650038614869" lon="13.293212028220296">
        <ele>36.189999999999998</ele>
        <time>2017-06-29T07:12:01Z</time>
      </trkpt>
      <trkpt lat="65.62376101501286" lon="13.29320196993649">
        <ele>36.189999999999998</ele>
        <time>2017-06-29T07:12:02Z</time>
      </trkpt>
      <trkpt lat="65.623880038037896" lon="13.293228959664702">
        <ele>36.189999999999998</ele>
        <time>2017-06-29T07:12:03Z</time>
      </trkpt>
      <trkpt lat="65.623999983072281" lon="13.293260978534818">
        <ele>36.189999999999998</ele>
        <time>2017-06-29T07:12:04Z</time>
      </trkpt>
      <trkpt lat="65.624116994440556" lon="13.293253015726805">
        <ele>35.710000000000001</ele>
        <time>2017-06-29T07:12:05Z</time>
      </trkpt>
      <trkpt lat="65.624226965010166" lon="13.293206999078393">
        <ele>35.710000000000001</ele>
        <time>2017-06-29T07:12:06Z</time>
      </trkpt>
      <trkpt lat="65.624309023842216" lon="13.293112032115459">
        <ele>35.229999999999997</ele>
        <time>2017-06-29T07:12:07Z</time>
      </trkpt>
      <trkpt lat="65.624374989420176" lon="13.293003989383578">
        <ele>35.229999999999997</ele>
        <time>2017-06-29T07:12:08Z</time>
      </trkpt>
      <trkpt lat="65.62442796304822" lon="13.292909022420645">
        <ele>35.229999999999997</ele>
        <time>2017-06-29T07:12:09Z</time>
      </trkpt>
      <trkpt lat="65.624778997153044" lon="13.292266968637705">
        <ele>35.229999999999997</ele>
        <time>2017-06-29T07:12:20Z</time>
      </trkpt>
      <trkpt lat="65.624825013801455" lon="13.292119028046727">
        <ele>34.740000000000002</ele>
        <time>2017-06-29T07:12:25Z</time>
      </trkpt>
      <trkpt lat="65.624828031286597" lon="13.292078040540218">
        <ele>34.740000000000002</ele>
        <time>2017-06-29T07:12:26Z</time>
      </trkpt>
      <trkpt lat="65.624801041558385" lon="13.29199698753655">
        <ele>34.740000000000002</ele>
        <time>2017-06-29T07:12:29Z</time>
      </trkpt>
      <trkpt lat="65.624757036566734" lon="13.292030012235045">
        <ele>33.780000000000001</ele>
        <time>2017-06-29T07:12:50Z</time>
      </trkpt>
      <trkpt lat="65.62474999576807" lon="13.292043004184961">
        <ele>33.780000000000001</ele>
        <time>2017-06-29T07:14:31Z</time>
      </trkpt>
      <trkpt lat="65.624745972454548" lon="13.291924986988306">
        <ele>53.969999999999999</ele>
        <time>2017-06-29T07:21:35Z</time>
      </trkpt>
      <trkpt lat="65.624656034633517" lon="13.292065970599651">
        <ele>39.549999999999997</ele>
        <time>2017-06-29T07:22:51Z</time>
      </trkpt>
      <trkpt lat="65.624394016340375" lon="13.292800979688764">
        <ele>39.549999999999997</ele>
        <time>2017-06-29T07:22:59Z</time>
      </trkpt>
      <trkpt lat="65.624214978888631" lon="13.293152013793588">
        <ele>39.549999999999997</ele>
        <time>2017-06-29T07:23:02Z</time>
      </trkpt>
      <trkpt lat="65.624138033017516" lon="13.293247986584902">
        <ele>39.549999999999997</ele>
        <time>2017-06-29T07:23:03Z</time>
      </trkpt>
      <trkpt lat="65.624049017205834" lon="13.293314035981894">
        <ele>39.549999999999997</ele>
        <time>2017-06-29T07:23:04Z</time>
      </trkpt>
      <trkpt lat="65.62395597808063" lon="13.293331973254681">
        <ele>39.549999999999997</ele>
        <time>2017-06-29T07:23:05Z</time>
      </trkpt>
      <trkpt lat="65.623864028602839" lon="13.293309006839991">
        <ele>40.030000000000001</ele>
        <time>2017-06-29T07:23:06Z</time>
      </trkpt>
      <trkpt lat="65.623774006962776" lon="13.293270030990243">
        <ele>40.030000000000001</ele>
        <time>2017-06-29T07:23:07Z</time>
      </trkpt>
      <trkpt lat="65.623564962297678" lon="13.293269025161862">
        <ele>41.469999999999999</ele>
        <time>2017-06-29T07:23:09Z</time>
      </trkpt>
      <trkpt lat="65.623472006991506" lon="13.2933309674263">
        <ele>41.950000000000003</ele>
        <time>2017-06-29T07:23:10Z</time>
      </trkpt>
      <trkpt lat="65.623394977301359" lon="13.293443033471704">
        <ele>42.439999999999998</ele>
        <time>2017-06-29T07:23:11Z</time>
      </trkpt>
      <trkpt lat="65.623320965096354" lon="13.293631039559841">
        <ele>42.439999999999998</ele>
        <time>2017-06-29T07:23:12Z</time>
      </trkpt>
      <trkpt lat="65.623254999518394" lon="13.293853998184204">
        <ele>42.439999999999998</ele>
        <time>2017-06-29T07:23:13Z</time>
      </trkpt>
      <trkpt lat="65.623193979263306" lon="13.29410201869905">
        <ele>42.920000000000002</ele>
        <time>2017-06-29T07:23:14Z</time>
      </trkpt>
      <trkpt lat="65.623139999806881" lon="13.294374011456966">
        <ele>42.920000000000002</ele>
        <time>2017-06-29T07:23:15Z</time>
      </trkpt>
      <trkpt lat="65.622804975137115" lon="13.296554982662201">
        <ele>43.399999999999999</ele>
        <time>2017-06-29T07:23:22Z</time>
      </trkpt>
      <trkpt lat="65.622799023985863" lon="13.296912973746657">
        <ele>43.399999999999999</ele>
        <time>2017-06-29T07:23:23Z</time>
      </trkpt>
      <trkpt lat="65.622804975137115" lon="13.297276999801397">
        <ele>43.399999999999999</ele>
        <time>2017-06-29T07:23:24Z</time>
      </trkpt>
      <trkpt lat="65.622932966798544" lon="13.300596987828612">
        <ele>44.359999999999999</ele>
        <time>2017-06-29T07:23:34Z</time>
      </trkpt>
      <trkpt lat="65.622928021475673" lon="13.300830004736781">
        <ele>43.880000000000003</ele>
        <time>2017-06-29T07:23:35Z</time>
      </trkpt>
      <trkpt lat="65.622911006212234" lon="13.30104298889637">
        <ele>43.880000000000003</ele>
        <time>2017-06-29T07:23:36Z</time>
      </trkpt>
      <trkpt lat="65.6228799931705" lon="13.301272988319397">
        <ele>43.399999999999999</ele>
        <time>2017-06-29T07:23:37Z</time>
      </trkpt>
      <trkpt lat="65.622835988178849" lon="13.301508016884327">
        <ele>43.399999999999999</ele>
        <time>2017-06-29T07:23:38Z</time>
      </trkpt>
      <trkpt lat="65.62277496792376" lon="13.301747990772128">
        <ele>42.920000000000002</ele>
        <time>2017-06-29T07:23:39Z</time>
      </trkpt>
      <trkpt lat="65.622676983475685" lon="13.302001962438226">
        <ele>43.399999999999999</ele>
        <time>2017-06-29T07:23:40Z</time>
      </trkpt>
      <trkpt lat="65.622582016512752" lon="13.302232967689633">
        <ele>43.399999999999999</ele>
        <time>2017-06-29T07:23:41Z</time>
      </trkpt>
      <trkpt lat="65.62247397378087" lon="13.30246196128428">
        <ele>43.399999999999999</ele>
        <time>2017-06-29T07:23:42Z</time>
      </trkpt>
      <trkpt lat="65.622351011261344" lon="13.302689027041197">
        <ele>42.920000000000002</ele>
        <time>2017-06-29T07:23:43Z</time>
      </trkpt>
      <trkpt lat="65.622220002114773" lon="13.302899999544024">
        <ele>42.920000000000002</ele>
        <time>2017-06-29T07:23:44Z</time>
      </trkpt>
      <trkpt lat="65.621710969135165" lon="13.30364003777504">
        <ele>42.439999999999998</ele>
        <time>2017-06-29T07:23:48Z</time>
      </trkpt>
      <trkpt lat="65.621611978858709" lon="13.303840029984713">
        <ele>42.439999999999998</ele>
        <time>2017-06-29T07:23:49Z</time>
      </trkpt>
      <trkpt lat="65.621538972482085" lon="13.30407296307385">
        <ele>41.950000000000003</ele>
        <time>2017-06-29T07:23:50Z</time>
      </trkpt>
      <trkpt lat="65.621498990803957" lon="13.304318971931934">
        <ele>42.439999999999998</ele>
        <time>2017-06-29T07:23:51Z</time>
      </trkpt>
      <trkpt lat="65.621482981368899" lon="13.304551988840103">
        <ele>42.920000000000002</ele>
        <time>2017-06-29T07:23:52Z</time>
      </trkpt>
      <trkpt lat="65.621478036046028" lon="13.304757010191679">
        <ele>42.920000000000002</ele>
        <time>2017-06-29T07:23:53Z</time>
      </trkpt>
      <trkpt lat="65.621438976377249" lon="13.305099997669458">
        <ele>43.399999999999999</ele>
        <time>2017-06-29T07:23:55Z</time>
      </trkpt>
      <trkpt lat="65.621381979435682" lon="13.305239975452423">
        <ele>43.399999999999999</ele>
        <time>2017-06-29T07:23:56Z</time>
      </trkpt>
      <trkpt lat="65.621298998594284" lon="13.305353969335556">
        <ele>43.399999999999999</ele>
        <time>2017-06-29T07:23:57Z</time>
      </trkpt>
      <trkpt lat="65.621199002489448" lon="13.305452959612012">
        <ele>43.399999999999999</ele>
        <time>2017-06-29T07:23:58Z</time>
      </trkpt>
      <trkpt lat="65.621085008606315" lon="13.305553961545229">
        <ele>43.399999999999999</ele>
        <time>2017-06-29T07:23:59Z</time>
      </trkpt>
      <trkpt lat="65.619763014838099" lon="13.306483011692762">
        <ele>43.880000000000003</ele>
        <time>2017-06-29T07:24:08Z</time>
      </trkpt>
      <trkpt lat="65.617696959525347" lon="13.306889031082392">
        <ele>45.32</ele>
        <time>2017-06-29T07:24:19Z</time>
      </trkpt>
      <trkpt lat="65.615937011316419" lon="13.307753037661314">
        <ele>43.399999999999999</ele>
        <time>2017-06-29T07:24:28Z</time>
      </trkpt>
      <trkpt lat="65.613004015758634" lon="13.309746002778411">
        <ele>50.130000000000003</ele>
        <time>2017-06-29T07:24:43Z</time>
      </trkpt>
      <trkpt lat="65.611194027587771" lon="13.310201978310943">
        <ele>52.530000000000001</ele>
        <time>2017-06-29T07:24:52Z</time>
      </trkpt>
      <trkpt lat="65.609826017171144" lon="13.311091968789697">
        <ele>55.409999999999997</ele>
        <time>2017-06-29T07:24:59Z</time>
      </trkpt>
      <trkpt lat="65.608870983123779" lon="13.31300999969244">
        <ele>54.450000000000003</ele>
        <time>2017-06-29T07:25:05Z</time>
      </trkpt>
      <trkpt lat="65.607934975996614" lon="13.316740030422807">
        <ele>45.799999999999997</ele>
        <time>2017-06-29T07:25:13Z</time>
      </trkpt>
      <trkpt lat="65.606623962521553" lon="13.321142960339785">
        <ele>41.469999999999999</ele>
        <time>2017-06-29T07:25:23Z</time>
      </trkpt>
      <trkpt lat="65.605095019564033" lon="13.324207970872521">
        <ele>46.759999999999998</ele>
        <time>2017-06-29T07:25:32Z</time>
      </trkpt>
      <trkpt lat="65.60337002389133" lon="13.326533026993275">
        <ele>50.130000000000003</ele>
        <time>2017-06-29T07:25:41Z</time>
      </trkpt>
      <trkpt lat="65.601865975186229" lon="13.328402023762465">
        <ele>56.369999999999997</ele>
        <time>2017-06-29T07:25:49Z</time>
      </trkpt>
      <trkpt lat="65.600266037508845" lon="13.329623015597463">
        <ele>64.069999999999993</ele>
        <time>2017-06-29T07:25:57Z</time>
      </trkpt>
      <trkpt lat="65.598195036873221" lon="13.332900004461408">
        <ele>64.549999999999997</ele>
        <time>2017-06-29T07:26:09Z</time>
      </trkpt>
      <trkpt lat="65.598058998584747" lon="13.333243997767568">
        <ele>64.069999999999993</ele>
        <time>2017-06-29T07:26:10Z</time>
      </trkpt>
      <trkpt lat="65.597938969731331" lon="13.333621015772223">
        <ele>63.100000000000001</ele>
        <time>2017-06-29T07:26:11Z</time>
      </trkpt>
      <trkpt lat="65.597833022475243" lon="13.334029968827963">
        <ele>62.140000000000001</ele>
        <time>2017-06-29T07:26:12Z</time>
      </trkpt>
      <trkpt lat="65.597738977521658" lon="13.334461972117424">
        <ele>61.18</ele>
        <time>2017-06-29T07:26:13Z</time>
      </trkpt>
      <trkpt lat="65.597658008337021" lon="13.334913002327085">
        <ele>59.740000000000002</ele>
        <time>2017-06-29T07:26:14Z</time>
      </trkpt>
      <trkpt lat="65.597189040854573" lon="13.338972022756934">
        <ele>52.049999999999997</ele>
        <time>2017-06-29T07:26:22Z</time>
      </trkpt>
      <trkpt lat="65.597101030871272" lon="13.344118008390069">
        <ele>51.090000000000003</ele>
        <time>2017-06-29T07:26:32Z</time>
      </trkpt>
      <trkpt lat="65.596868013963103" lon="13.351445971056819">
        <ele>46.759999999999998</ele>
        <time>2017-06-29T07:26:47Z</time>
      </trkpt>
      <trkpt lat="65.596583029255271" lon="13.35634502582252">
        <ele>41.950000000000003</ele>
        <time>2017-06-29T07:26:57Z</time>
      </trkpt>
      <trkpt lat="65.596579005941749" lon="13.362341020256281">
        <ele>42.920000000000002</ele>
        <time>2017-06-29T07:27:10Z</time>
      </trkpt>
      <trkpt lat="65.596468029543757" lon="13.368580006062984">
        <ele>40.990000000000002</ele>
        <time>2017-06-29T07:27:24Z</time>
      </trkpt>
      <trkpt lat="65.596672967076302" lon="13.371519958600402">
        <ele>40.509999999999998</ele>
        <time>2017-06-29T07:27:31Z</time>
      </trkpt>
      <trkpt lat="65.597149981185794" lon="13.37563999928534">
        <ele>41.469999999999999</ele>
        <time>2017-06-29T07:27:41Z</time>
      </trkpt>
      <trkpt lat="65.597148975357413" lon="13.376044007018209">
        <ele>40.990000000000002</ele>
        <time>2017-06-29T07:27:42Z</time>
      </trkpt>
      <trkpt lat="65.597134977579117" lon="13.376453965902328">
        <ele>40.990000000000002</ele>
        <time>2017-06-29T07:27:43Z</time>
      </trkpt>
      <trkpt lat="65.596734993159771" lon="13.379819970577955">
        <ele>40.990000000000002</ele>
        <time>2017-06-29T07:27:51Z</time>
      </trkpt>
      <trkpt lat="65.595779959112406" lon="13.383294017985463">
        <ele>42.439999999999998</ele>
        <time>2017-06-29T07:28:00Z</time>
      </trkpt>
      <trkpt lat="65.595633024349809" lon="13.383586965501308">
        <ele>43.880000000000003</ele>
        <time>2017-06-29T07:28:01Z</time>
      </trkpt>
      <trkpt lat="65.595478964969516" lon="13.383841020986438">
        <ele>44.840000000000003</ele>
        <time>2017-06-29T07:28:02Z</time>
      </trkpt>
      <trkpt lat="65.594245987012982" lon="13.385932976379991">
        <ele>50.609999999999999</ele>
        <time>2017-06-29T07:28:10Z</time>
      </trkpt>
      <trkpt lat="65.593692027032375" lon="13.386948024854064">
        <ele>50.609999999999999</ele>
        <time>2017-06-29T07:28:14Z</time>
      </trkpt>
      <trkpt lat="65.593194980174303" lon="13.387767020612955">
        <ele>49.649999999999999</ele>
        <time>2017-06-29T07:28:18Z</time>
      </trkpt>
      <trkpt lat="65.593096995726228" lon="13.388031972572207">
        <ele>48.68</ele>
        <time>2017-06-29T07:28:19Z</time>
      </trkpt>
      <trkpt lat="65.593005968257785" lon="13.388326009735465">
        <ele>47.719999999999999</ele>
        <time>2017-06-29T07:28:20Z</time>
      </trkpt>
      <trkpt lat="65.592740010470152" lon="13.389180041849613">
        <ele>44.840000000000003</ele>
        <time>2017-06-29T07:28:23Z</time>
      </trkpt>
      <trkpt lat="65.59262802824378" lon="13.389399982988834">
        <ele>43.880000000000003</ele>
        <time>2017-06-29T07:28:24Z</time>
      </trkpt>
      <trkpt lat="65.592496013268828" lon="13.389547001570463">
        <ele>43.880000000000003</ele>
        <time>2017-06-29T07:28:25Z</time>
      </trkpt>
      <trkpt lat="65.592351006343961" lon="13.389629982411861">
        <ele>43.399999999999999</ele>
        <time>2017-06-29T07:28:26Z</time>
      </trkpt>
      <trkpt lat="65.59219996444881" lon="13.3896469976753">
        <ele>42.920000000000002</ele>
        <time>2017-06-29T07:28:27Z</time>
      </trkpt>
      <trkpt lat="65.592040959745646" lon="13.389623025432229">
        <ele>42.920000000000002</ele>
        <time>2017-06-29T07:28:28Z</time>
      </trkpt>
      <trkpt lat="65.591879021376371" lon="13.38958497159183">
        <ele>42.920000000000002</ele>
        <time>2017-06-29T07:28:29Z</time>
      </trkpt>
      <trkpt lat="65.590177997946739" lon="13.388773016631603">
        <ele>45.799999999999997</ele>
        <time>2017-06-29T07:28:39Z</time>
      </trkpt>
      <trkpt lat="65.589698972180486" lon="13.388197012245655">
        <ele>45.799999999999997</ele>
        <time>2017-06-29T07:28:42Z</time>
      </trkpt>
      <trkpt lat="65.589528987184167" lon="13.388103973120451">
        <ele>46.280000000000001</ele>
        <time>2017-06-29T07:28:43Z</time>
      </trkpt>
      <trkpt lat="65.589352967217565" lon="13.388082012534142">
        <ele>47.240000000000002</ele>
        <time>2017-06-29T07:28:44Z</time>
      </trkpt>
      <trkpt lat="65.589176025241613" lon="13.388110008090734">
        <ele>48.200000000000003</ele>
        <time>2017-06-29T07:28:45Z</time>
      </trkpt>
      <trkpt lat="65.588992964476347" lon="13.388168010860682">
        <ele>49.159999999999997</ele>
        <time>2017-06-29T07:28:46Z</time>
      </trkpt>
      <trkpt lat="65.588814010843635" lon="13.388263983651996">
        <ele>50.130000000000003</ele>
        <time>2017-06-29T07:28:47Z</time>
      </trkpt>
      <trkpt lat="65.588635979220271" lon="13.388403039425611">
        <ele>51.57</ele>
        <time>2017-06-29T07:28:48Z</time>
      </trkpt>
      <trkpt lat="65.588463982567191" lon="13.388601019978523">
        <ele>52.530000000000001</ele>
        <time>2017-06-29T07:28:49Z</time>
      </trkpt>
      <trkpt lat="65.588296009227633" lon="13.388824984431267">
        <ele>53.490000000000002</ele>
        <time>2017-06-29T07:28:50Z</time>
      </trkpt>
      <trkpt lat="65.587991997599602" lon="13.389324964955449">
        <ele>55.409999999999997</ele>
        <time>2017-06-29T07:28:52Z</time>
      </trkpt>
      <trkpt lat="65.587855959311128" lon="13.389631994068623">
        <ele>56.369999999999997</ele>
        <time>2017-06-29T07:28:53Z</time>
      </trkpt>
      <trkpt lat="65.587734002619982" lon="13.389970036223531">
        <ele>57.340000000000003</ele>
        <time>2017-06-29T07:28:54Z</time>
      </trkpt>
      <trkpt lat="65.587277021259069" lon="13.391305021941662">
        <ele>61.659999999999997</ele>
        <time>2017-06-29T07:28:58Z</time>
      </trkpt>
      <trkpt lat="65.58719496242702" lon="13.391653960570693">
        <ele>62.140000000000001</ele>
        <time>2017-06-29T07:28:59Z</time>
      </trkpt>
      <trkpt lat="65.587124973535538" lon="13.392015974968672">
        <ele>62.619999999999997</ele>
        <time>2017-06-29T07:29:00Z</time>
      </trkpt>
      <trkpt lat="65.586965968832374" lon="13.392702033743262">
        <ele>62.140000000000001</ele>
        <time>2017-06-29T07:29:02Z</time>
      </trkpt>
      <trkpt lat="65.586849041283131" lon="13.392941001802683">
        <ele>62.140000000000001</ele>
        <time>2017-06-29T07:29:03Z</time>
      </trkpt>
      <trkpt lat="65.586716020479798" lon="13.393120961263776">
        <ele>62.140000000000001</ele>
        <time>2017-06-29T07:29:04Z</time>
      </trkpt>
      <trkpt lat="65.586582999676466" lon="13.393198996782303">
        <ele>62.140000000000001</ele>
        <time>2017-06-29T07:29:05Z</time>
      </trkpt>
      <trkpt lat="65.586437992751598" lon="13.393229003995657">
        <ele>62.140000000000001</ele>
        <time>2017-06-29T07:29:06Z</time>
      </trkpt>
      <trkpt lat="65.584117965772748" lon="13.394015980884433">
        <ele>65.030000000000001</ele>
        <time>2017-06-29T07:29:21Z</time>
      </trkpt>
      <trkpt lat="65.583358984440565" lon="13.394365003332496">
        <ele>62.619999999999997</ele>
        <time>2017-06-29T07:29:26Z</time>
      </trkpt>
      <trkpt lat="65.5832190066576" lon="13.394514033570886">
        <ele>62.140000000000001</ele>
        <time>2017-06-29T07:29:27Z</time>
      </trkpt>
      <trkpt lat="65.583086991682649" lon="13.394708996638656">
        <ele>61.18</ele>
        <time>2017-06-29T07:29:28Z</time>
      </trkpt>
      <trkpt lat="65.582962017506361" lon="13.394962968304753">
        <ele>59.740000000000002</ele>
        <time>2017-06-29T07:29:29Z</time>
      </trkpt>
      <trkpt lat="65.582846011966467" lon="13.395245019346476">
        <ele>58.780000000000001</ele>
        <time>2017-06-29T07:29:30Z</time>
      </trkpt>
      <trkpt lat="65.582729000598192" lon="13.395552970468998">
        <ele>57.82</ele>
        <time>2017-06-29T07:29:31Z</time>
      </trkpt>
      <trkpt lat="65.582387018948793" lon="13.396462993696332">
        <ele>54.450000000000003</ele>
        <time>2017-06-29T07:29:34Z</time>
      </trkpt>
      <trkpt lat="65.582293979823589" lon="13.396788965910673">
        <ele>53.009999999999998</ele>
        <time>2017-06-29T07:29:35Z</time>
      </trkpt>
      <trkpt lat="65.582105973735452" lon="13.397401012480259">
        <ele>50.609999999999999</ele>
        <time>2017-06-29T07:29:37Z</time>
      </trkpt>
      <trkpt lat="65.581988962367177" lon="13.397612990811467">
        <ele>49.649999999999999</ele>
        <time>2017-06-29T07:29:38Z</time>
      </trkpt>
      <trkpt lat="65.581858037039638" lon="13.397742994129658">
        <ele>48.68</ele>
        <time>2017-06-29T07:29:39Z</time>
      </trkpt>
      <trkpt lat="65.581709006801248" lon="13.397826980799437">
        <ele>47.719999999999999</ele>
        <time>2017-06-29T07:29:40Z</time>
      </trkpt>
      <trkpt lat="65.581550002098083" lon="13.397907027974725">
        <ele>47.240000000000002</ele>
        <time>2017-06-29T07:29:41Z</time>
      </trkpt>
      <trkpt lat="65.581224029883742" lon="13.398151025176048">
        <ele>44.840000000000003</ele>
        <time>2017-06-29T07:29:43Z</time>
      </trkpt>
      <trkpt lat="65.581061001867056" lon="13.398341964930296">
        <ele>43.399999999999999</ele>
        <time>2017-06-29T07:29:44Z</time>
      </trkpt>
      <trkpt lat="65.579658960923553" lon="13.399750962853432">
        <ele>42.920000000000002</ele>
        <time>2017-06-29T07:29:52Z</time>
      </trkpt>
      <trkpt lat="65.578338978812099" lon="13.399679968133569">
        <ele>44.840000000000003</ele>
        <time>2017-06-29T07:29:59Z</time>
      </trkpt>
      <trkpt lat="65.578161031007767" lon="13.399683991447091">
        <ele>44.840000000000003</ele>
        <time>2017-06-29T07:30:00Z</time>
      </trkpt>
      <trkpt lat="65.577984005212784" lon="13.399725984781981">
        <ele>44.840000000000003</ele>
        <time>2017-06-29T07:30:01Z</time>
      </trkpt>
      <trkpt lat="65.577807985246181" lon="13.399807037785649">
        <ele>44.840000000000003</ele>
        <time>2017-06-29T07:30:02Z</time>
      </trkpt>
      <trkpt lat="65.57763397693634" lon="13.399913990870118">
        <ele>44.840000000000003</ele>
        <time>2017-06-29T07:30:03Z</time>
      </trkpt>
      <trkpt lat="65.577467009425163" lon="13.400055980309844">
        <ele>45.32</ele>
        <time>2017-06-29T07:30:04Z</time>
      </trkpt>
      <trkpt lat="65.577299036085606" lon="13.400202998891473">
        <ele>46.759999999999998</ele>
        <time>2017-06-29T07:30:05Z</time>
      </trkpt>
      <trkpt lat="65.577132990583777" lon="13.400319004431367">
        <ele>47.240000000000002</ele>
        <time>2017-06-29T07:30:06Z</time>
      </trkpt>
      <trkpt lat="65.57696501724422" lon="13.400397039949894">
        <ele>47.719999999999999</ele>
        <time>2017-06-29T07:30:07Z</time>
      </trkpt>
      <trkpt lat="65.576799977570772" lon="13.400411959737539">
        <ele>48.68</ele>
        <time>2017-06-29T07:30:08Z</time>
      </trkpt>
      <trkpt lat="65.576636027544737" lon="13.400382036343217">
        <ele>49.649999999999999</ele>
        <time>2017-06-29T07:30:09Z</time>
      </trkpt>
      <trkpt lat="65.57647199369967" lon="13.400310035794973">
        <ele>50.609999999999999</ele>
        <time>2017-06-29T07:30:10Z</time>
      </trkpt>
      <trkpt lat="65.576310977339745" lon="13.400221019983292">
        <ele>51.090000000000003</ele>
        <time>2017-06-29T07:30:11Z</time>
      </trkpt>
      <trkpt lat="65.575832035392523" lon="13.399860011413693">
        <ele>53.490000000000002</ele>
        <time>2017-06-29T07:30:14Z</time>
      </trkpt>
      <trkpt lat="65.575686022639275" lon="13.399661025032401">
        <ele>53.969999999999999</ele>
        <time>2017-06-29T07:30:15Z</time>
      </trkpt>
      <trkpt lat="65.575561970472336" lon="13.399407975375652">
        <ele>54.93</ele>
        <time>2017-06-29T07:30:16Z</time>
      </trkpt>
      <trkpt lat="65.575448982417583" lon="13.399098012596369">
        <ele>55.890000000000001</ele>
        <time>2017-06-29T07:30:17Z</time>
      </trkpt>
      <trkpt lat="65.575345968827605" lon="13.398790983483195">
        <ele>56.369999999999997</ele>
        <time>2017-06-29T07:30:18Z</time>
      </trkpt>
      <trkpt lat="65.575242033228278" lon="13.398528965190053">
        <ele>57.340000000000003</ele>
        <time>2017-06-29T07:30:19Z</time>
      </trkpt>
      <trkpt lat="65.575123010203242" lon="13.39832897298038">
        <ele>57.340000000000003</ele>
        <time>2017-06-29T07:30:20Z</time>
      </trkpt>
      <trkpt lat="65.574983032420278" lon="13.398208022117615">
        <ele>57.340000000000003</ele>
        <time>2017-06-29T07:30:21Z</time>
      </trkpt>
      <trkpt lat="65.574826961383224" lon="13.398144990205765">
        <ele>57.82</ele>
        <time>2017-06-29T07:30:22Z</time>
      </trkpt>
      <trkpt lat="65.574657982215285" lon="13.398141972720623">
        <ele>57.82</ele>
        <time>2017-06-29T07:30:23Z</time>
      </trkpt>
      <trkpt lat="65.574480034410954" lon="13.398144990205765">
        <ele>57.82</ele>
        <time>2017-06-29T07:30:24Z</time>
      </trkpt>
      <trkpt lat="65.573180001229048" lon="13.398753013461828">
        <ele>55.890000000000001</ele>
        <time>2017-06-29T07:30:31Z</time>
      </trkpt>
      <trkpt lat="65.571700008586049" lon="13.400672972202301">
        <ele>49.159999999999997</ele>
        <time>2017-06-29T07:30:39Z</time>
      </trkpt>
      <trkpt lat="65.570362005382776" lon="13.402891997247934">
        <ele>50.130000000000003</ele>
        <time>2017-06-29T07:30:47Z</time>
      </trkpt>
      <trkpt lat="65.569990016520023" lon="13.403211012482643">
        <ele>49.649999999999999</ele>
        <time>2017-06-29T07:30:49Z</time>
      </trkpt>
      <trkpt lat="65.569796981289983" lon="13.403307991102338">
        <ele>50.130000000000003</ele>
        <time>2017-06-29T07:30:50Z</time>
      </trkpt>
      <trkpt lat="65.569599000737071" lon="13.403368005529046">
        <ele>51.090000000000003</ele>
        <time>2017-06-29T07:30:51Z</time>
      </trkpt>
      <trkpt lat="65.566885024309158" lon="13.403886007145047">
        <ele>50.609999999999999</ele>
        <time>2017-06-29T07:31:04Z</time>
      </trkpt>
      <trkpt lat="65.56540897116065" lon="13.4035690035671">
        <ele>50.609999999999999</ele>
        <time>2017-06-29T07:31:11Z</time>
      </trkpt>
      <trkpt lat="65.563016021624207" lon="13.40202203951776">
        <ele>51.57</ele>
        <time>2017-06-29T07:31:23Z</time>
      </trkpt>
      <trkpt lat="65.561353974044323" lon="13.401466989889741">
        <ele>57.82</ele>
        <time>2017-06-29T07:31:32Z</time>
      </trkpt>
      <trkpt lat="65.561201004311442" lon="13.401397000998259">
        <ele>58.780000000000001</ele>
        <time>2017-06-29T07:31:33Z</time>
      </trkpt>
      <trkpt lat="65.561063038185239" lon="13.401272026821971">
        <ele>59.740000000000002</ele>
        <time>2017-06-29T07:31:34Z</time>
      </trkpt>
      <trkpt lat="65.560948960483074" lon="13.401087960228324">
        <ele>60.700000000000003</ele>
        <time>2017-06-29T07:31:35Z</time>
      </trkpt>
      <trkpt lat="65.560851981863379" lon="13.400847986340523">
        <ele>61.659999999999997</ele>
        <time>2017-06-29T07:31:36Z</time>
      </trkpt>
      <trkpt lat="65.560777969658375" lon="13.400546992197633">
        <ele>61.659999999999997</ele>
        <time>2017-06-29T07:31:37Z</time>
      </trkpt>
      <trkpt lat="65.560712004080415" lon="13.400209033861756">
        <ele>62.619999999999997</ele>
        <time>2017-06-29T07:31:38Z</time>
      </trkpt>
      <trkpt lat="65.560650983825326" lon="13.399861017242074">
        <ele>62.619999999999997</ele>
        <time>2017-06-29T07:31:39Z</time>
      </trkpt>
      <trkpt lat="65.560500025749207" lon="13.399157021194696">
        <ele>63.100000000000001</ele>
        <time>2017-06-29T07:31:41Z</time>
      </trkpt>
      <trkpt lat="65.56040002964437" lon="13.398830965161324">
        <ele>63.579999999999998</ele>
        <time>2017-06-29T07:31:42Z</time>
      </trkpt>
      <trkpt lat="65.560286035761237" lon="13.398515973240137">
        <ele>63.579999999999998</ele>
        <time>2017-06-29T07:31:43Z</time>
      </trkpt>
      <trkpt lat="65.560160977765918" lon="13.398213973268867">
        <ele>63.100000000000001</ele>
        <time>2017-06-29T07:31:44Z</time>
      </trkpt>
      <trkpt lat="65.560025023296475" lon="13.397923037409782">
        <ele>62.619999999999997</ele>
        <time>2017-06-29T07:31:45Z</time>
      </trkpt>
      <trkpt lat="65.559879010543227" lon="13.397650960832834">
        <ele>62.140000000000001</ele>
        <time>2017-06-29T07:31:46Z</time>
      </trkpt>
      <trkpt lat="65.559726040810347" lon="13.397410986945033">
        <ele>60.700000000000003</ele>
        <time>2017-06-29T07:31:47Z</time>
      </trkpt>
      <trkpt lat="65.559564018622041" lon="13.397207977250218">
        <ele>59.740000000000002</ele>
        <time>2017-06-29T07:31:48Z</time>
      </trkpt>
      <trkpt lat="65.559393027797341" lon="13.397042015567422">
        <ele>58.780000000000001</ele>
        <time>2017-06-29T07:31:49Z</time>
      </trkpt>
      <trkpt lat="65.559216002002358" lon="13.396902959793806">
        <ele>57.82</ele>
        <time>2017-06-29T07:31:50Z</time>
      </trkpt>
      <trkpt lat="65.559035036712885" lon="13.396784020587802">
        <ele>56.369999999999997</ele>
        <time>2017-06-29T07:31:51Z</time>
      </trkpt>
      <trkpt lat="65.557467034086585" lon="13.396405996754766">
        <ele>51.57</ele>
        <time>2017-06-29T07:31:59Z</time>
      </trkpt>
      <trkpt lat="65.554823968559504" lon="13.397004967555404">
        <ele>59.740000000000002</ele>
        <time>2017-06-29T07:32:12Z</time>
      </trkpt>
      <trkpt lat="65.551339024677873" lon="13.397046038880944">
        <ele>62.140000000000001</ele>
        <time>2017-06-29T07:32:29Z</time>
      </trkpt>
      <trkpt lat="65.547921974211931" lon="13.39692902751267">
        <ele>73.200000000000003</ele>
        <time>2017-06-29T07:32:46Z</time>
      </trkpt>
      <trkpt lat="65.547579992562532" lon="13.39695199392736">
        <ele>76.560000000000002</ele>
        <time>2017-06-29T07:32:48Z</time>
      </trkpt>
      <trkpt lat="65.54742400534451" lon="13.397055007517338">
        <ele>77.519999999999996</ele>
        <time>2017-06-29T07:32:49Z</time>
      </trkpt>
      <trkpt lat="65.547281010076404" lon="13.397228009998798">
        <ele>78.480000000000004</ele>
        <time>2017-06-29T07:32:50Z</time>
      </trkpt>
      <trkpt lat="65.547151006758213" lon="13.397449962794781">
        <ele>79.450000000000003</ele>
        <time>2017-06-29T07:32:51Z</time>
      </trkpt>
      <trkpt lat="65.547022009268403" lon="13.397674011066556">
        <ele>79.930000000000007</ele>
        <time>2017-06-29T07:32:52Z</time>
      </trkpt>
      <trkpt lat="65.54688697680831" lon="13.397851958870888">
        <ele>80.409999999999997</ele>
        <time>2017-06-29T07:32:53Z</time>
      </trkpt>
      <trkpt lat="65.546739036217332" lon="13.397953966632485">
        <ele>80.409999999999997</ele>
        <time>2017-06-29T07:32:54Z</time>
      </trkpt>
      <trkpt lat="65.546590005978942" lon="13.398009035736322">
        <ele>80.890000000000001</ele>
        <time>2017-06-29T07:32:55Z</time>
      </trkpt>
      <trkpt lat="65.546446004882455" lon="13.398015992715955">
        <ele>82.329999999999998</ele>
        <time>2017-06-29T07:32:56Z</time>
      </trkpt>
      <trkpt lat="65.546298986300826" lon="13.397995037958026">
        <ele>83.769999999999996</ele>
        <time>2017-06-29T07:32:57Z</time>
      </trkpt>
      <trkpt lat="65.544688990339637" lon="13.39776897802949">
        <ele>84.730000000000004</ele>
        <time>2017-06-29T07:33:06Z</time>
      </trkpt>
      <trkpt lat="65.543829007074237" lon="13.39770301245153">
        <ele>83.290000000000006</ele>
        <time>2017-06-29T07:33:11Z</time>
      </trkpt>
      <trkpt lat="65.543674025684595" lon="13.397770989686251">
        <ele>82.329999999999998</ele>
        <time>2017-06-29T07:33:12Z</time>
      </trkpt>
      <trkpt lat="65.543522983789444" lon="13.397901998832822">
        <ele>81.370000000000005</ele>
        <time>2017-06-29T07:33:13Z</time>
      </trkpt>
      <trkpt lat="65.543366996571422" lon="13.398093022406101">
        <ele>80.409999999999997</ele>
        <time>2017-06-29T07:33:14Z</time>
      </trkpt>
      <trkpt lat="65.543215032666922" lon="13.398312041535974">
        <ele>79.450000000000003</ele>
        <time>2017-06-29T07:33:15Z</time>
      </trkpt>
      <trkpt lat="65.542126977816224" lon="13.400512961670756">
        <ele>73.200000000000003</ele>
        <time>2017-06-29T07:33:22Z</time>
      </trkpt>
      <trkpt lat="65.541220977902412" lon="13.402272993698716">
        <ele>74.159999999999997</ele>
        <time>2017-06-29T07:33:27Z</time>
      </trkpt>
      <trkpt lat="65.541040012612939" lon="13.402479020878673">
        <ele>75.120000000000005</ele>
        <time>2017-06-29T07:33:28Z</time>
      </trkpt>
      <trkpt lat="65.539663033559918" lon="13.404250033199787">
        <ele>76.079999999999998</ele>
        <time>2017-06-29T07:33:36Z</time>
      </trkpt>
      <trkpt lat="65.538344979286194" lon="13.405290981754661">
        <ele>84.25</ele>
        <time>2017-06-29T07:33:43Z</time>
      </trkpt>
      <trkpt lat="65.537187019363046" lon="13.406204022467136">
        <ele>89.540000000000006</ele>
        <time>2017-06-29T07:33:50Z</time>
      </trkpt>
      <trkpt lat="65.535723958164454" lon="13.406961997970939">
        <ele>86.659999999999997</ele>
        <time>2017-06-29T07:33:59Z</time>
      </trkpt>
      <trkpt lat="65.534270033240318" lon="13.406860996037722">
        <ele>74.159999999999997</ele>
        <time>2017-06-29T07:34:07Z</time>
      </trkpt>
      <trkpt lat="65.532516958191991" lon="13.405360970646143">
        <ele>64.069999999999993</ele>
        <time>2017-06-29T07:34:17Z</time>
      </trkpt>
      <trkpt lat="65.53135204128921" lon="13.403164995834231">
        <ele>65.510000000000005</ele>
        <time>2017-06-29T07:34:25Z</time>
      </trkpt>
      <trkpt lat="65.529287997633219" lon="13.398358980193734">
        <ele>66.950000000000003</ele>
        <time>2017-06-29T07:34:39Z</time>
      </trkpt>
      <trkpt lat="65.527772968634963" lon="13.395186010748148">
        <ele>68.390000000000001</ele>
        <time>2017-06-29T07:34:49Z</time>
      </trkpt>
      <trkpt lat="65.527598038315773" lon="13.395000016316772">
        <ele>68.870000000000005</ele>
        <time>2017-06-29T07:34:50Z</time>
      </trkpt>
      <trkpt lat="65.527416989207268" lon="13.394864983856678">
        <ele>69.349999999999994</ele>
        <time>2017-06-29T07:34:51Z</time>
      </trkpt>
      <trkpt lat="65.527235018089414" lon="13.394788959994912">
        <ele>70.310000000000002</ele>
        <time>2017-06-29T07:34:52Z</time>
      </trkpt>
      <trkpt lat="65.527047012001276" lon="13.394777979701757">
        <ele>71.269999999999996</ele>
        <time>2017-06-29T07:34:53Z</time>
      </trkpt>
      <trkpt lat="65.5268610175699" lon="13.394815027713776">
        <ele>71.760000000000005</ele>
        <time>2017-06-29T07:34:54Z</time>
      </trkpt>
      <trkpt lat="65.52666898816824" lon="13.394883004948497">
        <ele>72.239999999999995</ele>
        <time>2017-06-29T07:34:55Z</time>
      </trkpt>
      <trkpt lat="65.52606800571084" lon="13.395012002438307">
        <ele>70.790000000000006</ele>
        <time>2017-06-29T07:34:58Z</time>
      </trkpt>
      <trkpt lat="65.525857033208013" lon="13.39497696608305">
        <ele>69.349999999999994</ele>
        <time>2017-06-29T07:34:59Z</time>
      </trkpt>
      <trkpt lat="65.525650000199676" lon="13.394900020211935">
        <ele>68.870000000000005</ele>
        <time>2017-06-29T07:35:00Z</time>
      </trkpt>
      <trkpt lat="65.525077013298869" lon="13.394685024395585">
        <ele>68.390000000000001</ele>
        <time>2017-06-29T07:35:03Z</time>
      </trkpt>
      <trkpt lat="65.524901999160647" lon="13.394701033830643">
        <ele>68.390000000000001</ele>
        <time>2017-06-29T07:35:04Z</time>
      </trkpt>
      <trkpt lat="65.52473503164947" lon="13.394785020500422">
        <ele>67.909999999999997</ele>
        <time>2017-06-29T07:35:05Z</time>
      </trkpt>
      <trkpt lat="65.524569991976023" lon="13.394923992455006">
        <ele>66.950000000000003</ele>
        <time>2017-06-29T07:35:06Z</time>
      </trkpt>
      <trkpt lat="65.524401012808084" lon="13.395081991329789">
        <ele>65.989999999999995</ele>
        <time>2017-06-29T07:35:07Z</time>
      </trkpt>
      <trkpt lat="65.523114977404475" lon="13.396213967353106">
        <ele>67.430000000000007</ele>
        <time>2017-06-29T07:35:14Z</time>
      </trkpt>
      <trkpt lat="65.522705018520355" lon="13.396348999813199">
        <ele>69.829999999999998</ele>
        <time>2017-06-29T07:35:16Z</time>
      </trkpt>
      <trkpt lat="65.522491028532386" lon="13.396341037005186">
        <ele>72.239999999999995</ele>
        <time>2017-06-29T07:35:17Z</time>
      </trkpt>
      <trkpt lat="65.520452968776226" lon="13.395862011238933">
        <ele>79.930000000000007</ele>
        <time>2017-06-29T07:35:27Z</time>
      </trkpt>
      <trkpt lat="65.519233988597989" lon="13.396056974306703">
        <ele>79.930000000000007</ele>
        <time>2017-06-29T07:35:33Z</time>
      </trkpt>
      <trkpt lat="65.519027039408684" lon="13.396022021770477">
        <ele>82.329999999999998</ele>
        <time>2017-06-29T07:35:34Z</time>
      </trkpt>
      <trkpt lat="65.518470983952284" lon="13.395927976816893">
        <ele>84.730000000000004</ele>
        <time>2017-06-29T07:35:37Z</time>
      </trkpt>
      <trkpt lat="65.518296975642443" lon="13.395969970151782">
        <ele>84.25</ele>
        <time>2017-06-29T07:35:38Z</time>
      </trkpt>
      <trkpt lat="65.518131013959646" lon="13.396077007055283">
        <ele>84.730000000000004</ele>
        <time>2017-06-29T07:35:39Z</time>
      </trkpt>
      <trkpt lat="65.51796798594296" lon="13.396240035071969">
        <ele>85.209999999999994</ele>
        <time>2017-06-29T07:35:40Z</time>
      </trkpt>
      <trkpt lat="65.517806969583035" lon="13.396446984261274">
        <ele>85.689999999999998</ele>
        <time>2017-06-29T07:35:41Z</time>
      </trkpt>
      <trkpt lat="65.517463982105255" lon="13.396806987002492">
        <ele>86.180000000000007</ele>
        <time>2017-06-29T07:35:43Z</time>
      </trkpt>
      <trkpt lat="65.517273964360356" lon="13.396917041391134">
        <ele>86.659999999999997</ele>
        <time>2017-06-29T07:35:44Z</time>
      </trkpt>
      <trkpt lat="65.517077995464206" lon="13.396988958120346">
        <ele>86.659999999999997</ele>
        <time>2017-06-29T07:35:45Z</time>
      </trkpt>
      <trkpt lat="65.516064958646894" lon="13.397158021107316">
        <ele>87.140000000000001</ele>
        <time>2017-06-29T07:35:50Z</time>
      </trkpt>
      <trkpt lat="65.515876030549407" lon="13.39727302081883">
        <ele>85.689999999999998</ele>
        <time>2017-06-29T07:35:51Z</time>
      </trkpt>
      <trkpt lat="65.51569196395576" lon="13.39744602330029">
        <ele>84.730000000000004</ele>
        <time>2017-06-29T07:35:52Z</time>
      </trkpt>
      <trkpt lat="65.515508987009525" lon="13.397654984146357">
        <ele>83.769999999999996</ele>
        <time>2017-06-29T07:35:53Z</time>
      </trkpt>
      <trkpt lat="65.515333972871304" lon="13.397894036024809">
        <ele>83.290000000000006</ele>
        <time>2017-06-29T07:35:54Z</time>
      </trkpt>
      <trkpt lat="65.515158958733082" lon="13.398153036832809">
        <ele>82.810000000000002</ele>
        <time>2017-06-29T07:35:55Z</time>
      </trkpt>
      <trkpt lat="65.515008000656962" lon="13.398429974913597">
        <ele>81.849999999999994</ele>
        <time>2017-06-29T07:35:56Z</time>
      </trkpt>
      <trkpt lat="65.514709018170834" lon="13.398933978751302">
        <ele>79.450000000000003</ele>
        <time>2017-06-29T07:35:58Z</time>
      </trkpt>
      <trkpt lat="65.514564011245966" lon="13.399131037294865">
        <ele>78</ele>
        <time>2017-06-29T07:35:59Z</time>
      </trkpt>
      <trkpt lat="65.514409029856324" lon="13.399224998429418">
        <ele>77.040000000000006</ele>
        <time>2017-06-29T07:36:00Z</time>
      </trkpt>
      <trkpt lat="65.514262011274695" lon="13.399238996207714">
        <ele>75.599999999999994</ele>
        <time>2017-06-29T07:36:01Z</time>
      </trkpt>
      <trkpt lat="65.514114992693067" lon="13.399179987609386">
        <ele>74.159999999999997</ele>
        <time>2017-06-29T07:36:02Z</time>
      </trkpt>
      <trkpt lat="65.513969985768199" lon="13.399041015654802">
        <ele>74.640000000000001</ele>
        <time>2017-06-29T07:36:03Z</time>
      </trkpt>
      <trkpt lat="65.513829002156854" lon="13.398828031495214">
        <ele>74.640000000000001</ele>
        <time>2017-06-29T07:36:04Z</time>
      </trkpt>
      <trkpt lat="65.513698998838663" lon="13.398556960746646">
        <ele>74.640000000000001</ele>
        <time>2017-06-29T07:36:05Z</time>
      </trkpt>
      <trkpt lat="65.513576958328485" lon="13.398253032937646">
        <ele>75.120000000000005</ele>
        <time>2017-06-29T07:36:06Z</time>
      </trkpt>
      <trkpt lat="65.513450978323817" lon="13.397917002439499">
        <ele>76.079999999999998</ele>
        <time>2017-06-29T07:36:07Z</time>
      </trkpt>
      <trkpt lat="65.512630976736546" lon="13.394763981923461">
        <ele>82.810000000000002</ele>
        <time>2017-06-29T07:36:15Z</time>
      </trkpt>
      <trkpt lat="65.511734029278159" lon="13.39089397341013">
        <ele>90.5</ele>
        <time>2017-06-29T07:36:24Z</time>
      </trkpt>
      <trkpt lat="65.511593967676163" lon="13.390531959012151">
        <ele>90.5</ele>
        <time>2017-06-29T07:36:25Z</time>
      </trkpt>
      <trkpt lat="65.511434962972999" lon="13.390220990404487">
        <ele>91.459999999999994</ele>
        <time>2017-06-29T07:36:26Z</time>
      </trkpt>
      <trkpt lat="65.511261960491538" lon="13.389967018738389">
        <ele>91.939999999999998</ele>
        <time>2017-06-29T07:36:27Z</time>
      </trkpt>
      <trkpt lat="65.511078983545303" lon="13.389765014871955">
        <ele>92.900000000000006</ele>
        <time>2017-06-29T07:36:28Z</time>
      </trkpt>
      <trkpt lat="65.510887959972024" lon="13.38962503708899">
        <ele>93.390000000000001</ele>
        <time>2017-06-29T07:36:29Z</time>
      </trkpt>
      <trkpt lat="65.510687967762351" lon="13.389549013227224">
        <ele>94.349999999999994</ele>
        <time>2017-06-29T07:36:30Z</time>
      </trkpt>
      <trkpt lat="65.510489987209439" lon="13.389533003792167">
        <ele>95.310000000000002</ele>
        <time>2017-06-29T07:36:31Z</time>
      </trkpt>
      <trkpt lat="65.510291000828147" lon="13.389582959935069">
        <ele>95.310000000000002</ele>
        <time>2017-06-29T07:36:32Z</time>
      </trkpt>
      <trkpt lat="65.510101988911629" lon="13.38968999683857">
        <ele>96.269999999999996</ele>
        <time>2017-06-29T07:36:33Z</time>
      </trkpt>
      <trkpt lat="65.509917000308633" lon="13.389847995713353">
        <ele>96.75</ele>
        <time>2017-06-29T07:36:34Z</time>
      </trkpt>
      <trkpt lat="65.509740980342031" lon="13.39005402289331">
        <ele>97.230000000000004</ele>
        <time>2017-06-29T07:36:35Z</time>
      </trkpt>
      <trkpt lat="65.509577030315995" lon="13.390316963195801">
        <ele>97.230000000000004</ele>
        <time>2017-06-29T07:36:36Z</time>
      </trkpt>
      <trkpt lat="65.509428000077605" lon="13.390623992308974">
        <ele>97.230000000000004</ele>
        <time>2017-06-29T07:36:37Z</time>
      </trkpt>
      <trkpt lat="65.509288022294641" lon="13.390975026413798">
        <ele>97.230000000000004</ele>
        <time>2017-06-29T07:36:38Z</time>
      </trkpt>
      <trkpt lat="65.509151984006166" lon="13.39134500361979">
        <ele>96.75</ele>
        <time>2017-06-29T07:36:39Z</time>
      </trkpt>
      <trkpt lat="65.508054038509727" lon="13.394365003332496">
        <ele>91.939999999999998</ele>
        <time>2017-06-29T07:36:47Z</time>
      </trkpt>
      <trkpt lat="65.507900984957814" lon="13.394649988040328">
        <ele>91.459999999999994</ele>
        <time>2017-06-29T07:36:48Z</time>
      </trkpt>
      <trkpt lat="65.507736029103398" lon="13.39489096775651">
        <ele>91.459999999999994</ele>
        <time>2017-06-29T07:36:49Z</time>
      </trkpt>
      <trkpt lat="65.507554979994893" lon="13.395086014643312">
        <ele>90.980000000000004</ele>
        <time>2017-06-29T07:36:50Z</time>
      </trkpt>
      <trkpt lat="65.507362028583884" lon="13.39523596689105">
        <ele>91.459999999999994</ele>
        <time>2017-06-29T07:36:51Z</time>
      </trkpt>
      <trkpt lat="65.507169999182224" lon="13.395339986309409">
        <ele>91.459999999999994</ele>
        <time>2017-06-29T07:36:52Z</time>
      </trkpt>
      <trkpt lat="65.506985010579228" lon="13.395398994907737">
        <ele>91.939999999999998</ele>
        <time>2017-06-29T07:36:53Z</time>
      </trkpt>
      <trkpt lat="65.506803961470723" lon="13.395419027656317">
        <ele>91.939999999999998</ele>
        <time>2017-06-29T07:36:54Z</time>
      </trkpt>
      <trkpt lat="65.50662299618125" lon="13.395407041534781">
        <ele>92.420000000000002</ele>
        <time>2017-06-29T07:36:55Z</time>
      </trkpt>
      <trkpt lat="65.504894983023405" lon="13.39585798792541">
        <ele>93.870000000000005</ele>
        <time>2017-06-29T07:37:04Z</time>
      </trkpt>
      <trkpt lat="65.503388000652194" lon="13.396383030340075">
        <ele>93.390000000000001</ele>
        <time>2017-06-29T07:37:11Z</time>
      </trkpt>
      <trkpt lat="65.501661999151111" lon="13.395824963226914">
        <ele>94.349999999999994</ele>
        <time>2017-06-29T07:37:19Z</time>
      </trkpt>
      <trkpt lat="65.49916603602469" lon="13.396144984290004">
        <ele>97.230000000000004</ele>
        <time>2017-06-29T07:37:31Z</time>
      </trkpt>
      <trkpt lat="65.497718984261155" lon="13.396787038072944">
        <ele>98.189999999999998</ele>
        <time>2017-06-29T07:37:38Z</time>
      </trkpt>
      <trkpt lat="65.497523015365005" lon="13.396988036110997">
        <ele>99.150000000000006</ele>
        <time>2017-06-29T07:37:39Z</time>
      </trkpt>
      <trkpt lat="65.496175037696958" lon="13.398228976875544">
        <ele>106.84</ele>
        <time>2017-06-29T07:37:46Z</time>
      </trkpt>
      <trkpt lat="65.495407003909349" lon="13.398418994620442">
        <ele>108.77</ele>
        <time>2017-06-29T07:37:50Z</time>
      </trkpt>
      <trkpt lat="65.495228972285986" lon="13.398539023473859">
        <ele>109.25</ele>
        <time>2017-06-29T07:37:51Z</time>
      </trkpt>
      <trkpt lat="65.495058987289667" lon="13.398710014298558">
        <ele>109.73</ele>
        <time>2017-06-29T07:37:52Z</time>
      </trkpt>
      <trkpt lat="65.49489201977849" lon="13.398925010114908">
        <ele>109.73</ele>
        <time>2017-06-29T07:37:53Z</time>
      </trkpt>
      <trkpt lat="65.494726980105042" lon="13.399184010922909">
        <ele>110.20999999999999</ele>
        <time>2017-06-29T07:37:54Z</time>
      </trkpt>
      <trkpt lat="65.494568981230259" lon="13.399461032822728">
        <ele>110.20999999999999</ele>
        <time>2017-06-29T07:37:55Z</time>
      </trkpt>
      <trkpt lat="65.494417017325759" lon="13.399764960631728">
        <ele>110.20999999999999</ele>
        <time>2017-06-29T07:37:56Z</time>
      </trkpt>
      <trkpt lat="65.493232989683747" lon="13.402369972318411">
        <ele>108.29000000000001</ele>
        <time>2017-06-29T07:38:05Z</time>
      </trkpt>
      <trkpt lat="65.493147997185588" lon="13.402680018916726">
        <ele>107.81</ele>
        <time>2017-06-29T07:38:06Z</time>
      </trkpt>
      <trkpt lat="65.493089994415641" lon="13.403030969202518">
        <ele>106.84</ele>
        <time>2017-06-29T07:38:07Z</time>
      </trkpt>
      <trkpt lat="65.493055041879416" lon="13.403409998863935">
        <ele>106.36</ele>
        <time>2017-06-29T07:38:08Z</time>
      </trkpt>
      <trkpt lat="65.493034003302455" lon="13.403808977454901">
        <ele>105.88</ele>
        <time>2017-06-29T07:38:09Z</time>
      </trkpt>
      <trkpt lat="65.493024028837681" lon="13.404211979359388">
        <ele>105.88</ele>
        <time>2017-06-29T07:38:10Z</time>
      </trkpt>
      <trkpt lat="65.492874998599291" lon="13.409788962453604">
        <ele>103.48</ele>
        <time>2017-06-29T07:38:23Z</time>
      </trkpt>
      <trkpt lat="65.49281096085906" lon="13.410880034789443">
        <ele>106.84</ele>
        <time>2017-06-29T07:38:26Z</time>
      </trkpt>
      <trkpt lat="65.492757987231016" lon="13.411210030317307">
        <ele>107.31999999999999</ele>
        <time>2017-06-29T07:38:27Z</time>
      </trkpt>
      <trkpt lat="65.492684980854392" lon="13.411509012803435">
        <ele>107.81</ele>
        <time>2017-06-29T07:38:28Z</time>
      </trkpt>
      <trkpt lat="65.492594037204981" lon="13.411771031096578">
        <ele>109.25</ele>
        <time>2017-06-29T07:38:29Z</time>
      </trkpt>
      <trkpt lat="65.492482976987958" lon="13.411985021084547">
        <ele>110.20999999999999</ele>
        <time>2017-06-29T07:38:30Z</time>
      </trkpt>
      <trkpt lat="65.49235699698329" lon="13.412147965282202">
        <ele>110.69</ele>
        <time>2017-06-29T07:38:31Z</time>
      </trkpt>
      <trkpt lat="65.492217019200325" lon="13.412267994135618">
        <ele>112.13</ele>
        <time>2017-06-29T07:38:32Z</time>
      </trkpt>
      <trkpt lat="65.492065977305174" lon="13.412378970533609">
        <ele>112.61</ele>
        <time>2017-06-29T07:38:33Z</time>
      </trkpt>
      <trkpt lat="65.490332012996078" lon="13.413362000137568">
        <ele>121.73999999999999</ele>
        <time>2017-06-29T07:38:44Z</time>
      </trkpt>
      <trkpt lat="65.488974982872605" lon="13.412740984931588">
        <ele>127.51000000000001</ele>
        <time>2017-06-29T07:38:52Z</time>
      </trkpt>
      <trkpt lat="65.48748099245131" lon="13.411582019180059">
        <ele>128.94999999999999</ele>
        <time>2017-06-29T07:39:00Z</time>
      </trkpt>
      <trkpt lat="65.486199986189604" lon="13.410369995981455">
        <ele>134.24000000000001</ele>
        <time>2017-06-29T07:39:07Z</time>
      </trkpt>
      <trkpt lat="65.485519962385297" lon="13.409589976072311">
        <ele>139.05000000000001</ele>
        <time>2017-06-29T07:39:11Z</time>
      </trkpt>
      <trkpt lat="65.485344026237726" lon="13.409490985795856">
        <ele>140.00999999999999</ele>
        <time>2017-06-29T07:39:12Z</time>
      </trkpt>
      <trkpt lat="65.48516197130084" lon="13.409444969147444">
        <ele>141.44999999999999</ele>
        <time>2017-06-29T07:39:13Z</time>
      </trkpt>
      <trkpt lat="65.484975976869464" lon="13.409428959712386">
        <ele>142.41</ele>
        <time>2017-06-29T07:39:14Z</time>
      </trkpt>
      <trkpt lat="65.484785959124565" lon="13.409432983025908">
        <ele>142.88999999999999</ele>
        <time>2017-06-29T07:39:15Z</time>
      </trkpt>
      <trkpt lat="65.483231032267213" lon="13.409334998577833">
        <ele>131.36000000000001</ele>
        <time>2017-06-29T07:39:23Z</time>
      </trkpt>
      <trkpt lat="65.483055012300611" lon="13.409190997481346">
        <ele>130.40000000000001</ele>
        <time>2017-06-29T07:39:24Z</time>
      </trkpt>
      <trkpt lat="65.482892990112305" lon="13.408989999443293">
        <ele>129.43000000000001</ele>
        <time>2017-06-29T07:39:25Z</time>
      </trkpt>
      <trkpt lat="65.482744965702295" lon="13.408737033605576">
        <ele>128.47</ele>
        <time>2017-06-29T07:39:26Z</time>
      </trkpt>
      <trkpt lat="65.482615968212485" lon="13.408432016149163">
        <ele>127.51000000000001</ele>
        <time>2017-06-29T07:39:27Z</time>
      </trkpt>
      <trkpt lat="65.482515972107649" lon="13.4080829937011">
        <ele>127.03</ele>
        <time>2017-06-29T07:39:28Z</time>
      </trkpt>
      <trkpt lat="65.482428967952728" lon="13.407689966261387">
        <ele>127.51000000000001</ele>
        <time>2017-06-29T07:39:29Z</time>
      </trkpt>
      <trkpt lat="65.482354033738375" lon="13.407290987670422">
        <ele>128.47</ele>
        <time>2017-06-29T07:39:30Z</time>
      </trkpt>
      <trkpt lat="65.482020014896989" lon="13.405835973098874">
        <ele>131.84</ele>
        <time>2017-06-29T07:39:34Z</time>
      </trkpt>
      <trkpt lat="65.481901997700334" lon="13.405515030026436">
        <ele>130.88</ele>
        <time>2017-06-29T07:39:35Z</time>
      </trkpt>
      <trkpt lat="65.481775011867285" lon="13.405215963721275">
        <ele>130.88</ele>
        <time>2017-06-29T07:39:36Z</time>
      </trkpt>
      <trkpt lat="65.481631010770798" lon="13.404929973185062">
        <ele>130.40000000000001</ele>
        <time>2017-06-29T07:39:37Z</time>
      </trkpt>
      <trkpt lat="65.481478041037917" lon="13.404671978205442">
        <ele>129.91999999999999</ele>
        <time>2017-06-29T07:39:38Z</time>
      </trkpt>
      <trkpt lat="65.481305960565805" lon="13.404449019581079">
        <ele>129.43000000000001</ele>
        <time>2017-06-29T07:39:39Z</time>
      </trkpt>
      <trkpt lat="65.481132036074996" lon="13.404264030978084">
        <ele>129.43000000000001</ele>
        <time>2017-06-29T07:39:40Z</time>
      </trkpt>
      <trkpt lat="65.480946963652968" lon="13.404111983254552">
        <ele>129.43000000000001</ele>
        <time>2017-06-29T07:39:41Z</time>
      </trkpt>
      <trkpt lat="65.480763986706734" lon="13.403996983543038">
        <ele>129.43000000000001</ele>
        <time>2017-06-29T07:39:42Z</time>
      </trkpt>
      <trkpt lat="65.480577992275357" lon="13.40391400270164">
        <ele>128.94999999999999</ele>
        <time>2017-06-29T07:39:43Z</time>
      </trkpt>
      <trkpt lat="65.480398032814264" lon="13.403848959133029">
        <ele>129.91999999999999</ele>
        <time>2017-06-29T07:39:44Z</time>
      </trkpt>
      <trkpt lat="65.479383990168571" lon="13.40393596328795">
        <ele>133.75999999999999</ele>
        <time>2017-06-29T07:39:50Z</time>
      </trkpt>
      <trkpt lat="65.478012962266803" lon="13.404414989054203">
        <ele>131.84</ele>
        <time>2017-06-29T07:39:57Z</time>
      </trkpt>
      <trkpt lat="65.476232981309295" lon="13.404929973185062">
        <ele>132.31999999999999</ele>
        <time>2017-06-29T07:40:08Z</time>
      </trkpt>
      <trkpt lat="65.474750977009535" lon="13.404697040095925">
        <ele>132.80000000000001</ele>
        <time>2017-06-29T07:40:17Z</time>
      </trkpt>
      <trkpt lat="65.474296007305384" lon="13.404501993209124">
        <ele>132.31999999999999</ele>
        <time>2017-06-29T07:40:20Z</time>
      </trkpt>
      <trkpt lat="65.4741380084306" lon="13.404501993209124">
        <ele>132.31999999999999</ele>
        <time>2017-06-29T07:40:21Z</time>
      </trkpt>
      <trkpt lat="65.472768992185593" lon="13.404696034267545">
        <ele>132.31999999999999</ele>
        <time>2017-06-29T07:40:30Z</time>
      </trkpt>
      <trkpt lat="65.470948023721576" lon="13.404500987380743">
        <ele>130.88</ele>
        <time>2017-06-29T07:40:41Z</time>
      </trkpt>
      <trkpt lat="65.469743963330984" lon="13.405412016436458">
        <ele>130.40000000000001</ele>
        <time>2017-06-29T07:40:47Z</time>
      </trkpt>
      <trkpt lat="65.467493003234267" lon="13.407418979331851">
        <ele>132.31999999999999</ele>
        <time>2017-06-29T07:40:57Z</time>
      </trkpt>
      <trkpt lat="65.465963976457715" lon="13.408224983140826">
        <ele>131.84</ele>
        <time>2017-06-29T07:41:04Z</time>
      </trkpt>
      <trkpt lat="65.464870976284146" lon="13.407643027603626">
        <ele>128.94999999999999</ele>
        <time>2017-06-29T07:41:09Z</time>
      </trkpt>
      <trkpt lat="65.464669978246093" lon="13.407396012917161">
        <ele>128.94999999999999</ele>
        <time>2017-06-29T07:41:10Z</time>
      </trkpt>
      <trkpt lat="65.46449102461338" lon="13.407098036259413">
        <ele>129.91999999999999</ele>
        <time>2017-06-29T07:41:11Z</time>
      </trkpt>
      <trkpt lat="65.464331014081836" lon="13.406759994104505">
        <ele>132.80000000000001</ele>
        <time>2017-06-29T07:41:12Z</time>
      </trkpt>
      <trkpt lat="65.464176032692194" lon="13.406404014676809">
        <ele>133.75999999999999</ele>
        <time>2017-06-29T07:41:13Z</time>
      </trkpt>
      <trkpt lat="65.464037982746959" lon="13.406031019985676">
        <ele>134.24000000000001</ele>
        <time>2017-06-29T07:41:14Z</time>
      </trkpt>
      <trkpt lat="65.463907979428768" lon="13.405632041394711">
        <ele>134.24000000000001</ele>
        <time>2017-06-29T07:41:15Z</time>
      </trkpt>
      <trkpt lat="65.463162995874882" lon="13.403744017705321">
        <ele>135.19999999999999</ele>
        <time>2017-06-29T07:41:21Z</time>
      </trkpt>
      <trkpt lat="65.463022012263536" lon="13.403552994132042">
        <ele>134.72</ele>
        <time>2017-06-29T07:41:22Z</time>
      </trkpt>
      <trkpt lat="65.462867030873895" lon="13.403394995257258">
        <ele>133.75999999999999</ele>
        <time>2017-06-29T07:41:23Z</time>
      </trkpt>
      <trkpt lat="65.46270702034235" lon="13.403275972232223">
        <ele>132.80000000000001</ele>
        <time>2017-06-29T07:41:24Z</time>
      </trkpt>
      <trkpt lat="65.462538963183761" lon="13.403189973905683">
        <ele>131.84</ele>
        <time>2017-06-29T07:41:25Z</time>
      </trkpt>
      <trkpt lat="65.462364032864571" lon="13.403141023591161">
        <ele>130.40000000000001</ele>
        <time>2017-06-29T07:41:26Z</time>
      </trkpt>
      <trkpt lat="65.462179966270924" lon="13.403123002499342">
        <ele>128.94999999999999</ele>
        <time>2017-06-29T07:41:27Z</time>
      </trkpt>
      <trkpt lat="65.461988020688295" lon="13.403138006106019">
        <ele>127.03</ele>
        <time>2017-06-29T07:41:28Z</time>
      </trkpt>
      <trkpt lat="65.461787022650242" lon="13.403179999440908">
        <ele>125.59</ele>
        <time>2017-06-29T07:41:29Z</time>
      </trkpt>
      <trkpt lat="65.461577977985144" lon="13.403257029131055">
        <ele>123.67</ele>
        <time>2017-06-29T07:41:30Z</time>
      </trkpt>
      <trkpt lat="65.459558023139834" lon="13.404277022927999">
        <ele>114.05</ele>
        <time>2017-06-29T07:41:39Z</time>
      </trkpt>
      <trkpt lat="65.458810022100806" lon="13.404540969058871">
        <ele>115.98</ele>
        <time>2017-06-29T07:41:43Z</time>
      </trkpt>
      <trkpt lat="65.45864699408412" lon="13.404508028179407">
        <ele>117.42</ele>
        <time>2017-06-29T07:41:44Z</time>
      </trkpt>
      <trkpt lat="65.45849796384573" lon="13.404422029852867">
        <ele>118.86</ele>
        <time>2017-06-29T07:41:45Z</time>
      </trkpt>
      <trkpt lat="65.458359997719526" lon="13.404298983514309">
        <ele>120.78</ele>
        <time>2017-06-29T07:41:46Z</time>
      </trkpt>
      <trkpt lat="65.458234017714858" lon="13.404136961326003">
        <ele>122.22</ele>
        <time>2017-06-29T07:41:47Z</time>
      </trkpt>
      <trkpt lat="65.458120023831725" lon="13.403943004086614">
        <ele>123.19</ele>
        <time>2017-06-29T07:41:48Z</time>
      </trkpt>
      <trkpt lat="65.458014998584986" lon="13.403714010491967">
        <ele>124.15000000000001</ele>
        <time>2017-06-29T07:41:49Z</time>
      </trkpt>
      <trkpt lat="65.45791600830853" lon="13.403459032997489">
        <ele>124.63</ele>
        <time>2017-06-29T07:41:50Z</time>
      </trkpt>
      <trkpt lat="65.457820035517216" lon="13.403188968077302">
        <ele>125.11</ele>
        <time>2017-06-29T07:41:51Z</time>
      </trkpt>
      <trkpt lat="65.456774979829788" lon="13.400080036371946">
        <ele>124.15000000000001</ele>
        <time>2017-06-29T07:42:02Z</time>
      </trkpt>
      <trkpt lat="65.456106020137668" lon="13.398320004343987">
        <ele>120.78</ele>
        <time>2017-06-29T07:42:09Z</time>
      </trkpt>
      <trkpt lat="65.455993032082915" lon="13.398147001862526">
        <ele>119.81999999999999</ele>
        <time>2017-06-29T07:42:10Z</time>
      </trkpt>
      <trkpt lat="65.455869985744357" lon="13.398003000766039">
        <ele>118.38</ele>
        <time>2017-06-29T07:42:11Z</time>
      </trkpt>
      <trkpt lat="65.455729002133012" lon="13.397889006882906">
        <ele>116.94</ele>
        <time>2017-06-29T07:42:12Z</time>
      </trkpt>
      <trkpt lat="65.455565974116325" lon="13.397816000506282">
        <ele>116.45999999999999</ele>
        <time>2017-06-29T07:42:13Z</time>
      </trkpt>
      <trkpt lat="65.455379979684949" lon="13.397754980251193">
        <ele>115.5</ele>
        <time>2017-06-29T07:42:14Z</time>
      </trkpt>
      <trkpt lat="65.453642997890711" lon="13.397165983915329">
        <ele>115.98</ele>
        <time>2017-06-29T07:42:22Z</time>
      </trkpt>
      <trkpt lat="65.452258978039026" lon="13.396425023674965">
        <ele>115.5</ele>
        <time>2017-06-29T07:42:29Z</time>
      </trkpt>
      <trkpt lat="65.452086981385946" lon="13.396425023674965">
        <ele>115.5</ele>
        <time>2017-06-29T07:42:30Z</time>
      </trkpt>
      <trkpt lat="65.451907021924853" lon="13.396506998687983">
        <ele>115.5</ele>
        <time>2017-06-29T07:42:31Z</time>
      </trkpt>
      <trkpt lat="65.451732007786632" lon="13.396640019491315">
        <ele>115.98</ele>
        <time>2017-06-29T07:42:32Z</time>
      </trkpt>
      <trkpt lat="65.451560011133552" lon="13.396820984780788">
        <ele>116.45999999999999</ele>
        <time>2017-06-29T07:42:33Z</time>
      </trkpt>
      <trkpt lat="65.451388014480472" lon="13.397030029445887">
        <ele>116.94</ele>
        <time>2017-06-29T07:42:34Z</time>
      </trkpt>
      <trkpt lat="65.450088987126946" lon="13.39813400991261">
        <ele>121.73999999999999</ele>
        <time>2017-06-29T07:42:41Z</time>
      </trkpt>
      <trkpt lat="65.448284028097987" lon="13.398542040959001">
        <ele>121.26000000000001</ele>
        <time>2017-06-29T07:42:50Z</time>
      </trkpt>
      <trkpt lat="65.446129962801933" lon="13.398225037381053">
        <ele>123.67</ele>
        <time>2017-06-29T07:43:01Z</time>
      </trkpt>
      <trkpt lat="65.445968024432659" lon="13.398291002959013">
        <ele>123.67</ele>
        <time>2017-06-29T07:43:02Z</time>
      </trkpt>
      <trkpt lat="65.44582000002265" lon="13.398432992398739">
        <ele>123.67</ele>
        <time>2017-06-29T07:43:03Z</time>
      </trkpt>
      <trkpt lat="65.445683961734176" lon="13.398642959073186">
        <ele>123.19</ele>
        <time>2017-06-29T07:43:04Z</time>
      </trkpt>
      <trkpt lat="65.445567034184933" lon="13.398912018164992">
        <ele>122.22</ele>
        <time>2017-06-29T07:43:05Z</time>
      </trkpt>
      <trkpt lat="65.445459997281432" lon="13.399218041449785">
        <ele>121.73999999999999</ele>
        <time>2017-06-29T07:43:06Z</time>
      </trkpt>
      <trkpt lat="65.445352960377932" lon="13.399550970643759">
        <ele>121.26000000000001</ele>
        <time>2017-06-29T07:43:07Z</time>
      </trkpt>
      <trkpt lat="65.444389963522553" lon="13.403138006106019">
        <ele>118.38</ele>
        <time>2017-06-29T07:43:17Z</time>
      </trkpt>
      <trkpt lat="65.444271024316549" lon="13.403495997190475">
        <ele>116.94</ele>
        <time>2017-06-29T07:43:18Z</time>
      </trkpt>
      <trkpt lat="65.444133980199695" lon="13.403834039345384">
        <ele>115.98</ele>
        <time>2017-06-29T07:43:19Z</time>
      </trkpt>
      <trkpt lat="65.443983022123575" lon="13.40415196493268">
        <ele>114.53</ele>
        <time>2017-06-29T07:43:20Z</time>
      </trkpt>
      <trkpt lat="65.443820999935269" lon="13.404448013752699">
        <ele>114.53</ele>
        <time>2017-06-29T07:43:21Z</time>
      </trkpt>
      <trkpt lat="65.443651014938951" lon="13.404719000682235">
        <ele>114.05</ele>
        <time>2017-06-29T07:43:22Z</time>
      </trkpt>
      <trkpt lat="65.443472983315587" lon="13.404971966519952">
        <ele>114.05</ele>
        <time>2017-06-29T07:43:23Z</time>
      </trkpt>
      <trkpt lat="65.4416090156883" lon="13.406801987439394">
        <ele>115.98</ele>
        <time>2017-06-29T07:43:33Z</time>
      </trkpt>
      <trkpt lat="65.440416019409895" lon="13.406616998836398">
        <ele>117.90000000000001</ele>
        <time>2017-06-29T07:43:39Z</time>
      </trkpt>
      <trkpt lat="65.43888296931982" lon="13.405339010059834">
        <ele>125.11</ele>
        <time>2017-06-29T07:43:48Z</time>
      </trkpt>
      <trkpt lat="65.437583019956946" lon="13.403911991044879">
        <ele>125.11</ele>
        <time>2017-06-29T07:43:57Z</time>
      </trkpt>
      <trkpt lat="65.435476982966065" lon="13.402099991217256">
        <ele>121.26000000000001</ele>
        <time>2017-06-29T07:44:09Z</time>
      </trkpt>
      <trkpt lat="65.433779982849956" lon="13.401348972693086">
        <ele>121.73999999999999</ele>
        <time>2017-06-29T07:44:18Z</time>
      </trkpt>
      <trkpt lat="65.431537991389632" lon="13.399793962016702">
        <ele>123.19</ele>
        <time>2017-06-29T07:44:30Z</time>
      </trkpt>
      <trkpt lat="65.430010976269841" lon="13.398030996322632">
        <ele>125.11</ele>
        <time>2017-06-29T07:44:39Z</time>
      </trkpt>
      <trkpt lat="65.42878101579845" lon="13.396795000880957">
        <ele>127.03</ele>
        <time>2017-06-29T07:44:46Z</time>
      </trkpt>
      <trkpt lat="65.428593009710312" lon="13.396730041131377">
        <ele>127.51000000000001</ele>
        <time>2017-06-29T07:44:47Z</time>
      </trkpt>
      <trkpt lat="65.427678041160107" lon="13.396557960659266">
        <ele>129.43000000000001</ele>
        <time>2017-06-29T07:44:52Z</time>
      </trkpt>
      <trkpt lat="65.425841985270381" lon="13.395885983482003">
        <ele>130.88</ele>
        <time>2017-06-29T07:45:02Z</time>
      </trkpt>
      <trkpt lat="65.424362998455763" lon="13.395861005410552">
        <ele>137.61000000000001</ele>
        <time>2017-06-29T07:45:10Z</time>
      </trkpt>
      <trkpt lat="65.42403400875628" lon="13.395617008209229">
        <ele>139.05000000000001</ele>
        <time>2017-06-29T07:45:12Z</time>
      </trkpt>
      <trkpt lat="65.423891013488173" lon="13.395440988242626">
        <ele>139.53</ele>
        <time>2017-06-29T07:45:13Z</time>
      </trkpt>
      <trkpt lat="65.423756986856461" lon="13.395222974941134">
        <ele>138.09</ele>
        <time>2017-06-29T07:45:14Z</time>
      </trkpt>
      <trkpt lat="65.423637963831425" lon="13.394957017153502">
        <ele>137.13</ele>
        <time>2017-06-29T07:45:15Z</time>
      </trkpt>
      <trkpt lat="65.423532016575336" lon="13.394647976383567">
        <ele>136.63999999999999</ele>
        <time>2017-06-29T07:45:16Z</time>
      </trkpt>
      <trkpt lat="65.423424979671836" lon="13.394331978634">
        <ele>135.68000000000001</ele>
        <time>2017-06-29T07:45:17Z</time>
      </trkpt>
      <trkpt lat="65.423306962475181" lon="13.39403098449111">
        <ele>135.19999999999999</ele>
        <time>2017-06-29T07:45:18Z</time>
      </trkpt>
      <trkpt lat="65.423168996348977" lon="13.393752034753561">
        <ele>134.24000000000001</ele>
        <time>2017-06-29T07:45:19Z</time>
      </trkpt>
      <trkpt lat="65.423014014959335" lon="13.393490016460419">
        <ele>133.28</ele>
        <time>2017-06-29T07:45:20Z</time>
      </trkpt>
      <trkpt lat="65.421740971505642" lon="13.392038019374013">
        <ele>133.75999999999999</ele>
        <time>2017-06-29T07:45:27Z</time>
      </trkpt>
      <trkpt lat="65.420844024047256" lon="13.39091501198709">
        <ele>135.19999999999999</ele>
        <time>2017-06-29T07:45:33Z</time>
      </trkpt>
      <trkpt lat="65.420700022950768" lon="13.390756007283926">
        <ele>135.68000000000001</ele>
        <time>2017-06-29T07:45:34Z</time>
      </trkpt>
      <trkpt lat="65.420544035732746" lon="13.390642013400793">
        <ele>135.68000000000001</ele>
        <time>2017-06-29T07:45:35Z</time>
      </trkpt>
      <trkpt lat="65.41924299672246" lon="13.389846989884973">
        <ele>135.68000000000001</ele>
        <time>2017-06-29T07:45:43Z</time>
      </trkpt>
      <trkpt lat="65.419083992019296" lon="13.389829974621534">
        <ele>135.68000000000001</ele>
        <time>2017-06-29T07:45:44Z</time>
      </trkpt>
      <trkpt lat="65.418930016458035" lon="13.389867022633553">
        <ele>136.16</ele>
        <time>2017-06-29T07:45:45Z</time>
      </trkpt>
      <trkpt lat="65.418453002348542" lon="13.390042958781123">
        <ele>136.63999999999999</ele>
        <time>2017-06-29T07:45:48Z</time>
      </trkpt>
      <trkpt lat="65.418286034837365" lon="13.390045976266265">
        <ele>136.16</ele>
        <time>2017-06-29T07:45:49Z</time>
      </trkpt>
      <trkpt lat="65.418110014870763" lon="13.39001496322453">
        <ele>136.16</ele>
        <time>2017-06-29T07:45:50Z</time>
      </trkpt>
      <trkpt lat="65.416049994528294" lon="13.389320019632578">
        <ele>136.16</ele>
        <time>2017-06-29T07:46:01Z</time>
      </trkpt>
      <trkpt lat="65.414170017465949" lon="13.389640040695667">
        <ele>137.61000000000001</ele>
        <time>2017-06-29T07:46:10Z</time>
      </trkpt>
      <trkpt lat="65.412448961287737" lon="13.389185993000865">
        <ele>139.53</ele>
        <time>2017-06-29T07:46:18Z</time>
      </trkpt>
      <trkpt lat="65.4083720035851" lon="13.386947019025683">
        <ele>140.97</ele>
        <time>2017-06-29T07:46:37Z</time>
      </trkpt>
      <trkpt lat="65.406825039535761" lon="13.38507198728621">
        <ele>141.93000000000001</ele>
        <time>2017-06-29T07:46:45Z</time>
      </trkpt>
      <trkpt lat="65.404965011402965" lon="13.383366018533707">
        <ele>142.41</ele>
        <time>2017-06-29T07:46:54Z</time>
      </trkpt>
      <trkpt lat="65.403599012643099" lon="13.383113974705338">
        <ele>142.41</ele>
        <time>2017-06-29T07:47:00Z</time>
      </trkpt>
      <trkpt lat="65.402005026116967" lon="13.384029027074575">
        <ele>142.88999999999999</ele>
        <time>2017-06-29T07:47:07Z</time>
      </trkpt>
      <trkpt lat="65.40061698295176" lon="13.384107984602451">
        <ele>143.84999999999999</ele>
        <time>2017-06-29T07:47:13Z</time>
      </trkpt>
      <trkpt lat="65.399334970861673" lon="13.382820021361113">
        <ele>144.81999999999999</ele>
        <time>2017-06-29T07:47:19Z</time>
      </trkpt>
      <trkpt lat="65.395991010591388" lon="13.378379959613085">
        <ele>144.81999999999999</ele>
        <time>2017-06-29T07:47:35Z</time>
      </trkpt>
      <trkpt lat="65.393964014947414" lon="13.376772981137037">
        <ele>146.74000000000001</ele>
        <time>2017-06-29T07:47:44Z</time>
      </trkpt>
      <trkpt lat="65.392792979255319" lon="13.374893004074693">
        <ele>144.81999999999999</ele>
        <time>2017-06-29T07:47:50Z</time>
      </trkpt>
      <trkpt lat="65.391589002683759" lon="13.371327007189393">
        <ele>144.81999999999999</ele>
        <time>2017-06-29T07:47:58Z</time>
      </trkpt>
      <trkpt lat="65.389927960932255" lon="13.368192007765174">
        <ele>146.74000000000001</ele>
        <time>2017-06-29T07:48:07Z</time>
      </trkpt>
      <trkpt lat="65.388270020484924" lon="13.366011958569288">
        <ele>148.18000000000001</ele>
        <time>2017-06-29T07:48:15Z</time>
      </trkpt>
      <trkpt lat="65.386771000921726" lon="13.365534022450447">
        <ele>149.62</ele>
        <time>2017-06-29T07:48:21Z</time>
      </trkpt>
      <trkpt lat="65.384747022762895" lon="13.366453014314175">
        <ele>151.06</ele>
        <time>2017-06-29T07:48:29Z</time>
      </trkpt>
      <trkpt lat="65.382852964103222" lon="13.367466973140836">
        <ele>152.50999999999999</ele>
        <time>2017-06-29T07:48:37Z</time>
      </trkpt>
      <trkpt lat="65.380969969555736" lon="13.366888035088778">
        <ele>155.38999999999999</ele>
        <time>2017-06-29T07:48:45Z</time>
      </trkpt>
      <trkpt lat="65.379187976941466" lon="13.365564029663801">
        <ele>160.19999999999999</ele>
        <time>2017-06-29T07:48:53Z</time>
      </trkpt>
      <trkpt lat="65.376893011853099" lon="13.364236000925303">
        <ele>162.59999999999999</ele>
        <time>2017-06-29T07:49:03Z</time>
      </trkpt>
      <trkpt lat="65.374482041224837" lon="13.363698972389102">
        <ele>173.16999999999999</ele>
        <time>2017-06-29T07:49:14Z</time>
      </trkpt>
      <trkpt lat="65.373251996934414" lon="13.364524003118277">
        <ele>182.31</ele>
        <time>2017-06-29T07:49:20Z</time>
      </trkpt>
      <trkpt lat="65.372270978987217" lon="13.366146991029382">
        <ele>186.63</ele>
        <time>2017-06-29T07:49:27Z</time>
      </trkpt>
      <trkpt lat="65.371558014303446" lon="13.368110032752156">
        <ele>184.22999999999999</ele>
        <time>2017-06-29T07:49:35Z</time>
      </trkpt>
      <trkpt lat="65.371012017130852" lon="13.369577033445239">
        <ele>182.78999999999999</ele>
        <time>2017-06-29T07:49:41Z</time>
      </trkpt>
      <trkpt lat="65.370909003540874" lon="13.36975296959281">
        <ele>182.78999999999999</ele>
        <time>2017-06-29T07:49:42Z</time>
      </trkpt>
      <trkpt lat="65.370795009657741" lon="13.369888002052903">
        <ele>182.78999999999999</ele>
        <time>2017-06-29T07:49:43Z</time>
      </trkpt>
      <trkpt lat="65.370670035481453" lon="13.369979029521346">
        <ele>183.27000000000001</ele>
        <time>2017-06-29T07:49:44Z</time>
      </trkpt>
      <trkpt lat="65.370538020506501" lon="13.370039965957403">
        <ele>183.27000000000001</ele>
        <time>2017-06-29T07:49:45Z</time>
      </trkpt>
      <trkpt lat="65.370399970561266" lon="13.370072990655899">
        <ele>183.75</ele>
        <time>2017-06-29T07:49:46Z</time>
      </trkpt>
      <trkpt lat="65.370258986949921" lon="13.370082965120673">
        <ele>183.75</ele>
        <time>2017-06-29T07:49:47Z</time>
      </trkpt>
      <trkpt lat="65.370112974196672" lon="13.370086988434196">
        <ele>184.22999999999999</ele>
        <time>2017-06-29T07:49:48Z</time>
      </trkpt>
      <trkpt lat="65.368848983198404" lon="13.370755026116967">
        <ele>183.27000000000001</ele>
        <time>2017-06-29T07:49:56Z</time>
      </trkpt>
      <trkpt lat="65.367460018023849" lon="13.372329985722899">
        <ele>182.31</ele>
        <time>2017-06-29T07:50:04Z</time>
      </trkpt>
      <trkpt lat="65.367302019149065" lon="13.372610025107861">
        <ele>182.31</ele>
        <time>2017-06-29T07:50:05Z</time>
      </trkpt>
      <trkpt lat="65.36716103553772" lon="13.372940020635724">
        <ele>182.78999999999999</ele>
        <time>2017-06-29T07:50:06Z</time>
      </trkpt>
      <trkpt lat="65.367030026391149" lon="13.373300023376942">
        <ele>182.31</ele>
        <time>2017-06-29T07:50:07Z</time>
      </trkpt>
      <trkpt lat="65.366912009194493" lon="13.373667988926172">
        <ele>181.83000000000001</ele>
        <time>2017-06-29T07:50:08Z</time>
      </trkpt>
      <trkpt lat="65.366077004000545" lon="13.376256991177797">
        <ele>181.83000000000001</ele>
        <time>2017-06-29T07:50:15Z</time>
      </trkpt>
      <trkpt lat="65.365914981812239" lon="13.376540970057249">
        <ele>181.83000000000001</ele>
        <time>2017-06-29T07:50:16Z</time>
      </trkpt>
      <trkpt lat="65.365738961845636" lon="13.376774992793798">
        <ele>182.78999999999999</ele>
        <time>2017-06-29T07:50:17Z</time>
      </trkpt>
      <trkpt lat="65.36555103957653" lon="13.376944977790117">
        <ele>182.78999999999999</ele>
        <time>2017-06-29T07:50:18Z</time>
      </trkpt>
      <trkpt lat="65.36535901017487" lon="13.377053020521998">
        <ele>183.75</ele>
        <time>2017-06-29T07:50:19Z</time>
      </trkpt>
      <trkpt lat="65.365154994651675" lon="13.377112029120326">
        <ele>183.75</ele>
        <time>2017-06-29T07:50:20Z</time>
      </trkpt>
      <trkpt lat="65.364948967471719" lon="13.3771410305053">
        <ele>183.75</ele>
        <time>2017-06-29T07:50:21Z</time>
      </trkpt>
      <trkpt lat="65.363000007346272" lon="13.377697002142668">
        <ele>185.66999999999999</ele>
        <time>2017-06-29T07:50:31Z</time>
      </trkpt>
      <trkpt lat="65.361463017761707" lon="13.379185041412711">
        <ele>186.15000000000001</ele>
        <time>2017-06-29T07:50:40Z</time>
      </trkpt>
      <trkpt lat="65.361284986138344" lon="13.379266010597348">
        <ele>186.15000000000001</ele>
        <time>2017-06-29T07:50:41Z</time>
      </trkpt>
      <trkpt lat="65.361108966171741" lon="13.379287971183658">
        <ele>186.63</ele>
        <time>2017-06-29T07:50:42Z</time>
      </trkpt>
      <trkpt lat="65.36093101836741" lon="13.379272967576981">
        <ele>186.63</ele>
        <time>2017-06-29T07:50:43Z</time>
      </trkpt>
      <trkpt lat="65.360751980915666" lon="13.379224017262459">
        <ele>186.63</ele>
        <time>2017-06-29T07:50:44Z</time>
      </trkpt>
      <trkpt lat="65.358552988618612" lon="13.378264037892222">
        <ele>188.08000000000001</ele>
        <time>2017-06-29T07:50:57Z</time>
      </trkpt>
      <trkpt lat="65.358393983915448" lon="13.378071002662182">
        <ele>188.08000000000001</ele>
        <time>2017-06-29T07:50:58Z</time>
      </trkpt>
      <trkpt lat="65.358241014182568" lon="13.377836979925632">
        <ele>188.08000000000001</ele>
        <time>2017-06-29T07:50:59Z</time>
      </trkpt>
      <trkpt lat="65.358091983944178" lon="13.377580996602774">
        <ele>187.59</ele>
        <time>2017-06-29T07:51:00Z</time>
      </trkpt>
      <trkpt lat="65.357947982847691" lon="13.377302968874574">
        <ele>187.59</ele>
        <time>2017-06-29T07:51:01Z</time>
      </trkpt>
      <trkpt lat="65.356232961639762" lon="13.374258996918797">
        <ele>188.56</ele>
        <time>2017-06-29T07:51:12Z</time>
      </trkpt>
      <trkpt lat="65.354424985125661" lon="13.372062016278505">
        <ele>190</ele>
        <time>2017-06-29T07:51:23Z</time>
      </trkpt>
      <trkpt lat="65.352670988067985" lon="13.370499964803457">
        <ele>193.84</ele>
        <time>2017-06-29T07:51:34Z</time>
      </trkpt>
      <trkpt lat="65.35051298327744" lon="13.369749030098319">
        <ele>191.44</ele>
        <time>2017-06-29T07:51:45Z</time>
      </trkpt>
      <trkpt lat="65.350299999117851" lon="13.369790017604828">
        <ele>191.44</ele>
        <time>2017-06-29T07:51:46Z</time>
      </trkpt>
      <trkpt lat="65.350090032443404" lon="13.369869980961084">
        <ele>190.47999999999999</ele>
        <time>2017-06-29T07:51:47Z</time>
      </trkpt>
      <trkpt lat="65.3484480176121" lon="13.370242975652218">
        <ele>194.31999999999999</ele>
        <time>2017-06-29T07:51:55Z</time>
      </trkpt>
      <trkpt lat="65.346499979496002" lon="13.369358014315367">
        <ele>195.28</ele>
        <time>2017-06-29T07:52:05Z</time>
      </trkpt>
      <trkpt lat="65.346307028084993" lon="13.369377963244915">
        <ele>195.77000000000001</ele>
        <time>2017-06-29T07:52:06Z</time>
      </trkpt>
      <trkpt lat="65.346120027825236" lon="13.369459016248584">
        <ele>198.16999999999999</ele>
        <time>2017-06-29T07:52:07Z</time>
      </trkpt>
      <trkpt lat="65.344607010483742" lon="13.370205005630851">
        <ele>196.25</ele>
        <time>2017-06-29T07:52:15Z</time>
      </trkpt>
      <trkpt lat="65.342597030103207" lon="13.370237024500966">
        <ele>204.41999999999999</ele>
        <time>2017-06-29T07:52:27Z</time>
      </trkpt>
      <trkpt lat="65.3414870146662" lon="13.370746979489923">
        <ele>206.81999999999999</ele>
        <time>2017-06-29T07:52:34Z</time>
      </trkpt>
      <trkpt lat="65.341177973896265" lon="13.371158028021455">
        <ele>206.34</ele>
        <time>2017-06-29T07:52:36Z</time>
      </trkpt>
      <trkpt lat="65.341033972799778" lon="13.371416023001075">
        <ele>206.34</ele>
        <time>2017-06-29T07:52:37Z</time>
      </trkpt>
      <trkpt lat="65.340077010914683" lon="13.373313015326858">
        <ele>212.11000000000001</ele>
        <time>2017-06-29T07:52:44Z</time>
      </trkpt>
      <trkpt lat="65.339914988726377" lon="13.373501021414995">
        <ele>212.59</ele>
        <time>2017-06-29T07:52:45Z</time>
      </trkpt>
      <trkpt lat="65.339741986244917" lon="13.373666983097792">
        <ele>212.11000000000001</ele>
        <time>2017-06-29T07:52:46Z</time>
      </trkpt>
      <trkpt lat="65.339562026783824" lon="13.373802015557885">
        <ele>212.11000000000001</ele>
        <time>2017-06-29T07:52:47Z</time>
      </trkpt>
      <trkpt lat="65.339379971846938" lon="13.373909974470735">
        <ele>212.11000000000001</ele>
        <time>2017-06-29T07:52:48Z</time>
      </trkpt>
      <trkpt lat="65.339184002950788" lon="13.3739859983325">
        <ele>210.66999999999999</ele>
        <time>2017-06-29T07:52:49Z</time>
      </trkpt>
      <trkpt lat="65.338978981599212" lon="13.374037966132164">
        <ele>209.22</ele>
        <time>2017-06-29T07:52:50Z</time>
      </trkpt>
      <trkpt lat="65.336377993226051" lon="13.374535012990236">
        <ele>202.49000000000001</ele>
        <time>2017-06-29T07:53:02Z</time>
      </trkpt>
      <trkpt lat="65.334421992301941" lon="13.375730020925403">
        <ele>195.28</ele>
        <time>2017-06-29T07:53:11Z</time>
      </trkpt>
      <trkpt lat="65.331365028396249" lon="13.377747964113951">
        <ele>195.77000000000001</ele>
        <time>2017-06-29T07:53:26Z</time>
      </trkpt>
      <trkpt lat="65.32986399717629" lon="13.377790041267872">
        <ele>201.05000000000001</ele>
        <time>2017-06-29T07:53:33Z</time>
      </trkpt>
      <trkpt lat="65.327576994895935" lon="13.378477022051811">
        <ele>195.77000000000001</ele>
        <time>2017-06-29T07:53:43Z</time>
      </trkpt>
      <trkpt lat="65.326273022219539" lon="13.379319990053773">
        <ele>198.65000000000001</ele>
        <time>2017-06-29T07:53:50Z</time>
      </trkpt>
      <trkpt lat="65.325152026489377" lon="13.379381010308862">
        <ele>198.65000000000001</ele>
        <time>2017-06-29T07:53:56Z</time>
      </trkpt>
      <trkpt lat="65.32335301861167" lon="13.378231013193727">
        <ele>200.56999999999999</ele>
        <time>2017-06-29T07:54:06Z</time>
      </trkpt>
      <trkpt lat="65.322037981823087" lon="13.377935970202088">
        <ele>200.56999999999999</ele>
        <time>2017-06-29T07:54:12Z</time>
      </trkpt>
      <trkpt lat="65.321602961048484" lon="13.377822982147336">
        <ele>201.53</ele>
        <time>2017-06-29T07:54:14Z</time>
      </trkpt>
      <trkpt lat="65.321405986323953" lon="13.377684010192752">
        <ele>202.00999999999999</ele>
        <time>2017-06-29T07:54:15Z</time>
      </trkpt>
      <trkpt lat="65.321218986064196" lon="13.377481000497937">
        <ele>202.49000000000001</ele>
        <time>2017-06-29T07:54:16Z</time>
      </trkpt>
      <trkpt lat="65.321039026603103" lon="13.377226023003459">
        <ele>202.97999999999999</ele>
        <time>2017-06-29T07:54:17Z</time>
      </trkpt>
      <trkpt lat="65.320869041606784" lon="13.376921005547047">
        <ele>202.97999999999999</ele>
        <time>2017-06-29T07:54:18Z</time>
      </trkpt>
      <trkpt lat="65.320705007761717" lon="13.376572988927364">
        <ele>202.97999999999999</ele>
        <time>2017-06-29T07:54:19Z</time>
      </trkpt>
      <trkpt lat="65.318766022101045" lon="13.372492007911205">
        <ele>198.65000000000001</ele>
        <time>2017-06-29T07:54:30Z</time>
      </trkpt>
      <trkpt lat="65.316538028419018" lon="13.366966992616653">
        <ele>199.61000000000001</ele>
        <time>2017-06-29T07:54:44Z</time>
      </trkpt>
      <trkpt lat="65.314900958910584" lon="13.361812038347125">
        <ele>199.13</ele>
        <time>2017-06-29T07:54:56Z</time>
      </trkpt>
      <trkpt lat="65.314121022820473" lon="13.358092987909913">
        <ele>200.09</ele>
        <time>2017-06-29T07:55:04Z</time>
      </trkpt>
      <trkpt lat="65.313929999247193" lon="13.356852969154716">
        <ele>200.56999999999999</ele>
        <time>2017-06-29T07:55:07Z</time>
      </trkpt>
      <trkpt lat="65.313908038660884" lon="13.356408979743719">
        <ele>200.56999999999999</ele>
        <time>2017-06-29T07:55:08Z</time>
      </trkpt>
      <trkpt lat="65.313912983983755" lon="13.355971025303006">
        <ele>200.56999999999999</ele>
        <time>2017-06-29T07:55:09Z</time>
      </trkpt>
      <trkpt lat="65.313947014510632" lon="13.355534998700023">
        <ele>200.56999999999999</ele>
        <time>2017-06-29T07:55:10Z</time>
      </trkpt>
      <trkpt lat="65.31401096843183" lon="13.355105007067323">
        <ele>201.05000000000001</ele>
        <time>2017-06-29T07:55:11Z</time>
      </trkpt>
      <trkpt lat="65.31409696675837" lon="13.354671997949481">
        <ele>201.53</ele>
        <time>2017-06-29T07:55:12Z</time>
      </trkpt>
      <trkpt lat="65.314200986176729" lon="13.354246029630303">
        <ele>201.53</ele>
        <time>2017-06-29T07:55:13Z</time>
      </trkpt>
      <trkpt lat="65.314312968403101" lon="13.353827018290758">
        <ele>202.00999999999999</ele>
        <time>2017-06-29T07:55:14Z</time>
      </trkpt>
      <trkpt lat="65.314785037189722" lon="13.351008016616106">
        <ele>203.46000000000001</ele>
        <time>2017-06-29T07:55:20Z</time>
      </trkpt>
      <trkpt lat="65.314918980002403" lon="13.347996985539794">
        <ele>202.49000000000001</ele>
        <time>2017-06-29T07:55:26Z</time>
      </trkpt>
      <trkpt lat="65.314892996102571" lon="13.347511002793908">
        <ele>201.53</ele>
        <time>2017-06-29T07:55:27Z</time>
      </trkpt>
      <trkpt lat="65.314841028302908" lon="13.347034994512796">
        <ele>201.05000000000001</ele>
        <time>2017-06-29T07:55:28Z</time>
      </trkpt>
      <trkpt lat="65.314768021926284" lon="13.346569966524839">
        <ele>201.05000000000001</ele>
        <time>2017-06-29T07:55:29Z</time>
      </trkpt>
      <trkpt lat="65.314686968922615" lon="13.346108039841056">
        <ele>201.05000000000001</ele>
        <time>2017-06-29T07:55:30Z</time>
      </trkpt>
      <trkpt lat="65.314171984791756" lon="13.342211041599512">
        <ele>199.61000000000001</ele>
        <time>2017-06-29T07:55:38Z</time>
      </trkpt>
      <trkpt lat="65.313418032601476" lon="13.339045029133558">
        <ele>197.69</ele>
        <time>2017-06-29T07:55:45Z</time>
      </trkpt>
      <trkpt lat="65.312220007181168" lon="13.336209012195468">
        <ele>198.16999999999999</ele>
        <time>2017-06-29T07:55:53Z</time>
      </trkpt>
      <trkpt lat="65.311877019703388" lon="13.335721017792821">
        <ele>199.61000000000001</ele>
        <time>2017-06-29T07:55:55Z</time>
      </trkpt>
      <trkpt lat="65.311692031100392" lon="13.33554801531136">
        <ele>200.56999999999999</ele>
        <time>2017-06-29T07:55:56Z</time>
      </trkpt>
      <trkpt lat="65.311501007527113" lon="13.335424968972802">
        <ele>201.53</ele>
        <time>2017-06-29T07:55:57Z</time>
      </trkpt>
      <trkpt lat="65.31130101531744" lon="13.335338970646262">
        <ele>202.00999999999999</ele>
        <time>2017-06-29T07:55:58Z</time>
      </trkpt>
      <trkpt lat="65.311092976480722" lon="13.335292031988502">
        <ele>202.00999999999999</ele>
        <time>2017-06-29T07:55:59Z</time>
      </trkpt>
      <trkpt lat="65.310875969007611" lon="13.335287002846599">
        <ele>202.49000000000001</ele>
        <time>2017-06-29T07:56:00Z</time>
      </trkpt>
      <trkpt lat="65.310658039525151" lon="13.335309969261289">
        <ele>202.49000000000001</ele>
        <time>2017-06-29T07:56:01Z</time>
      </trkpt>
      <trkpt lat="65.310428962111473" lon="13.33537601865828">
        <ele>202.49000000000001</ele>
        <time>2017-06-29T07:56:02Z</time>
      </trkpt>
      <trkpt lat="65.307207964360714" lon="13.336282018572092">
        <ele>202.97999999999999</ele>
        <time>2017-06-29T07:56:16Z</time>
      </trkpt>
      <trkpt lat="65.306999003514647" lon="13.336381008848548">
        <ele>202.97999999999999</ele>
        <time>2017-06-29T07:56:17Z</time>
      </trkpt>
      <trkpt lat="65.306801022961736" lon="13.336530961096287">
        <ele>202.97999999999999</ele>
        <time>2017-06-29T07:56:18Z</time>
      </trkpt>
      <trkpt lat="65.306614022701979" lon="13.33672902546823">
        <ele>202.97999999999999</ele>
        <time>2017-06-29T07:56:19Z</time>
      </trkpt>
      <trkpt lat="65.306432973593473" lon="13.336974028497934">
        <ele>202.49000000000001</ele>
        <time>2017-06-29T07:56:20Z</time>
      </trkpt>
      <trkpt lat="65.306261982768774" lon="13.337260019034147">
        <ele>202.49000000000001</ele>
        <time>2017-06-29T07:56:21Z</time>
      </trkpt>
      <trkpt lat="65.306099960580468" lon="13.337583979591727">
        <ele>202.49000000000001</ele>
        <time>2017-06-29T07:56:22Z</time>
      </trkpt>
      <trkpt lat="65.305943973362446" lon="13.337929984554648">
        <ele>202.49000000000001</ele>
        <time>2017-06-29T07:56:23Z</time>
      </trkpt>
      <trkpt lat="65.305797960609198" lon="13.338295016437769">
        <ele>202.49000000000001</ele>
        <time>2017-06-29T07:56:24Z</time>
      </trkpt>
      <trkpt lat="65.305654965341091" lon="13.338682008907199">
        <ele>202.49000000000001</ele>
        <time>2017-06-29T07:56:25Z</time>
      </trkpt>
      <trkpt lat="65.305369980633259" lon="13.339393967762589">
        <ele>202.49000000000001</ele>
        <time>2017-06-29T07:56:27Z</time>
      </trkpt>
      <trkpt lat="65.305208964273334" lon="13.339653974398971">
        <ele>202.49000000000001</ele>
        <time>2017-06-29T07:56:28Z</time>
      </trkpt>
      <trkpt lat="65.305034033954144" lon="13.33982496522367">
        <ele>202.49000000000001</ele>
        <time>2017-06-29T07:56:29Z</time>
      </trkpt>
      <trkpt lat="65.304847033694386" lon="13.339913981035352">
        <ele>202.00999999999999</ele>
        <time>2017-06-29T07:56:30Z</time>
      </trkpt>
      <trkpt lat="65.304660033434629" lon="13.339961003512144">
        <ele>202.00999999999999</ele>
        <time>2017-06-29T07:56:31Z</time>
      </trkpt>
      <trkpt lat="65.304468004032969" lon="13.339996039867401">
        <ele>202.00999999999999</ele>
        <time>2017-06-29T07:56:32Z</time>
      </trkpt>
      <trkpt lat="65.301774982362986" lon="13.340436005964875">
        <ele>202.49000000000001</ele>
        <time>2017-06-29T07:56:45Z</time>
      </trkpt>
      <trkpt lat="65.299457972869277" lon="13.341037994250655">
        <ele>201.05000000000001</ele>
        <time>2017-06-29T07:56:56Z</time>
      </trkpt>
      <trkpt lat="65.299062011763453" lon="13.341146036982536">
        <ele>201.05000000000001</ele>
        <time>2017-06-29T07:56:58Z</time>
      </trkpt>
      <trkpt lat="65.298856990411878" lon="13.341142013669014">
        <ele>201.05000000000001</ele>
        <time>2017-06-29T07:56:59Z</time>
      </trkpt>
      <trkpt lat="65.298650963231921" lon="13.341093985363841">
        <ele>201.53</ele>
        <time>2017-06-29T07:57:00Z</time>
      </trkpt>
      <trkpt lat="65.296962009742856" lon="13.340625017881393">
        <ele>205.86000000000001</ele>
        <time>2017-06-29T07:57:08Z</time>
      </trkpt>
      <trkpt lat="65.295995995402336" lon="13.339762017130852">
        <ele>208.25999999999999</ele>
        <time>2017-06-29T07:57:13Z</time>
      </trkpt>
      <trkpt lat="65.295834979042411" lon="13.339483989402652">
        <ele>209.69999999999999</ele>
        <time>2017-06-29T07:57:14Z</time>
      </trkpt>
      <trkpt lat="65.295686032623053" lon="13.339164974167943">
        <ele>211.15000000000001</ele>
        <time>2017-06-29T07:57:15Z</time>
      </trkpt>
      <trkpt lat="65.295545971021056" lon="13.338818969205022">
        <ele>212.59</ele>
        <time>2017-06-29T07:57:16Z</time>
      </trkpt>
      <trkpt lat="65.295414039865136" lon="13.33844899199903">
        <ele>214.03</ele>
        <time>2017-06-29T07:57:17Z</time>
      </trkpt>
      <trkpt lat="65.294853039085865" lon="13.33711501210928">
        <ele>218.36000000000001</ele>
        <time>2017-06-29T07:57:21Z</time>
      </trkpt>
      <trkpt lat="65.294684981927276" lon="13.336878977715969">
        <ele>219.80000000000001</ele>
        <time>2017-06-29T07:57:22Z</time>
      </trkpt>
      <trkpt lat="65.294505022466183" lon="13.336706981062889">
        <ele>220.75999999999999</ele>
        <time>2017-06-29T07:57:23Z</time>
      </trkpt>
      <trkpt lat="65.294320033863187" lon="13.33657999522984">
        <ele>222.19999999999999</ele>
        <time>2017-06-29T07:57:24Z</time>
      </trkpt>
      <trkpt lat="65.294126998633146" lon="13.336467007175088">
        <ele>223.63999999999999</ele>
        <time>2017-06-29T07:57:25Z</time>
      </trkpt>
      <trkpt lat="65.293561974540353" lon="13.335968032479286">
        <ele>226.53</ele>
        <time>2017-06-29T07:57:28Z</time>
      </trkpt>
      <trkpt lat="65.293394001200795" lon="13.335701990872622">
        <ele>228.44999999999999</ele>
        <time>2017-06-29T07:57:29Z</time>
      </trkpt>
      <trkpt lat="65.293238013982773" lon="13.335393033921719">
        <ele>229.88999999999999</ele>
        <time>2017-06-29T07:57:30Z</time>
      </trkpt>
      <trkpt lat="65.292928973212838" lon="13.334779981523752">
        <ele>232.30000000000001</ele>
        <time>2017-06-29T07:57:32Z</time>
      </trkpt>
      <trkpt lat="65.292763011530042" lon="13.334545958787203">
        <ele>233.74000000000001</ele>
        <time>2017-06-29T07:57:33Z</time>
      </trkpt>
      <trkpt lat="65.292583974078298" lon="13.334363987669349">
        <ele>234.69999999999999</ele>
        <time>2017-06-29T07:57:34Z</time>
      </trkpt>
      <trkpt lat="65.292394962161779" lon="13.334227027371526">
        <ele>236.13999999999999</ele>
        <time>2017-06-29T07:57:35Z</time>
      </trkpt>
      <trkpt lat="65.292197987437248" lon="13.334127031266689">
        <ele>236.62</ele>
        <time>2017-06-29T07:57:36Z</time>
      </trkpt>
      <trkpt lat="65.290769962593913" lon="13.333480032160878">
        <ele>241.43000000000001</ele>
        <time>2017-06-29T07:57:43Z</time>
      </trkpt>
      <trkpt lat="65.29056603088975" lon="13.333481037989259">
        <ele>242.38999999999999</ele>
        <time>2017-06-29T07:57:44Z</time>
      </trkpt>
      <trkpt lat="65.28912702575326" lon="13.333587991073728">
        <ele>245.27000000000001</ele>
        <time>2017-06-29T07:57:51Z</time>
      </trkpt>
      <trkpt lat="65.288920998573303" lon="13.333493024110794">
        <ele>245.27000000000001</ele>
        <time>2017-06-29T07:57:52Z</time>
      </trkpt>
      <trkpt lat="65.288301995024085" lon="13.333156993612647">
        <ele>245.27000000000001</ele>
        <time>2017-06-29T07:57:55Z</time>
      </trkpt>
      <trkpt lat="65.288090016692877" lon="13.333124974742532">
        <ele>245.27000000000001</ele>
        <time>2017-06-29T07:57:56Z</time>
      </trkpt>
      <trkpt lat="65.287875020876527" lon="13.333152970299125">
        <ele>245.27000000000001</ele>
        <time>2017-06-29T07:57:57Z</time>
      </trkpt>
      <trkpt lat="65.287660025060177" lon="13.333233017474413">
        <ele>245.75</ele>
        <time>2017-06-29T07:57:58Z</time>
      </trkpt>
      <trkpt lat="65.287447040900588" lon="13.333335025236011">
        <ele>245.75</ele>
        <time>2017-06-29T07:57:59Z</time>
      </trkpt>
      <trkpt lat="65.286618992686272" lon="13.333574999123812">
        <ele>246.22999999999999</ele>
        <time>2017-06-29T07:58:03Z</time>
      </trkpt>
      <trkpt lat="65.28642101213336" lon="13.333529988303781">
        <ele>245.75</ele>
        <time>2017-06-29T07:58:04Z</time>
      </trkpt>
      <trkpt lat="65.286226971074939" lon="13.333419011905789">
        <ele>245.27000000000001</ele>
        <time>2017-06-29T07:58:05Z</time>
      </trkpt>
      <trkpt lat="65.286041982471943" lon="13.333226982504129">
        <ele>245.27000000000001</ele>
        <time>2017-06-29T07:58:06Z</time>
      </trkpt>
      <trkpt lat="65.285866968333721" lon="13.332953983917832">
        <ele>244.78999999999999</ele>
        <time>2017-06-29T07:58:07Z</time>
      </trkpt>
      <trkpt lat="65.285707041621208" lon="13.332636980339885">
        <ele>245.27000000000001</ele>
        <time>2017-06-29T07:58:08Z</time>
      </trkpt>
      <trkpt lat="65.285550970584154" lon="13.332328023388982">
        <ele>245.75</ele>
        <time>2017-06-29T07:58:09Z</time>
      </trkpt>
      <trkpt lat="65.28538903221488" lon="13.332068016752601">
        <ele>246.72</ele>
        <time>2017-06-29T07:58:10Z</time>
      </trkpt>
      <trkpt lat="65.285221980884671" lon="13.331866012886167">
        <ele>247.68000000000001</ele>
        <time>2017-06-29T07:58:11Z</time>
      </trkpt>
      <trkpt lat="65.285050990059972" lon="13.331731986254454">
        <ele>248.63999999999999</ele>
        <time>2017-06-29T07:58:12Z</time>
      </trkpt>
      <trkpt lat="65.28487597592175" lon="13.331682030111551">
        <ele>249.12</ele>
        <time>2017-06-29T07:58:13Z</time>
      </trkpt>
      <trkpt lat="65.284698028117418" lon="13.331708014011383">
        <ele>250.08000000000001</ele>
        <time>2017-06-29T07:58:14Z</time>
      </trkpt>
      <trkpt lat="65.284526031464338" lon="13.331807004287839">
        <ele>251.03999999999999</ele>
        <time>2017-06-29T07:58:15Z</time>
      </trkpt>
      <trkpt lat="65.28435998596251" lon="13.33198101259768">
        <ele>252</ele>
        <time>2017-06-29T07:58:16Z</time>
      </trkpt>
      <trkpt lat="65.284202992916107" lon="13.332229033112526">
        <ele>252.96000000000001</ele>
        <time>2017-06-29T07:58:17Z</time>
      </trkpt>
      <trkpt lat="65.28405798599124" lon="13.332532960921526">
        <ele>253.93000000000001</ele>
        <time>2017-06-29T07:58:18Z</time>
      </trkpt>
      <trkpt lat="65.283913984894753" lon="13.332857005298138">
        <ele>253.93000000000001</ele>
        <time>2017-06-29T07:58:19Z</time>
      </trkpt>
      <trkpt lat="65.283768977969885" lon="13.333120029419661">
        <ele>253.93000000000001</ele>
        <time>2017-06-29T07:58:20Z</time>
      </trkpt>
      <trkpt lat="65.283607039600611" lon="13.333302000537515">
        <ele>253.44</ele>
        <time>2017-06-29T07:58:21Z</time>
      </trkpt>
      <trkpt lat="65.28343697078526" lon="13.333427980542183">
        <ele>253.44</ele>
        <time>2017-06-29T07:58:22Z</time>
      </trkpt>
      <trkpt lat="65.283254999667406" lon="13.333498975262046">
        <ele>253.93000000000001</ele>
        <time>2017-06-29T07:58:23Z</time>
      </trkpt>
      <trkpt lat="65.283067999407649" lon="13.333521019667387">
        <ele>253.93000000000001</ele>
        <time>2017-06-29T07:58:24Z</time>
      </trkpt>
      <trkpt lat="65.282875970005989" lon="13.333521019667387">
        <ele>254.88999999999999</ele>
        <time>2017-06-29T07:58:25Z</time>
      </trkpt>
      <trkpt lat="65.281872991472483" lon="13.333484977483749">
        <ele>260.64999999999998</ele>
        <time>2017-06-29T07:58:30Z</time>
      </trkpt>
      <trkpt lat="65.281668975949287" lon="13.333554966375232">
        <ele>259.69</ele>
        <time>2017-06-29T07:58:31Z</time>
      </trkpt>
      <trkpt lat="65.281464960426092" lon="13.333670971915126">
        <ele>259.20999999999998</ele>
        <time>2017-06-29T07:58:32Z</time>
      </trkpt>
      <trkpt lat="65.280429041013122" lon="13.334212023764849">
        <ele>260.64999999999998</ele>
        <time>2017-06-29T07:58:37Z</time>
      </trkpt>
      <trkpt lat="65.280216978862882" lon="13.334202971309423">
        <ele>261.13999999999999</ele>
        <time>2017-06-29T07:58:38Z</time>
      </trkpt>
      <trkpt lat="65.280001983046532" lon="13.334143040701747">
        <ele>262.10000000000002</ele>
        <time>2017-06-29T07:58:39Z</time>
      </trkpt>
      <trkpt lat="65.279793022200465" lon="13.33402301184833">
        <ele>263.54000000000002</ele>
        <time>2017-06-29T07:58:40Z</time>
      </trkpt>
      <trkpt lat="65.279596969485283" lon="13.333863001316786">
        <ele>264.98000000000002</ele>
        <time>2017-06-29T07:58:41Z</time>
      </trkpt>
      <trkpt lat="65.27903001755476" lon="13.333484977483749">
        <ele>269.31</ele>
        <time>2017-06-29T07:58:44Z</time>
      </trkpt>
      <trkpt lat="65.278833964839578" lon="13.333452036604285">
        <ele>268.82999999999998</ele>
        <time>2017-06-29T07:58:45Z</time>
      </trkpt>
      <trkpt lat="65.278633972629905" lon="13.333467962220311">
        <ele>268.35000000000002</ele>
        <time>2017-06-29T07:58:46Z</time>
      </trkpt>
      <trkpt lat="65.27842802926898" lon="13.333544991910458">
        <ele>268.35000000000002</ele>
        <time>2017-06-29T07:58:47Z</time>
      </trkpt>
      <trkpt lat="65.27821596711874" lon="13.333660997450352">
        <ele>268.82999999999998</ele>
        <time>2017-06-29T07:58:48Z</time>
      </trkpt>
      <trkpt lat="65.278004994615912" lon="13.333798041567206">
        <ele>268.82999999999998</ele>
        <time>2017-06-29T07:58:49Z</time>
      </trkpt>
      <trkpt lat="65.27696798555553" lon="13.334689037874341">
        <ele>269.79000000000002</ele>
        <time>2017-06-29T07:58:54Z</time>
      </trkpt>
      <trkpt lat="65.276777967810631" lon="13.334969999268651">
        <ele>269.31</ele>
        <time>2017-06-29T07:58:55Z</time>
      </trkpt>
      <trkpt lat="65.275257993489504" lon="13.337956974282861">
        <ele>268.35000000000002</ele>
        <time>2017-06-29T07:59:04Z</time>
      </trkpt>
      <trkpt lat="65.273770960047841" lon="13.341845003888011">
        <ele>276.04000000000002</ele>
        <time>2017-06-29T07:59:14Z</time>
      </trkpt>
      <trkpt lat="65.272619035094976" lon="13.34339196793735">
        <ele>269.79000000000002</ele>
        <time>2017-06-29T07:59:20Z</time>
      </trkpt>
      <trkpt lat="65.271028988063335" lon="13.343877028673887">
        <ele>267.86000000000001</ele>
        <time>2017-06-29T07:59:27Z</time>
      </trkpt>
      <trkpt lat="65.270813992246985" lon="13.343811985105276">
        <ele>267.38</ele>
        <time>2017-06-29T07:59:28Z</time>
      </trkpt>
      <trkpt lat="65.270607965067029" lon="13.343691034242511">
        <ele>266.89999999999998</ele>
        <time>2017-06-29T07:59:29Z</time>
      </trkpt>
      <trkpt lat="65.270406967028975" lon="13.343489030376077">
        <ele>265.94</ele>
        <time>2017-06-29T07:59:30Z</time>
      </trkpt>
      <trkpt lat="65.270218960940838" lon="13.343242015689611">
        <ele>266.42000000000002</ele>
        <time>2017-06-29T07:59:31Z</time>
      </trkpt>
      <trkpt lat="65.270025003701448" lon="13.342999024316669">
        <ele>265.94</ele>
        <time>2017-06-29T07:59:32Z</time>
      </trkpt>
      <trkpt lat="65.269825011491776" lon="13.342781011015177">
        <ele>265.45999999999998</ele>
        <time>2017-06-29T07:59:33Z</time>
      </trkpt>
      <trkpt lat="65.269612027332187" lon="13.342607002705336">
        <ele>265.45999999999998</ele>
        <time>2017-06-29T07:59:34Z</time>
      </trkpt>
      <trkpt lat="65.269397031515837" lon="13.342486973851919">
        <ele>265.94</ele>
        <time>2017-06-29T07:59:35Z</time>
      </trkpt>
      <trkpt lat="65.269172983244061" lon="13.34240298718214">
        <ele>266.42000000000002</ele>
        <time>2017-06-29T07:59:36Z</time>
      </trkpt>
      <trkpt lat="65.268947007134557" lon="13.342340039089322">
        <ele>266.42000000000002</ele>
        <time>2017-06-29T07:59:37Z</time>
      </trkpt>
      <trkpt lat="65.267586959525943" lon="13.341946005821228">
        <ele>264.5</ele>
        <time>2017-06-29T07:59:43Z</time>
      </trkpt>
      <trkpt lat="65.267380010336637" lon="13.341792030259967">
        <ele>264.5</ele>
        <time>2017-06-29T07:59:44Z</time>
      </trkpt>
      <trkpt lat="65.267186975106597" lon="13.341579968109727">
        <ele>264.5</ele>
        <time>2017-06-29T07:59:45Z</time>
      </trkpt>
      <trkpt lat="65.267010033130646" lon="13.34130696952343">
        <ele>264.5</ele>
        <time>2017-06-29T07:59:46Z</time>
      </trkpt>
      <trkpt lat="65.26684901677072" lon="13.340990971773863">
        <ele>264.98000000000002</ele>
        <time>2017-06-29T07:59:47Z</time>
      </trkpt>
      <trkpt lat="65.266703004017472" lon="13.340664999559522">
        <ele>265.94</ele>
        <time>2017-06-29T07:59:48Z</time>
      </trkpt>
      <trkpt lat="65.266273012384772" lon="13.339795041829348">
        <ele>267.38</ele>
        <time>2017-06-29T07:59:51Z</time>
      </trkpt>
      <trkpt lat="65.266105961054564" lon="13.339583985507488">
        <ele>267.38</ele>
        <time>2017-06-29T07:59:52Z</time>
      </trkpt>
      <trkpt lat="65.265923989936709" lon="13.339418023824692">
        <ele>267.86000000000001</ele>
        <time>2017-06-29T07:59:53Z</time>
      </trkpt>
      <trkpt lat="65.26573003269732" lon="13.339273016899824">
        <ele>267.86000000000001</ele>
        <time>2017-06-29T07:59:54Z</time>
      </trkpt>
      <trkpt lat="65.265532974153757" lon="13.339152988046408">
        <ele>267.86000000000001</ele>
        <time>2017-06-29T07:59:55Z</time>
      </trkpt>
      <trkpt lat="65.26452798396349" lon="13.338482016697526">
        <ele>265.94</ele>
        <time>2017-06-29T08:00:00Z</time>
      </trkpt>
      <trkpt lat="65.264345007017255" lon="13.338228967040777">
        <ele>266.42000000000002</ele>
        <time>2017-06-29T08:00:01Z</time>
      </trkpt>
      <trkpt lat="65.264170998707414" lon="13.337939959019423">
        <ele>266.89999999999998</ele>
        <time>2017-06-29T08:00:02Z</time>
      </trkpt>
      <trkpt lat="65.262146014720201" lon="13.333927039057016">
        <ele>268.82999999999998</ele>
        <time>2017-06-29T08:00:14Z</time>
      </trkpt>
      <trkpt lat="65.260815974324942" lon="13.330724984407425">
        <ele>275.06999999999999</ele>
        <time>2017-06-29T08:00:23Z</time>
      </trkpt>
      <trkpt lat="65.259693972766399" lon="13.327794000506401">
        <ele>286.13</ele>
        <time>2017-06-29T08:00:31Z</time>
      </trkpt>
      <trkpt lat="65.257644010707736" lon="13.323487965390086">
        <ele>298.14999999999998</ele>
        <time>2017-06-29T08:00:44Z</time>
      </trkpt>
      <trkpt lat="65.256918976083398" lon="13.320436030626297">
        <ele>302.94999999999999</ele>
        <time>2017-06-29T08:00:51Z</time>
      </trkpt>
      <trkpt lat="65.25604197755456" lon="13.318239971995354">
        <ele>310.16000000000003</ele>
        <time>2017-06-29T08:00:57Z</time>
      </trkpt>
      <trkpt lat="65.25453801266849" lon="13.316302997991443">
        <ele>314.49000000000001</ele>
        <time>2017-06-29T08:01:05Z</time>
      </trkpt>
      <trkpt lat="65.254335002973676" lon="13.31621297635138">
        <ele>314.97000000000003</ele>
        <time>2017-06-29T08:01:06Z</time>
      </trkpt>
      <trkpt lat="65.253020972013474" lon="13.316016001626849">
        <ele>314.97000000000003</ele>
        <time>2017-06-29T08:01:12Z</time>
      </trkpt>
      <trkpt lat="65.252799019217491" lon="13.316056989133358">
        <ele>314.97000000000003</ele>
        <time>2017-06-29T08:01:13Z</time>
      </trkpt>
      <trkpt lat="65.252580000087619" lon="13.316136030480266">
        <ele>314.97000000000003</ele>
        <time>2017-06-29T08:01:14Z</time>
      </trkpt>
      <trkpt lat="65.252362992614508" lon="13.31625304184854">
        <ele>314.49000000000001</ele>
        <time>2017-06-29T08:01:15Z</time>
      </trkpt>
      <trkpt lat="65.252145985141397" lon="13.316398970782757">
        <ele>314.97000000000003</ele>
        <time>2017-06-29T08:01:16Z</time>
      </trkpt>
      <trkpt lat="65.251926966011524" lon="13.316572979092598">
        <ele>314.97000000000003</ele>
        <time>2017-06-29T08:01:17Z</time>
      </trkpt>
      <trkpt lat="65.250297021120787" lon="13.318649008870125">
        <ele>318.32999999999998</ele>
        <time>2017-06-29T08:01:25Z</time>
      </trkpt>
      <trkpt lat="65.248922975733876" lon="13.320624958723783">
        <ele>319.77999999999997</ele>
        <time>2017-06-29T08:01:32Z</time>
      </trkpt>
      <trkpt lat="65.248704962432384" lon="13.320755967870355">
        <ele>320.25999999999999</ele>
        <time>2017-06-29T08:01:33Z</time>
      </trkpt>
      <trkpt lat="65.246877958998084" lon="13.321305988356471">
        <ele>322.18000000000001</ele>
        <time>2017-06-29T08:01:41Z</time>
      </trkpt>
      <trkpt lat="65.24667302146554" lon="13.321498017758131">
        <ele>321.69999999999999</ele>
        <time>2017-06-29T08:01:42Z</time>
      </trkpt>
      <trkpt lat="65.245454963296652" lon="13.322906009852886">
        <ele>323.62</ele>
        <time>2017-06-29T08:01:48Z</time>
      </trkpt>
      <trkpt lat="65.245273998007178" lon="13.323211027309299">
        <ele>323.62</ele>
        <time>2017-06-29T08:01:49Z</time>
      </trkpt>
      <trkpt lat="65.245107030496001" lon="13.323567006736994">
        <ele>323.13999999999999</ele>
        <time>2017-06-29T08:01:50Z</time>
      </trkpt>
      <trkpt lat="65.244953976944089" lon="13.323960034176707">
        <ele>323.13999999999999</ele>
        <time>2017-06-29T08:01:51Z</time>
      </trkpt>
      <trkpt lat="65.244805030524731" lon="13.324379967525601">
        <ele>322.66000000000003</ele>
        <time>2017-06-29T08:01:52Z</time>
      </trkpt>
      <trkpt lat="65.244328016415238" lon="13.325580004602671">
        <ele>322.18000000000001</ele>
        <time>2017-06-29T08:01:55Z</time>
      </trkpt>
      <trkpt lat="65.244146967306733" lon="13.325916035100818">
        <ele>322.66000000000003</ele>
        <time>2017-06-29T08:01:56Z</time>
      </trkpt>
      <trkpt lat="65.242909966036677" lon="13.32869597710669">
        <ele>323.13999999999999</ele>
        <time>2017-06-29T08:02:04Z</time>
      </trkpt>
      <trkpt lat="65.241824006661773" lon="13.332004984840751">
        <ele>327.47000000000003</ele>
        <time>2017-06-29T08:02:12Z</time>
      </trkpt>
      <trkpt lat="65.240511987358332" lon="13.333892002701759">
        <ele>327.94999999999999</ele>
        <time>2017-06-29T08:02:19Z</time>
      </trkpt>
      <trkpt lat="65.238737035542727" lon="13.334847036749125">
        <ele>319.30000000000001</ele>
        <time>2017-06-29T08:02:27Z</time>
      </trkpt>
      <trkpt lat="65.23711203597486" lon="13.334772018715739">
        <ele>316.41000000000003</ele>
        <time>2017-06-29T08:02:34Z</time>
      </trkpt>
      <trkpt lat="65.23571896366775" lon="13.334010019898415">
        <ele>317.37</ele>
        <time>2017-06-29T08:02:41Z</time>
      </trkpt>
      <trkpt lat="65.235532969236374" lon="13.334017982706428">
        <ele>316.88999999999999</ele>
        <time>2017-06-29T08:02:42Z</time>
      </trkpt>
      <trkpt lat="65.235343035310507" lon="13.334077997133136">
        <ele>316.41000000000003</ele>
        <time>2017-06-29T08:02:43Z</time>
      </trkpt>
      <trkpt lat="65.235153017565608" lon="13.334190985187888">
        <ele>315.93000000000001</ele>
        <time>2017-06-29T08:02:44Z</time>
      </trkpt>
      <trkpt lat="65.23496501147747" lon="13.334358958527446">
        <ele>315.93000000000001</ele>
        <time>2017-06-29T08:02:45Z</time>
      </trkpt>
      <trkpt lat="65.234783040359616" lon="13.334576971828938">
        <ele>315.93000000000001</ele>
        <time>2017-06-29T08:02:46Z</time>
      </trkpt>
      <trkpt lat="65.234601991251111" lon="13.334834966808558">
        <ele>315.93000000000001</ele>
        <time>2017-06-29T08:02:47Z</time>
      </trkpt>
      <trkpt lat="65.234421025961637" lon="13.33511701785028">
        <ele>316.41000000000003</ele>
        <time>2017-06-29T08:02:48Z</time>
      </trkpt>
      <trkpt lat="65.232599973678589" lon="13.337794030085206">
        <ele>322.18000000000001</ele>
        <time>2017-06-29T08:02:58Z</time>
      </trkpt>
      <trkpt lat="65.232456978410482" lon="13.338115978986025">
        <ele>322.18000000000001</ele>
        <time>2017-06-29T08:02:59Z</time>
      </trkpt>
      <trkpt lat="65.232330998405814" lon="13.338496014475822">
        <ele>321.69999999999999</ele>
        <time>2017-06-29T08:03:00Z</time>
      </trkpt>
      <trkpt lat="65.232209041714668" lon="13.33889901638031">
        <ele>321.22000000000003</ele>
        <time>2017-06-29T08:03:01Z</time>
      </trkpt>
      <trkpt lat="65.231619961559772" lon="13.341042017564178">
        <ele>319.77999999999997</ele>
        <time>2017-06-29T08:03:06Z</time>
      </trkpt>
      <trkpt lat="65.231561036780477" lon="13.341494975611567">
        <ele>320.25999999999999</ele>
        <time>2017-06-29T08:03:07Z</time>
      </trkpt>
      <trkpt lat="65.23152600042522" lon="13.341958997771144">
        <ele>320.25999999999999</ele>
        <time>2017-06-29T08:03:08Z</time>
      </trkpt>
      <trkpt lat="65.231518037617207" lon="13.342437017709017">
        <ele>320.25999999999999</ele>
        <time>2017-06-29T08:03:09Z</time>
      </trkpt>
      <trkpt lat="65.231524994596839" lon="13.342935992404819">
        <ele>320.25999999999999</ele>
        <time>2017-06-29T08:03:10Z</time>
      </trkpt>
      <trkpt lat="65.231544021517038" lon="13.343446031212807">
        <ele>320.74000000000001</ele>
        <time>2017-06-29T08:03:11Z</time>
      </trkpt>
      <trkpt lat="65.231642005965114" lon="13.346463013440371">
        <ele>319.77999999999997</ele>
        <time>2017-06-29T08:03:17Z</time>
      </trkpt>
      <trkpt lat="65.231610992923379" lon="13.346942961215973">
        <ele>319.30000000000001</ele>
        <time>2017-06-29T08:03:18Z</time>
      </trkpt>
      <trkpt lat="65.23154997266829" lon="13.34740899503231">
        <ele>319.30000000000001</ele>
        <time>2017-06-29T08:03:19Z</time>
      </trkpt>
      <trkpt lat="65.231461962684989" lon="13.347848961129785">
        <ele>319.77999999999997</ele>
        <time>2017-06-29T08:03:20Z</time>
      </trkpt>
      <trkpt lat="65.231341011822224" lon="13.348257998004556">
        <ele>319.30000000000001</ele>
        <time>2017-06-29T08:03:21Z</time>
      </trkpt>
      <trkpt lat="65.231192987412214" lon="13.348619006574154">
        <ele>318.81</ele>
        <time>2017-06-29T08:03:22Z</time>
      </trkpt>
      <trkpt lat="65.231020990759134" lon="13.348927041515708">
        <ele>318.81</ele>
        <time>2017-06-29T08:03:23Z</time>
      </trkpt>
      <trkpt lat="65.230836002156138" lon="13.349192999303341">
        <ele>319.30000000000001</ele>
        <time>2017-06-29T08:03:24Z</time>
      </trkpt>
      <trkpt lat="65.230639027431607" lon="13.349428027868271">
        <ele>319.77999999999997</ele>
        <time>2017-06-29T08:03:25Z</time>
      </trkpt>
      <trkpt lat="65.227379975840449" lon="13.353233998641372">
        <ele>324.10000000000002</ele>
        <time>2017-06-29T08:03:41Z</time>
      </trkpt>
      <trkpt lat="65.2234470192343" lon="13.357451017946005">
        <ele>332.75</ele>
        <time>2017-06-29T08:04:00Z</time>
      </trkpt>
      <trkpt lat="65.220622988417745" lon="13.361139977350831">
        <ele>344.29000000000002</ele>
        <time>2017-06-29T08:04:14Z</time>
      </trkpt>
      <trkpt lat="65.219665020704269" lon="13.362863967195153">
        <ele>346.69</ele>
        <time>2017-06-29T08:04:19Z</time>
      </trkpt>
      <trkpt lat="65.219515990465879" lon="13.363322960212827">
        <ele>347.17000000000002</ele>
        <time>2017-06-29T08:04:20Z</time>
      </trkpt>
      <trkpt lat="65.219384981319308" lon="13.363820007070899">
        <ele>347.64999999999998</ele>
        <time>2017-06-29T08:04:21Z</time>
      </trkpt>
      <trkpt lat="65.218436988070607" lon="13.36715298704803">
        <ele>352.45999999999998</ele>
        <time>2017-06-29T08:04:28Z</time>
      </trkpt>
      <trkpt lat="65.218257028609514" lon="13.367482982575893">
        <ele>353.89999999999998</ele>
        <time>2017-06-29T08:04:29Z</time>
      </trkpt>
      <trkpt lat="65.218063993379474" lon="13.367769978940487">
        <ele>354.86000000000001</ele>
        <time>2017-06-29T08:04:30Z</time>
      </trkpt>
      <trkpt lat="65.21786198951304" lon="13.367996038869023">
        <ele>356.31</ele>
        <time>2017-06-29T08:04:31Z</time>
      </trkpt>
      <trkpt lat="65.217652022838593" lon="13.368175998330116">
        <ele>357.26999999999998</ele>
        <time>2017-06-29T08:04:32Z</time>
      </trkpt>
      <trkpt lat="65.217437027022243" lon="13.368298960849643">
        <ele>358.70999999999998</ele>
        <time>2017-06-29T08:04:33Z</time>
      </trkpt>
      <trkpt lat="65.217222031205893" lon="13.368386970832944">
        <ele>360.14999999999998</ele>
        <time>2017-06-29T08:04:34Z</time>
      </trkpt>
      <trkpt lat="65.217004017904401" lon="13.36844296194613">
        <ele>361.11000000000001</ele>
        <time>2017-06-29T08:04:35Z</time>
      </trkpt>
      <trkpt lat="65.215458981692791" lon="13.368638008832932">
        <ele>363.51999999999998</ele>
        <time>2017-06-29T08:04:42Z</time>
      </trkpt>
      <trkpt lat="65.215244991704822" lon="13.368799025192857">
        <ele>364</ele>
        <time>2017-06-29T08:04:43Z</time>
      </trkpt>
      <trkpt lat="65.215040976181626" lon="13.369031958281994">
        <ele>364.48000000000002</ele>
        <time>2017-06-29T08:04:44Z</time>
      </trkpt>
      <trkpt lat="65.214850036427379" lon="13.36932398378849">
        <ele>365.44</ele>
        <time>2017-06-29T08:04:45Z</time>
      </trkpt>
      <trkpt lat="65.214670998975635" lon="13.36966797709465">
        <ele>365.92000000000002</ele>
        <time>2017-06-29T08:04:46Z</time>
      </trkpt>
      <trkpt lat="65.214495984837413" lon="13.370033008977771">
        <ele>365.92000000000002</ele>
        <time>2017-06-29T08:04:47Z</time>
      </trkpt>
      <trkpt lat="65.213325032964349" lon="13.372737010940909">
        <ele>367.36000000000001</ele>
        <time>2017-06-29T08:04:54Z</time>
      </trkpt>
      <trkpt lat="65.213219001889229" lon="13.373185023665428">
        <ele>367.83999999999997</ele>
        <time>2017-06-29T08:04:55Z</time>
      </trkpt>
      <trkpt lat="65.213139038532972" lon="13.373657008633018">
        <ele>368.80000000000001</ele>
        <time>2017-06-29T08:04:56Z</time>
      </trkpt>
      <trkpt lat="65.213090004399419" lon="13.374146008864045">
        <ele>369.27999999999997</ele>
        <time>2017-06-29T08:04:57Z</time>
      </trkpt>
      <trkpt lat="65.213055973872542" lon="13.374654036015272">
        <ele>370.24000000000001</ele>
        <time>2017-06-29T08:04:58Z</time>
      </trkpt>
      <trkpt lat="65.213033007457852" lon="13.375170025974512">
        <ele>371.20999999999998</ele>
        <time>2017-06-29T08:04:59Z</time>
      </trkpt>
      <trkpt lat="65.212904009968042" lon="13.377108005806804">
        <ele>374.08999999999997</ele>
        <time>2017-06-29T08:05:03Z</time>
      </trkpt>
      <trkpt lat="65.21283402107656" lon="13.377519976347685">
        <ele>374.08999999999997</ele>
        <time>2017-06-29T08:05:04Z</time>
      </trkpt>
      <trkpt lat="65.212738970294595" lon="13.377918032929301">
        <ele>373.61000000000001</ele>
        <time>2017-06-29T08:05:05Z</time>
      </trkpt>
      <trkpt lat="65.212613996118307" lon="13.378281975165009">
        <ele>373.61000000000001</ele>
        <time>2017-06-29T08:05:06Z</time>
      </trkpt>
      <trkpt lat="65.212462032213807" lon="13.378612976521254">
        <ele>373.13</ele>
        <time>2017-06-29T08:05:07Z</time>
      </trkpt>
      <trkpt lat="65.212292969226837" lon="13.378930985927582">
        <ele>372.64999999999998</ele>
        <time>2017-06-29T08:05:08Z</time>
      </trkpt>
      <trkpt lat="65.21038600243628" lon="13.382378965616226">
        <ele>369.75999999999999</ele>
        <time>2017-06-29T08:05:18Z</time>
      </trkpt>
      <trkpt lat="65.208887988701463" lon="13.384686000645161">
        <ele>375.05000000000001</ele>
        <time>2017-06-29T08:05:26Z</time>
      </trkpt>
      <trkpt lat="65.208695959299803" lon="13.384847017005086">
        <ele>375.52999999999997</ele>
        <time>2017-06-29T08:05:27Z</time>
      </trkpt>
      <trkpt lat="65.2084940392524" lon="13.384954975917935">
        <ele>376.00999999999999</ele>
        <time>2017-06-29T08:05:28Z</time>
      </trkpt>
      <trkpt lat="65.208277031779289" lon="13.385003004223108">
        <ele>376.49000000000001</ele>
        <time>2017-06-29T08:05:29Z</time>
      </trkpt>
      <trkpt lat="65.208052983507514" lon="13.384992023929954">
        <ele>376.97000000000003</ele>
        <time>2017-06-29T08:05:30Z</time>
      </trkpt>
      <trkpt lat="65.207819966599345" lon="13.38496302254498">
        <ele>376.49000000000001</ele>
        <time>2017-06-29T08:05:31Z</time>
      </trkpt>
      <trkpt lat="65.205747038125992" lon="13.384480979293585">
        <ele>370.73000000000002</ele>
        <time>2017-06-29T08:05:40Z</time>
      </trkpt>
      <trkpt lat="65.204320019111037" lon="13.382882969453931">
        <ele>373.13</ele>
        <time>2017-06-29T08:05:47Z</time>
      </trkpt>
      <trkpt lat="65.201635966077447" lon="13.379522999748588">
        <ele>372.64999999999998</ele>
        <time>2017-06-29T08:06:00Z</time>
      </trkpt>
      <trkpt lat="65.198410023003817" lon="13.377157039940357">
        <ele>375.05000000000001</ele>
        <time>2017-06-29T08:06:14Z</time>
      </trkpt>
      <trkpt lat="65.195589009672403" lon="13.376414990052581">
        <ele>370.24000000000001</ele>
        <time>2017-06-29T08:06:26Z</time>
      </trkpt>
      <trkpt lat="65.193508034572005" lon="13.375891959294677">
        <ele>362.55000000000001</ele>
        <time>2017-06-29T08:06:35Z</time>
      </trkpt>
      <trkpt lat="65.191777003929019" lon="13.374225972220302">
        <ele>355.33999999999997</ele>
        <time>2017-06-29T08:06:43Z</time>
      </trkpt>
      <trkpt lat="65.189568037167192" lon="13.372377008199692">
        <ele>354.38</ele>
        <time>2017-06-29T08:06:53Z</time>
      </trkpt>
      <trkpt lat="65.189368966966867" lon="13.372296961024404">
        <ele>353.89999999999998</ele>
        <time>2017-06-29T08:06:54Z</time>
      </trkpt>
      <trkpt lat="65.189168974757195" lon="13.372275000438094">
        <ele>353.42000000000002</ele>
        <time>2017-06-29T08:06:55Z</time>
      </trkpt>
      <trkpt lat="65.18896697089076" lon="13.372320011258125">
        <ele>353.89999999999998</ele>
        <time>2017-06-29T08:06:56Z</time>
      </trkpt>
      <trkpt lat="65.188765972852707" lon="13.37241698987782">
        <ele>352.94</ele>
        <time>2017-06-29T08:06:57Z</time>
      </trkpt>
      <trkpt lat="65.188566986471415" lon="13.372581023722887">
        <ele>352.94</ele>
        <time>2017-06-29T08:06:58Z</time>
      </trkpt>
      <trkpt lat="65.188373029232025" lon="13.372813034802675">
        <ele>352.45999999999998</ele>
        <time>2017-06-29T08:06:59Z</time>
      </trkpt>
      <trkpt lat="65.188179994001985" lon="13.37306197732687">
        <ele>351.98000000000002</ele>
        <time>2017-06-29T08:07:00Z</time>
      </trkpt>
      <trkpt lat="65.187575994059443" lon="13.373664971441031">
        <ele>351.01999999999998</ele>
        <time>2017-06-29T08:07:03Z</time>
      </trkpt>
      <trkpt lat="65.187359992414713" lon="13.373760022222996">
        <ele>350.06</ele>
        <time>2017-06-29T08:07:04Z</time>
      </trkpt>
      <trkpt lat="65.187140973284841" lon="13.373806038871408">
        <ele>349.57999999999998</ele>
        <time>2017-06-29T08:07:05Z</time>
      </trkpt>
      <trkpt lat="65.185293015092611" lon="13.374241981655359">
        <ele>342.85000000000002</ele>
        <time>2017-06-29T08:07:13Z</time>
      </trkpt>
      <trkpt lat="65.183455031365156" lon="13.37430995889008">
        <ele>340.92000000000002</ele>
        <time>2017-06-29T08:07:21Z</time>
      </trkpt>
      <trkpt lat="65.181418983265758" lon="13.373630018904805">
        <ele>335.63999999999999</ele>
        <time>2017-06-29T08:07:30Z</time>
      </trkpt>
      <trkpt lat="65.181192001327872" lon="13.373674023896456">
        <ele>335.63999999999999</ele>
        <time>2017-06-29T08:07:31Z</time>
      </trkpt>
      <trkpt lat="65.180972982198" lon="13.373779971152544">
        <ele>335.63999999999999</ele>
        <time>2017-06-29T08:07:32Z</time>
      </trkpt>
      <trkpt lat="65.180763015523553" lon="13.373949034139514">
        <ele>335.63999999999999</ele>
        <time>2017-06-29T08:07:33Z</time>
      </trkpt>
      <trkpt lat="65.180559000000358" lon="13.374152965843678">
        <ele>335.63999999999999</ele>
        <time>2017-06-29T08:07:34Z</time>
      </trkpt>
      <trkpt lat="65.180364958941936" lon="13.374377014115453">
        <ele>335.16000000000003</ele>
        <time>2017-06-29T08:07:35Z</time>
      </trkpt>
      <trkpt lat="65.179270030930638" lon="13.375689033418894">
        <ele>334.68000000000001</ele>
        <time>2017-06-29T08:07:41Z</time>
      </trkpt>
      <trkpt lat="65.179070038720965" lon="13.375786012038589">
        <ele>333.70999999999998</ele>
        <time>2017-06-29T08:07:42Z</time>
      </trkpt>
      <trkpt lat="65.17886501736939" lon="13.375818030908704">
        <ele>332.26999999999998</ele>
        <time>2017-06-29T08:07:43Z</time>
      </trkpt>
      <trkpt lat="65.178661001846194" lon="13.37578902952373">
        <ele>331.79000000000002</ele>
        <time>2017-06-29T08:07:44Z</time>
      </trkpt>
      <trkpt lat="65.178455980494618" lon="13.375696996226907">
        <ele>330.82999999999998</ele>
        <time>2017-06-29T08:07:45Z</time>
      </trkpt>
      <trkpt lat="65.178246013820171" lon="13.375562969595194">
        <ele>329.38999999999999</ele>
        <time>2017-06-29T08:07:46Z</time>
      </trkpt>
      <trkpt lat="65.176436025649309" lon="13.374789990484715">
        <ele>328.43000000000001</ele>
        <time>2017-06-29T08:07:54Z</time>
      </trkpt>
      <trkpt lat="65.174620002508163" lon="13.373806960880756">
        <ele>328.43000000000001</ele>
        <time>2017-06-29T08:08:02Z</time>
      </trkpt>
      <trkpt lat="65.171459019184113" lon="13.37052502669394">
        <ele>328.91000000000003</ele>
        <time>2017-06-29T08:08:17Z</time>
      </trkpt>
      <trkpt lat="65.16939003020525" lon="13.369058026000857">
        <ele>330.35000000000002</ele>
        <time>2017-06-29T08:08:27Z</time>
      </trkpt>
      <trkpt lat="65.167676014825702" lon="13.369026007130742">
        <ele>331.31</ele>
        <time>2017-06-29T08:08:35Z</time>
      </trkpt>
      <trkpt lat="65.165038984268904" lon="13.368446985259652">
        <ele>329.87</ele>
        <time>2017-06-29T08:08:47Z</time>
      </trkpt>
      <trkpt lat="65.161568960174918" lon="13.367558000609279">
        <ele>329.87</ele>
        <time>2017-06-29T08:09:03Z</time>
      </trkpt>
      <trkpt lat="65.159903978928924" lon="13.365704007446766">
        <ele>329.87</ele>
        <time>2017-06-29T08:09:11Z</time>
      </trkpt>
      <trkpt lat="65.15815400518477" lon="13.36427397094667">
        <ele>330.35000000000002</ele>
        <time>2017-06-29T08:09:19Z</time>
      </trkpt>
      <trkpt lat="65.156433032825589" lon="13.362965974956751">
        <ele>329.38999999999999</ele>
        <time>2017-06-29T08:09:27Z</time>
      </trkpt>
      <trkpt lat="65.155182033777237" lon="13.360731024295092">
        <ele>329.38999999999999</ele>
        <time>2017-06-29T08:09:34Z</time>
      </trkpt>
      <trkpt lat="65.153653007000685" lon="13.357708007097244">
        <ele>330.82999999999998</ele>
        <time>2017-06-29T08:09:43Z</time>
      </trkpt>
      <trkpt lat="65.150783965364099" lon="13.354679960757494">
        <ele>332.26999999999998</ele>
        <time>2017-06-29T08:09:57Z</time>
      </trkpt>
      <trkpt lat="65.149161983281374" lon="13.35389600135386">
        <ele>332.75</ele>
        <time>2017-06-29T08:10:04Z</time>
      </trkpt>
      <trkpt lat="65.146938012912869" lon="13.353067031130195">
        <ele>333.23000000000002</ele>
        <time>2017-06-29T08:10:13Z</time>
      </trkpt>
      <trkpt lat="65.14446996152401" lon="13.351197028532624">
        <ele>331.79000000000002</ele>
        <time>2017-06-29T08:10:23Z</time>
      </trkpt>
      <trkpt lat="65.142152030020952" lon="13.350628986954689">
        <ele>329.87</ele>
        <time>2017-06-29T08:10:32Z</time>
      </trkpt>
      <trkpt lat="65.139551041647792" lon="13.351290989667177">
        <ele>326.01999999999998</ele>
        <time>2017-06-29T08:10:42Z</time>
      </trkpt>
      <trkpt lat="65.1387769728899" lon="13.351076999679208">
        <ele>324.57999999999998</ele>
        <time>2017-06-29T08:10:45Z</time>
      </trkpt>
      <trkpt lat="65.138527024537325" lon="13.350901985540986">
        <ele>324.57999999999998</ele>
        <time>2017-06-29T08:10:46Z</time>
      </trkpt>
      <trkpt lat="65.138288978487253" lon="13.350677015259862">
        <ele>324.57999999999998</ele>
        <time>2017-06-29T08:10:47Z</time>
      </trkpt>
      <trkpt lat="65.138063002377748" lon="13.350396975874901">
        <ele>324.57999999999998</ele>
        <time>2017-06-29T08:10:48Z</time>
      </trkpt>
      <trkpt lat="65.137845994904637" lon="13.350086007267237">
        <ele>325.06</ele>
        <time>2017-06-29T08:10:49Z</time>
      </trkpt>
      <trkpt lat="65.137640973553061" lon="13.349736984819174">
        <ele>325.06</ele>
        <time>2017-06-29T08:10:50Z</time>
      </trkpt>
      <trkpt lat="65.137446010485291" lon="13.349346974864602">
        <ele>325.06</ele>
        <time>2017-06-29T08:10:51Z</time>
      </trkpt>
      <trkpt lat="65.137258004397154" lon="13.348925029858947">
        <ele>325.06</ele>
        <time>2017-06-29T08:10:52Z</time>
      </trkpt>
      <trkpt lat="65.13707896694541" lon="13.348486991599202">
        <ele>325.54000000000002</ele>
        <time>2017-06-29T08:10:53Z</time>
      </trkpt>
      <trkpt lat="65.135479029268026" lon="13.3443149831146">
        <ele>327.94999999999999</ele>
        <time>2017-06-29T08:11:03Z</time>
      </trkpt>
      <trkpt lat="65.135322036221623" lon="13.34401298314333">
        <ele>328.43000000000001</ele>
        <time>2017-06-29T08:11:04Z</time>
      </trkpt>
      <trkpt lat="65.135154984891415" lon="13.343744007870555">
        <ele>328.43000000000001</ele>
        <time>2017-06-29T08:11:05Z</time>
      </trkpt>
      <trkpt lat="65.134975025430322" lon="13.34351995959878">
        <ele>328.91000000000003</ele>
        <time>2017-06-29T08:11:06Z</time>
      </trkpt>
      <trkpt lat="65.134788025170565" lon="13.343315022066236">
        <ele>328.91000000000003</ele>
        <time>2017-06-29T08:11:07Z</time>
      </trkpt>
      <trkpt lat="65.134592978283763" lon="13.343127015978098">
        <ele>329.38999999999999</ele>
        <time>2017-06-29T08:11:08Z</time>
      </trkpt>
      <trkpt lat="65.131845977157354" lon="13.340904973447323">
        <ele>333.70999999999998</ele>
        <time>2017-06-29T08:11:21Z</time>
      </trkpt>
      <trkpt lat="65.128894038498402" lon="13.339612986892462">
        <ele>341.88999999999999</ele>
        <time>2017-06-29T08:11:34Z</time>
      </trkpt>
      <trkpt lat="65.126797975972295" lon="13.338989960029721">
        <ele>339.95999999999998</ele>
        <time>2017-06-29T08:11:44Z</time>
      </trkpt>
      <trkpt lat="65.12554001994431" lon="13.338932963088155">
        <ele>336.12</ele>
        <time>2017-06-29T08:11:50Z</time>
      </trkpt>
      <trkpt lat="65.125360982492566" lon="13.338778987526894">
        <ele>335.63999999999999</ele>
        <time>2017-06-29T08:11:51Z</time>
      </trkpt>
      <trkpt lat="65.125190997496247" lon="13.338573966175318">
        <ele>335.63999999999999</ele>
        <time>2017-06-29T08:11:52Z</time>
      </trkpt>
      <trkpt lat="65.125030986964703" lon="13.338300967589021">
        <ele>335.63999999999999</ele>
        <time>2017-06-29T08:11:53Z</time>
      </trkpt>
      <trkpt lat="65.124879023060203" lon="13.337986981496215">
        <ele>335.16000000000003</ele>
        <time>2017-06-29T08:11:54Z</time>
      </trkpt>
      <trkpt lat="65.124729992821813" lon="13.337641982361674">
        <ele>335.16000000000003</ele>
        <time>2017-06-29T08:11:55Z</time>
      </trkpt>
      <trkpt lat="65.124235963448882" lon="13.33675199188292">
        <ele>336.12</ele>
        <time>2017-06-29T08:11:58Z</time>
      </trkpt>
      <trkpt lat="65.124053992331028" lon="13.336543031036854">
        <ele>336.12</ele>
        <time>2017-06-29T08:11:59Z</time>
      </trkpt>
      <trkpt lat="65.12386598624289" lon="13.336375979706645">
        <ele>336.12</ele>
        <time>2017-06-29T08:12:00Z</time>
      </trkpt>
      <trkpt lat="65.123666999861598" lon="13.336253017187119">
        <ele>336.12</ele>
        <time>2017-06-29T08:12:01Z</time>
      </trkpt>
      <trkpt lat="65.123461978510022" lon="13.336170958355069">
        <ele>335.63999999999999</ele>
        <time>2017-06-29T08:12:02Z</time>
      </trkpt>
      <trkpt lat="65.123250000178814" lon="13.336124019697309">
        <ele>335.16000000000003</ele>
        <time>2017-06-29T08:12:03Z</time>
      </trkpt>
      <trkpt lat="65.119972005486488" lon="13.33595403470099">
        <ele>324.57999999999998</ele>
        <time>2017-06-29T08:12:18Z</time>
      </trkpt>
      <trkpt lat="65.117108998820186" lon="13.336795996874571">
        <ele>319.30000000000001</ele>
        <time>2017-06-29T08:12:31Z</time>
      </trkpt>
      <trkpt lat="65.116915041580796" lon="13.336982997134328">
        <ele>320.25999999999999</ele>
        <time>2017-06-29T08:12:32Z</time>
      </trkpt>
      <trkpt lat="65.116734998300672" lon="13.337215008214116">
        <ele>321.22000000000003</ele>
        <time>2017-06-29T08:12:33Z</time>
      </trkpt>
      <trkpt lat="65.116563001647592" lon="13.337498987093568">
        <ele>320.74000000000001</ele>
        <time>2017-06-29T08:12:34Z</time>
      </trkpt>
      <trkpt lat="65.116397039964795" lon="13.337815990671515">
        <ele>320.25999999999999</ele>
        <time>2017-06-29T08:12:35Z</time>
      </trkpt>
      <trkpt lat="65.11623702943325" lon="13.33816803060472">
        <ele>320.25999999999999</ele>
        <time>2017-06-29T08:12:36Z</time>
      </trkpt>
      <trkpt lat="65.115553988143802" lon="13.339461022987962">
        <ele>319.77999999999997</ele>
        <time>2017-06-29T08:12:40Z</time>
      </trkpt>
      <trkpt lat="65.115345027297735" lon="13.33965296857059">
        <ele>319.30000000000001</ele>
        <time>2017-06-29T08:12:41Z</time>
      </trkpt>
      <trkpt lat="65.115130031481385" lon="13.339783977717161">
        <ele>319.77999999999997</ele>
        <time>2017-06-29T08:12:42Z</time>
      </trkpt>
      <trkpt lat="65.114913024008274" lon="13.339870981872082">
        <ele>319.77999999999997</ele>
        <time>2017-06-29T08:12:43Z</time>
      </trkpt>
      <trkpt lat="65.114694004878402" lon="13.339935019612312">
        <ele>320.25999999999999</ele>
        <time>2017-06-29T08:12:44Z</time>
      </trkpt>
      <trkpt lat="65.113599998876452" lon="13.339949017390609">
        <ele>319.77999999999997</ele>
        <time>2017-06-29T08:12:49Z</time>
      </trkpt>
      <trkpt lat="65.113386008888483" lon="13.339819014072418">
        <ele>319.30000000000001</ele>
        <time>2017-06-29T08:12:50Z</time>
      </trkpt>
      <trkpt lat="65.113176964223385" lon="13.339660009369254">
        <ele>319.77999999999997</ele>
        <time>2017-06-29T08:12:51Z</time>
      </trkpt>
      <trkpt lat="65.112267024815083" lon="13.338793991133571">
        <ele>318.81</ele>
        <time>2017-06-29T08:12:56Z</time>
      </trkpt>
      <trkpt lat="65.112083964049816" lon="13.338729031383991">
        <ele>317.37</ele>
        <time>2017-06-29T08:12:57Z</time>
      </trkpt>
      <trkpt lat="65.111896963790059" lon="13.338735988363624">
        <ele>315.44999999999999</ele>
        <time>2017-06-29T08:12:58Z</time>
      </trkpt>
      <trkpt lat="65.111705018207431" lon="13.338815029710531">
        <ele>313.05000000000001</ele>
        <time>2017-06-29T08:12:59Z</time>
      </trkpt>
      <trkpt lat="65.11151097714901" lon="13.338977973908186">
        <ele>310.63999999999999</ele>
        <time>2017-06-29T08:13:00Z</time>
      </trkpt>
      <trkpt lat="65.111311990767717" lon="13.339177966117859">
        <ele>309.19999999999999</ele>
        <time>2017-06-29T08:13:01Z</time>
      </trkpt>
      <trkpt lat="65.110296020284295" lon="13.340013977140188">
        <ele>306.31999999999999</ele>
        <time>2017-06-29T08:13:06Z</time>
      </trkpt>
      <trkpt lat="65.110087981447577" lon="13.340052030980587">
        <ele>306.80000000000001</ele>
        <time>2017-06-29T08:13:07Z</time>
      </trkpt>
      <trkpt lat="65.109879020601511" lon="13.340051025152206">
        <ele>306.80000000000001</ele>
        <time>2017-06-29T08:13:08Z</time>
      </trkpt>
      <trkpt lat="65.109670981764793" lon="13.339997967705131">
        <ele>306.80000000000001</ele>
        <time>2017-06-29T08:13:09Z</time>
      </trkpt>
      <trkpt lat="65.109464032575488" lon="13.339921021834016">
        <ele>306.80000000000001</ele>
        <time>2017-06-29T08:13:10Z</time>
      </trkpt>
      <trkpt lat="65.107165966182947" lon="13.338758032768965">
        <ele>306.80000000000001</ele>
        <time>2017-06-29T08:13:21Z</time>
      </trkpt>
      <trkpt lat="65.106962034478784" lon="13.338772030547261">
        <ele>307.27999999999997</ele>
        <time>2017-06-29T08:13:22Z</time>
      </trkpt>
      <trkpt lat="65.10676397010684" lon="13.338845958933234">
        <ele>308.24000000000001</ele>
        <time>2017-06-29T08:13:23Z</time>
      </trkpt>
      <trkpt lat="65.106573030352592" lon="13.338984008878469">
        <ele>309.19999999999999</ele>
        <time>2017-06-29T08:13:24Z</time>
      </trkpt>
      <trkpt lat="65.10639701038599" lon="13.339192969724536">
        <ele>309.68000000000001</ele>
        <time>2017-06-29T08:13:25Z</time>
      </trkpt>
      <trkpt lat="65.106223002076149" lon="13.339447025209665">
        <ele>310.63999999999999</ele>
        <time>2017-06-29T08:13:26Z</time>
      </trkpt>
      <trkpt lat="65.104751978069544" lon="13.341271011158824">
        <ele>315.93000000000001</ele>
        <time>2017-06-29T08:13:34Z</time>
      </trkpt>
      <trkpt lat="65.104545028880239" lon="13.341356003656983">
        <ele>316.41000000000003</ele>
        <time>2017-06-29T08:13:35Z</time>
      </trkpt>
      <trkpt lat="65.104336990043521" lon="13.341417023912072">
        <ele>316.88999999999999</ele>
        <time>2017-06-29T08:13:36Z</time>
      </trkpt>
      <trkpt lat="65.104118976742029" lon="13.34143303334713">
        <ele>316.88999999999999</ele>
        <time>2017-06-29T08:13:37Z</time>
      </trkpt>
      <trkpt lat="65.103897023946047" lon="13.341415012255311">
        <ele>316.88999999999999</ele>
        <time>2017-06-29T08:13:38Z</time>
      </trkpt>
      <trkpt lat="65.102291973307729" lon="13.3417350333184">
        <ele>319.77999999999997</ele>
        <time>2017-06-29T08:13:45Z</time>
      </trkpt>
      <trkpt lat="65.100924968719482" lon="13.342418996617198">
        <ele>321.22000000000003</ele>
        <time>2017-06-29T08:13:53Z</time>
      </trkpt>
      <trkpt lat="65.09986599907279" lon="13.342125965282321">
        <ele>319.30000000000001</ele>
        <time>2017-06-29T08:14:00Z</time>
      </trkpt>
      <trkpt lat="65.097870016470551" lon="13.340512029826641">
        <ele>319.30000000000001</ele>
        <time>2017-06-29T08:14:11Z</time>
      </trkpt>
      <trkpt lat="65.096682971343398" lon="13.339042011648417">
        <ele>321.69999999999999</ele>
        <time>2017-06-29T08:14:18Z</time>
      </trkpt>
      <trkpt lat="65.096548022702336" lon="13.33870698697865">
        <ele>322.18000000000001</ele>
        <time>2017-06-29T08:14:19Z</time>
      </trkpt>
      <trkpt lat="65.096423970535398" lon="13.33834296092391">
        <ele>322.18000000000001</ele>
        <time>2017-06-29T08:14:20Z</time>
      </trkpt>
      <trkpt lat="65.095281014218926" lon="13.335563018918037">
        <ele>319.77999999999997</ele>
        <time>2017-06-29T08:14:28Z</time>
      </trkpt>
      <trkpt lat="65.093237003311515" lon="13.332512006163597">
        <ele>317.85000000000002</ele>
        <time>2017-06-29T08:14:39Z</time>
      </trkpt>
      <trkpt lat="65.091106994077563" lon="13.33086303435266">
        <ele>317.85000000000002</ele>
        <time>2017-06-29T08:14:49Z</time>
      </trkpt>
      <trkpt lat="65.089614009484649" lon="13.329699961468577">
        <ele>316.88999999999999</ele>
        <time>2017-06-29T08:14:56Z</time>
      </trkpt>
      <trkpt lat="65.087579973042011" lon="13.328487016260624">
        <ele>315.93000000000001</ele>
        <time>2017-06-29T08:15:05Z</time>
      </trkpt>
      <trkpt lat="65.085365977138281" lon="13.325833976268768">
        <ele>313.05000000000001</ele>
        <time>2017-06-29T08:15:16Z</time>
      </trkpt>
      <trkpt lat="65.08495501242578" lon="13.325366014614701">
        <ele>311.60000000000002</ele>
        <time>2017-06-29T08:15:18Z</time>
      </trkpt>
      <trkpt lat="65.08474001660943" lon="13.325203992426395">
        <ele>310.63999999999999</ele>
        <time>2017-06-29T08:15:19Z</time>
      </trkpt>
      <trkpt lat="65.084522003307939" lon="13.325088992714882">
        <ele>309.68000000000001</ele>
        <time>2017-06-29T08:15:20Z</time>
      </trkpt>
      <trkpt lat="65.084295021370053" lon="13.325011963024735">
        <ele>308.72000000000003</ele>
        <time>2017-06-29T08:15:21Z</time>
      </trkpt>
      <trkpt lat="65.084068961441517" lon="13.32495697773993">
        <ele>307.75999999999999</ele>
        <time>2017-06-29T08:15:22Z</time>
      </trkpt>
      <trkpt lat="65.083211995661259" lon="13.324613990262151">
        <ele>303.91000000000003</ele>
        <time>2017-06-29T08:15:26Z</time>
      </trkpt>
      <trkpt lat="65.083024995401502" lon="13.32439698278904">
        <ele>303.43000000000001</ele>
        <time>2017-06-29T08:15:27Z</time>
      </trkpt>
      <trkpt lat="65.08285098709166" lon="13.324123984202743">
        <ele>302.47000000000003</ele>
        <time>2017-06-29T08:15:28Z</time>
      </trkpt>
      <trkpt lat="65.082696005702019" lon="13.323798011988401">
        <ele>301.99000000000001</ele>
        <time>2017-06-29T08:15:29Z</time>
      </trkpt>
      <trkpt lat="65.082552004605532" lon="13.32342904061079">
        <ele>301.02999999999997</ele>
        <time>2017-06-29T08:15:30Z</time>
      </trkpt>
      <trkpt lat="65.082426024600863" lon="13.323015980422497">
        <ele>301.02999999999997</ele>
        <time>2017-06-29T08:15:31Z</time>
      </trkpt>
      <trkpt lat="65.082304989919066" lon="13.322578025981784">
        <ele>300.06999999999999</ele>
        <time>2017-06-29T08:15:32Z</time>
      </trkpt>
      <trkpt lat="65.081441989168525" lon="13.319228030741215">
        <ele>293.33999999999997</ele>
        <time>2017-06-29T08:15:40Z</time>
      </trkpt>
      <trkpt lat="65.081050973385572" lon="13.317923974245787">
        <ele>292.86000000000001</ele>
        <time>2017-06-29T08:15:44Z</time>
      </trkpt>
      <trkpt lat="65.080933962017298" lon="13.317657010629773">
        <ele>293.33999999999997</ele>
        <time>2017-06-29T08:15:45Z</time>
      </trkpt>
      <trkpt lat="65.080803036689758" lon="13.317417958751321">
        <ele>293.33999999999997</ele>
        <time>2017-06-29T08:15:46Z</time>
      </trkpt>
      <trkpt lat="65.080660963431001" lon="13.317216960713267">
        <ele>293.81999999999999</ele>
        <time>2017-06-29T08:15:47Z</time>
      </trkpt>
      <trkpt lat="65.080517968162894" lon="13.317046975716949">
        <ele>294.77999999999997</ele>
        <time>2017-06-29T08:15:48Z</time>
      </trkpt>
      <trkpt lat="65.080369021743536" lon="13.316881014034152">
        <ele>295.25999999999999</ele>
        <time>2017-06-29T08:15:49Z</time>
      </trkpt>
      <trkpt lat="65.078976033255458" lon="13.315227013081312">
        <ele>297.67000000000002</ele>
        <time>2017-06-29T08:15:58Z</time>
      </trkpt>
      <trkpt lat="65.077777002006769" lon="13.313252991065383">
        <ele>292.86000000000001</ele>
        <time>2017-06-29T08:16:07Z</time>
      </trkpt>
      <trkpt lat="65.076460037380457" lon="13.310487968847156">
        <ele>290.45999999999998</ele>
        <time>2017-06-29T08:16:17Z</time>
      </trkpt>
      <trkpt lat="65.075237033888698" lon="13.309292960911989">
        <ele>287.56999999999999</ele>
        <time>2017-06-29T08:16:24Z</time>
      </trkpt>
      <trkpt lat="65.074237994849682" lon="13.307656981050968">
        <ele>285.64999999999998</ele>
        <time>2017-06-29T08:16:30Z</time>
      </trkpt>
      <trkpt lat="65.073251025751233" lon="13.305676002055407">
        <ele>279.88</ele>
        <time>2017-06-29T08:16:36Z</time>
      </trkpt>
      <trkpt lat="65.073056984692812" lon="13.305398980155587">
        <ele>278.92000000000002</ele>
        <time>2017-06-29T08:16:37Z</time>
      </trkpt>
      <trkpt lat="65.072856992483139" lon="13.305153977125883">
        <ele>277.95999999999998</ele>
        <time>2017-06-29T08:16:38Z</time>
      </trkpt>
      <trkpt lat="65.072646019980311" lon="13.304937975481153">
        <ele>277.48000000000002</ele>
        <time>2017-06-29T08:16:39Z</time>
      </trkpt>
      <trkpt lat="65.072430018335581" lon="13.304774025455117">
        <ele>277.48000000000002</ele>
        <time>2017-06-29T08:16:40Z</time>
      </trkpt>
      <trkpt lat="65.072208987548947" lon="13.30465198494494">
        <ele>277.48000000000002</ele>
        <time>2017-06-29T08:16:41Z</time>
      </trkpt>
      <trkpt lat="65.071987034752965" lon="13.304583001881838">
        <ele>277.95999999999998</ele>
        <time>2017-06-29T08:16:42Z</time>
      </trkpt>
      <trkpt lat="65.071760974824429" lon="13.304561041295528">
        <ele>278.92000000000002</ele>
        <time>2017-06-29T08:16:43Z</time>
      </trkpt>
      <trkpt lat="65.071539022028446" lon="13.304561963304877">
        <ele>279.88</ele>
        <time>2017-06-29T08:16:44Z</time>
      </trkpt>
      <trkpt lat="65.067960033193231" lon="13.304883996024728">
        <ele>297.18000000000001</ele>
        <time>2017-06-29T08:17:00Z</time>
      </trkpt>
      <trkpt lat="65.066106040030718" lon="13.304185029119253">
        <ele>302.47000000000003</ele>
        <time>2017-06-29T08:17:08Z</time>
      </trkpt>
      <trkpt lat="65.062587987631559" lon="13.302167002111673">
        <ele>292.86000000000001</ele>
        <time>2017-06-29T08:17:23Z</time>
      </trkpt>
      <trkpt lat="65.061489036306739" lon="13.301694011315703">
        <ele>290.45999999999998</ele>
        <time>2017-06-29T08:17:28Z</time>
      </trkpt>
      <trkpt lat="65.061273034662008" lon="13.301699040457606">
        <ele>289.49000000000001</ele>
        <time>2017-06-29T08:17:29Z</time>
      </trkpt>
      <trkpt lat="65.061054015532136" lon="13.301746984943748">
        <ele>289.00999999999999</ele>
        <time>2017-06-29T08:17:30Z</time>
      </trkpt>
      <trkpt lat="65.060837008059025" lon="13.30183700658381">
        <ele>289.00999999999999</ele>
        <time>2017-06-29T08:17:31Z</time>
      </trkpt>
      <trkpt lat="65.060622012242675" lon="13.301963992416859">
        <ele>289.00999999999999</ele>
        <time>2017-06-29T08:17:32Z</time>
      </trkpt>
      <trkpt lat="65.060411039739847" lon="13.302098019048572">
        <ele>289.00999999999999</ele>
        <time>2017-06-29T08:17:33Z</time>
      </trkpt>
      <trkpt lat="65.057334965094924" lon="13.303973972797394">
        <ele>290.45999999999998</ele>
        <time>2017-06-29T08:17:48Z</time>
      </trkpt>
      <trkpt lat="65.057119969278574" lon="13.30398503690958">
        <ele>290.45999999999998</ele>
        <time>2017-06-29T08:17:49Z</time>
      </trkpt>
      <trkpt lat="65.056904973462224" lon="13.303971039131284">
        <ele>290.45999999999998</ele>
        <time>2017-06-29T08:17:50Z</time>
      </trkpt>
      <trkpt lat="65.054055964574218" lon="13.303782027214766">
        <ele>285.64999999999998</ele>
        <time>2017-06-29T08:18:03Z</time>
      </trkpt>
      <trkpt lat="65.051592020317912" lon="13.304977035149932">
        <ele>282.27999999999997</ele>
        <time>2017-06-29T08:18:14Z</time>
      </trkpt>
      <trkpt lat="65.051390016451478" lon="13.305200999602675">
        <ele>282.76999999999998</ele>
        <time>2017-06-29T08:18:15Z</time>
      </trkpt>
      <trkpt lat="65.050422996282578" lon="13.306419979780912">
        <ele>282.76999999999998</ele>
        <time>2017-06-29T08:18:20Z</time>
      </trkpt>
      <trkpt lat="65.05021596327424" lon="13.306578984484076">
        <ele>283.25</ele>
        <time>2017-06-29T08:18:21Z</time>
      </trkpt>
      <trkpt lat="65.050004990771413" lon="13.306670011952519">
        <ele>283.73000000000002</ele>
        <time>2017-06-29T08:18:22Z</time>
      </trkpt>
      <trkpt lat="65.049789994955063" lon="13.306703958660364">
        <ele>284.20999999999998</ele>
        <time>2017-06-29T08:18:23Z</time>
      </trkpt>
      <trkpt lat="65.049576004967093" lon="13.306683003902435">
        <ele>284.20999999999998</ele>
        <time>2017-06-29T08:18:24Z</time>
      </trkpt>
      <trkpt lat="65.049362014979124" lon="13.306614020839334">
        <ele>284.69</ele>
        <time>2017-06-29T08:18:25Z</time>
      </trkpt>
      <trkpt lat="65.049150036647916" lon="13.306493991985917">
        <ele>285.64999999999998</ele>
        <time>2017-06-29T08:18:26Z</time>
      </trkpt>
      <trkpt lat="65.048937974497676" lon="13.306345967575908">
        <ele>286.13</ele>
        <time>2017-06-29T08:18:27Z</time>
      </trkpt>
      <trkpt lat="65.046180998906493" lon="13.30420296639204">
        <ele>279.39999999999998</ele>
        <time>2017-06-29T08:18:40Z</time>
      </trkpt>
      <trkpt lat="65.046009002253413" lon="13.304000962525606">
        <ele>278.44</ele>
        <time>2017-06-29T08:18:41Z</time>
      </trkpt>
      <trkpt lat="65.045856032520533" lon="13.303764006122947">
        <ele>277.95999999999998</ele>
        <time>2017-06-29T08:18:42Z</time>
      </trkpt>
      <trkpt lat="65.045728040859103" lon="13.303480027243495">
        <ele>277</ele>
        <time>2017-06-29T08:18:43Z</time>
      </trkpt>
      <trkpt lat="65.045614968985319" lon="13.30314802005887">
        <ele>276.51999999999998</ele>
        <time>2017-06-29T08:18:44Z</time>
      </trkpt>
      <trkpt lat="65.045517990365624" lon="13.302769996225834">
        <ele>275.56</ele>
        <time>2017-06-29T08:18:45Z</time>
      </trkpt>
      <trkpt lat="65.045435009524226" lon="13.302350984886289">
        <ele>274.58999999999997</ele>
        <time>2017-06-29T08:18:46Z</time>
      </trkpt>
      <trkpt lat="65.045367032289505" lon="13.301896015182137">
        <ele>273.63</ele>
        <time>2017-06-29T08:18:47Z</time>
      </trkpt>
      <trkpt lat="65.045309029519558" lon="13.301403997465968">
        <ele>272.67000000000002</ele>
        <time>2017-06-29T08:18:48Z</time>
      </trkpt>
      <trkpt lat="65.045264018699527" lon="13.300890019163489">
        <ele>271.70999999999998</ele>
        <time>2017-06-29T08:18:49Z</time>
      </trkpt>
      <trkpt lat="65.044700000435114" lon="13.296477030962706">
        <ele>263.54000000000002</ele>
        <time>2017-06-29T08:18:57Z</time>
      </trkpt>
      <trkpt lat="65.044251987710595" lon="13.292717998847365">
        <ele>256.81</ele>
        <time>2017-06-29T08:19:04Z</time>
      </trkpt>
      <trkpt lat="65.044071022421122" lon="13.291863966733217">
        <ele>257.29000000000002</ele>
        <time>2017-06-29T08:19:06Z</time>
      </trkpt>
      <trkpt lat="65.043954011052847" lon="13.291476974263787">
        <ele>257.29000000000002</ele>
        <time>2017-06-29T08:19:07Z</time>
      </trkpt>
      <trkpt lat="65.043819984421134" lon="13.291106997057796">
        <ele>256.81</ele>
        <time>2017-06-29T08:19:08Z</time>
      </trkpt>
      <trkpt lat="65.043671960011125" lon="13.290758980438113">
        <ele>256.81</ele>
        <time>2017-06-29T08:19:09Z</time>
      </trkpt>
      <trkpt lat="65.043502980843186" lon="13.290444994345307">
        <ele>256.81</ele>
        <time>2017-06-29T08:19:10Z</time>
      </trkpt>
      <trkpt lat="65.043324027210474" lon="13.290164032950997">
        <ele>256.32999999999998</ele>
        <time>2017-06-29T08:19:11Z</time>
      </trkpt>
      <trkpt lat="65.043131997808814" lon="13.28991299495101">
        <ele>256.32999999999998</ele>
        <time>2017-06-29T08:19:12Z</time>
      </trkpt>
      <trkpt lat="65.042930999770761" lon="13.28967897221446">
        <ele>255.37</ele>
        <time>2017-06-29T08:19:13Z</time>
      </trkpt>
      <trkpt lat="65.042720027267933" lon="13.289501024410129">
        <ele>254.41</ele>
        <time>2017-06-29T08:19:14Z</time>
      </trkpt>
      <trkpt lat="65.042495978996158" lon="13.289373032748699">
        <ele>253.44</ele>
        <time>2017-06-29T08:19:15Z</time>
      </trkpt>
      <trkpt lat="65.042275032028556" lon="13.289285022765398">
        <ele>252.96000000000001</ele>
        <time>2017-06-29T08:19:16Z</time>
      </trkpt>
      <trkpt lat="65.040920013561845" lon="13.288526963442564">
        <ele>251.03999999999999</ele>
        <time>2017-06-29T08:19:23Z</time>
      </trkpt>
      <trkpt lat="65.040752040222287" lon="13.28830199316144">
        <ele>251.03999999999999</ele>
        <time>2017-06-29T08:19:24Z</time>
      </trkpt>
      <trkpt lat="65.040596975013614" lon="13.28802103176713">
        <ele>251.03999999999999</ele>
        <time>2017-06-29T08:19:25Z</time>
      </trkpt>
      <trkpt lat="65.040462026372552" lon="13.287690030410886">
        <ele>251.03999999999999</ele>
        <time>2017-06-29T08:19:26Z</time>
      </trkpt>
      <trkpt lat="65.040336968377233" lon="13.287331033498049">
        <ele>251.03999999999999</ele>
        <time>2017-06-29T08:19:27Z</time>
      </trkpt>
      <trkpt lat="65.040225991979241" lon="13.286942029371858">
        <ele>251.03999999999999</ele>
        <time>2017-06-29T08:19:28Z</time>
      </trkpt>
      <trkpt lat="65.040127001702785" lon="13.286555958911777">
        <ele>251.03999999999999</ele>
        <time>2017-06-29T08:19:29Z</time>
      </trkpt>
      <trkpt lat="65.038853958249092" lon="13.281852034851909">
        <ele>247.19999999999999</ele>
        <time>2017-06-29T08:19:41Z</time>
      </trkpt>
      <trkpt lat="65.037392992526293" lon="13.277479028329253">
        <ele>246.22999999999999</ele>
        <time>2017-06-29T08:19:54Z</time>
      </trkpt>
      <trkpt lat="65.037228958681226" lon="13.277224972844124">
        <ele>246.72</ele>
        <time>2017-06-29T08:19:55Z</time>
      </trkpt>
      <trkpt lat="65.037051010876894" lon="13.277003020048141">
        <ele>246.22999999999999</ele>
        <time>2017-06-29T08:19:56Z</time>
      </trkpt>
      <trkpt lat="65.036865016445518" lon="13.276819037273526">
        <ele>245.75</ele>
        <time>2017-06-29T08:19:57Z</time>
      </trkpt>
      <trkpt lat="65.036669969558716" lon="13.27665600925684">
        <ele>244.78999999999999</ele>
        <time>2017-06-29T08:19:58Z</time>
      </trkpt>
      <trkpt lat="65.036467965692282" lon="13.276517959311604">
        <ele>244.31</ele>
        <time>2017-06-29T08:19:59Z</time>
      </trkpt>
      <trkpt lat="65.033622980117798" lon="13.274722974747419">
        <ele>239.50999999999999</ele>
        <time>2017-06-29T08:20:13Z</time>
      </trkpt>
      <trkpt lat="65.032076016068459" lon="13.272893959656358">
        <ele>237.58000000000001</ele>
        <time>2017-06-29T08:20:22Z</time>
      </trkpt>
      <trkpt lat="65.029632020741701" lon="13.269957024604082">
        <ele>237.09999999999999</ele>
        <time>2017-06-29T08:20:36Z</time>
      </trkpt>
      <trkpt lat="65.026789968833327" lon="13.266886984929442">
        <ele>237.58000000000001</ele>
        <time>2017-06-29T08:20:50Z</time>
      </trkpt>
      <trkpt lat="65.025513991713524" lon="13.264830987900496">
        <ele>237.58000000000001</ele>
        <time>2017-06-29T08:20:57Z</time>
      </trkpt>
      <trkpt lat="65.023236963897943" lon="13.262547003105283">
        <ele>242.38999999999999</ele>
        <time>2017-06-29T08:21:08Z</time>
      </trkpt>
      <trkpt lat="65.020205983892083" lon="13.259341008961201">
        <ele>243.83000000000001</ele>
        <time>2017-06-29T08:21:22Z</time>
      </trkpt>
      <trkpt lat="65.018478976562619" lon="13.257552981376648">
        <ele>242.87</ele>
        <time>2017-06-29T08:21:30Z</time>
      </trkpt>
      <trkpt lat="65.016391966491938" lon="13.256521001458168">
        <ele>240.94999999999999</ele>
        <time>2017-06-29T08:21:39Z</time>
      </trkpt>
      <trkpt lat="65.014852965250611" lon="13.255438981577754">
        <ele>241.91</ele>
        <time>2017-06-29T08:21:46Z</time>
      </trkpt>
      <trkpt lat="65.013256967067719" lon="13.255105968564749">
        <ele>241.43000000000001</ele>
        <time>2017-06-29T08:21:53Z</time>
      </trkpt>
      <trkpt lat="65.009910995140672" lon="13.254710007458925">
        <ele>239.99000000000001</ele>
        <time>2017-06-29T08:22:08Z</time>
      </trkpt>
      <trkpt lat="65.006990991532803" lon="13.255161959677935">
        <ele>239.02000000000001</ele>
        <time>2017-06-29T08:22:21Z</time>
      </trkpt>
      <trkpt lat="65.005702022463083" lon="13.254804974421859">
        <ele>239.02000000000001</ele>
        <time>2017-06-29T08:22:27Z</time>
      </trkpt>
      <trkpt lat="65.00550203025341" lon="13.254619985818863">
        <ele>238.53999999999999</ele>
        <time>2017-06-29T08:22:28Z</time>
      </trkpt>
      <trkpt lat="65.003692964091897" lon="13.252525012940168">
        <ele>237.09999999999999</ele>
        <time>2017-06-29T08:22:37Z</time>
      </trkpt>
      <trkpt lat="65.002093026414514" lon="13.251887988299131">
        <ele>234.22</ele>
        <time>2017-06-29T08:22:44Z</time>
      </trkpt>
      <trkpt lat="65.000285971909761" lon="13.252452006563544">
        <ele>234.69999999999999</ele>
        <time>2017-06-29T08:22:52Z</time>
      </trkpt>
      <trkpt lat="64.998615039512515" lon="13.253004960715771">
        <ele>240.47</ele>
        <time>2017-06-29T08:23:00Z</time>
      </trkpt>
      <trkpt lat="64.998407000675797" lon="13.252932038158178">
        <ele>240.94999999999999</ele>
        <time>2017-06-29T08:23:01Z</time>
      </trkpt>
      <trkpt lat="64.998200973495841" lon="13.252817038446665">
        <ele>241.43000000000001</ele>
        <time>2017-06-29T08:23:02Z</time>
      </trkpt>
      <trkpt lat="64.997999975457788" lon="13.25265702791512">
        <ele>241.91</ele>
        <time>2017-06-29T08:23:03Z</time>
      </trkpt>
      <trkpt lat="64.997799983248115" lon="13.252458041533828">
        <ele>241.43000000000001</ele>
        <time>2017-06-29T08:23:04Z</time>
      </trkpt>
      <trkpt lat="64.997603008523583" lon="13.25222703628242">
        <ele>240.47</ele>
        <time>2017-06-29T08:23:05Z</time>
      </trkpt>
      <trkpt lat="64.997419025748968" lon="13.251943979412317">
        <ele>239.50999999999999</ele>
        <time>2017-06-29T08:23:06Z</time>
      </trkpt>
      <trkpt lat="64.997241999953985" lon="13.251623036339879">
        <ele>239.50999999999999</ele>
        <time>2017-06-29T08:23:07Z</time>
      </trkpt>
      <trkpt lat="64.997067991644144" lon="13.251272002235055">
        <ele>239.02000000000001</ele>
        <time>2017-06-29T08:23:08Z</time>
      </trkpt>
      <trkpt lat="64.996901024132967" lon="13.250888027250767">
        <ele>239.02000000000001</ele>
        <time>2017-06-29T08:23:09Z</time>
      </trkpt>
      <trkpt lat="64.994356026872993" lon="13.24505397118628">
        <ele>237.58000000000001</ele>
        <time>2017-06-29T08:23:24Z</time>
      </trkpt>
      <trkpt lat="64.99250303953886" lon="13.241918971762061">
        <ele>237.58000000000001</ele>
        <time>2017-06-29T08:23:34Z</time>
      </trkpt>
      <trkpt lat="64.990836968645453" lon="13.238748013973236">
        <ele>238.53999999999999</ele>
        <time>2017-06-29T08:23:43Z</time>
      </trkpt>
      <trkpt lat="64.988612998276949" lon="13.234381964430213">
        <ele>239.02000000000001</ele>
        <time>2017-06-29T08:23:54Z</time>
      </trkpt>
      <trkpt lat="64.988398002460599" lon="13.23409304022789">
        <ele>239.02000000000001</ele>
        <time>2017-06-29T08:23:55Z</time>
      </trkpt>
      <trkpt lat="64.988172026351094" lon="13.233863962814212">
        <ele>238.53999999999999</ele>
        <time>2017-06-29T08:23:56Z</time>
      </trkpt>
      <trkpt lat="64.987930962815881" lon="13.233676962554455">
        <ele>238.53999999999999</ele>
        <time>2017-06-29T08:23:57Z</time>
      </trkpt>
      <trkpt lat="64.987685959786177" lon="13.233532039448619">
        <ele>238.53999999999999</ele>
        <time>2017-06-29T08:23:58Z</time>
      </trkpt>
      <trkpt lat="64.987436011433601" lon="13.233423996716738">
        <ele>238.53999999999999</ele>
        <time>2017-06-29T08:23:59Z</time>
      </trkpt>
      <trkpt lat="64.985839007422328" lon="13.23235304094851">
        <ele>239.02000000000001</ele>
        <time>2017-06-29T08:24:06Z</time>
      </trkpt>
      <trkpt lat="64.984055003151298" lon="13.230367032811046">
        <ele>237.09999999999999</ele>
        <time>2017-06-29T08:24:15Z</time>
      </trkpt>
      <trkpt lat="64.982869969680905" lon="13.228447996079922">
        <ele>236.13999999999999</ele>
        <time>2017-06-29T08:24:22Z</time>
      </trkpt>
      <trkpt lat="64.980523958802223" lon="13.2240179926157">
        <ele>235.66</ele>
        <time>2017-06-29T08:24:35Z</time>
      </trkpt>
      <trkpt lat="64.979144968092442" lon="13.221960989758372">
        <ele>237.09999999999999</ele>
        <time>2017-06-29T08:24:42Z</time>
      </trkpt>
      <trkpt lat="64.977740999311209" lon="13.220368009060621">
        <ele>241.43000000000001</ele>
        <time>2017-06-29T08:24:49Z</time>
      </trkpt>
      <trkpt lat="64.976049028337002" lon="13.218993963673711">
        <ele>238.53999999999999</ele>
        <time>2017-06-29T08:24:57Z</time>
      </trkpt>
      <trkpt lat="64.975812993943691" lon="13.218941995874047">
        <ele>237.58000000000001</ele>
        <time>2017-06-29T08:24:58Z</time>
      </trkpt>
      <trkpt lat="64.975572014227509" lon="13.218950964510441">
        <ele>236.62</ele>
        <time>2017-06-29T08:24:59Z</time>
      </trkpt>
      <trkpt lat="64.974011974409223" lon="13.218929003924131">
        <ele>233.25999999999999</ele>
        <time>2017-06-29T08:25:06Z</time>
      </trkpt>
      <trkpt lat="64.972508009523153" lon="13.217843966558576">
        <ele>230.84999999999999</ele>
        <time>2017-06-29T08:25:13Z</time>
      </trkpt>
      <trkpt lat="64.969170000404119" lon="13.215193022042513">
        <ele>227.49000000000001</ele>
        <time>2017-06-29T08:25:28Z</time>
      </trkpt>
      <trkpt lat="64.964162986725569" lon="13.209487963467836">
        <ele>225.09</ele>
        <time>2017-06-29T08:25:51Z</time>
      </trkpt>
      <trkpt lat="64.96057502925396" lon="13.205158039927483">
        <ele>221.24000000000001</ele>
        <time>2017-06-29T08:26:08Z</time>
      </trkpt>
      <trkpt lat="64.959672968834639" lon="13.20373697206378">
        <ele>222.68000000000001</ele>
        <time>2017-06-29T08:26:13Z</time>
      </trkpt>
      <trkpt lat="64.959489991888404" lon="13.203579979017377">
        <ele>222.68000000000001</ele>
        <time>2017-06-29T08:26:14Z</time>
      </trkpt>
      <trkpt lat="64.958903007209301" lon="13.203150993213058">
        <ele>222.19999999999999</ele>
        <time>2017-06-29T08:26:17Z</time>
      </trkpt>
      <trkpt lat="64.958717012777925" lon="13.202929040417075">
        <ele>222.19999999999999</ele>
        <time>2017-06-29T08:26:18Z</time>
      </trkpt>
      <trkpt lat="64.958538981154561" lon="13.202660987153649">
        <ele>222.19999999999999</ele>
        <time>2017-06-29T08:26:19Z</time>
      </trkpt>
      <trkpt lat="64.958376036956906" lon="13.202336020767689">
        <ele>222.19999999999999</ele>
        <time>2017-06-29T08:26:20Z</time>
      </trkpt>
      <trkpt lat="64.958228012546897" lon="13.201965959742665">
        <ele>222.68000000000001</ele>
        <time>2017-06-29T08:26:21Z</time>
      </trkpt>
      <trkpt lat="64.958093985915184" lon="13.201556000858545">
        <ele>222.68000000000001</ele>
        <time>2017-06-29T08:26:22Z</time>
      </trkpt>
      <trkpt lat="64.9579550139606" lon="13.201129026710987">
        <ele>222.68000000000001</ele>
        <time>2017-06-29T08:26:23Z</time>
      </trkpt>
      <trkpt lat="64.956727987155318" lon="13.1973119918257">
        <ele>223.16</ele>
        <time>2017-06-29T08:26:32Z</time>
      </trkpt>
      <trkpt lat="64.956575017422438" lon="13.196979984641075">
        <ele>223.16</ele>
        <time>2017-06-29T08:26:33Z</time>
      </trkpt>
      <trkpt lat="64.954944988712668" lon="13.194482009857893">
        <ele>223.63999999999999</ele>
        <time>2017-06-29T08:26:42Z</time>
      </trkpt>
      <trkpt lat="64.95380999520421" lon="13.191955033689737">
        <ele>225.09</ele>
        <time>2017-06-29T08:26:49Z</time>
      </trkpt>
      <trkpt lat="64.951156033203006" lon="13.184878025203943">
        <ele>227.49000000000001</ele>
        <time>2017-06-29T08:27:07Z</time>
      </trkpt>
      <trkpt lat="64.950997028499842" lon="13.184559009969234">
        <ele>227.00999999999999</ele>
        <time>2017-06-29T08:27:08Z</time>
      </trkpt>
      <trkpt lat="64.950825031846762" lon="13.184263966977596">
        <ele>227.00999999999999</ele>
        <time>2017-06-29T08:27:09Z</time>
      </trkpt>
      <trkpt lat="64.948711032047868" lon="13.181332983076572">
        <ele>225.56999999999999</ele>
        <time>2017-06-29T08:27:20Z</time>
      </trkpt>
      <trkpt lat="64.946926021948457" lon="13.180420026183128">
        <ele>225.09</ele>
        <time>2017-06-29T08:27:28Z</time>
      </trkpt>
      <trkpt lat="64.94427097029984" lon="13.178299991413951">
        <ele>225.56999999999999</ele>
        <time>2017-06-29T08:27:40Z</time>
      </trkpt>
      <trkpt lat="64.94265996851027" lon="13.175974013283849">
        <ele>227.49000000000001</ele>
        <time>2017-06-29T08:27:48Z</time>
      </trkpt>
      <trkpt lat="64.941043015569448" lon="13.174284975975752">
        <ele>227.97</ele>
        <time>2017-06-29T08:27:56Z</time>
      </trkpt>
      <trkpt lat="64.939598981291056" lon="13.172872038558125">
        <ele>225.56999999999999</ele>
        <time>2017-06-29T08:28:04Z</time>
      </trkpt>
      <trkpt lat="64.939233027398586" lon="13.172546988353133">
        <ele>224.61000000000001</ele>
        <time>2017-06-29T08:28:06Z</time>
      </trkpt>
      <trkpt lat="64.937824029475451" lon="13.170803971588612">
        <ele>223.16</ele>
        <time>2017-06-29T08:28:14Z</time>
      </trkpt>
      <trkpt lat="64.935564016923308" lon="13.168904967606068">
        <ele>221.24000000000001</ele>
        <time>2017-06-29T08:28:27Z</time>
      </trkpt>
      <trkpt lat="64.933992996811867" lon="13.166299033910036">
        <ele>219.31999999999999</ele>
        <time>2017-06-29T08:28:38Z</time>
      </trkpt>
      <trkpt lat="64.932895973324776" lon="13.164470018818974">
        <ele>219.31999999999999</ele>
        <time>2017-06-29T08:28:47Z</time>
      </trkpt>
      <trkpt lat="64.932180996984243" lon="13.162644021213055">
        <ele>218.84</ele>
        <time>2017-06-29T08:28:56Z</time>
      </trkpt>
      <trkpt lat="64.932096004486084" lon="13.162450985983014">
        <ele>218.84</ele>
        <time>2017-06-29T08:28:57Z</time>
      </trkpt>
      <trkpt lat="64.931825017556548" lon="13.161958968266845">
        <ele>218.84</ele>
        <time>2017-06-29T08:29:00Z</time>
      </trkpt>
      <trkpt lat="64.931725021451712" lon="13.161832988262177">
        <ele>218.36000000000001</ele>
        <time>2017-06-29T08:29:01Z</time>
      </trkpt>
      <trkpt lat="64.931610021740198" lon="13.161731986328959">
        <ele>217.88</ele>
        <time>2017-06-29T08:29:02Z</time>
      </trkpt>
      <trkpt lat="64.929637005552649" lon="13.160190973430872">
        <ele>220.75999999999999</ele>
        <time>2017-06-29T08:29:19Z</time>
      </trkpt>
      <trkpt lat="64.927915027365088" lon="13.158847019076347">
        <ele>219.80000000000001</ele>
        <time>2017-06-29T08:29:34Z</time>
      </trkpt>
      <trkpt lat="64.926145020872355" lon="13.157453024759889">
        <ele>214.99000000000001</ele>
        <time>2017-06-29T08:29:49Z</time>
      </trkpt>
      <trkpt lat="64.92605097591877" lon="13.157292008399963">
        <ele>214.99000000000001</ele>
        <time>2017-06-29T08:29:50Z</time>
      </trkpt>
      <trkpt lat="64.925975035876036" lon="13.157097967341542">
        <ele>214.50999999999999</ele>
        <time>2017-06-29T08:29:51Z</time>
      </trkpt>
      <trkpt lat="64.925918960943818" lon="13.156861010938883">
        <ele>214.50999999999999</ele>
        <time>2017-06-29T08:29:52Z</time>
      </trkpt>
      <trkpt lat="64.925887025892735" lon="13.156601004302502">
        <ele>214.50999999999999</ele>
        <time>2017-06-29T08:29:53Z</time>
      </trkpt>
      <trkpt lat="64.925872022286057" lon="13.156314007937908">
        <ele>213.55000000000001</ele>
        <time>2017-06-29T08:29:54Z</time>
      </trkpt>
      <trkpt lat="64.925876967608929" lon="13.156013013795018">
        <ele>212.59</ele>
        <time>2017-06-29T08:29:55Z</time>
      </trkpt>
      <trkpt lat="64.925889037549496" lon="13.155714031308889">
        <ele>212.11000000000001</ele>
        <time>2017-06-29T08:29:56Z</time>
      </trkpt>
      <trkpt lat="64.926238982006907" lon="13.150971969589591">
        <ele>209.69999999999999</ele>
        <time>2017-06-29T08:30:10Z</time>
      </trkpt>
      <trkpt lat="64.92641600780189" lon="13.146744975820184">
        <ele>210.19</ele>
        <time>2017-06-29T08:30:21Z</time>
      </trkpt>
      <trkpt lat="64.926730999723077" lon="13.143996968865395">
        <ele>207.78</ele>
        <time>2017-06-29T08:30:28Z</time>
      </trkpt>
      <trkpt lat="64.927337011322379" lon="13.141847010701895">
        <ele>207.78</ele>
        <time>2017-06-29T08:30:34Z</time>
      </trkpt>
      <trkpt lat="64.927480006590486" lon="13.141566971316934">
        <ele>208.25999999999999</ele>
        <time>2017-06-29T08:30:35Z</time>
      </trkpt>
      <trkpt lat="64.927627025172114" lon="13.141306964680552">
        <ele>208.74000000000001</ele>
        <time>2017-06-29T08:30:36Z</time>
      </trkpt>
      <trkpt lat="64.928809041157365" lon="13.139020968228579">
        <ele>206.34</ele>
        <time>2017-06-29T08:30:44Z</time>
      </trkpt>
      <trkpt lat="64.930390035733581" lon="13.136492986232042">
        <ele>206.34</ele>
        <time>2017-06-29T08:30:54Z</time>
      </trkpt>
      <trkpt lat="64.931207019835711" lon="13.134727003052831">
        <ele>207.30000000000001</ele>
        <time>2017-06-29T08:31:00Z</time>
      </trkpt>
      <trkpt lat="64.931299975141883" lon="13.134342022240162">
        <ele>205.38</ele>
        <time>2017-06-29T08:31:01Z</time>
      </trkpt>
      <trkpt lat="64.931806996464729" lon="13.131425958126783">
        <ele>202.00999999999999</ele>
        <time>2017-06-29T08:31:08Z</time>
      </trkpt>
      <trkpt lat="64.931839015334845" lon="13.130981968715787">
        <ele>202.49000000000001</ele>
        <time>2017-06-29T08:31:09Z</time>
      </trkpt>
      <trkpt lat="64.931846978142858" lon="13.130524987354875">
        <ele>202.97999999999999</ele>
        <time>2017-06-29T08:31:10Z</time>
      </trkpt>
      <trkpt lat="64.931837003678083" lon="13.130073035135865">
        <ele>203.46000000000001</ele>
        <time>2017-06-29T08:31:11Z</time>
      </trkpt>
      <trkpt lat="64.931817976757884" lon="13.129615969955921">
        <ele>203.46000000000001</ele>
        <time>2017-06-29T08:31:12Z</time>
      </trkpt>
      <trkpt lat="64.931481024250388" lon="13.125975038856268">
        <ele>204.90000000000001</ele>
        <time>2017-06-29T08:31:21Z</time>
      </trkpt>
      <trkpt lat="64.930873000994325" lon="13.124018032103777">
        <ele>206.81999999999999</ele>
        <time>2017-06-29T08:31:27Z</time>
      </trkpt>
      <trkpt lat="64.930034978315234" lon="13.122282978147268">
        <ele>203.46000000000001</ele>
        <time>2017-06-29T08:31:36Z</time>
      </trkpt>
      <trkpt lat="64.929303992539644" lon="13.120907004922628">
        <ele>202.97999999999999</ele>
        <time>2017-06-29T08:31:47Z</time>
      </trkpt>
      <trkpt lat="64.929096959531307" lon="13.120743976905942">
        <ele>204.90000000000001</ele>
        <time>2017-06-29T08:31:54Z</time>
      </trkpt>
      <trkpt lat="64.92888699285686" lon="13.120755963027477">
        <ele>205.38</ele>
        <time>2017-06-29T08:32:06Z</time>
      </trkpt>
      <trkpt lat="64.928717007860541" lon="13.120777001604438">
        <ele>205.38</ele>
        <time>2017-06-29T08:32:08Z</time>
      </trkpt>
      <trkpt lat="64.928292967379093" lon="13.120643980801105">
        <ele>208.74000000000001</ele>
        <time>2017-06-29T08:32:12Z</time>
      </trkpt>
      <trkpt lat="64.928187020123005" lon="13.120549013838172">
        <ele>209.69999999999999</ele>
        <time>2017-06-29T08:32:13Z</time>
      </trkpt>
      <trkpt lat="64.928087024018168" lon="13.120432002469897">
        <ele>210.66999999999999</ele>
        <time>2017-06-29T08:32:14Z</time>
      </trkpt>
      <trkpt lat="64.927989039570093" lon="13.120294958353043">
        <ele>211.15000000000001</ele>
        <time>2017-06-29T08:32:15Z</time>
      </trkpt>
      <trkpt lat="64.927891977131367" lon="13.120136959478259">
        <ele>211.63</ele>
        <time>2017-06-29T08:32:16Z</time>
      </trkpt>
      <trkpt lat="64.92779198102653" lon="13.119955994188786">
        <ele>211.63</ele>
        <time>2017-06-29T08:32:17Z</time>
      </trkpt>
      <trkpt lat="64.927691984921694" lon="13.119743010029197">
        <ele>212.11000000000001</ele>
        <time>2017-06-29T08:32:18Z</time>
      </trkpt>
      <trkpt lat="64.926949013024569" lon="13.117464976385236">
        <ele>211.15000000000001</ele>
        <time>2017-06-29T08:32:26Z</time>
      </trkpt>
      <trkpt lat="64.925938993692398" lon="13.114043986424804">
        <ele>212.11000000000001</ele>
        <time>2017-06-29T08:32:36Z</time>
      </trkpt>
      <trkpt lat="64.924723030999303" lon="13.111455990001559">
        <ele>212.59</ele>
        <time>2017-06-29T08:32:44Z</time>
      </trkpt>
      <trkpt lat="64.922691006213427" lon="13.105960981920362">
        <ele>214.03</ele>
        <time>2017-06-29T08:32:58Z</time>
      </trkpt>
      <trkpt lat="64.91992799565196" lon="13.099760971963406">
        <ele>214.50999999999999</ele>
        <time>2017-06-29T08:33:15Z</time>
      </trkpt>
      <trkpt lat="64.917031964287162" lon="13.093313025310636">
        <ele>213.06999999999999</ele>
        <time>2017-06-29T08:33:32Z</time>
      </trkpt>
      <trkpt lat="64.913403019309044" lon="13.085219040513039">
        <ele>215.47</ele>
        <time>2017-06-29T08:33:54Z</time>
      </trkpt>
      <trkpt lat="64.91197801195085" lon="13.081188015639782">
        <ele>213.55000000000001</ele>
        <time>2017-06-29T08:34:04Z</time>
      </trkpt>
      <trkpt lat="64.91060103289783" lon="13.077741041779518">
        <ele>216.91</ele>
        <time>2017-06-29T08:34:13Z</time>
      </trkpt>
      <trkpt lat="64.909306028857827" lon="13.076173039153218">
        <ele>215.94999999999999</ele>
        <time>2017-06-29T08:34:19Z</time>
      </trkpt>
      <trkpt lat="64.907721010968089" lon="13.075583958998322">
        <ele>213.06999999999999</ele>
        <time>2017-06-29T08:34:25Z</time>
      </trkpt>
      <trkpt lat="64.906081007793546" lon="13.076241016387939">
        <ele>209.22</ele>
        <time>2017-06-29T08:34:31Z</time>
      </trkpt>
      <trkpt lat="64.904604032635689" lon="13.078114036470652">
        <ele>207.78</ele>
        <time>2017-06-29T08:34:37Z</time>
      </trkpt>
      <trkpt lat="64.902678960934281" lon="13.080590972676873">
        <ele>209.22</ele>
        <time>2017-06-29T08:34:45Z</time>
      </trkpt>
      <trkpt lat="64.89962300285697" lon="13.082653004676104">
        <ele>209.22</ele>
        <time>2017-06-29T08:34:57Z</time>
      </trkpt>
      <trkpt lat="64.89809799939394" lon="13.08223600499332">
        <ele>208.74000000000001</ele>
        <time>2017-06-29T08:35:03Z</time>
      </trkpt>
      <trkpt lat="64.893862958997488" lon="13.080019997432828">
        <ele>209.22</ele>
        <time>2017-06-29T08:35:20Z</time>
      </trkpt>
      <trkpt lat="64.891718029975891" lon="13.07826298289001">
        <ele>211.15000000000001</ele>
        <time>2017-06-29T08:35:29Z</time>
      </trkpt>
      <trkpt lat="64.890033015981317" lon="13.077356982976198">
        <ele>216.43000000000001</ele>
        <time>2017-06-29T08:35:36Z</time>
      </trkpt>
      <trkpt lat="64.888504995033145" lon="13.075488992035389">
        <ele>216.91</ele>
        <time>2017-06-29T08:35:43Z</time>
      </trkpt>
      <trkpt lat="64.886497026309371" lon="13.072924967855215">
        <ele>214.03</ele>
        <time>2017-06-29T08:35:52Z</time>
      </trkpt>
      <trkpt lat="64.883804004639387" lon="13.069823998957872">
        <ele>210.66999999999999</ele>
        <time>2017-06-29T08:36:04Z</time>
      </trkpt>
      <trkpt lat="64.881345005705953" lon="13.067697007209063">
        <ele>211.15000000000001</ele>
        <time>2017-06-29T08:36:15Z</time>
      </trkpt>
      <trkpt lat="64.878086037933826" lon="13.066997034475207">
        <ele>214.99000000000001</ele>
        <time>2017-06-29T08:36:29Z</time>
      </trkpt>
      <trkpt lat="64.874401018023491" lon="13.067444963380694">
        <ele>217.40000000000001</ele>
        <time>2017-06-29T08:36:45Z</time>
      </trkpt>
      <trkpt lat="64.87302303314209" lon="13.066827971488237">
        <ele>214.99000000000001</ele>
        <time>2017-06-29T08:36:51Z</time>
      </trkpt>
      <trkpt lat="64.870347026735544" lon="13.065086966380477">
        <ele>212.11000000000001</ele>
        <time>2017-06-29T08:37:03Z</time>
      </trkpt>
      <trkpt lat="64.867853997275233" lon="13.065129965543747">
        <ele>219.31999999999999</ele>
        <time>2017-06-29T08:37:14Z</time>
      </trkpt>
      <trkpt lat="64.866336034610868" lon="13.064972972497344">
        <ele>225.09</ele>
        <time>2017-06-29T08:37:21Z</time>
      </trkpt>
      <trkpt lat="64.863493982702494" lon="13.063191985711455">
        <ele>235.18000000000001</ele>
        <time>2017-06-29T08:37:34Z</time>
      </trkpt>
      <trkpt lat="64.863102966919541" lon="13.062839023768902">
        <ele>237.58000000000001</ele>
        <time>2017-06-29T08:37:36Z</time>
      </trkpt>
      <trkpt lat="64.86292602494359" lon="13.062596032395959">
        <ele>238.53999999999999</ele>
        <time>2017-06-29T08:37:37Z</time>
      </trkpt>
      <trkpt lat="64.86275696195662" lon="13.06229998357594">
        <ele>239.99000000000001</ele>
        <time>2017-06-29T08:37:38Z</time>
      </trkpt>
      <trkpt lat="64.862069981172681" lon="13.061007997021079">
        <ele>240.47</ele>
        <time>2017-06-29T08:37:42Z</time>
      </trkpt>
      <trkpt lat="64.861862026154995" lon="13.060739021748304">
        <ele>239.99000000000001</ele>
        <time>2017-06-29T08:37:43Z</time>
      </trkpt>
      <trkpt lat="64.86144402064383" lon="13.060158994048834">
        <ele>239.50999999999999</ele>
        <time>2017-06-29T08:37:45Z</time>
      </trkpt>
      <trkpt lat="64.861255008727312" lon="13.059795973822474">
        <ele>239.50999999999999</ele>
        <time>2017-06-29T08:37:46Z</time>
      </trkpt>
      <trkpt lat="64.861081000417471" lon="13.059384003281593">
        <ele>239.50999999999999</ele>
        <time>2017-06-29T08:37:47Z</time>
      </trkpt>
      <trkpt lat="64.860918978229165" lon="13.058934984728694">
        <ele>239.50999999999999</ele>
        <time>2017-06-29T08:37:48Z</time>
      </trkpt>
      <trkpt lat="64.860770031809807" lon="13.058478003367782">
        <ele>239.50999999999999</ele>
        <time>2017-06-29T08:37:49Z</time>
      </trkpt>
      <trkpt lat="64.859793959185481" lon="13.056137021631002">
        <ele>239.99000000000001</ele>
        <time>2017-06-29T08:37:55Z</time>
      </trkpt>
      <trkpt lat="64.858700037002563" lon="13.053949009627104">
        <ele>239.99000000000001</ele>
        <time>2017-06-29T08:38:01Z</time>
      </trkpt>
      <trkpt lat="64.858568022027612" lon="13.05348901078105">
        <ele>240.47</ele>
        <time>2017-06-29T08:38:02Z</time>
      </trkpt>
      <trkpt lat="64.85845603980124" lon="13.05299699306488">
        <ele>241.43000000000001</ele>
        <time>2017-06-29T08:38:03Z</time>
      </trkpt>
      <trkpt lat="64.85815797932446" lon="13.051596963778138">
        <ele>241.43000000000001</ele>
        <time>2017-06-29T08:38:06Z</time>
      </trkpt>
      <trkpt lat="64.858035016804934" lon="13.051196979358792">
        <ele>240.94999999999999</ele>
        <time>2017-06-29T08:38:07Z</time>
      </trkpt>
      <trkpt lat="64.856547983363271" lon="13.047211971133947">
        <ele>239.50999999999999</ele>
        <time>2017-06-29T08:38:17Z</time>
      </trkpt>
      <trkpt lat="64.856383027508855" lon="13.046867977827787">
        <ele>239.02000000000001</ele>
        <time>2017-06-29T08:38:18Z</time>
      </trkpt>
      <trkpt lat="64.856198960915208" lon="13.046567989513278">
        <ele>238.53999999999999</ele>
        <time>2017-06-29T08:38:19Z</time>
      </trkpt>
      <trkpt lat="64.855998968705535" lon="13.046298008412123">
        <ele>238.53999999999999</ele>
        <time>2017-06-29T08:38:20Z</time>
      </trkpt>
      <trkpt lat="64.854688961058855" lon="13.044117959216237">
        <ele>236.13999999999999</ele>
        <time>2017-06-29T08:38:27Z</time>
      </trkpt>
      <trkpt lat="64.854544959962368" lon="13.043685033917427">
        <ele>235.18000000000001</ele>
        <time>2017-06-29T08:38:28Z</time>
      </trkpt>
      <trkpt lat="64.854414034634829" lon="13.043222017586231">
        <ele>234.69999999999999</ele>
        <time>2017-06-29T08:38:29Z</time>
      </trkpt>
      <trkpt lat="64.853287003934383" lon="13.03838599473238">
        <ele>226.53</ele>
        <time>2017-06-29T08:38:39Z</time>
      </trkpt>
      <trkpt lat="64.852384021505713" lon="13.034611959010363">
        <ele>219.31999999999999</ele>
        <time>2017-06-29T08:38:48Z</time>
      </trkpt>
      <trkpt lat="64.85145497135818" lon="13.032169975340366">
        <ele>211.63</ele>
        <time>2017-06-29T08:38:55Z</time>
      </trkpt>
      <trkpt lat="64.850469008088112" lon="13.029553983360529">
        <ele>202.00999999999999</ele>
        <time>2017-06-29T08:39:02Z</time>
      </trkpt>
      <trkpt lat="64.848840991035104" lon="13.024257039651275">
        <ele>192.40000000000001</ele>
        <time>2017-06-29T08:39:15Z</time>
      </trkpt>
      <trkpt lat="64.84838199801743" lon="13.020953983068466">
        <ele>188.08000000000001</ele>
        <time>2017-06-29T08:39:22Z</time>
      </trkpt>
      <trkpt lat="64.848169013857841" lon="13.015623008832335">
        <ele>185.19</ele>
        <time>2017-06-29T08:39:33Z</time>
      </trkpt>
      <trkpt lat="64.847529977560043" lon="13.011040035635233">
        <ele>177.02000000000001</ele>
        <time>2017-06-29T08:39:43Z</time>
      </trkpt>
      <trkpt lat="64.846569998189807" lon="13.007559031248093">
        <ele>171.72999999999999</ele>
        <time>2017-06-29T08:39:51Z</time>
      </trkpt>
      <trkpt lat="64.84436203725636" lon="13.002234008163214">
        <ele>166.93000000000001</ele>
        <time>2017-06-29T08:40:05Z</time>
      </trkpt>
      <trkpt lat="64.843037026003003" lon="13.0002729780972">
        <ele>170.77000000000001</ele>
        <time>2017-06-29T08:40:12Z</time>
      </trkpt>
      <trkpt lat="64.841273976489902" lon="12.999109989032149">
        <ele>173.16999999999999</ele>
        <time>2017-06-29T08:40:20Z</time>
      </trkpt>
      <trkpt lat="64.839349994435906" lon="12.997455988079309">
        <ele>172.21000000000001</ele>
        <time>2017-06-29T08:40:29Z</time>
      </trkpt>
      <trkpt lat="64.836410041898489" lon="12.993489000946283">
        <ele>173.16999999999999</ele>
        <time>2017-06-29T08:40:43Z</time>
      </trkpt>
      <trkpt lat="64.832579009234905" lon="12.988488022238016">
        <ele>170.28999999999999</ele>
        <time>2017-06-29T08:41:01Z</time>
      </trkpt>
      <trkpt lat="64.832345992326736" lon="12.98839196562767">
        <ele>169.81</ele>
        <time>2017-06-29T08:41:02Z</time>
      </trkpt>
      <trkpt lat="64.829084007069468" lon="12.987847980111837">
        <ele>167.88999999999999</ele>
        <time>2017-06-29T08:41:16Z</time>
      </trkpt>
      <trkpt lat="64.827740974724293" lon="12.98828199505806">
        <ele>167.41</ele>
        <time>2017-06-29T08:41:22Z</time>
      </trkpt>
      <trkpt lat="64.826405989006162" lon="12.988333040848374">
        <ele>166.93000000000001</ele>
        <time>2017-06-29T08:41:28Z</time>
      </trkpt>
      <trkpt lat="64.826179007068276" lon="12.988204965367913">
        <ele>167.41</ele>
        <time>2017-06-29T08:41:29Z</time>
      </trkpt>
      <trkpt lat="64.825956970453262" lon="12.988022994250059">
        <ele>167.41</ele>
        <time>2017-06-29T08:41:30Z</time>
      </trkpt>
      <trkpt lat="64.824025025591254" lon="12.985676983371377">
        <ele>168.84999999999999</ele>
        <time>2017-06-29T08:41:39Z</time>
      </trkpt>
      <trkpt lat="64.823431000113487" lon="12.984747011214495">
        <ele>169.33000000000001</ele>
        <time>2017-06-29T08:41:42Z</time>
      </trkpt>
      <trkpt lat="64.821836007758975" lon="12.982365963980556">
        <ele>169.81</ele>
        <time>2017-06-29T08:41:50Z</time>
      </trkpt>
      <trkpt lat="64.819372985512018" lon="12.977362973615527">
        <ele>168.84999999999999</ele>
        <time>2017-06-29T08:42:03Z</time>
      </trkpt>
      <trkpt lat="64.81780800037086" lon="12.973707038909197">
        <ele>170.28999999999999</ele>
        <time>2017-06-29T08:42:12Z</time>
      </trkpt>
      <trkpt lat="64.81458499096334" lon="12.965693017467856">
        <ele>167.88999999999999</ele>
        <time>2017-06-29T08:42:31Z</time>
      </trkpt>
      <trkpt lat="64.813531972467899" lon="12.961829965934157">
        <ele>169.33000000000001</ele>
        <time>2017-06-29T08:42:39Z</time>
      </trkpt>
      <trkpt lat="64.812469985336065" lon="12.959497030824423">
        <ele>168.84999999999999</ele>
        <time>2017-06-29T08:42:45Z</time>
      </trkpt>
      <trkpt lat="64.80959901586175" lon="12.954191034659743">
        <ele>171.25</ele>
        <time>2017-06-29T08:43:00Z</time>
      </trkpt>
      <trkpt lat="64.809221997857094" lon="12.953547975048423">
        <ele>170.77000000000001</ele>
        <time>2017-06-29T08:43:02Z</time>
      </trkpt>
      <trkpt lat="64.809056958183646" lon="12.953160982578993">
        <ele>170.77000000000001</ele>
        <time>2017-06-29T08:43:03Z</time>
      </trkpt>
      <trkpt lat="64.808908011764288" lon="12.952734008431435">
        <ele>171.25</ele>
        <time>2017-06-29T08:43:04Z</time>
      </trkpt>
      <trkpt lat="64.807662041857839" lon="12.949191983789206">
        <ele>172.69</ele>
        <time>2017-06-29T08:43:12Z</time>
      </trkpt>
      <trkpt lat="64.805633034557104" lon="12.945639984682202">
        <ele>169.81</ele>
        <time>2017-06-29T08:43:22Z</time>
      </trkpt>
      <trkpt lat="64.804027983918786" lon="12.942166021093726">
        <ele>169.33000000000001</ele>
        <time>2017-06-29T08:43:31Z</time>
      </trkpt>
      <trkpt lat="64.802431985735893" lon="12.937668040394783">
        <ele>169.33000000000001</ele>
        <time>2017-06-29T08:43:41Z</time>
      </trkpt>
      <trkpt lat="64.80023399926722" lon="12.932903012260795">
        <ele>165.47999999999999</ele>
        <time>2017-06-29T08:43:53Z</time>
      </trkpt>
      <trkpt lat="64.797916989773512" lon="12.928473008796573">
        <ele>165.47999999999999</ele>
        <time>2017-06-29T08:44:05Z</time>
      </trkpt>
      <trkpt lat="64.79541901499033" lon="12.924649016931653">
        <ele>162.59999999999999</ele>
        <time>2017-06-29T08:44:18Z</time>
      </trkpt>
      <trkpt lat="64.794271029531956" lon="12.922017015516758">
        <ele>160.68000000000001</ele>
        <time>2017-06-29T08:44:25Z</time>
      </trkpt>
      <trkpt lat="64.792174967005849" lon="12.916939007118344">
        <ele>161.63999999999999</ele>
        <time>2017-06-29T08:44:38Z</time>
      </trkpt>
      <trkpt lat="64.78966198861599" lon="12.91160199791193">
        <ele>163.56</ele>
        <time>2017-06-29T08:44:53Z</time>
      </trkpt>
      <trkpt lat="64.787640022113919" lon="12.905256981030107">
        <ele>164.52000000000001</ele>
        <time>2017-06-29T08:45:07Z</time>
      </trkpt>
      <trkpt lat="64.784721024334431" lon="12.895115967839956">
        <ele>158.75</ele>
        <time>2017-06-29T08:45:29Z</time>
      </trkpt>
      <trkpt lat="64.783757021650672" lon="12.892077025026083">
        <ele>159.24000000000001</ele>
        <time>2017-06-29T08:45:36Z</time>
      </trkpt>
      <trkpt lat="64.783587036654353" lon="12.891762033104897">
        <ele>159.24000000000001</ele>
        <time>2017-06-29T08:45:37Z</time>
      </trkpt>
      <trkpt lat="64.783394001424313" lon="12.89151200093329">
        <ele>159.72</ele>
        <time>2017-06-29T08:45:38Z</time>
      </trkpt>
      <trkpt lat="64.783193003386259" lon="12.891309997066855">
        <ele>160.19999999999999</ele>
        <time>2017-06-29T08:45:39Z</time>
      </trkpt>
      <trkpt lat="64.78297901339829" lon="12.891154009848833">
        <ele>160.19999999999999</ele>
        <time>2017-06-29T08:45:40Z</time>
      </trkpt>
      <trkpt lat="64.782756976783276" lon="12.891033980995417">
        <ele>160.68000000000001</ele>
        <time>2017-06-29T08:45:41Z</time>
      </trkpt>
      <trkpt lat="64.782526977360249" lon="12.890941025689244">
        <ele>160.19999999999999</ele>
        <time>2017-06-29T08:45:42Z</time>
      </trkpt>
      <trkpt lat="64.779818030074239" lon="12.889646021649241">
        <ele>163.08000000000001</ele>
        <time>2017-06-29T08:45:54Z</time>
      </trkpt>
      <trkpt lat="64.778387993574142" lon="12.887944998219609">
        <ele>162.59999999999999</ele>
        <time>2017-06-29T08:46:01Z</time>
      </trkpt>
      <trkpt lat="64.777433965355158" lon="12.885588007047772">
        <ele>164.03999999999999</ele>
        <time>2017-06-29T08:46:07Z</time>
      </trkpt>
      <trkpt lat="64.775923965498805" lon="12.881378028541803">
        <ele>162.59999999999999</ele>
        <time>2017-06-29T08:46:17Z</time>
      </trkpt>
      <trkpt lat="64.774072989821434" lon="12.878941996023059">
        <ele>163.08000000000001</ele>
        <time>2017-06-29T08:46:26Z</time>
      </trkpt>
      <trkpt lat="64.772370038554072" lon="12.875987039878964">
        <ele>162.12</ele>
        <time>2017-06-29T08:46:35Z</time>
      </trkpt>
      <trkpt lat="64.771240996196866" lon="12.872848017141223">
        <ele>159.72</ele>
        <time>2017-06-29T08:46:42Z</time>
      </trkpt>
      <trkpt lat="64.770001983270049" lon="12.871142970398068">
        <ele>161.16</ele>
        <time>2017-06-29T08:46:48Z</time>
      </trkpt>
      <trkpt lat="64.768645036965609" lon="12.870761007070541">
        <ele>165.96000000000001</ele>
        <time>2017-06-29T08:46:54Z</time>
      </trkpt>
      <trkpt lat="64.766886010766029" lon="12.871457962319255">
        <ele>167.88999999999999</ele>
        <time>2017-06-29T08:47:02Z</time>
      </trkpt>
      <trkpt lat="64.76553400978446" lon="12.871032999828458">
        <ele>167.41</ele>
        <time>2017-06-29T08:47:08Z</time>
      </trkpt>
      <trkpt lat="64.764321986585855" lon="12.869368018582463">
        <ele>165</ele>
        <time>2017-06-29T08:47:14Z</time>
      </trkpt>
      <trkpt lat="64.762432035058737" lon="12.866251040250063">
        <ele>157.78999999999999</ele>
        <time>2017-06-29T08:47:23Z</time>
      </trkpt>
      <trkpt lat="64.76067703217268" lon="12.865014038980007">
        <ele>159.72</ele>
        <time>2017-06-29T08:47:30Z</time>
      </trkpt>
      <trkpt lat="64.756433023139834" lon="12.863142024725676">
        <ele>170.77000000000001</ele>
        <time>2017-06-29T08:47:47Z</time>
      </trkpt>
      <trkpt lat="64.754777010530233" lon="12.861130032688379">
        <ele>182.78999999999999</ele>
        <time>2017-06-29T08:47:55Z</time>
      </trkpt>
      <trkpt lat="64.753191992640495" lon="12.860322017222643">
        <ele>186.63</ele>
        <time>2017-06-29T08:48:02Z</time>
      </trkpt>
      <trkpt lat="64.750821003690362" lon="12.859445018693805">
        <ele>183.27000000000001</ele>
        <time>2017-06-29T08:48:12Z</time>
      </trkpt>
      <trkpt lat="64.749651979655027" lon="12.857878021895885">
        <ele>177.97999999999999</ele>
        <time>2017-06-29T08:48:18Z</time>
      </trkpt>
      <trkpt lat="64.748545987531543" lon="12.854986013844609">
        <ele>167.88999999999999</ele>
        <time>2017-06-29T08:48:26Z</time>
      </trkpt>
      <trkpt lat="64.747154004871845" lon="12.851942041888833">
        <ele>154.91</ele>
        <time>2017-06-29T08:48:36Z</time>
      </trkpt>
      <trkpt lat="64.745663031935692" lon="12.849056990817189">
        <ele>144.34</ele>
        <time>2017-06-29T08:48:47Z</time>
      </trkpt>
      <trkpt lat="64.744367022067308" lon="12.846708968281746">
        <ele>140.97</ele>
        <time>2017-06-29T08:48:58Z</time>
      </trkpt>
      <trkpt lat="64.743229011073709" lon="12.845849990844727">
        <ele>141.93000000000001</ele>
        <time>2017-06-29T08:49:07Z</time>
      </trkpt>
      <trkpt lat="64.741521030664444" lon="12.844340996816754">
        <ele>142.41</ele>
        <time>2017-06-29T08:49:21Z</time>
      </trkpt>
      <trkpt lat="64.740219991654158" lon="12.842304026708007">
        <ele>142.88999999999999</ele>
        <time>2017-06-29T08:49:31Z</time>
      </trkpt>
      <trkpt lat="64.738946026191115" lon="12.839200962334871">
        <ele>140.97</ele>
        <time>2017-06-29T08:49:42Z</time>
      </trkpt>
      <trkpt lat="64.737894013524055" lon="12.835076982155442">
        <ele>140.00999999999999</ele>
        <time>2017-06-29T08:49:54Z</time>
      </trkpt>
      <trkpt lat="64.73727903328836" lon="12.831186018884182">
        <ele>139.53</ele>
        <time>2017-06-29T08:50:03Z</time>
      </trkpt>
      <trkpt lat="64.736409997567534" lon="12.826832039281726">
        <ele>137.61000000000001</ele>
        <time>2017-06-29T08:50:12Z</time>
      </trkpt>
      <trkpt lat="64.734039008617401" lon="12.818287024274468">
        <ele>134.24000000000001</ele>
        <time>2017-06-29T08:50:30Z</time>
      </trkpt>
      <trkpt lat="64.732078984379768" lon="12.813223013654351">
        <ele>122.22</ele>
        <time>2017-06-29T08:50:42Z</time>
      </trkpt>
      <trkpt lat="64.730322975665331" lon="12.810868034139276">
        <ele>119.34</ele>
        <time>2017-06-29T08:50:50Z</time>
      </trkpt>
      <trkpt lat="64.726944984868169" lon="12.806919990107417">
        <ele>128.94999999999999</ele>
        <time>2017-06-29T08:51:05Z</time>
      </trkpt>
      <trkpt lat="64.72492603585124" lon="12.8046690300107">
        <ele>136.16</ele>
        <time>2017-06-29T08:51:14Z</time>
      </trkpt>
      <trkpt lat="64.721864964812994" lon="12.802176000550389">
        <ele>136.16</ele>
        <time>2017-06-29T08:51:27Z</time>
      </trkpt>
      <trkpt lat="64.717166991904378" lon="12.798745036125183">
        <ele>132.31999999999999</ele>
        <time>2017-06-29T08:51:47Z</time>
      </trkpt>
      <trkpt lat="64.713077964261174" lon="12.79607699252665">
        <ele>116.94</ele>
        <time>2017-06-29T08:52:04Z</time>
      </trkpt>
      <trkpt lat="64.711207039654255" lon="12.795333014801145">
        <ele>119.81999999999999</ele>
        <time>2017-06-29T08:52:12Z</time>
      </trkpt>
      <trkpt lat="64.709956962615252" lon="12.793735004961491">
        <ele>126.55</ele>
        <time>2017-06-29T08:52:18Z</time>
      </trkpt>
      <trkpt lat="64.708776036277413" lon="12.790731014683843">
        <ele>130.40000000000001</ele>
        <time>2017-06-29T08:52:25Z</time>
      </trkpt>
      <trkpt lat="64.706562962383032" lon="12.784888995811343">
        <ele>127.98999999999999</ele>
        <time>2017-06-29T08:52:38Z</time>
      </trkpt>
      <trkpt lat="64.704654989764094" lon="12.781821973621845">
        <ele>129.91999999999999</ele>
        <time>2017-06-29T08:52:47Z</time>
      </trkpt>
      <trkpt lat="64.700867040082812" lon="12.776161003857851">
        <ele>129.43000000000001</ele>
        <time>2017-06-29T08:53:05Z</time>
      </trkpt>
      <trkpt lat="64.698632005602121" lon="12.771504018455744">
        <ele>127.03</ele>
        <time>2017-06-29T08:53:17Z</time>
      </trkpt>
      <trkpt lat="64.69639303162694" lon="12.765261009335518">
        <ele>128.94999999999999</ele>
        <time>2017-06-29T08:53:31Z</time>
      </trkpt>
      <trkpt lat="64.694669963791966" lon="12.760644005611539">
        <ele>125.11</ele>
        <time>2017-06-29T08:53:42Z</time>
      </trkpt>
      <trkpt lat="64.694463014602661" lon="12.760340999811888">
        <ele>124.15000000000001</ele>
        <time>2017-06-29T08:53:43Z</time>
      </trkpt>
      <trkpt lat="64.693012023344636" lon="12.75822096504271">
        <ele>114.53</ele>
        <time>2017-06-29T08:53:50Z</time>
      </trkpt>
      <trkpt lat="64.692209037020802" lon="12.755735982209444">
        <ele>113.56999999999999</ele>
        <time>2017-06-29T08:53:56Z</time>
      </trkpt>
      <trkpt lat="64.691778039559722" lon="12.752231005579233">
        <ele>113.09</ele>
        <time>2017-06-29T08:54:03Z</time>
      </trkpt>
      <trkpt lat="64.691188037395477" lon="12.745065987110138">
        <ele>111.17</ele>
        <time>2017-06-29T08:54:17Z</time>
      </trkpt>
      <trkpt lat="64.691096004098654" lon="12.744586039334536">
        <ele>111.17</ele>
        <time>2017-06-29T08:54:18Z</time>
      </trkpt>
      <trkpt lat="64.690973963588476" lon="12.744142971932888">
        <ele>112.13</ele>
        <time>2017-06-29T08:54:19Z</time>
      </trkpt>
      <trkpt lat="64.689891021698713" lon="12.741414997726679">
        <ele>123.19</ele>
        <time>2017-06-29T08:54:26Z</time>
      </trkpt>
      <trkpt lat="64.6883599832654" lon="12.73742001503706">
        <ele>129.91999999999999</ele>
        <time>2017-06-29T08:54:36Z</time>
      </trkpt>
      <trkpt lat="64.686130983754992" lon="12.733503989875317">
        <ele>127.98999999999999</ele>
        <time>2017-06-29T08:54:47Z</time>
      </trkpt>
      <trkpt lat="64.683812968432903" lon="12.730862013995647">
        <ele>128.94999999999999</ele>
        <time>2017-06-29T08:54:57Z</time>
      </trkpt>
      <trkpt lat="64.682513019070029" lon="12.729635993018746">
        <ele>125.11</ele>
        <time>2017-06-29T08:55:03Z</time>
      </trkpt>
      <trkpt lat="64.682328030467033" lon="12.729318989440799">
        <ele>125.59</ele>
        <time>2017-06-29T08:55:04Z</time>
      </trkpt>
      <trkpt lat="64.682162990793586" lon="12.728957980871201">
        <ele>127.51000000000001</ele>
        <time>2017-06-29T08:55:05Z</time>
      </trkpt>
      <trkpt lat="64.682008009403944" lon="12.728563025593758">
        <ele>129.43000000000001</ele>
        <time>2017-06-29T08:55:06Z</time>
      </trkpt>
      <trkpt lat="64.681864008307457" lon="12.728132028132677">
        <ele>131.36000000000001</ele>
        <time>2017-06-29T08:55:07Z</time>
      </trkpt>
      <trkpt lat="64.681725958362222" lon="12.727688038721681">
        <ele>133.28</ele>
        <time>2017-06-29T08:55:08Z</time>
      </trkpt>
      <trkpt lat="64.680417040362954" lon="12.722842963412404">
        <ele>130.88</ele>
        <time>2017-06-29T08:55:18Z</time>
      </trkpt>
      <trkpt lat="64.679242987185717" lon="12.717192973941565">
        <ele>129.43000000000001</ele>
        <time>2017-06-29T08:55:29Z</time>
      </trkpt>
      <trkpt lat="64.678850965574384" lon="12.713432013988495">
        <ele>131.36000000000001</ele>
        <time>2017-06-29T08:55:36Z</time>
      </trkpt>
      <trkpt lat="64.678362971171737" lon="12.708524996414781">
        <ele>133.28</ele>
        <time>2017-06-29T08:55:45Z</time>
      </trkpt>
      <trkpt lat="64.676893036812544" lon="12.701897006481886">
        <ele>132.31999999999999</ele>
        <time>2017-06-29T08:55:58Z</time>
      </trkpt>
      <trkpt lat="64.67572602443397" lon="12.698043007403612">
        <ele>132.80000000000001</ele>
        <time>2017-06-29T08:56:06Z</time>
      </trkpt>
      <trkpt lat="64.674925971776247" lon="12.694439962506294">
        <ele>133.28</ele>
        <time>2017-06-29T08:56:13Z</time>
      </trkpt>
      <trkpt lat="64.674310991540551" lon="12.690762989223003">
        <ele>130.40000000000001</ele>
        <time>2017-06-29T08:56:20Z</time>
      </trkpt>
      <trkpt lat="64.674184005707502" lon="12.690317993983626">
        <ele>129.91999999999999</ele>
        <time>2017-06-29T08:56:21Z</time>
      </trkpt>
      <trkpt lat="64.674035981297493" lon="12.689908035099506">
        <ele>129.91999999999999</ele>
        <time>2017-06-29T08:56:22Z</time>
      </trkpt>
      <trkpt lat="64.673871025443077" lon="12.689512996003032">
        <ele>129.43000000000001</ele>
        <time>2017-06-29T08:56:23Z</time>
      </trkpt>
      <trkpt lat="64.673701040446758" lon="12.68912298604846">
        <ele>128.94999999999999</ele>
        <time>2017-06-29T08:56:24Z</time>
      </trkpt>
      <trkpt lat="64.672798980027437" lon="12.686355030164123">
        <ele>126.06999999999999</ele>
        <time>2017-06-29T08:56:30Z</time>
      </trkpt>
      <trkpt lat="64.671324016526341" lon="12.681520013138652">
        <ele>127.03</ele>
        <time>2017-06-29T08:56:40Z</time>
      </trkpt>
      <trkpt lat="64.670588001608849" lon="12.680258033797145">
        <ele>129.91999999999999</ele>
        <time>2017-06-29T08:56:44Z</time>
      </trkpt>
      <trkpt lat="64.67037602327764" lon="12.680045971646905">
        <ele>130.40000000000001</ele>
        <time>2017-06-29T08:56:45Z</time>
      </trkpt>
      <trkpt lat="64.670152980834246" lon="12.679880009964108">
        <ele>130.40000000000001</ele>
        <time>2017-06-29T08:56:46Z</time>
      </trkpt>
      <trkpt lat="64.668095977976918" lon="12.678792960941792">
        <ele>127.51000000000001</ele>
        <time>2017-06-29T08:56:55Z</time>
      </trkpt>
      <trkpt lat="64.667246975004673" lon="12.678171023726463">
        <ele>122.70999999999999</ele>
        <time>2017-06-29T08:56:59Z</time>
      </trkpt>
      <trkpt lat="64.667060980573297" lon="12.677905987948179">
        <ele>121.26000000000001</ele>
        <time>2017-06-29T08:57:00Z</time>
      </trkpt>
      <trkpt lat="64.6668950188905" lon="12.677587978541851">
        <ele>120.3</ele>
        <time>2017-06-29T08:57:01Z</time>
      </trkpt>
      <trkpt lat="64.666749006137252" lon="12.677221018821001">
        <ele>118.86</ele>
        <time>2017-06-29T08:57:02Z</time>
      </trkpt>
      <trkpt lat="64.666624031960964" lon="12.67681198194623">
        <ele>117.90000000000001</ele>
        <time>2017-06-29T08:57:03Z</time>
      </trkpt>
      <trkpt lat="64.666522024199367" lon="12.676363969221711">
        <ele>116.94</ele>
        <time>2017-06-29T08:57:04Z</time>
      </trkpt>
      <trkpt lat="64.666437031701207" lon="12.675881003960967">
        <ele>115.98</ele>
        <time>2017-06-29T08:57:05Z</time>
      </trkpt>
      <trkpt lat="64.666353967040777" lon="12.675389992073178">
        <ele>115.01000000000001</ele>
        <time>2017-06-29T08:57:06Z</time>
      </trkpt>
      <trkpt lat="64.666254976764321" lon="12.674906020984054">
        <ele>114.05</ele>
        <time>2017-06-29T08:57:07Z</time>
      </trkpt>
      <trkpt lat="64.666133020073175" lon="12.674443004652858">
        <ele>112.13</ele>
        <time>2017-06-29T08:57:08Z</time>
      </trkpt>
      <trkpt lat="64.664785964414477" lon="12.669964972883463">
        <ele>104.92</ele>
        <time>2017-06-29T08:57:18Z</time>
      </trkpt>
      <trkpt lat="64.66427500359714" lon="12.668247018009424">
        <ele>99.629999999999995</ele>
        <time>2017-06-29T08:57:22Z</time>
      </trkpt>
      <trkpt lat="64.664180036634207" lon="12.667780984193087">
        <ele>99.150000000000006</ele>
        <time>2017-06-29T08:57:23Z</time>
      </trkpt>
      <trkpt lat="64.664105018600821" lon="12.667288966476917">
        <ele>99.629999999999995</ele>
        <time>2017-06-29T08:57:24Z</time>
      </trkpt>
      <trkpt lat="64.663892034441233" lon="12.665779972448945">
        <ele>103</ele>
        <time>2017-06-29T08:57:27Z</time>
      </trkpt>
      <trkpt lat="64.663795977830887" lon="12.665313016623259">
        <ele>103.95999999999999</ele>
        <time>2017-06-29T08:57:28Z</time>
      </trkpt>
      <trkpt lat="64.663677960634232" lon="12.664863998070359">
        <ele>104.44</ele>
        <time>2017-06-29T08:57:29Z</time>
      </trkpt>
      <trkpt lat="64.662737008184195" lon="12.66063398681581">
        <ele>111.17</ele>
        <time>2017-06-29T08:57:38Z</time>
      </trkpt>
      <trkpt lat="64.662281032651663" lon="12.656585024669766">
        <ele>118.86</ele>
        <time>2017-06-29T08:57:46Z</time>
      </trkpt>
      <trkpt lat="64.661270007491112" lon="12.651106026023626">
        <ele>119.81999999999999</ele>
        <time>2017-06-29T08:57:57Z</time>
      </trkpt>
      <trkpt lat="64.661142015829682" lon="12.6506860088557">
        <ele>119.81999999999999</ele>
        <time>2017-06-29T08:57:58Z</time>
      </trkpt>
      <trkpt lat="64.660989968106151" lon="12.650340003892779">
        <ele>119.81999999999999</ele>
        <time>2017-06-29T08:57:59Z</time>
      </trkpt>
      <trkpt lat="64.660818977281451" lon="12.650065999478102">
        <ele>119.81999999999999</ele>
        <time>2017-06-29T08:58:00Z</time>
      </trkpt>
      <trkpt lat="64.660633988678455" lon="12.649834994226694">
        <ele>120.3</ele>
        <time>2017-06-29T08:58:01Z</time>
      </trkpt>
      <trkpt lat="64.660436008125544" lon="12.649613963440061">
        <ele>120.3</ele>
        <time>2017-06-29T08:58:02Z</time>
      </trkpt>
      <trkpt lat="64.659391958266497" lon="12.648750962689519">
        <ele>118.86</ele>
        <time>2017-06-29T08:58:07Z</time>
      </trkpt>
      <trkpt lat="64.659161036834121" lon="12.648681979626417">
        <ele>118.38</ele>
        <time>2017-06-29T08:58:08Z</time>
      </trkpt>
      <trkpt lat="64.658919973298907" lon="12.648683991283178">
        <ele>117.90000000000001</ele>
        <time>2017-06-29T08:58:09Z</time>
      </trkpt>
      <trkpt lat="64.658677987754345" lon="12.648724978789687">
        <ele>117.90000000000001</ele>
        <time>2017-06-29T08:58:10Z</time>
      </trkpt>
      <trkpt lat="64.65843097306788" lon="12.648792034015059">
        <ele>117.90000000000001</ele>
        <time>2017-06-29T08:58:11Z</time>
      </trkpt>
      <trkpt lat="64.655153984203935" lon="12.649666015058756">
        <ele>128.47</ele>
        <time>2017-06-29T08:58:25Z</time>
      </trkpt>
      <trkpt lat="64.653803994879127" lon="12.649034019559622">
        <ele>131.36000000000001</ele>
        <time>2017-06-29T08:58:31Z</time>
      </trkpt>
      <trkpt lat="64.652364989742637" lon="12.647135015577078">
        <ele>128.47</ele>
        <time>2017-06-29T08:58:38Z</time>
      </trkpt>
      <trkpt lat="64.649976985529065" lon="12.642428996041417">
        <ele>130.88</ele>
        <time>2017-06-29T08:58:51Z</time>
      </trkpt>
      <trkpt lat="64.648551978170872" lon="12.639075983315706">
        <ele>131.84</ele>
        <time>2017-06-29T08:59:01Z</time>
      </trkpt>
      <trkpt lat="64.647811017930508" lon="12.636538026854396">
        <ele>131.36000000000001</ele>
        <time>2017-06-29T08:59:09Z</time>
      </trkpt>
      <trkpt lat="64.647693000733852" lon="12.636315990239382">
        <ele>130.40000000000001</ele>
        <time>2017-06-29T08:59:10Z</time>
      </trkpt>
      <trkpt lat="64.647556962445378" lon="12.636141981929541">
        <ele>129.43000000000001</ele>
        <time>2017-06-29T08:59:11Z</time>
      </trkpt>
      <trkpt lat="64.647410027682781" lon="12.636029999703169">
        <ele>128.94999999999999</ele>
        <time>2017-06-29T08:59:12Z</time>
      </trkpt>
      <trkpt lat="64.647252028807998" lon="12.635985994711518">
        <ele>128.94999999999999</ele>
        <time>2017-06-29T08:59:13Z</time>
      </trkpt>
      <trkpt lat="64.647078020498157" lon="12.636020025238395">
        <ele>128.94999999999999</ele>
        <time>2017-06-29T08:59:14Z</time>
      </trkpt>
      <trkpt lat="64.646882973611355" lon="12.636123038828373">
        <ele>127.51000000000001</ele>
        <time>2017-06-29T08:59:15Z</time>
      </trkpt>
      <trkpt lat="64.646675018593669" lon="12.636238960549235">
        <ele>125.59</ele>
        <time>2017-06-29T08:59:16Z</time>
      </trkpt>
      <trkpt lat="64.645547987893224" lon="12.636797027662396">
        <ele>120.3</ele>
        <time>2017-06-29T08:59:22Z</time>
      </trkpt>
      <trkpt lat="64.645386971533298" lon="12.636797027662396">
        <ele>119.81999999999999</ele>
        <time>2017-06-29T08:59:23Z</time>
      </trkpt>
      <trkpt lat="64.645226961001754" lon="12.636753022670746">
        <ele>118.86</ele>
        <time>2017-06-29T08:59:24Z</time>
      </trkpt>
      <trkpt lat="64.645064016804099" lon="12.636667024344206">
        <ele>118.38</ele>
        <time>2017-06-29T08:59:25Z</time>
      </trkpt>
      <trkpt lat="64.644907023757696" lon="12.636532997712493">
        <ele>117.42</ele>
        <time>2017-06-29T08:59:26Z</time>
      </trkpt>
      <trkpt lat="64.644751036539674" lon="12.636349014937878">
        <ele>116.45999999999999</ele>
        <time>2017-06-29T08:59:27Z</time>
      </trkpt>
      <trkpt lat="64.64459203183651" lon="12.636117003858089">
        <ele>115.5</ele>
        <time>2017-06-29T08:59:28Z</time>
      </trkpt>
      <trkpt lat="64.644439984112978" lon="12.635832019150257">
        <ele>115.01000000000001</ele>
        <time>2017-06-29T08:59:29Z</time>
      </trkpt>
      <trkpt lat="64.64429397135973" lon="12.635491965338588">
        <ele>114.53</ele>
        <time>2017-06-29T08:59:30Z</time>
      </trkpt>
      <trkpt lat="64.644151981920004" lon="12.635098015889525">
        <ele>114.05</ele>
        <time>2017-06-29T08:59:31Z</time>
      </trkpt>
      <trkpt lat="64.644008986651897" lon="12.634682022035122">
        <ele>113.56999999999999</ele>
        <time>2017-06-29T08:59:32Z</time>
      </trkpt>
      <trkpt lat="64.642930990085006" lon="12.631876012310386">
        <ele>110.20999999999999</ele>
        <time>2017-06-29T08:59:39Z</time>
      </trkpt>
      <trkpt lat="64.642752958461642" lon="12.631646012887359">
        <ele>109.25</ele>
        <time>2017-06-29T08:59:40Z</time>
      </trkpt>
      <trkpt lat="64.642570987343788" lon="12.631490025669336">
        <ele>109.25</ele>
        <time>2017-06-29T08:59:41Z</time>
      </trkpt>
      <trkpt lat="64.642376024276018" lon="12.631394974887371">
        <ele>108.77</ele>
        <time>2017-06-29T08:59:42Z</time>
      </trkpt>
      <trkpt lat="64.642173014581203" lon="12.63135096989572">
        <ele>108.29000000000001</ele>
        <time>2017-06-29T08:59:43Z</time>
      </trkpt>
      <trkpt lat="64.641968999058008" lon="12.631305959075689">
        <ele>107.81</ele>
        <time>2017-06-29T08:59:44Z</time>
      </trkpt>
      <trkpt lat="64.641760960221291" lon="12.631222978234291">
        <ele>106.84</ele>
        <time>2017-06-29T08:59:45Z</time>
      </trkpt>
      <trkpt lat="64.641556022688746" lon="12.63107000850141">
        <ele>105.88</ele>
        <time>2017-06-29T08:59:46Z</time>
      </trkpt>
      <trkpt lat="64.641353012993932" lon="12.630844032391906">
        <ele>105.40000000000001</ele>
        <time>2017-06-29T08:59:47Z</time>
      </trkpt>
      <trkpt lat="64.641161989420652" lon="12.630558041855693">
        <ele>105.40000000000001</ele>
        <time>2017-06-29T08:59:48Z</time>
      </trkpt>
      <trkpt lat="64.640981024131179" lon="12.630219999700785">
        <ele>105.40000000000001</ele>
        <time>2017-06-29T08:59:49Z</time>
      </trkpt>
      <trkpt lat="64.640806009992957" lon="12.629842981696129">
        <ele>104.92</ele>
        <time>2017-06-29T08:59:50Z</time>
      </trkpt>
      <trkpt lat="64.640638036653399" lon="12.629441991448402">
        <ele>104.92</ele>
        <time>2017-06-29T08:59:51Z</time>
      </trkpt>
      <trkpt lat="64.638961991295218" lon="12.625009976327419">
        <ele>99.629999999999995</ele>
        <time>2017-06-29T09:00:01Z</time>
      </trkpt>
      <trkpt lat="64.637296004220843" lon="12.621046006679535">
        <ele>97.709999999999994</ele>
        <time>2017-06-29T09:00:11Z</time>
      </trkpt>
      <trkpt lat="64.636929966509342" lon="12.619709009304643">
        <ele>99.150000000000006</ele>
        <time>2017-06-29T09:00:14Z</time>
      </trkpt>
      <trkpt lat="64.636852014809847" lon="12.619253033772111">
        <ele>99.150000000000006</ele>
        <time>2017-06-29T09:00:15Z</time>
      </trkpt>
      <trkpt lat="64.636670965701342" lon="12.618434960022569">
        <ele>97.709999999999994</ele>
        <time>2017-06-29T09:00:17Z</time>
      </trkpt>
      <trkpt lat="64.636541968211532" lon="12.618094990029931">
        <ele>96.75</ele>
        <time>2017-06-29T09:00:18Z</time>
      </trkpt>
      <trkpt lat="64.636393021792173" lon="12.617815034464002">
        <ele>96.75</ele>
        <time>2017-06-29T09:00:19Z</time>
      </trkpt>
      <trkpt lat="64.636222030967474" lon="12.617583023384213">
        <ele>96.269999999999996</ele>
        <time>2017-06-29T09:00:20Z</time>
      </trkpt>
      <trkpt lat="64.636034024879336" lon="12.617368027567863">
        <ele>96.269999999999996</ele>
        <time>2017-06-29T09:00:21Z</time>
      </trkpt>
      <trkpt lat="64.634889978915453" lon="12.615569019690156">
        <ele>96.75</ele>
        <time>2017-06-29T09:00:27Z</time>
      </trkpt>
      <trkpt lat="64.634739020839334" lon="12.615151014178991">
        <ele>98.189999999999998</ele>
        <time>2017-06-29T09:00:28Z</time>
      </trkpt>
      <trkpt lat="64.634091015905142" lon="12.61297800578177">
        <ele>105.88</ele>
        <time>2017-06-29T09:00:34Z</time>
      </trkpt>
      <trkpt lat="64.633576031774282" lon="12.611116971820593">
        <ele>112.61</ele>
        <time>2017-06-29T09:00:42Z</time>
      </trkpt>
      <trkpt lat="64.633103040978312" lon="12.609447967261076">
        <ele>118.86</ele>
        <time>2017-06-29T09:00:54Z</time>
      </trkpt>
      <trkpt lat="64.633088959380984" lon="12.60939197614789">
        <ele>118.86</ele>
        <time>2017-06-29T09:01:02Z</time>
      </trkpt>
      <trkpt lat="64.632961973547935" lon="12.609014036133885">
        <ele>120.3</ele>
        <time>2017-06-29T09:02:14Z</time>
      </trkpt>
      <trkpt lat="64.632534999400377" lon="12.607384007424116">
        <ele>122.70999999999999</ele>
        <time>2017-06-29T09:02:22Z</time>
      </trkpt>
      <trkpt lat="64.632354034110904" lon="12.606961978599429">
        <ele>122.22</ele>
        <time>2017-06-29T09:02:24Z</time>
      </trkpt>
      <trkpt lat="64.632252026349306" lon="12.606770033016801">
        <ele>121.26000000000001</ele>
        <time>2017-06-29T09:02:25Z</time>
      </trkpt>
      <trkpt lat="64.632145995274186" lon="12.606589989736676">
        <ele>120.78</ele>
        <time>2017-06-29T09:02:26Z</time>
      </trkpt>
      <trkpt lat="64.632024960592389" lon="12.606436014175415">
        <ele>120.3</ele>
        <time>2017-06-29T09:02:27Z</time>
      </trkpt>
      <trkpt lat="64.631890011951327" lon="12.606299975886941">
        <ele>119.34</ele>
        <time>2017-06-29T09:02:28Z</time>
      </trkpt>
      <trkpt lat="64.631742993369699" lon="12.606185982003808">
        <ele>118.86</ele>
        <time>2017-06-29T09:02:29Z</time>
      </trkpt>
      <trkpt lat="64.631584994494915" lon="12.6060810405761">
        <ele>118.38</ele>
        <time>2017-06-29T09:02:30Z</time>
      </trkpt>
      <trkpt lat="64.629818005487323" lon="12.60532901622355">
        <ele>122.22</ele>
        <time>2017-06-29T09:02:40Z</time>
      </trkpt>
      <trkpt lat="64.628186970949173" lon="12.605913989245892">
        <ele>121.73999999999999</ele>
        <time>2017-06-29T09:02:48Z</time>
      </trkpt>
      <trkpt lat="64.625431001186371" lon="12.606445988640189">
        <ele>115.98</ele>
        <time>2017-06-29T09:03:01Z</time>
      </trkpt>
      <trkpt lat="64.622562965378165" lon="12.605004971846938">
        <ele>111.17</ele>
        <time>2017-06-29T09:03:14Z</time>
      </trkpt>
      <trkpt lat="64.620412001386285" lon="12.602673964574933">
        <ele>108.29000000000001</ele>
        <time>2017-06-29T09:03:24Z</time>
      </trkpt>
      <trkpt lat="64.617579001933336" lon="12.59939999319613">
        <ele>105.88</ele>
        <time>2017-06-29T09:03:37Z</time>
      </trkpt>
      <trkpt lat="64.615788040682673" lon="12.596264993771911">
        <ele>103.48</ele>
        <time>2017-06-29T09:03:46Z</time>
      </trkpt>
      <trkpt lat="64.613078003749251" lon="12.590966038405895">
        <ele>102.04000000000001</ele>
        <time>2017-06-29T09:04:01Z</time>
      </trkpt>
      <trkpt lat="64.611560041084886" lon="12.589855017140508">
        <ele>101.08</ele>
        <time>2017-06-29T09:04:08Z</time>
      </trkpt>
      <trkpt lat="64.609450986608863" lon="12.58923701941967">
        <ele>102.04000000000001</ele>
        <time>2017-06-29T09:04:17Z</time>
      </trkpt>
      <trkpt lat="64.607886001467705" lon="12.587601961567998">
        <ele>111.65000000000001</ele>
        <time>2017-06-29T09:04:24Z</time>
      </trkpt>
      <trkpt lat="64.606624022126198" lon="12.584850015118718">
        <ele>121.26000000000001</ele>
        <time>2017-06-29T09:04:31Z</time>
      </trkpt>
      <trkpt lat="64.605307979509234" lon="12.580066965892911">
        <ele>135.19999999999999</ele>
        <time>2017-06-29T09:04:41Z</time>
      </trkpt>
      <trkpt lat="64.6038160007447" lon="12.575587006285787">
        <ele>139.05000000000001</ele>
        <time>2017-06-29T09:04:51Z</time>
      </trkpt>
      <trkpt lat="64.600880993530154" lon="12.567455973476171">
        <ele>133.75999999999999</ele>
        <time>2017-06-29T09:05:09Z</time>
      </trkpt>
      <trkpt lat="64.599624965339899" lon="12.565301991999149">
        <ele>130.40000000000001</ele>
        <time>2017-06-29T09:05:15Z</time>
      </trkpt>
      <trkpt lat="64.596544029191136" lon="12.56182199344039">
        <ele>125.11</ele>
        <time>2017-06-29T09:05:28Z</time>
      </trkpt>
      <trkpt lat="64.594344031065702" lon="12.560702003538609">
        <ele>121.26000000000001</ele>
        <time>2017-06-29T09:05:37Z</time>
      </trkpt>
      <trkpt lat="64.592623980715871" lon="12.560775009915233">
        <ele>118.38</ele>
        <time>2017-06-29T09:05:44Z</time>
      </trkpt>
      <trkpt lat="64.590681977570057" lon="12.5622099917382">
        <ele>118.86</ele>
        <time>2017-06-29T09:05:52Z</time>
      </trkpt>
      <trkpt lat="64.589217994362116" lon="12.562749031931162">
        <ele>119.81999999999999</ele>
        <time>2017-06-29T09:05:58Z</time>
      </trkpt>
      <trkpt lat="64.58748403005302" lon="12.562025003135204">
        <ele>116.94</ele>
        <time>2017-06-29T09:06:05Z</time>
      </trkpt>
      <trkpt lat="64.584389012306929" lon="12.559839002788067">
        <ele>111.65000000000001</ele>
        <time>2017-06-29T09:06:18Z</time>
      </trkpt>
      <trkpt lat="64.581661038100719" lon="12.556868959218264">
        <ele>98.189999999999998</ele>
        <time>2017-06-29T09:06:30Z</time>
      </trkpt>
      <trkpt lat="64.578668028116226" lon="12.552533000707626">
        <ele>91.939999999999998</ele>
        <time>2017-06-29T09:06:45Z</time>
      </trkpt>
      <trkpt lat="64.577019978314638" lon="12.549546025693417">
        <ele>91.459999999999994</ele>
        <time>2017-06-29T09:06:54Z</time>
      </trkpt>
      <trkpt lat="64.575538979843259" lon="12.544769011437893">
        <ele>88.099999999999994</ele>
        <time>2017-06-29T09:07:04Z</time>
      </trkpt>
      <trkpt lat="64.574596015736461" lon="12.540605971589684">
        <ele>84.730000000000004</ele>
        <time>2017-06-29T09:07:12Z</time>
      </trkpt>
      <trkpt lat="64.573309980332851" lon="12.531876973807812">
        <ele>80.890000000000001</ele>
        <time>2017-06-29T09:07:28Z</time>
      </trkpt>
      <trkpt lat="64.573318026959896" lon="12.527859024703503">
        <ele>78.969999999999999</ele>
        <time>2017-06-29T09:07:35Z</time>
      </trkpt>
      <trkpt lat="64.573554983362556" lon="12.522751009091735">
        <ele>73.200000000000003</ele>
        <time>2017-06-29T09:07:44Z</time>
      </trkpt>
      <trkpt lat="64.573181988671422" lon="12.518245987594128">
        <ele>67.430000000000007</ele>
        <time>2017-06-29T09:07:52Z</time>
      </trkpt>
      <trkpt lat="64.572348995134234" lon="12.514486033469439">
        <ele>67.909999999999997</ele>
        <time>2017-06-29T09:07:59Z</time>
      </trkpt>
      <trkpt lat="64.570956006646156" lon="12.51081601716578">
        <ele>74.159999999999997</ele>
        <time>2017-06-29T09:08:07Z</time>
      </trkpt>
      <trkpt lat="64.569092961028218" lon="12.507391003891826">
        <ele>78.969999999999999</ele>
        <time>2017-06-29T09:08:16Z</time>
      </trkpt>
      <trkpt lat="64.567683963105083" lon="12.505542961880565">
        <ele>78.480000000000004</ele>
        <time>2017-06-29T09:08:23Z</time>
      </trkpt>
      <trkpt lat="64.566428018733859" lon="12.504351977258921">
        <ele>73.680000000000007</ele>
        <time>2017-06-29T09:08:31Z</time>
      </trkpt>
      <trkpt lat="64.565102001652122" lon="12.503327960148454">
        <ele>73.200000000000003</ele>
        <time>2017-06-29T09:08:41Z</time>
      </trkpt>
      <trkpt lat="64.564344026148319" lon="12.502005966380239">
        <ele>76.079999999999998</ele>
        <time>2017-06-29T09:08:48Z</time>
      </trkpt>
      <trkpt lat="64.563560988754034" lon="12.499968996271491">
        <ele>75.120000000000005</ele>
        <time>2017-06-29T09:08:58Z</time>
      </trkpt>
      <trkpt lat="64.561872035264969" lon="12.495469003915787">
        <ele>72.719999999999999</ele>
        <time>2017-06-29T09:09:19Z</time>
      </trkpt>
      <trkpt lat="64.561010040342808" lon="12.491842992603779">
        <ele>69.829999999999998</ele>
        <time>2017-06-29T09:09:34Z</time>
      </trkpt>
      <trkpt lat="64.560254998505116" lon="12.488609002903104">
        <ele>68.390000000000001</ele>
        <time>2017-06-29T09:09:48Z</time>
      </trkpt>
      <trkpt lat="64.559429967775941" lon="12.484822981059551">
        <ele>64.069999999999993</ele>
        <time>2017-06-29T09:10:03Z</time>
      </trkpt>
      <trkpt lat="64.559129979461432" lon="12.48090997338295">
        <ele>61.18</ele>
        <time>2017-06-29T09:10:16Z</time>
      </trkpt>
      <trkpt lat="64.558929987251759" lon="12.479257984086871">
        <ele>61.18</ele>
        <time>2017-06-29T09:10:21Z</time>
      </trkpt>
      <trkpt lat="64.558853041380644" lon="12.478925976902246">
        <ele>61.659999999999997</ele>
        <time>2017-06-29T09:10:22Z</time>
      </trkpt>
      <trkpt lat="64.55876100808382" lon="12.478606961667538">
        <ele>62.140000000000001</ele>
        <time>2017-06-29T09:10:23Z</time>
      </trkpt>
      <trkpt lat="64.558651959523559" lon="12.478310996666551">
        <ele>62.619999999999997</ele>
        <time>2017-06-29T09:10:24Z</time>
      </trkpt>
      <trkpt lat="64.558531008660793" lon="12.478041015565395">
        <ele>63.579999999999998</ele>
        <time>2017-06-29T09:10:25Z</time>
      </trkpt>
      <trkpt lat="64.558404022827744" lon="12.477804981172085">
        <ele>64.549999999999997</ele>
        <time>2017-06-29T09:10:26Z</time>
      </trkpt>
      <trkpt lat="64.558272007852793" lon="12.477595014497638">
        <ele>65.510000000000005</ele>
        <time>2017-06-29T09:10:27Z</time>
      </trkpt>
      <trkpt lat="64.558136975392699" lon="12.477401979267597">
        <ele>66.469999999999999</ele>
        <time>2017-06-29T09:10:28Z</time>
      </trkpt>
      <trkpt lat="64.556836020201445" lon="12.476284001022577">
        <ele>71.760000000000005</ele>
        <time>2017-06-29T09:10:37Z</time>
      </trkpt>
      <trkpt lat="64.555733967572451" lon="12.474813982844353">
        <ele>73.680000000000007</ele>
        <time>2017-06-29T09:10:45Z</time>
      </trkpt>
      <trkpt lat="64.555185036733747" lon="12.473702961578965">
        <ele>74.159999999999997</ele>
        <time>2017-06-29T09:10:51Z</time>
      </trkpt>
      <trkpt lat="64.55459201708436" lon="12.471784008666873">
        <ele>70.310000000000002</ele>
        <time>2017-06-29T09:10:59Z</time>
      </trkpt>
      <trkpt lat="64.55362600274384" lon="12.468540966510773">
        <ele>65.510000000000005</ele>
        <time>2017-06-29T09:11:09Z</time>
      </trkpt>
      <trkpt lat="64.552493020892143" lon="12.465232964605093">
        <ele>68.390000000000001</ele>
        <time>2017-06-29T09:11:20Z</time>
      </trkpt>
      <trkpt lat="64.550963994115591" lon="12.462999019771814">
        <ele>59.740000000000002</ele>
        <time>2017-06-29T09:11:30Z</time>
      </trkpt>
      <trkpt lat="64.548936998471618" lon="12.460557958111167">
        <ele>55.409999999999997</ele>
        <time>2017-06-29T09:11:42Z</time>
      </trkpt>
      <trkpt lat="64.546758038923144" lon="12.458553006872535">
        <ele>58.299999999999997</ele>
        <time>2017-06-29T09:11:55Z</time>
      </trkpt>
      <trkpt lat="64.546647984534502" lon="12.458319989964366">
        <ele>58.299999999999997</ele>
        <time>2017-06-29T09:11:56Z</time>
      </trkpt>
      <trkpt lat="64.545772997662425" lon="12.455935003235936">
        <ele>59.740000000000002</ele>
        <time>2017-06-29T09:12:05Z</time>
      </trkpt>
      <trkpt lat="64.545445013791323" lon="12.455379031598568">
        <ele>62.140000000000001</ele>
        <time>2017-06-29T09:12:10Z</time>
      </trkpt>
      <trkpt lat="64.545403020456433" lon="12.455368973314762">
        <ele>62.619999999999997</ele>
        <time>2017-06-29T09:12:11Z</time>
      </trkpt>
      <trkpt lat="64.545359015464783" lon="12.455409038811922">
        <ele>62.619999999999997</ele>
        <time>2017-06-29T09:12:12Z</time>
      </trkpt>
      <trkpt lat="64.545319033786654" lon="12.455495959147811">
        <ele>63.100000000000001</ele>
        <time>2017-06-29T09:12:13Z</time>
      </trkpt>
      <trkpt lat="64.545282991603017" lon="12.455619005486369">
        <ele>63.100000000000001</ele>
        <time>2017-06-29T09:12:14Z</time>
      </trkpt>
      <trkpt lat="64.545247033238411" lon="12.455725036561489">
        <ele>63.100000000000001</ele>
        <time>2017-06-29T09:12:15Z</time>
      </trkpt>
      <trkpt lat="64.54520202241838" lon="12.455788990482688">
        <ele>63.100000000000001</ele>
        <time>2017-06-29T09:12:16Z</time>
      </trkpt>
      <trkpt lat="64.54515902325511" lon="12.455802988260984">
        <ele>62.619999999999997</ele>
        <time>2017-06-29T09:12:17Z</time>
      </trkpt>
      <trkpt lat="64.54511702992022" lon="12.455781027674675">
        <ele>62.619999999999997</ele>
        <time>2017-06-29T09:12:18Z</time>
      </trkpt>
      <trkpt lat="64.545078976079822" lon="12.455740962177515">
        <ele>62.140000000000001</ele>
        <time>2017-06-29T09:12:19Z</time>
      </trkpt>
      <trkpt lat="64.545040000230074" lon="12.455692011862993">
        <ele>62.140000000000001</ele>
        <time>2017-06-29T09:12:20Z</time>
      </trkpt>
      <trkpt lat="64.544999012723565" lon="12.455631997436285">
        <ele>62.140000000000001</ele>
        <time>2017-06-29T09:12:21Z</time>
      </trkpt>
      <trkpt lat="64.544314965605736" lon="12.454690039157867">
        <ele>65.510000000000005</ele>
        <time>2017-06-29T09:12:32Z</time>
      </trkpt>
      <trkpt lat="64.543723035603762" lon="12.454130966216326">
        <ele>67.909999999999997</ele>
        <time>2017-06-29T09:12:43Z</time>
      </trkpt>
      <trkpt lat="64.543273011222482" lon="12.453766018152237">
        <ele>69.349999999999994</ele>
        <time>2017-06-29T09:12:55Z</time>
      </trkpt>
      <trkpt lat="64.543175026774406" lon="12.453854028135538">
        <ele>69.829999999999998</ele>
        <time>2017-06-29T09:13:04Z</time>
      </trkpt>
      <trkpt lat="64.543160023167729" lon="12.453829972073436">
        <ele>69.829999999999998</ele>
        <time>2017-06-29T09:13:06Z</time>
      </trkpt>
      <trkpt lat="64.543172009289265" lon="12.453826032578945">
        <ele>69.829999999999998</ele>
        <time>2017-06-29T09:13:19Z</time>
      </trkpt>
      <trkpt lat="64.543189024552703" lon="12.453821003437042">
        <ele>69.349999999999994</ele>
        <time>2017-06-29T09:13:33Z</time>
      </trkpt>
      <trkpt lat="64.543179972097278" lon="12.453878000378609">
        <ele>70.310000000000002</ele>
        <time>2017-06-29T09:13:45Z</time>
      </trkpt>
      <trkpt lat="64.543175026774406" lon="12.453875988721848">
        <ele>72.239999999999995</ele>
        <time>2017-06-29T09:14:22Z</time>
      </trkpt>
      <trkpt lat="64.543207967653871" lon="12.453819997608662">
        <ele>80.409999999999997</ele>
        <time>2017-06-29T09:35:29Z</time>
      </trkpt>
      <trkpt lat="64.543229006230831" lon="12.453778004273772">
        <ele>81.370000000000005</ele>
        <time>2017-06-29T09:36:52Z</time>
      </trkpt>
      <trkpt lat="64.543210985139012" lon="12.453675996512175">
        <ele>81.370000000000005</ele>
        <time>2017-06-29T09:36:54Z</time>
      </trkpt>
      <trkpt lat="64.543169997632504" lon="12.453584969043732">
        <ele>81.370000000000005</ele>
        <time>2017-06-29T09:36:55Z</time>
      </trkpt>
      <trkpt lat="64.543104032054543" lon="12.453495031222701">
        <ele>81.849999999999994</ele>
        <time>2017-06-29T09:36:56Z</time>
      </trkpt>
      <trkpt lat="64.543023984879255" lon="12.453399980440736">
        <ele>82.810000000000002</ele>
        <time>2017-06-29T09:36:57Z</time>
      </trkpt>
      <trkpt lat="64.542072974145412" lon="12.45192501693964">
        <ele>90.5</ele>
        <time>2017-06-29T09:37:07Z</time>
      </trkpt>
      <trkpt lat="64.541656980291009" lon="12.451262008398771">
        <ele>92.420000000000002</ele>
        <time>2017-06-29T09:37:13Z</time>
      </trkpt>
      <trkpt lat="64.541629990562797" lon="12.451181039214134">
        <ele>92.900000000000006</ele>
        <time>2017-06-29T09:37:14Z</time>
      </trkpt>
      <trkpt lat="64.541616998612881" lon="12.451091017574072">
        <ele>93.390000000000001</ele>
        <time>2017-06-29T09:37:15Z</time>
      </trkpt>
      <trkpt lat="64.5416159927845" lon="12.451009964570403">
        <ele>93.870000000000005</ele>
        <time>2017-06-29T09:37:16Z</time>
      </trkpt>
      <trkpt lat="64.541622027754784" lon="12.450947016477585">
        <ele>93.870000000000005</ele>
        <time>2017-06-29T09:37:17Z</time>
      </trkpt>
      <trkpt lat="64.541638037189841" lon="12.450822964310646">
        <ele>93.870000000000005</ele>
        <time>2017-06-29T09:37:24Z</time>
      </trkpt>
      <trkpt lat="64.541621021926403" lon="12.450695978477597">
        <ele>93.870000000000005</ele>
        <time>2017-06-29T09:37:25Z</time>
      </trkpt>
      <trkpt lat="64.541576011106372" lon="12.450542002916336">
        <ele>93.870000000000005</ele>
        <time>2017-06-29T09:37:26Z</time>
      </trkpt>
      <trkpt lat="64.541518008336425" lon="12.450373023748398">
        <ele>94.349999999999994</ele>
        <time>2017-06-29T09:37:27Z</time>
      </trkpt>
      <trkpt lat="64.541451958939433" lon="12.450194992125034">
        <ele>94.349999999999994</ele>
        <time>2017-06-29T09:37:28Z</time>
      </trkpt>
      <trkpt lat="64.540723990648985" lon="12.448648028075695">
        <ele>96.269999999999996</ele>
        <time>2017-06-29T09:37:35Z</time>
      </trkpt>
      <trkpt lat="64.53925103880465" lon="12.446146029978991">
        <ele>99.150000000000006</ele>
        <time>2017-06-29T09:37:45Z</time>
      </trkpt>
      <trkpt lat="64.5384990144521" lon="12.445514034479856">
        <ele>102.52</ele>
        <time>2017-06-29T09:37:49Z</time>
      </trkpt>
      <trkpt lat="64.536936962977052" lon="12.444579033181071">
        <ele>112.61</ele>
        <time>2017-06-29T09:37:57Z</time>
      </trkpt>
      <trkpt lat="64.536763960495591" lon="12.444336963817477">
        <ele>114.05</ele>
        <time>2017-06-29T09:37:58Z</time>
      </trkpt>
      <trkpt lat="64.536599004641175" lon="12.444058014079928">
        <ele>115.5</ele>
        <time>2017-06-29T09:37:59Z</time>
      </trkpt>
      <trkpt lat="64.536444023251534" lon="12.44373899884522">
        <ele>116.94</ele>
        <time>2017-06-29T09:38:00Z</time>
      </trkpt>
      <trkpt lat="64.536298010498285" lon="12.443382013589144">
        <ele>118.38</ele>
        <time>2017-06-29T09:38:01Z</time>
      </trkpt>
      <trkpt lat="64.536168007180095" lon="12.442990997806191">
        <ele>119.81999999999999</ele>
        <time>2017-06-29T09:38:02Z</time>
      </trkpt>
      <trkpt lat="64.536052001640201" lon="12.442552037537098">
        <ele>121.26000000000001</ele>
        <time>2017-06-29T09:38:03Z</time>
      </trkpt>
      <trkpt lat="64.535956028848886" lon="12.44208499789238">
        <ele>122.70999999999999</ele>
        <time>2017-06-29T09:38:04Z</time>
      </trkpt>
      <trkpt lat="64.535877993330359" lon="12.441581999883056">
        <ele>123.67</ele>
        <time>2017-06-29T09:38:05Z</time>
      </trkpt>
      <trkpt lat="64.535819990560412" lon="12.441062992438674">
        <ele>124.63</ele>
        <time>2017-06-29T09:38:06Z</time>
      </trkpt>
      <trkpt lat="64.535785038024187" lon="12.440528981387615">
        <ele>124.63</ele>
        <time>2017-06-29T09:38:07Z</time>
      </trkpt>
      <trkpt lat="64.535773973912001" lon="12.439993964508176">
        <ele>125.11</ele>
        <time>2017-06-29T09:38:08Z</time>
      </trkpt>
      <trkpt lat="64.535785038024187" lon="12.439458025619388">
        <ele>125.11</ele>
        <time>2017-06-29T09:38:09Z</time>
      </trkpt>
      <trkpt lat="64.535822002217174" lon="12.438918985426426">
        <ele>125.11</ele>
        <time>2017-06-29T09:38:10Z</time>
      </trkpt>
      <trkpt lat="64.535881010815501" lon="12.438391009345651">
        <ele>124.63</ele>
        <time>2017-06-29T09:38:11Z</time>
      </trkpt>
      <trkpt lat="64.535959968343377" lon="12.437869990244508">
        <ele>124.15000000000001</ele>
        <time>2017-06-29T09:38:12Z</time>
      </trkpt>
      <trkpt lat="64.536053007468581" lon="12.437376966699958">
        <ele>123.67</ele>
        <time>2017-06-29T09:38:13Z</time>
      </trkpt>
      <trkpt lat="64.537048023194075" lon="12.430702038109303">
        <ele>123.67</ele>
        <time>2017-06-29T09:38:26Z</time>
      </trkpt>
      <trkpt lat="64.537327978760004" lon="12.426462974399328">
        <ele>121.73999999999999</ele>
        <time>2017-06-29T09:38:34Z</time>
      </trkpt>
      <trkpt lat="64.537196969613433" lon="12.422932013869286">
        <ele>121.26000000000001</ele>
        <time>2017-06-29T09:38:42Z</time>
      </trkpt>
      <trkpt lat="64.536826992407441" lon="12.418821025639772">
        <ele>119.34</ele>
        <time>2017-06-29T09:38:51Z</time>
      </trkpt>
      <trkpt lat="64.536657007411122" lon="12.417967999354005">
        <ele>117.90000000000001</ele>
        <time>2017-06-29T09:38:53Z</time>
      </trkpt>
      <trkpt lat="64.536550976336002" lon="12.417572038248181">
        <ele>116.94</ele>
        <time>2017-06-29T09:38:54Z</time>
      </trkpt>
      <trkpt lat="64.53641502186656" lon="12.417213041335344">
        <ele>116.45999999999999</ele>
        <time>2017-06-29T09:38:55Z</time>
      </trkpt>
      <trkpt lat="64.536263979971409" lon="12.416880028322339">
        <ele>115.5</ele>
        <time>2017-06-29T09:38:56Z</time>
      </trkpt>
      <trkpt lat="64.536101035773754" lon="12.416557995602489">
        <ele>115.01000000000001</ele>
        <time>2017-06-29T09:38:57Z</time>
      </trkpt>
      <trkpt lat="64.535024967044592" lon="12.413739999756217">
        <ele>103.95999999999999</ele>
        <time>2017-06-29T09:39:04Z</time>
      </trkpt>
      <trkpt lat="64.533634996041656" lon="12.410646993666887">
        <ele>91.939999999999998</ele>
        <time>2017-06-29T09:39:12Z</time>
      </trkpt>
      <trkpt lat="64.531830037012696" lon="12.408297965303063">
        <ele>77.040000000000006</ele>
        <time>2017-06-29T09:39:21Z</time>
      </trkpt>
      <trkpt lat="64.531067032366991" lon="12.405618019402027">
        <ele>67.430000000000007</ele>
        <time>2017-06-29T09:39:27Z</time>
      </trkpt>
      <trkpt lat="64.530426990240812" lon="12.402297025546432">
        <ele>63.100000000000001</ele>
        <time>2017-06-29T09:39:34Z</time>
      </trkpt>
      <trkpt lat="64.528954960405827" lon="12.396294996142387">
        <ele>58.299999999999997</ele>
        <time>2017-06-29T09:39:47Z</time>
      </trkpt>
      <trkpt lat="64.528911039233208" lon="12.395814964547753">
        <ele>58.299999999999997</ele>
        <time>2017-06-29T09:39:48Z</time>
      </trkpt>
      <trkpt lat="64.528609961271286" lon="12.390720024704933">
        <ele>53.490000000000002</ele>
        <time>2017-06-29T09:39:58Z</time>
      </trkpt>
      <trkpt lat="64.528259010985494" lon="12.388993017375469">
        <ele>48.200000000000003</ele>
        <time>2017-06-29T09:40:02Z</time>
      </trkpt>
      <trkpt lat="64.528133030980825" lon="12.388614993542433">
        <ele>46.280000000000001</ele>
        <time>2017-06-29T09:40:03Z</time>
      </trkpt>
      <trkpt lat="64.527988024055958" lon="12.388257002457976">
        <ele>44.359999999999999</ele>
        <time>2017-06-29T09:40:04Z</time>
      </trkpt>
      <trkpt lat="64.52782298438251" lon="12.387912003323436">
        <ele>42.439999999999998</ele>
        <time>2017-06-29T09:40:05Z</time>
      </trkpt>
      <trkpt lat="64.527642019093037" lon="12.387592988088727">
        <ele>40.509999999999998</ele>
        <time>2017-06-29T09:40:06Z</time>
      </trkpt>
      <trkpt lat="64.527448983862996" lon="12.387295011430979">
        <ele>38.590000000000003</ele>
        <time>2017-06-29T09:40:07Z</time>
      </trkpt>
      <trkpt lat="64.527244968339801" lon="12.387016983702779">
        <ele>36.670000000000002</ele>
        <time>2017-06-29T09:40:08Z</time>
      </trkpt>
      <trkpt lat="64.525804035365582" lon="12.384945983067155">
        <ele>28.02</ele>
        <time>2017-06-29T09:40:15Z</time>
      </trkpt>
      <trkpt lat="64.525603037327528" lon="12.384694023057818">
        <ele>28.02</ele>
        <time>2017-06-29T09:40:16Z</time>
      </trkpt>
      <trkpt lat="64.525392986834049" lon="12.384478021413088">
        <ele>28.02</ele>
        <time>2017-06-29T09:40:17Z</time>
      </trkpt>
      <trkpt lat="64.525171034038067" lon="12.384350029751658">
        <ele>28.02</ele>
        <time>2017-06-29T09:40:18Z</time>
      </trkpt>
      <trkpt lat="64.52494103461504" lon="12.384253973141313">
        <ele>28.02</ele>
        <time>2017-06-29T09:40:19Z</time>
      </trkpt>
      <trkpt lat="64.524708017706871" lon="12.384173003956676">
        <ele>27.530000000000001</ele>
        <time>2017-06-29T09:40:20Z</time>
      </trkpt>
      <trkpt lat="64.522419003769755" lon="12.382913958281279">
        <ele>21.77</ele>
        <time>2017-06-29T09:40:30Z</time>
      </trkpt>
      <trkpt lat="64.520742036402225" lon="12.380712032318115">
        <ele>20.32</ele>
        <time>2017-06-29T09:40:38Z</time>
      </trkpt>
      <trkpt lat="64.520127978175879" lon="12.379893036559224">
        <ele>20.32</ele>
        <time>2017-06-29T09:40:41Z</time>
      </trkpt>
      <trkpt lat="64.519946007058024" lon="12.379550971090794">
        <ele>20.32</ele>
        <time>2017-06-29T09:40:42Z</time>
      </trkpt>
      <trkpt lat="64.518439024686813" lon="12.377129020169377">
        <ele>23.690000000000001</ele>
        <time>2017-06-29T09:40:50Z</time>
      </trkpt>
      <trkpt lat="64.51649802736938" lon="12.374964980408549">
        <ele>26.57</ele>
        <time>2017-06-29T09:40:59Z</time>
      </trkpt>
      <trkpt lat="64.512260975316167" lon="12.369484975934029">
        <ele>27.050000000000001</ele>
        <time>2017-06-29T09:41:19Z</time>
      </trkpt>
      <trkpt lat="64.510556012392044" lon="12.366875018924475">
        <ele>25.129999999999999</ele>
        <time>2017-06-29T09:41:28Z</time>
      </trkpt>
      <trkpt lat="64.509329991415143" lon="12.364530013874173">
        <ele>24.649999999999999</ele>
        <time>2017-06-29T09:41:37Z</time>
      </trkpt>
      <trkpt lat="64.509182972833514" lon="12.364321975037456">
        <ele>24.649999999999999</ele>
        <time>2017-06-29T09:41:38Z</time>
      </trkpt>
      <trkpt lat="64.509025979787111" lon="12.364142015576363">
        <ele>24.649999999999999</ele>
        <time>2017-06-29T09:41:39Z</time>
      </trkpt>
      <trkpt lat="64.507716977968812" lon="12.362393969669938">
        <ele>23.210000000000001</ele>
        <time>2017-06-29T09:41:47Z</time>
      </trkpt>
      <trkpt lat="64.507403997704387" lon="12.361840009689331">
        <ele>22.73</ele>
        <time>2017-06-29T09:41:49Z</time>
      </trkpt>
      <trkpt lat="64.507229989394546" lon="12.361589977517724">
        <ele>22.73</ele>
        <time>2017-06-29T09:41:50Z</time>
      </trkpt>
      <trkpt lat="64.505870025604963" lon="12.360437968745828">
        <ele>22.73</ele>
        <time>2017-06-29T09:41:57Z</time>
      </trkpt>
      <trkpt lat="64.50363096781075" lon="12.358968034386635">
        <ele>21.77</ele>
        <time>2017-06-29T09:42:08Z</time>
      </trkpt>
      <trkpt lat="64.501022016629577" lon="12.357539003714919">
        <ele>23.690000000000001</ele>
        <time>2017-06-29T09:42:20Z</time>
      </trkpt>
      <trkpt lat="64.498528987169266" lon="12.355374963954091">
        <ele>22.25</ele>
        <time>2017-06-29T09:42:32Z</time>
      </trkpt>
      <trkpt lat="64.49688202701509" lon="12.353095002472401">
        <ele>21.289999999999999</ele>
        <time>2017-06-29T09:42:41Z</time>
      </trkpt>
      <trkpt lat="64.49509802274406" lon="12.351515013724566">
        <ele>19.84</ele>
        <time>2017-06-29T09:42:50Z</time>
      </trkpt>
      <trkpt lat="64.494912028312683" lon="12.351384004577994">
        <ele>20.32</ele>
        <time>2017-06-29T09:42:51Z</time>
      </trkpt>
      <trkpt lat="64.494717987254262" lon="12.351303035393357">
        <ele>20.32</ele>
        <time>2017-06-29T09:42:52Z</time>
      </trkpt>
      <trkpt lat="64.49265100993216" lon="12.350456966087222">
        <ele>22.73</ele>
        <time>2017-06-29T09:43:02Z</time>
      </trkpt>
      <trkpt lat="64.491497995331883" lon="12.35021498054266">
        <ele>23.210000000000001</ele>
        <time>2017-06-29T09:43:08Z</time>
      </trkpt>
      <trkpt lat="64.491287022829056" lon="12.350073996931314">
        <ele>23.210000000000001</ele>
        <time>2017-06-29T09:43:09Z</time>
      </trkpt>
      <trkpt lat="64.491087030619383" lon="12.349893031641841">
        <ele>22.73</ele>
        <time>2017-06-29T09:43:10Z</time>
      </trkpt>
      <trkpt lat="64.490875974297523" lon="12.349727991968393">
        <ele>22.73</ele>
        <time>2017-06-29T09:43:11Z</time>
      </trkpt>
      <trkpt lat="64.490681011229753" lon="12.349553983658552">
        <ele>22.73</ele>
        <time>2017-06-29T09:43:12Z</time>
      </trkpt>
      <trkpt lat="64.488085974007845" lon="12.347899982705712">
        <ele>18.879999999999999</ele>
        <time>2017-06-29T09:43:25Z</time>
      </trkpt>
      <trkpt lat="64.486880991607904" lon="12.346471035853028">
        <ele>18.879999999999999</ele>
        <time>2017-06-29T09:43:32Z</time>
      </trkpt>
      <trkpt lat="64.486759034916759" lon="12.346197031438351">
        <ele>18.879999999999999</ele>
        <time>2017-06-29T09:43:33Z</time>
      </trkpt>
      <trkpt lat="64.486671024933457" lon="12.345896037295461">
        <ele>19.359999999999999</ele>
        <time>2017-06-29T09:43:34Z</time>
      </trkpt>
      <trkpt lat="64.48661201633513" lon="12.345566963776946">
        <ele>20.32</ele>
        <time>2017-06-29T09:43:35Z</time>
      </trkpt>
      <trkpt lat="64.48657002300024" lon="12.345220036804676">
        <ele>20.809999999999999</ele>
        <time>2017-06-29T09:43:36Z</time>
      </trkpt>
      <trkpt lat="64.486534986644983" lon="12.344866991043091">
        <ele>21.289999999999999</ele>
        <time>2017-06-29T09:43:37Z</time>
      </trkpt>
      <trkpt lat="64.486199039965868" lon="12.340783998370171">
        <ele>23.210000000000001</ele>
        <time>2017-06-29T09:43:48Z</time>
      </trkpt>
      <trkpt lat="64.485643990337849" lon="12.33654904179275">
        <ele>19.359999999999999</ele>
        <time>2017-06-29T09:43:58Z</time>
      </trkpt>
      <trkpt lat="64.484405983239412" lon="12.330969041213393">
        <ele>20.32</ele>
        <time>2017-06-29T09:44:11Z</time>
      </trkpt>
      <trkpt lat="64.483990995213389" lon="12.329578986391425">
        <ele>19.359999999999999</ele>
        <time>2017-06-29T09:44:15Z</time>
      </trkpt>
      <trkpt lat="64.483861997723579" lon="12.329298024997115">
        <ele>19.359999999999999</ele>
        <time>2017-06-29T09:44:16Z</time>
      </trkpt>
      <trkpt lat="64.483725959435105" lon="12.329035000875592">
        <ele>18.879999999999999</ele>
        <time>2017-06-29T09:44:17Z</time>
      </trkpt>
      <trkpt lat="64.483579024672508" lon="12.328797038644552">
        <ele>18.399999999999999</ele>
        <time>2017-06-29T09:44:18Z</time>
      </trkpt>
      <trkpt lat="64.483425971120596" lon="12.328580031171441">
        <ele>18.399999999999999</ele>
        <time>2017-06-29T09:44:19Z</time>
      </trkpt>
      <trkpt lat="64.482787018641829" lon="12.327965972945094">
        <ele>16.960000000000001</ele>
        <time>2017-06-29T09:44:23Z</time>
      </trkpt>
      <trkpt lat="64.48261896148324" lon="12.327900007367134">
        <ele>16.960000000000001</ele>
        <time>2017-06-29T09:44:24Z</time>
      </trkpt>
      <trkpt lat="64.482454005628824" lon="12.327866982668638">
        <ele>16.960000000000001</ele>
        <time>2017-06-29T09:44:25Z</time>
      </trkpt>
      <trkpt lat="64.482291983440518" lon="12.327881986275315">
        <ele>16.960000000000001</ele>
        <time>2017-06-29T09:44:26Z</time>
      </trkpt>
      <trkpt lat="64.482134990394115" lon="12.327949041500688">
        <ele>16.48</ele>
        <time>2017-06-29T09:44:27Z</time>
      </trkpt>
      <trkpt lat="64.481984032317996" lon="12.328052977100015">
        <ele>16.48</ele>
        <time>2017-06-29T09:44:28Z</time>
      </trkpt>
      <trkpt lat="64.481830978766084" lon="12.32817099429667">
        <ele>16.48</ele>
        <time>2017-06-29T09:44:29Z</time>
      </trkpt>
      <trkpt lat="64.481507018208504" lon="12.328350031748414">
        <ele>16.960000000000001</ele>
        <time>2017-06-29T09:44:31Z</time>
      </trkpt>
      <trkpt lat="64.481335021555424" lon="12.328383978456259">
        <ele>16.960000000000001</ele>
        <time>2017-06-29T09:44:32Z</time>
      </trkpt>
      <trkpt lat="64.481154978275299" lon="12.328386995941401">
        <ele>17.440000000000001</ele>
        <time>2017-06-29T09:44:33Z</time>
      </trkpt>
      <trkpt lat="64.479692000895739" lon="12.328840959817171">
        <ele>18.399999999999999</ele>
        <time>2017-06-29T09:44:41Z</time>
      </trkpt>
      <trkpt lat="64.479148015379906" lon="12.329098032787442">
        <ele>18.399999999999999</ele>
        <time>2017-06-29T09:44:44Z</time>
      </trkpt>
      <trkpt lat="64.478959003463387" lon="12.329113958403468">
        <ele>18.879999999999999</ele>
        <time>2017-06-29T09:44:45Z</time>
      </trkpt>
      <trkpt lat="64.478768985718489" lon="12.329125022515655">
        <ele>18.879999999999999</ele>
        <time>2017-06-29T09:44:46Z</time>
      </trkpt>
      <trkpt lat="64.47857603430748" lon="12.329085962846875">
        <ele>19.359999999999999</ele>
        <time>2017-06-29T09:44:47Z</time>
      </trkpt>
      <trkpt lat="64.478395991027355" lon="12.329001976177096">
        <ele>18.879999999999999</ele>
        <time>2017-06-29T09:44:48Z</time>
      </trkpt>
      <trkpt lat="64.478215025737882" lon="12.328881025314331">
        <ele>18.399999999999999</ele>
        <time>2017-06-29T09:44:49Z</time>
      </trkpt>
      <trkpt lat="64.478041017428041" lon="12.328730989247561">
        <ele>18.399999999999999</ele>
        <time>2017-06-29T09:44:50Z</time>
      </trkpt>
      <trkpt lat="64.477874971926212" lon="12.328548012301326">
        <ele>17.920000000000002</ele>
        <time>2017-06-29T09:44:51Z</time>
      </trkpt>
      <trkpt lat="64.477714961394668" lon="12.32832002453506">
        <ele>17.920000000000002</ele>
        <time>2017-06-29T09:44:52Z</time>
      </trkpt>
      <trkpt lat="64.47756702080369" lon="12.328055994585156">
        <ele>18.399999999999999</ele>
        <time>2017-06-29T09:44:53Z</time>
      </trkpt>
      <trkpt lat="64.477430982515216" lon="12.327744020149112">
        <ele>18.399999999999999</ele>
        <time>2017-06-29T09:44:54Z</time>
      </trkpt>
      <trkpt lat="64.47730902582407" lon="12.327400026842952">
        <ele>18.399999999999999</ele>
        <time>2017-06-29T09:44:55Z</time>
      </trkpt>
      <trkpt lat="64.47720299474895" lon="12.32701001688838">
        <ele>17.920000000000002</ele>
        <time>2017-06-29T09:44:56Z</time>
      </trkpt>
      <trkpt lat="64.477109033614397" lon="12.326595028862357">
        <ele>17.920000000000002</ele>
        <time>2017-06-29T09:44:57Z</time>
      </trkpt>
      <trkpt lat="64.477024963125587" lon="12.326167970895767">
        <ele>17.920000000000002</ele>
        <time>2017-06-29T09:44:58Z</time>
      </trkpt>
      <trkpt lat="64.476174032315612" lon="12.322455961257219">
        <ele>16.960000000000001</ele>
        <time>2017-06-29T09:45:07Z</time>
      </trkpt>
      <trkpt lat="64.475121013820171" lon="12.318403981626034">
        <ele>15.52</ele>
        <time>2017-06-29T09:45:17Z</time>
      </trkpt>
      <trkpt lat="64.474306963384151" lon="12.315071001648903">
        <ele>14.56</ele>
        <time>2017-06-29T09:45:25Z</time>
      </trkpt>
      <trkpt lat="64.474179977551103" lon="12.314714016392827">
        <ele>15.039999999999999</ele>
        <time>2017-06-29T09:45:26Z</time>
      </trkpt>
      <trkpt lat="64.474039999768138" lon="12.314376980066299">
        <ele>15.039999999999999</ele>
        <time>2017-06-29T09:45:27Z</time>
      </trkpt>
      <trkpt lat="64.473889041692019" lon="12.314056036993861">
        <ele>15.039999999999999</ele>
        <time>2017-06-29T09:45:28Z</time>
      </trkpt>
      <trkpt lat="64.473083037883043" lon="12.312718033790588">
        <ele>15.039999999999999</ele>
        <time>2017-06-29T09:45:33Z</time>
      </trkpt>
      <trkpt lat="64.472911963239312" lon="12.312542013823986">
        <ele>14.56</ele>
        <time>2017-06-29T09:45:34Z</time>
      </trkpt>
      <trkpt lat="64.472720017656684" lon="12.312431037425995">
        <ele>15.039999999999999</ele>
        <time>2017-06-29T09:45:35Z</time>
      </trkpt>
      <trkpt lat="64.472529999911785" lon="12.312363982200623">
        <ele>15.039999999999999</ele>
        <time>2017-06-29T09:45:36Z</time>
      </trkpt>
      <trkpt lat="64.472331013530493" lon="12.312368005514145">
        <ele>15.039999999999999</ele>
        <time>2017-06-29T09:45:37Z</time>
      </trkpt>
      <trkpt lat="64.472135966643691" lon="12.312426008284092">
        <ele>15.52</ele>
        <time>2017-06-29T09:45:38Z</time>
      </trkpt>
      <trkpt lat="64.471941003575921" lon="12.312518041580915">
        <ele>15.52</ele>
        <time>2017-06-29T09:45:39Z</time>
      </trkpt>
      <trkpt lat="64.471539007499814" lon="12.312644021585584">
        <ele>15.52</ele>
        <time>2017-06-29T09:45:41Z</time>
      </trkpt>
      <trkpt lat="64.470082987099886" lon="12.313112989068031">
        <ele>16</ele>
        <time>2017-06-29T09:45:48Z</time>
      </trkpt>
      <trkpt lat="64.468985041603446" lon="12.312762038782239">
        <ele>16.48</ele>
        <time>2017-06-29T09:45:54Z</time>
      </trkpt>
      <trkpt lat="64.46798499673605" lon="12.311232006177306">
        <ele>17.440000000000001</ele>
        <time>2017-06-29T09:46:01Z</time>
      </trkpt>
      <trkpt lat="64.467170024290681" lon="12.308399006724358">
        <ele>19.359999999999999</ele>
        <time>2017-06-29T09:46:09Z</time>
      </trkpt>
      <trkpt lat="64.465847024694085" lon="12.30200101621449">
        <ele>22.25</ele>
        <time>2017-06-29T09:46:25Z</time>
      </trkpt>
      <trkpt lat="64.464541962370276" lon="12.297791037708521">
        <ele>22.25</ele>
        <time>2017-06-29T09:46:36Z</time>
      </trkpt>
      <trkpt lat="64.463269002735615" lon="12.295355005189776">
        <ele>20.809999999999999</ele>
        <time>2017-06-29T09:46:44Z</time>
      </trkpt>
      <trkpt lat="64.461671998724341" lon="12.293742997571826">
        <ele>19.84</ele>
        <time>2017-06-29T09:46:52Z</time>
      </trkpt>
      <trkpt lat="64.459947003051639" lon="12.293204963207245">
        <ele>21.77</ele>
        <time>2017-06-29T09:47:00Z</time>
      </trkpt>
      <trkpt lat="64.458260983228683" lon="12.293764036148787">
        <ele>24.170000000000002</ele>
        <time>2017-06-29T09:47:08Z</time>
      </trkpt>
      <trkpt lat="64.456761041656137" lon="12.295226007699966">
        <ele>27.530000000000001</ele>
        <time>2017-06-29T09:47:15Z</time>
      </trkpt>
      <trkpt lat="64.455121960490942" lon="12.298097983002663">
        <ele>29.940000000000001</ele>
        <time>2017-06-29T09:47:23Z</time>
      </trkpt>
      <trkpt lat="64.453738024458289" lon="12.299739997833967">
        <ele>31.859999999999999</ele>
        <time>2017-06-29T09:47:29Z</time>
      </trkpt>
      <trkpt lat="64.452204974368215" lon="12.300180969759822">
        <ele>37.630000000000003</ele>
        <time>2017-06-29T09:47:35Z</time>
      </trkpt>
      <trkpt lat="64.450727999210358" lon="12.299439003691077">
        <ele>47.240000000000002</ele>
        <time>2017-06-29T09:47:41Z</time>
      </trkpt>
      <trkpt lat="64.448309987783432" lon="12.29813301935792">
        <ele>60.219999999999999</ele>
        <time>2017-06-29T09:47:51Z</time>
      </trkpt>
      <trkpt lat="64.4465640373528" lon="12.298717992380261">
        <ele>66.950000000000003</ele>
        <time>2017-06-29T09:47:58Z</time>
      </trkpt>
      <trkpt lat="64.444942977279425" lon="12.300658989697695">
        <ele>71.269999999999996</ele>
        <time>2017-06-29T09:48:05Z</time>
      </trkpt>
      <trkpt lat="64.443628024309874" lon="12.303766999393702">
        <ele>73.200000000000003</ele>
        <time>2017-06-29T09:48:12Z</time>
      </trkpt>
      <trkpt lat="64.441660037264228" lon="12.308918014168739">
        <ele>72.239999999999995</ele>
        <time>2017-06-29T09:48:23Z</time>
      </trkpt>
      <trkpt lat="64.439868992194533" lon="12.311826031655073">
        <ele>71.269999999999996</ele>
        <time>2017-06-29T09:48:31Z</time>
      </trkpt>
      <trkpt lat="64.437835039570928" lon="12.31379795819521">
        <ele>69.829999999999998</ele>
        <time>2017-06-29T09:48:39Z</time>
      </trkpt>
      <trkpt lat="64.435636969283223" lon="12.314790040254593">
        <ele>67.909999999999997</ele>
        <time>2017-06-29T09:48:47Z</time>
      </trkpt>
      <trkpt lat="64.433142011985183" lon="12.314973017200828">
        <ele>64.549999999999997</ele>
        <time>2017-06-29T09:48:56Z</time>
      </trkpt>
      <trkpt lat="64.430735986679792" lon="12.315852027386427">
        <ele>62.140000000000001</ele>
        <time>2017-06-29T09:49:05Z</time>
      </trkpt>
      <trkpt lat="64.428215967491269" lon="12.317954041063786">
        <ele>60.219999999999999</ele>
        <time>2017-06-29T09:49:15Z</time>
      </trkpt>
      <trkpt lat="64.425602992996573" lon="12.319865031167865">
        <ele>59.740000000000002</ele>
        <time>2017-06-29T09:49:25Z</time>
      </trkpt>
      <trkpt lat="64.421995002776384" lon="12.322401981800795">
        <ele>70.790000000000006</ele>
        <time>2017-06-29T09:49:39Z</time>
      </trkpt>
      <trkpt lat="64.419159991666675" lon="12.325436985120177">
        <ele>78.969999999999999</ele>
        <time>2017-06-29T09:49:51Z</time>
      </trkpt>
      <trkpt lat="64.41715101711452" lon="12.327002976089716">
        <ele>79.930000000000007</ele>
        <time>2017-06-29T09:49:59Z</time>
      </trkpt>
      <trkpt lat="64.414782039821148" lon="12.327653998509049">
        <ele>78</ele>
        <time>2017-06-29T09:50:08Z</time>
      </trkpt>
      <trkpt lat="64.411373035982251" lon="12.327287960797548">
        <ele>78</ele>
        <time>2017-06-29T09:50:21Z</time>
      </trkpt>
      <trkpt lat="64.407626995816827" lon="12.327180001884699">
        <ele>93.390000000000001</ele>
        <time>2017-06-29T09:50:36Z</time>
      </trkpt>
      <trkpt lat="64.405300011858344" lon="12.326006032526493">
        <ele>104.44</ele>
        <time>2017-06-29T09:50:45Z</time>
      </trkpt>
      <trkpt lat="64.403226999565959" lon="12.325381999835372">
        <ele>114.05</ele>
        <time>2017-06-29T09:50:53Z</time>
      </trkpt>
      <trkpt lat="64.401471996679902" lon="12.326334016397595">
        <ele>123.19</ele>
        <time>2017-06-29T09:51:00Z</time>
      </trkpt>
      <trkpt lat="64.400113960728049" lon="12.328260010108352">
        <ele>133.75999999999999</ele>
        <time>2017-06-29T09:51:06Z</time>
      </trkpt>
      <trkpt lat="64.397323038429022" lon="12.333828024566174">
        <ele>154.91</ele>
        <time>2017-06-29T09:51:20Z</time>
      </trkpt>
      <trkpt lat="64.395008040592074" lon="12.337744971737266">
        <ele>163.08000000000001</ele>
        <time>2017-06-29T09:51:31Z</time>
      </trkpt>
      <trkpt lat="64.392977021634579" lon="12.339696027338505">
        <ele>160.68000000000001</ele>
        <time>2017-06-29T09:51:39Z</time>
      </trkpt>
      <trkpt lat="64.390797978267074" lon="12.340575037524104">
        <ele>158.75</ele>
        <time>2017-06-29T09:51:47Z</time>
      </trkpt>
      <trkpt lat="64.387133996933699" lon="12.341217007488012">
        <ele>167.88999999999999</ele>
        <time>2017-06-29T09:52:01Z</time>
      </trkpt>
      <trkpt lat="64.38475102186203" lon="12.340855998918414">
        <ele>172.69</ele>
        <time>2017-06-29T09:52:10Z</time>
      </trkpt>
      <trkpt lat="64.38232303597033" lon="12.339271986857057">
        <ele>173.66</ele>
        <time>2017-06-29T09:52:19Z</time>
      </trkpt>
      <trkpt lat="64.379333965480328" lon="12.337225964292884">
        <ele>159.72</ele>
        <time>2017-06-29T09:52:30Z</time>
      </trkpt>
      <trkpt lat="64.376749992370605" lon="12.336240001022816">
        <ele>146.74000000000001</ele>
        <time>2017-06-29T09:52:39Z</time>
      </trkpt>
      <trkpt lat="64.374270038679242" lon="12.336707040667534">
        <ele>152.50999999999999</ele>
        <time>2017-06-29T09:52:48Z</time>
      </trkpt>
      <trkpt lat="64.369334019720554" lon="12.336848024278879">
        <ele>174.13999999999999</ele>
        <time>2017-06-29T09:53:06Z</time>
      </trkpt>
      <trkpt lat="64.366015959531069" lon="12.336554992944002">
        <ele>189.03999999999999</ele>
        <time>2017-06-29T09:53:18Z</time>
      </trkpt>
      <trkpt lat="64.363814033567905" lon="12.335211960598826">
        <ele>191.44</ele>
        <time>2017-06-29T09:53:26Z</time>
      </trkpt>
      <trkpt lat="64.361114976927638" lon="12.332439981400967">
        <ele>198.65000000000001</ele>
        <time>2017-06-29T09:53:36Z</time>
      </trkpt>
      <trkpt lat="64.358943980187178" lon="12.331094015389681">
        <ele>212.59</ele>
        <time>2017-06-29T09:53:44Z</time>
      </trkpt>
      <trkpt lat="64.357002982869744" lon="12.331288978457451">
        <ele>218.84</ele>
        <time>2017-06-29T09:53:51Z</time>
      </trkpt>
      <trkpt lat="64.355071038007736" lon="12.332778023555875">
        <ele>220.75999999999999</ele>
        <time>2017-06-29T09:53:58Z</time>
      </trkpt>
      <trkpt lat="64.351922962814569" lon="12.336259027943015">
        <ele>224.12</ele>
        <time>2017-06-29T09:54:10Z</time>
      </trkpt>
      <trkpt lat="64.350306009873748" lon="12.337161004543304">
        <ele>220.28</ele>
        <time>2017-06-29T09:54:17Z</time>
      </trkpt>
      <trkpt lat="64.348752005025744" lon="12.337139965966344">
        <ele>217.88</ele>
        <time>2017-06-29T09:54:23Z</time>
      </trkpt>
      <trkpt lat="64.345952030271292" lon="12.336777029559016">
        <ele>213.55000000000001</ele>
        <time>2017-06-29T09:54:33Z</time>
      </trkpt>
      <trkpt lat="64.343723030760884" lon="12.337156981229782">
        <ele>213.55000000000001</ele>
        <time>2017-06-29T09:54:41Z</time>
      </trkpt>
      <trkpt lat="64.341843975707889" lon="12.336860010400414">
        <ele>212.59</ele>
        <time>2017-06-29T09:54:48Z</time>
      </trkpt>
      <trkpt lat="64.339720001444221" lon="12.335616974160075">
        <ele>211.63</ele>
        <time>2017-06-29T09:54:56Z</time>
      </trkpt>
      <trkpt lat="64.338335981592536" lon="12.335959961637855">
        <ele>212.59</ele>
        <time>2017-06-29T09:55:01Z</time>
      </trkpt>
      <trkpt lat="64.338070023804903" lon="12.336177974939346">
        <ele>213.06999999999999</ele>
        <time>2017-06-29T09:55:02Z</time>
      </trkpt>
      <trkpt lat="64.335655029863119" lon="12.338475035503507">
        <ele>214.50999999999999</ele>
        <time>2017-06-29T09:55:11Z</time>
      </trkpt>
      <trkpt lat="64.333280017599463" lon="12.340501025319099">
        <ele>210.19</ele>
        <time>2017-06-29T09:55:20Z</time>
      </trkpt>
      <trkpt lat="64.331501964479685" lon="12.342204982414842">
        <ele>207.30000000000001</ele>
        <time>2017-06-29T09:55:29Z</time>
      </trkpt>
      <trkpt lat="64.329286040738225" lon="12.343645999208093">
        <ele>200.09</ele>
        <time>2017-06-29T09:55:40Z</time>
      </trkpt>
      <trkpt lat="64.326640041545033" lon="12.344617964699864">
        <ele>190.47999999999999</ele>
        <time>2017-06-29T09:55:52Z</time>
      </trkpt>
      <trkpt lat="64.324669959023595" lon="12.34492801129818">
        <ele>183.75</ele>
        <time>2017-06-29T09:56:01Z</time>
      </trkpt>
      <trkpt lat="64.3225940130651" lon="12.345028007403016">
        <ele>172.69</ele>
        <time>2017-06-29T09:56:09Z</time>
      </trkpt>
      <trkpt lat="64.319766964763403" lon="12.345001017674804">
        <ele>167.88999999999999</ele>
        <time>2017-06-29T09:56:19Z</time>
      </trkpt>
      <trkpt lat="64.318701960146427" lon="12.345540979877114">
        <ele>167.41</ele>
        <time>2017-06-29T09:56:23Z</time>
      </trkpt>
      <trkpt lat="64.318465003743768" lon="12.345776008442044">
        <ele>167.41</ele>
        <time>2017-06-29T09:56:24Z</time>
      </trkpt>
      <trkpt lat="64.317070003598928" lon="12.347225993871689">
        <ele>165</ele>
        <time>2017-06-29T09:56:31Z</time>
      </trkpt>
      <trkpt lat="64.31688099168241" lon="12.347319032996893">
        <ele>164.03999999999999</ele>
        <time>2017-06-29T09:56:32Z</time>
      </trkpt>
      <trkpt lat="64.316689968109131" lon="12.347361026331782">
        <ele>163.56</ele>
        <time>2017-06-29T09:56:33Z</time>
      </trkpt>
      <trkpt lat="64.315685983747244" lon="12.347127003595233">
        <ele>161.63999999999999</ele>
        <time>2017-06-29T09:56:38Z</time>
      </trkpt>
      <trkpt lat="64.315486997365952" lon="12.346967998892069">
        <ele>161.16</ele>
        <time>2017-06-29T09:56:39Z</time>
      </trkpt>
      <trkpt lat="64.313686983659863" lon="12.345868041738868">
        <ele>160.19999999999999</ele>
        <time>2017-06-29T09:56:48Z</time>
      </trkpt>
      <trkpt lat="64.312217971310019" lon="12.346471035853028">
        <ele>162.12</ele>
        <time>2017-06-29T09:56:55Z</time>
      </trkpt>
      <trkpt lat="64.310515020042658" lon="12.347296988591552">
        <ele>164.03999999999999</ele>
        <time>2017-06-29T09:57:02Z</time>
      </trkpt>
      <trkpt lat="64.308997979387641" lon="12.346883006393909">
        <ele>169.33000000000001</ele>
        <time>2017-06-29T09:57:08Z</time>
      </trkpt>
      <trkpt lat="64.307306008413434" lon="12.345126997679472">
        <ele>171.25</ele>
        <time>2017-06-29T09:57:15Z</time>
      </trkpt>
      <trkpt lat="64.305014982819557" lon="12.341639958322048">
        <ele>169.81</ele>
        <time>2017-06-29T09:57:25Z</time>
      </trkpt>
      <trkpt lat="64.30315000936389" lon="12.339486982673407">
        <ele>168.37</ele>
        <time>2017-06-29T09:57:33Z</time>
      </trkpt>
      <trkpt lat="64.301377991214395" lon="12.338691037148237">
        <ele>165.96000000000001</ele>
        <time>2017-06-29T09:57:40Z</time>
      </trkpt>
      <trkpt lat="64.299530033022165" lon="12.338766977190971">
        <ele>166.44999999999999</ele>
        <time>2017-06-29T09:57:48Z</time>
      </trkpt>
      <trkpt lat="64.297656007111073" lon="12.338185021653771">
        <ele>170.28999999999999</ele>
        <time>2017-06-29T09:57:56Z</time>
      </trkpt>
      <trkpt lat="64.296165034174919" lon="12.336490033194423">
        <ele>172.21000000000001</ele>
        <time>2017-06-29T09:58:02Z</time>
      </trkpt>
      <trkpt lat="64.292254960164428" lon="12.331610005348921">
        <ele>169.81</ele>
        <time>2017-06-29T09:58:18Z</time>
      </trkpt>
      <trkpt lat="64.28916597738862" lon="12.329454012215137">
        <ele>173.16999999999999</ele>
        <time>2017-06-29T09:58:30Z</time>
      </trkpt>
      <trkpt lat="64.287217017263174" lon="12.327538998797536">
        <ele>166.44999999999999</ele>
        <time>2017-06-29T09:58:38Z</time>
      </trkpt>
      <trkpt lat="64.285955959931016" lon="12.326033022254705">
        <ele>159.24000000000001</ele>
        <time>2017-06-29T09:58:45Z</time>
      </trkpt>
      <trkpt lat="64.284744020551443" lon="12.323849033564329">
        <ele>151.06</ele>
        <time>2017-06-29T09:58:53Z</time>
      </trkpt>
      <trkpt lat="64.284618962556124" lon="12.323437985032797">
        <ele>150.58000000000001</ele>
        <time>2017-06-29T09:58:54Z</time>
      </trkpt>
      <trkpt lat="64.284516032785177" lon="12.32301402837038">
        <ele>150.09999999999999</ele>
        <time>2017-06-29T09:58:55Z</time>
      </trkpt>
      <trkpt lat="64.284430034458637" lon="12.322591999545693">
        <ele>149.62</ele>
        <time>2017-06-29T09:58:56Z</time>
      </trkpt>
      <trkpt lat="64.283873979002237" lon="12.319045029580593">
        <ele>153.94999999999999</ele>
        <time>2017-06-29T09:59:05Z</time>
      </trkpt>
      <trkpt lat="64.283193033188581" lon="12.316814018413424">
        <ele>155.87</ele>
        <time>2017-06-29T09:59:12Z</time>
      </trkpt>
      <trkpt lat="64.282115958631039" lon="12.315360009670258">
        <ele>150.58000000000001</ele>
        <time>2017-06-29T09:59:19Z</time>
      </trkpt>
      <trkpt lat="64.28063303232193" lon="12.314446968957782">
        <ele>152.99000000000001</ele>
        <time>2017-06-29T09:59:27Z</time>
      </trkpt>
      <trkpt lat="64.279561992734671" lon="12.312842002138495">
        <ele>152.99000000000001</ele>
        <time>2017-06-29T09:59:33Z</time>
      </trkpt>
      <trkpt lat="64.278093986213207" lon="12.309214984998107">
        <ele>150.09999999999999</ele>
        <time>2017-06-29T09:59:41Z</time>
      </trkpt>
      <trkpt lat="64.277531979605556" lon="12.308116033673286">
        <ele>151.06</ele>
        <time>2017-06-29T09:59:44Z</time>
      </trkpt>
      <trkpt lat="64.277328969910741" lon="12.307834988459945">
        <ele>151.06</ele>
        <time>2017-06-29T09:59:45Z</time>
      </trkpt>
      <trkpt lat="64.276051986962557" lon="12.306325994431973">
        <ele>147.69999999999999</ele>
        <time>2017-06-29T09:59:52Z</time>
      </trkpt>
      <trkpt lat="64.274806017056108" lon="12.304304027929902">
        <ele>149.62</ele>
        <time>2017-06-29T10:00:00Z</time>
      </trkpt>
      <trkpt lat="64.273218987509608" lon="12.300650021061301">
        <ele>150.58000000000001</ele>
        <time>2017-06-29T10:00:12Z</time>
      </trkpt>
      <trkpt lat="64.271837985143065" lon="12.298761997371912">
        <ele>141.93000000000001</ele>
        <time>2017-06-29T10:00:20Z</time>
      </trkpt>
      <trkpt lat="64.270384982228279" lon="12.296784035861492">
        <ele>129.43000000000001</ele>
        <time>2017-06-29T10:00:28Z</time>
      </trkpt>
      <trkpt lat="64.26922501064837" lon="12.293688012287021">
        <ele>114.53</ele>
        <time>2017-06-29T10:00:35Z</time>
      </trkpt>
      <trkpt lat="64.268311969935894" lon="12.290790975093842">
        <ele>102.52</ele>
        <time>2017-06-29T10:00:42Z</time>
      </trkpt>
      <trkpt lat="64.268235024064779" lon="12.29031496681273">
        <ele>100.59999999999999</ele>
        <time>2017-06-29T10:00:43Z</time>
      </trkpt>
      <trkpt lat="64.268175009638071" lon="12.289830995723605">
        <ele>99.150000000000006</ele>
        <time>2017-06-29T10:00:44Z</time>
      </trkpt>
      <trkpt lat="64.26813100464642" lon="12.289350964128971">
        <ele>97.709999999999994</ele>
        <time>2017-06-29T10:00:45Z</time>
      </trkpt>
      <trkpt lat="64.268104014918208" lon="12.288876967504621">
        <ele>95.790000000000006</ele>
        <time>2017-06-29T10:00:46Z</time>
      </trkpt>
      <trkpt lat="64.268091022968292" lon="12.288390984758735">
        <ele>94.349999999999994</ele>
        <time>2017-06-29T10:00:47Z</time>
      </trkpt>
      <trkpt lat="64.268094040453434" lon="12.287896033376455">
        <ele>92.900000000000006</ele>
        <time>2017-06-29T10:00:48Z</time>
      </trkpt>
      <trkpt lat="64.26811097189784" lon="12.287394041195512">
        <ele>91.459999999999994</ele>
        <time>2017-06-29T10:00:49Z</time>
      </trkpt>
      <trkpt lat="64.268300989642739" lon="12.283142991364002">
        <ele>82.329999999999998</ele>
        <time>2017-06-29T10:00:58Z</time>
      </trkpt>
      <trkpt lat="64.267990021035075" lon="12.279775980859995">
        <ele>74.640000000000001</ele>
        <time>2017-06-29T10:01:06Z</time>
      </trkpt>
      <trkpt lat="64.267190974205732" lon="12.276753969490528">
        <ele>65.510000000000005</ele>
        <time>2017-06-29T10:01:14Z</time>
      </trkpt>
      <trkpt lat="64.266121024265885" lon="12.273543030023575">
        <ele>56.369999999999997</ele>
        <time>2017-06-29T10:01:22Z</time>
      </trkpt>
      <trkpt lat="64.263913985341787" lon="12.266741031780839">
        <ele>27.530000000000001</ele>
        <time>2017-06-29T10:01:38Z</time>
      </trkpt>
      <trkpt lat="64.262020010501146" lon="12.260261988267303">
        <ele>20.809999999999999</ele>
        <time>2017-06-29T10:01:53Z</time>
      </trkpt>
      <trkpt lat="64.26132095977664" lon="12.254810985177755">
        <ele>20.32</ele>
        <time>2017-06-29T10:02:03Z</time>
      </trkpt>
      <trkpt lat="64.260835982859135" lon="12.2475990280509">
        <ele>20.809999999999999</ele>
        <time>2017-06-29T10:02:16Z</time>
      </trkpt>
      <trkpt lat="64.260737998411059" lon="12.243303973227739">
        <ele>21.77</ele>
        <time>2017-06-29T10:02:24Z</time>
      </trkpt>
      <trkpt lat="64.260412026196718" lon="12.240172997117043">
        <ele>20.809999999999999</ele>
        <time>2017-06-29T10:02:30Z</time>
      </trkpt>
      <trkpt lat="64.259813977405429" lon="12.236551009118557">
        <ele>20.32</ele>
        <time>2017-06-29T10:02:37Z</time>
      </trkpt>
      <trkpt lat="64.258286962285638" lon="12.230602037161589">
        <ele>18.879999999999999</ele>
        <time>2017-06-29T10:02:49Z</time>
      </trkpt>
      <trkpt lat="64.257767032831907" lon="12.228738991543651">
        <ele>21.289999999999999</ele>
        <time>2017-06-29T10:02:53Z</time>
      </trkpt>
      <trkpt lat="64.257677011191845" lon="12.228233981877565">
        <ele>22.25</ele>
        <time>2017-06-29T10:02:54Z</time>
      </trkpt>
      <trkpt lat="64.256973015144467" lon="12.223953008651733">
        <ele>21.77</ele>
        <time>2017-06-29T10:03:02Z</time>
      </trkpt>
      <trkpt lat="64.25566996447742" lon="12.218935014680028">
        <ele>21.289999999999999</ele>
        <time>2017-06-29T10:03:12Z</time>
      </trkpt>
      <trkpt lat="64.254621975123882" lon="12.216483978554606">
        <ele>27.050000000000001</ele>
        <time>2017-06-29T10:03:18Z</time>
      </trkpt>
      <trkpt lat="64.253731984645128" lon="12.214263025671244">
        <ele>34.259999999999998</ele>
        <time>2017-06-29T10:03:24Z</time>
      </trkpt>
      <trkpt lat="64.252347964793444" lon="12.208860972896218">
        <ele>42.439999999999998</ele>
        <time>2017-06-29T10:03:36Z</time>
      </trkpt>
      <trkpt lat="64.251787969842553" lon="12.20557602122426">
        <ele>50.609999999999999</ele>
        <time>2017-06-29T10:03:43Z</time>
      </trkpt>
      <trkpt lat="64.251765003427863" lon="12.2051059640944">
        <ele>52.530000000000001</ele>
        <time>2017-06-29T10:03:44Z</time>
      </trkpt>
      <trkpt lat="64.251705994829535" lon="12.204167023301125">
        <ele>55.409999999999997</ele>
        <time>2017-06-29T10:03:46Z</time>
      </trkpt>
      <trkpt lat="64.25165000371635" lon="12.203725967556238">
        <ele>56.369999999999997</ele>
        <time>2017-06-29T10:03:47Z</time>
      </trkpt>
      <trkpt lat="64.251570040360093" lon="12.203307040035725">
        <ele>57.82</ele>
        <time>2017-06-29T10:03:48Z</time>
      </trkpt>
      <trkpt lat="64.251469038426876" lon="12.20288903452456">
        <ele>58.780000000000001</ele>
        <time>2017-06-29T10:03:49Z</time>
      </trkpt>
      <trkpt lat="64.251357978209853" lon="12.202478991821408">
        <ele>59.740000000000002</ele>
        <time>2017-06-29T10:03:50Z</time>
      </trkpt>
      <trkpt lat="64.250900996848941" lon="12.200364992022514">
        <ele>62.140000000000001</ele>
        <time>2017-06-29T10:03:56Z</time>
      </trkpt>
      <trkpt lat="64.250422976911068" lon="12.197131002321839">
        <ele>62.140000000000001</ele>
        <time>2017-06-29T10:04:04Z</time>
      </trkpt>
      <trkpt lat="64.249901035800576" lon="12.193173989653587">
        <ele>57.340000000000003</ele>
        <time>2017-06-29T10:04:12Z</time>
      </trkpt>
      <trkpt lat="64.248912977054715" lon="12.189187975600362">
        <ele>63.579999999999998</ele>
        <time>2017-06-29T10:04:21Z</time>
      </trkpt>
      <trkpt lat="64.24877199344337" lon="12.188825961202383">
        <ele>64.069999999999993</ele>
        <time>2017-06-29T10:04:22Z</time>
      </trkpt>
      <trkpt lat="64.248613994568586" lon="12.188488002866507">
        <ele>65.030000000000001</ele>
        <time>2017-06-29T10:04:23Z</time>
      </trkpt>
      <trkpt lat="64.24844903871417" lon="12.188174016773701">
        <ele>65.510000000000005</ele>
        <time>2017-06-29T10:04:24Z</time>
      </trkpt>
      <trkpt lat="64.248270001262426" lon="12.187877967953682">
        <ele>65.989999999999995</ele>
        <time>2017-06-29T10:04:25Z</time>
      </trkpt>
      <trkpt lat="64.246977008879185" lon="12.185746030882001">
        <ele>64.069999999999993</ele>
        <time>2017-06-29T10:04:32Z</time>
      </trkpt>
      <trkpt lat="64.246820015832782" lon="12.185325007885695">
        <ele>63.579999999999998</ele>
        <time>2017-06-29T10:04:33Z</time>
      </trkpt>
      <trkpt lat="64.246679032221437" lon="12.184872971847653">
        <ele>62.619999999999997</ele>
        <time>2017-06-29T10:04:34Z</time>
      </trkpt>
      <trkpt lat="64.246541988104582" lon="12.184410039335489">
        <ele>61.659999999999997</ele>
        <time>2017-06-29T10:04:35Z</time>
      </trkpt>
      <trkpt lat="64.246417013928294" lon="12.183927996084094">
        <ele>59.740000000000002</ele>
        <time>2017-06-29T10:04:36Z</time>
      </trkpt>
      <trkpt lat="64.24511999823153" lon="12.178121013566852">
        <ele>49.159999999999997</ele>
        <time>2017-06-29T10:04:47Z</time>
      </trkpt>
      <trkpt lat="64.244597973302007" lon="12.174505982547998">
        <ele>46.759999999999998</ele>
        <time>2017-06-29T10:04:54Z</time>
      </trkpt>
      <trkpt lat="64.244364034384489" lon="12.170314025133848">
        <ele>51.57</ele>
        <time>2017-06-29T10:05:02Z</time>
      </trkpt>
      <trkpt lat="64.24427904188633" lon="12.169822007417679">
        <ele>52.530000000000001</ele>
        <time>2017-06-29T10:05:03Z</time>
      </trkpt>
      <trkpt lat="64.244175022467971" lon="12.169338958337903">
        <ele>54.450000000000003</ele>
        <time>2017-06-29T10:05:04Z</time>
      </trkpt>
      <trkpt lat="64.244050970301032" lon="12.168888011947274">
        <ele>55.890000000000001</ele>
        <time>2017-06-29T10:05:05Z</time>
      </trkpt>
      <trkpt lat="64.243903029710054" lon="12.168469000607729">
        <ele>57.340000000000003</ele>
        <time>2017-06-29T10:05:06Z</time>
      </trkpt>
      <trkpt lat="64.243748970329762" lon="12.168073961511254">
        <ele>58.780000000000001</ele>
        <time>2017-06-29T10:05:07Z</time>
      </trkpt>
      <trkpt lat="64.242211980745196" lon="12.164224991574883">
        <ele>70.790000000000006</ele>
        <time>2017-06-29T10:05:17Z</time>
      </trkpt>
      <trkpt lat="64.241602029651403" lon="12.160811964422464">
        <ele>73.680000000000007</ele>
        <time>2017-06-29T10:05:24Z</time>
      </trkpt>
      <trkpt lat="64.24120900221169" lon="12.155159963294864">
        <ele>75.120000000000005</ele>
        <time>2017-06-29T10:05:34Z</time>
      </trkpt>
      <trkpt lat="64.2404780164361" lon="12.150044990703464">
        <ele>87.620000000000005</ele>
        <time>2017-06-29T10:05:44Z</time>
      </trkpt>
      <trkpt lat="64.238943960517645" lon="12.141790995374322">
        <ele>108.29000000000001</ele>
        <time>2017-06-29T10:06:00Z</time>
      </trkpt>
      <trkpt lat="64.237137995660305" lon="12.130602998659015">
        <ele>127.98999999999999</ele>
        <time>2017-06-29T10:06:21Z</time>
      </trkpt>
      <trkpt lat="64.23562497831881" lon="12.122252024710178">
        <ele>140.97</ele>
        <time>2017-06-29T10:06:36Z</time>
      </trkpt>
      <trkpt lat="64.233948010951281" lon="12.114075981080532">
        <ele>129.43000000000001</ele>
        <time>2017-06-29T10:06:50Z</time>
      </trkpt>
      <trkpt lat="64.232704974710941" lon="12.108189035207033">
        <ele>129.91999999999999</ele>
        <time>2017-06-29T10:07:01Z</time>
      </trkpt>
      <trkpt lat="64.231976000592113" lon="12.103268019855022">
        <ele>127.03</ele>
        <time>2017-06-29T10:07:10Z</time>
      </trkpt>
      <trkpt lat="64.231394967064261" lon="12.097679972648621">
        <ele>125.11</ele>
        <time>2017-06-29T10:07:21Z</time>
      </trkpt>
      <trkpt lat="64.231194974854589" lon="12.095674015581608">
        <ele>126.06999999999999</ele>
        <time>2017-06-29T10:07:25Z</time>
      </trkpt>
      <trkpt lat="64.23111098818481" lon="12.095216028392315">
        <ele>126.06999999999999</ele>
        <time>2017-06-29T10:07:26Z</time>
      </trkpt>
      <trkpt lat="64.231004035100341" lon="12.094784025102854">
        <ele>126.55</ele>
        <time>2017-06-29T10:07:27Z</time>
      </trkpt>
      <trkpt lat="64.230878977105021" lon="12.09437096491456">
        <ele>126.55</ele>
        <time>2017-06-29T10:07:28Z</time>
      </trkpt>
      <trkpt lat="64.23072500154376" lon="12.093964023515582">
        <ele>127.51000000000001</ele>
        <time>2017-06-29T10:07:29Z</time>
      </trkpt>
      <trkpt lat="64.23029400408268" lon="12.09273599088192">
        <ele>128.94999999999999</ele>
        <time>2017-06-29T10:07:32Z</time>
      </trkpt>
      <trkpt lat="64.23016500659287" lon="12.09226400591433">
        <ele>129.43000000000001</ele>
        <time>2017-06-29T10:07:33Z</time>
      </trkpt>
      <trkpt lat="64.230053024366498" lon="12.091772994026542">
        <ele>129.43000000000001</ele>
        <time>2017-06-29T10:07:34Z</time>
      </trkpt>
      <trkpt lat="64.22917996533215" lon="12.08768798969686">
        <ele>130.40000000000001</ele>
        <time>2017-06-29T10:07:42Z</time>
      </trkpt>
      <trkpt lat="64.22829600982368" lon="12.083569038659334">
        <ele>128.94999999999999</ele>
        <time>2017-06-29T10:07:50Z</time>
      </trkpt>
      <trkpt lat="64.228171035647392" lon="12.08306604065001">
        <ele>128.94999999999999</ele>
        <time>2017-06-29T10:07:51Z</time>
      </trkpt>
      <trkpt lat="64.228026028722525" lon="12.082602018490434">
        <ele>128.94999999999999</ele>
        <time>2017-06-29T10:07:52Z</time>
      </trkpt>
      <trkpt lat="64.227863000705838" lon="12.082174960523844">
        <ele>129.43000000000001</ele>
        <time>2017-06-29T10:07:53Z</time>
      </trkpt>
      <trkpt lat="64.227679017931223" lon="12.081782016903162">
        <ele>129.43000000000001</ele>
        <time>2017-06-29T10:07:54Z</time>
      </trkpt>
      <trkpt lat="64.227480031549931" lon="12.081440035253763">
        <ele>129.91999999999999</ele>
        <time>2017-06-29T10:07:55Z</time>
      </trkpt>
      <trkpt lat="64.227279033511877" lon="12.081121020019054">
        <ele>130.40000000000001</ele>
        <time>2017-06-29T10:07:56Z</time>
      </trkpt>
      <trkpt lat="64.227065965533257" lon="12.080835029482841">
        <ele>130.40000000000001</ele>
        <time>2017-06-29T10:07:57Z</time>
      </trkpt>
      <trkpt lat="64.226855998858809" lon="12.080564964562654">
        <ele>131.36000000000001</ele>
        <time>2017-06-29T10:07:58Z</time>
      </trkpt>
      <trkpt lat="64.225714970380068" lon="12.078692028298974">
        <ele>133.28</ele>
        <time>2017-06-29T10:08:04Z</time>
      </trkpt>
      <trkpt lat="64.225557977333665" lon="12.078299000859261">
        <ele>133.28</ele>
        <time>2017-06-29T10:08:05Z</time>
      </trkpt>
      <trkpt lat="64.22541699372232" lon="12.077870015054941">
        <ele>133.28</ele>
        <time>2017-06-29T10:08:06Z</time>
      </trkpt>
      <trkpt lat="64.225281039252877" lon="12.077446980401874">
        <ele>133.28</ele>
        <time>2017-06-29T10:08:07Z</time>
      </trkpt>
      <trkpt lat="64.225163022056222" lon="12.076988993212581">
        <ele>132.80000000000001</ele>
        <time>2017-06-29T10:08:08Z</time>
      </trkpt>
      <trkpt lat="64.225054979324341" lon="12.076518014073372">
        <ele>132.80000000000001</ele>
        <time>2017-06-29T10:08:09Z</time>
      </trkpt>
      <trkpt lat="64.224962024018168" lon="12.076036976650357">
        <ele>132.31999999999999</ele>
        <time>2017-06-29T10:08:10Z</time>
      </trkpt>
      <trkpt lat="64.224883988499641" lon="12.075538001954556">
        <ele>131.84</ele>
        <time>2017-06-29T10:08:11Z</time>
      </trkpt>
      <trkpt lat="64.224819028750062" lon="12.074993010610342">
        <ele>131.36000000000001</ele>
        <time>2017-06-29T10:08:12Z</time>
      </trkpt>
      <trkpt lat="64.224761025980115" lon="12.074443995952606">
        <ele>130.40000000000001</ele>
        <time>2017-06-29T10:08:13Z</time>
      </trkpt>
      <trkpt lat="64.224219974130392" lon="12.068687975406647">
        <ele>115.98</ele>
        <time>2017-06-29T10:08:23Z</time>
      </trkpt>
      <trkpt lat="64.223268963396549" lon="12.064475985243917">
        <ele>102.04000000000001</ele>
        <time>2017-06-29T10:08:31Z</time>
      </trkpt>
      <trkpt lat="64.222569996491075" lon="12.060358040034771">
        <ele>89.060000000000002</ele>
        <time>2017-06-29T10:08:39Z</time>
      </trkpt>
      <trkpt lat="64.222349971532822" lon="12.055914960801601">
        <ele>76.560000000000002</ele>
        <time>2017-06-29T10:08:47Z</time>
      </trkpt>
      <trkpt lat="64.221993992105126" lon="12.051524017006159">
        <ele>64.549999999999997</ele>
        <time>2017-06-29T10:08:55Z</time>
      </trkpt>
      <trkpt lat="64.221153035759926" lon="12.048281980678439">
        <ele>60.219999999999999</ele>
        <time>2017-06-29T10:09:02Z</time>
      </trkpt>
      <trkpt lat="64.219706989824772" lon="12.044849004596472">
        <ele>58.299999999999997</ele>
        <time>2017-06-29T10:09:11Z</time>
      </trkpt>
      <trkpt lat="64.217591984197497" lon="12.042188001796603">
        <ele>53.009999999999998</ele>
        <time>2017-06-29T10:09:21Z</time>
      </trkpt>
      <trkpt lat="64.215716030448675" lon="12.041147975251079">
        <ele>58.780000000000001</ele>
        <time>2017-06-29T10:09:29Z</time>
      </trkpt>
      <trkpt lat="64.213633965700865" lon="12.04014097340405">
        <ele>50.130000000000003</ele>
        <time>2017-06-29T10:09:38Z</time>
      </trkpt>
      <trkpt lat="64.213440008461475" lon="12.039909968152642">
        <ele>48.68</ele>
        <time>2017-06-29T10:09:39Z</time>
      </trkpt>
      <trkpt lat="64.213054021820426" lon="12.039350979030132">
        <ele>46.759999999999998</ele>
        <time>2017-06-29T10:09:41Z</time>
      </trkpt>
      <trkpt lat="64.212870039045811" lon="12.039010003209114">
        <ele>45.799999999999997</ele>
        <time>2017-06-29T10:09:42Z</time>
      </trkpt>
      <trkpt lat="64.21119399368763" lon="12.035131026059389">
        <ele>47.719999999999999</ele>
        <time>2017-06-29T10:09:52Z</time>
      </trkpt>
      <trkpt lat="64.209276968613267" lon="12.03008696436882">
        <ele>45.799999999999997</ele>
        <time>2017-06-29T10:10:05Z</time>
      </trkpt>
      <trkpt lat="64.208511030301452" lon="12.026120983064175">
        <ele>35.710000000000001</ele>
        <time>2017-06-29T10:10:13Z</time>
      </trkpt>
      <trkpt lat="64.207650041207671" lon="12.018067985773087">
        <ele>27.050000000000001</ele>
        <time>2017-06-29T10:10:28Z</time>
      </trkpt>
      <trkpt lat="64.207092979922891" lon="12.0133270137012">
        <ele>27.050000000000001</ele>
        <time>2017-06-29T10:10:37Z</time>
      </trkpt>
      <trkpt lat="64.20607902109623" lon="12.008152026683092">
        <ele>31.859999999999999</ele>
        <time>2017-06-29T10:10:48Z</time>
      </trkpt>
      <trkpt lat="64.205941976979375" lon="12.007735027000308">
        <ele>31.859999999999999</ele>
        <time>2017-06-29T10:10:49Z</time>
      </trkpt>
      <trkpt lat="64.205791018903255" lon="12.007338982075453">
        <ele>31.859999999999999</ele>
        <time>2017-06-29T10:10:50Z</time>
      </trkpt>
      <trkpt lat="64.205622039735317" lon="12.006962969899178">
        <ele>31.859999999999999</ele>
        <time>2017-06-29T10:10:51Z</time>
      </trkpt>
      <trkpt lat="64.205440990626812" lon="12.006614031270146">
        <ele>31.859999999999999</ele>
        <time>2017-06-29T10:10:52Z</time>
      </trkpt>
      <trkpt lat="64.205246027559042" lon="12.006285041570663">
        <ele>31.379999999999999</ele>
        <time>2017-06-29T10:10:53Z</time>
      </trkpt>
      <trkpt lat="64.203336965292692" lon="12.002772018313408">
        <ele>36.189999999999998</ele>
        <time>2017-06-29T10:11:03Z</time>
      </trkpt>
      <trkpt lat="64.202269027009606" lon="11.999197974801064">
        <ele>46.759999999999998</ele>
        <time>2017-06-29T10:11:11Z</time>
      </trkpt>
      <trkpt lat="64.201178038492799" lon="11.995609011501074">
        <ele>53.009999999999998</ele>
        <time>2017-06-29T10:11:19Z</time>
      </trkpt>
      <trkpt lat="64.199665021151304" lon="11.991078006103635">
        <ele>59.740000000000002</ele>
        <time>2017-06-29T10:11:29Z</time>
      </trkpt>
      <trkpt lat="64.198832027614117" lon="11.986764008179307">
        <ele>56.369999999999997</ele>
        <time>2017-06-29T10:11:37Z</time>
      </trkpt>
      <trkpt lat="64.197932984679937" lon="11.979472003877163">
        <ele>62.140000000000001</ele>
        <time>2017-06-29T10:11:50Z</time>
      </trkpt>
      <trkpt lat="64.196889018639922" lon="11.972710993140936">
        <ele>51.57</ele>
        <time>2017-06-29T10:12:02Z</time>
      </trkpt>
      <trkpt lat="64.196318965405226" lon="11.96898297406733">
        <ele>43.880000000000003</ele>
        <time>2017-06-29T10:12:09Z</time>
      </trkpt>
      <trkpt lat="64.195812027901411" lon="11.965246992185712">
        <ele>42.439999999999998</ele>
        <time>2017-06-29T10:12:16Z</time>
      </trkpt>
      <trkpt lat="64.194976016879082" lon="11.959815016016364">
        <ele>41.950000000000003</ele>
        <time>2017-06-29T10:12:26Z</time>
      </trkpt>
      <trkpt lat="64.194644009694457" lon="11.95520899258554">
        <ele>40.509999999999998</ele>
        <time>2017-06-29T10:12:34Z</time>
      </trkpt>
      <trkpt lat="64.19415601529181" lon="11.950164008885622">
        <ele>30.899999999999999</ele>
        <time>2017-06-29T10:12:43Z</time>
      </trkpt>
      <trkpt lat="64.193023033440113" lon="11.94223104044795">
        <ele>24.649999999999999</ele>
        <time>2017-06-29T10:12:58Z</time>
      </trkpt>
      <trkpt lat="64.192314008250833" lon="11.935728024691343">
        <ele>29.460000000000001</ele>
        <time>2017-06-29T10:13:10Z</time>
      </trkpt>
      <trkpt lat="64.191572964191437" lon="11.929435981437564">
        <ele>36.189999999999998</ele>
        <time>2017-06-29T10:13:22Z</time>
      </trkpt>
      <trkpt lat="64.190796967595816" lon="11.925822962075472">
        <ele>29.940000000000001</ele>
        <time>2017-06-29T10:13:29Z</time>
      </trkpt>
      <trkpt lat="64.190104035660625" lon="11.92263700067997">
        <ele>32.82</ele>
        <time>2017-06-29T10:13:35Z</time>
      </trkpt>
      <trkpt lat="64.188565034419298" lon="11.918951980769634">
        <ele>49.159999999999997</ele>
        <time>2017-06-29T10:13:44Z</time>
      </trkpt>
      <trkpt lat="64.187051011249423" lon="11.914570005610585">
        <ele>57.82</ele>
        <time>2017-06-29T10:13:54Z</time>
      </trkpt>
      <trkpt lat="64.186602998524904" lon="11.911492003127933">
        <ele>62.619999999999997</ele>
        <time>2017-06-29T10:14:00Z</time>
      </trkpt>
      <trkpt lat="64.185686018317938" lon="11.904935007914901">
        <ele>62.619999999999997</ele>
        <time>2017-06-29T10:14:12Z</time>
      </trkpt>
      <trkpt lat="64.184378022328019" lon="11.896568024531007">
        <ele>64.549999999999997</ele>
        <time>2017-06-29T10:14:28Z</time>
      </trkpt>
      <trkpt lat="64.183052005246282" lon="11.89225897192955">
        <ele>55.409999999999997</ele>
        <time>2017-06-29T10:14:38Z</time>
      </trkpt>
      <trkpt lat="64.182266034185886" lon="11.889763008803129">
        <ele>52.530000000000001</ele>
        <time>2017-06-29T10:14:44Z</time>
      </trkpt>
      <trkpt lat="64.182119015604258" lon="11.889432007446885">
        <ele>52.530000000000001</ele>
        <time>2017-06-29T10:14:45Z</time>
      </trkpt>
      <trkpt lat="64.181956993415952" lon="11.889133024960756">
        <ele>53.009999999999998</ele>
        <time>2017-06-29T10:14:46Z</time>
      </trkpt>
      <trkpt lat="64.181790025904775" lon="11.88886396586895">
        <ele>52.530000000000001</ele>
        <time>2017-06-29T10:14:47Z</time>
      </trkpt>
      <trkpt lat="64.181620040908456" lon="11.888617035001516">
        <ele>52.530000000000001</ele>
        <time>2017-06-29T10:14:48Z</time>
      </trkpt>
      <trkpt lat="64.180498961359262" lon="11.886350987479091">
        <ele>54.93</ele>
        <time>2017-06-29T10:14:56Z</time>
      </trkpt>
      <trkpt lat="64.180025970563293" lon="11.883656959980726">
        <ele>55.890000000000001</ele>
        <time>2017-06-29T10:15:03Z</time>
      </trkpt>
      <trkpt lat="64.179385006427765" lon="11.879015984013677">
        <ele>65.989999999999995</ele>
        <time>2017-06-29T10:15:15Z</time>
      </trkpt>
      <trkpt lat="64.178369035944343" lon="11.874984037131071">
        <ele>78</ele>
        <time>2017-06-29T10:15:25Z</time>
      </trkpt>
      <trkpt lat="64.178018001839519" lon="11.871875021606684">
        <ele>88.579999999999998</ele>
        <time>2017-06-29T10:15:32Z</time>
      </trkpt>
      <trkpt lat="64.178136019036174" lon="11.869041016325355">
        <ele>98.189999999999998</ele>
        <time>2017-06-29T10:15:38Z</time>
      </trkpt>
      <trkpt lat="64.178819982334971" lon="11.865106970071793">
        <ele>106.36</ele>
        <time>2017-06-29T10:15:47Z</time>
      </trkpt>
      <trkpt lat="64.179773004725575" lon="11.862575970590115">
        <ele>105.88</ele>
        <time>2017-06-29T10:15:54Z</time>
      </trkpt>
      <trkpt lat="64.180619996041059" lon="11.859796028584242">
        <ele>103.95999999999999</ele>
        <time>2017-06-29T10:16:01Z</time>
      </trkpt>
      <trkpt lat="64.180903974920511" lon="11.856974009424448">
        <ele>97.230000000000004</ele>
        <time>2017-06-29T10:16:07Z</time>
      </trkpt>
      <trkpt lat="64.180885031819344" lon="11.855932977050543">
        <ele>93.870000000000005</ele>
        <time>2017-06-29T10:16:09Z</time>
      </trkpt>
      <trkpt lat="64.18047096580267" lon="11.852372009307146">
        <ele>89.060000000000002</ele>
        <time>2017-06-29T10:16:15Z</time>
      </trkpt>
      <trkpt lat="64.179992023855448" lon="11.848327992483974">
        <ele>94.349999999999994</ele>
        <time>2017-06-29T10:16:22Z</time>
      </trkpt>
      <trkpt lat="64.179480979219079" lon="11.843568999320269">
        <ele>93.870000000000005</ele>
        <time>2017-06-29T10:16:30Z</time>
      </trkpt>
      <trkpt lat="64.178717974573374" lon="11.83912399224937">
        <ele>82.329999999999998</ele>
        <time>2017-06-29T10:16:38Z</time>
      </trkpt>
      <trkpt lat="64.178565004840493" lon="11.835032030940056">
        <ele>75.599999999999994</ele>
        <time>2017-06-29T10:16:45Z</time>
      </trkpt>
      <trkpt lat="64.178200978785753" lon="11.831266963854432">
        <ele>67.430000000000007</ele>
        <time>2017-06-29T10:16:52Z</time>
      </trkpt>
      <trkpt lat="64.177106972783804" lon="11.824827985838056">
        <ele>59.259999999999998</ele>
        <time>2017-06-29T10:17:05Z</time>
      </trkpt>
      <trkpt lat="64.176138024777174" lon="11.822638968005776">
        <ele>54.450000000000003</ele>
        <time>2017-06-29T10:17:11Z</time>
      </trkpt>
      <trkpt lat="64.174663983285427" lon="11.821104995906353">
        <ele>51.57</ele>
        <time>2017-06-29T10:17:18Z</time>
      </trkpt>
      <trkpt lat="64.173043007031083" lon="11.820741975679994">
        <ele>56.859999999999999</ele>
        <time>2017-06-29T10:17:25Z</time>
      </trkpt>
      <trkpt lat="64.170692972838879" lon="11.821224018931389">
        <ele>72.719999999999999</ele>
        <time>2017-06-29T10:17:35Z</time>
      </trkpt>
      <trkpt lat="64.170010015368462" lon="11.821053028106689">
        <ele>77.040000000000006</ele>
        <time>2017-06-29T10:17:38Z</time>
      </trkpt>
      <trkpt lat="64.168735966086388" lon="11.819756012409925">
        <ele>86.180000000000007</ele>
        <time>2017-06-29T10:17:44Z</time>
      </trkpt>
      <trkpt lat="64.167733993381262" lon="11.817405978217721">
        <ele>94.349999999999994</ele>
        <time>2017-06-29T10:17:50Z</time>
      </trkpt>
      <trkpt lat="64.167507011443377" lon="11.816432001069188">
        <ele>97.709999999999994</ele>
        <time>2017-06-29T10:17:52Z</time>
      </trkpt>
      <trkpt lat="64.167420007288456" lon="11.815921040251851">
        <ele>98.189999999999998</ele>
        <time>2017-06-29T10:17:53Z</time>
      </trkpt>
      <trkpt lat="64.167351024225354" lon="11.815395997837186">
        <ele>99.629999999999995</ele>
        <time>2017-06-29T10:17:54Z</time>
      </trkpt>
      <trkpt lat="64.167224960401654" lon="11.812086990103126">
        <ele>106.84</ele>
        <time>2017-06-29T10:18:00Z</time>
      </trkpt>
      <trkpt lat="64.167565014213324" lon="11.804568003863096">
        <ele>107.31999999999999</ele>
        <time>2017-06-29T10:18:13Z</time>
      </trkpt>
      <trkpt lat="64.167753020301461" lon="11.797372978180647">
        <ele>107.81</ele>
        <time>2017-06-29T10:18:26Z</time>
      </trkpt>
      <trkpt lat="64.167288998141885" lon="11.79441299289465">
        <ele>107.31999999999999</ele>
        <time>2017-06-29T10:18:32Z</time>
      </trkpt>
      <trkpt lat="64.166361959651113" lon="11.7920480389148">
        <ele>105.88</ele>
        <time>2017-06-29T10:18:38Z</time>
      </trkpt>
      <trkpt lat="64.163686959072948" lon="11.787219978868961">
        <ele>106.84</ele>
        <time>2017-06-29T10:18:52Z</time>
      </trkpt>
      <trkpt lat="64.161874037235975" lon="11.782623007893562">
        <ele>104.44</ele>
        <time>2017-06-29T10:19:03Z</time>
      </trkpt>
      <trkpt lat="64.159831032156944" lon="11.776565993204713">
        <ele>100.11</ele>
        <time>2017-06-29T10:19:17Z</time>
      </trkpt>
      <trkpt lat="64.15864197537303" lon="11.772379986941814">
        <ele>97.230000000000004</ele>
        <time>2017-06-29T10:19:26Z</time>
      </trkpt>
      <trkpt lat="64.158464027568698" lon="11.772014033049345">
        <ele>97.230000000000004</ele>
        <time>2017-06-29T10:19:27Z</time>
      </trkpt>
      <trkpt lat="64.158274009823799" lon="11.77168495953083">
        <ele>97.230000000000004</ele>
        <time>2017-06-29T10:19:28Z</time>
      </trkpt>
      <trkpt lat="64.158072005957365" lon="11.771401986479759">
        <ele>97.230000000000004</ele>
        <time>2017-06-29T10:19:29Z</time>
      </trkpt>
      <trkpt lat="64.157862039282918" lon="11.771158995106816">
        <ele>97.230000000000004</ele>
        <time>2017-06-29T10:19:30Z</time>
      </trkpt>
      <trkpt lat="64.157643020153046" lon="11.770946010947227">
        <ele>97.230000000000004</ele>
        <time>2017-06-29T10:19:31Z</time>
      </trkpt>
      <trkpt lat="64.15741603821516" lon="11.770748030394316">
        <ele>97.230000000000004</ele>
        <time>2017-06-29T10:19:32Z</time>
      </trkpt>
      <trkpt lat="64.153021993115544" lon="11.767116989940405">
        <ele>99.629999999999995</ele>
        <time>2017-06-29T10:19:51Z</time>
      </trkpt>
      <trkpt lat="64.150205003097653" lon="11.764239985495806">
        <ele>103.95999999999999</ele>
        <time>2017-06-29T10:20:04Z</time>
      </trkpt>
      <trkpt lat="64.148082034662366" lon="11.761943008750677">
        <ele>105.88</ele>
        <time>2017-06-29T10:20:14Z</time>
      </trkpt>
      <trkpt lat="64.147077966481447" lon="11.759557016193867">
        <ele>99.150000000000006</ele>
        <time>2017-06-29T10:20:20Z</time>
      </trkpt>
      <trkpt lat="64.145680032670498" lon="11.755575025454164">
        <ele>85.209999999999994</ele>
        <time>2017-06-29T10:20:30Z</time>
      </trkpt>
      <trkpt lat="64.144563982263207" lon="11.752939000725746">
        <ele>78</ele>
        <time>2017-06-29T10:20:39Z</time>
      </trkpt>
      <trkpt lat="64.144175983965397" lon="11.752355033531785">
        <ele>75.599999999999994</ele>
        <time>2017-06-29T10:20:43Z</time>
      </trkpt>
      <trkpt lat="64.143944978713989" lon="11.75206602551043">
        <ele>74.640000000000001</ele>
        <time>2017-06-29T10:20:50Z</time>
      </trkpt>
      <trkpt lat="64.143936010077596" lon="11.752055967226624">
        <ele>74.159999999999997</ele>
        <time>2017-06-29T10:21:02Z</time>
      </trkpt>
      <trkpt lat="64.143940033391118" lon="11.752059990540147">
        <ele>73.680000000000007</ele>
        <time>2017-06-29T10:23:02Z</time>
      </trkpt>
      <trkpt lat="64.143917988985777" lon="11.75197902135551">
        <ele>73.680000000000007</ele>
        <time>2017-06-29T10:23:12Z</time>
      </trkpt>
      <trkpt lat="64.143636021763086" lon="11.751104034483433">
        <ele>70.790000000000006</ele>
        <time>2017-06-29T10:23:19Z</time>
      </trkpt>
      <trkpt lat="64.143592016771436" lon="11.750952992588282">
        <ele>70.310000000000002</ele>
        <time>2017-06-29T10:23:26Z</time>
      </trkpt>
      <trkpt lat="64.143591010943055" lon="11.750912005081773">
        <ele>70.310000000000002</ele>
        <time>2017-06-29T10:23:56Z</time>
      </trkpt>
      <trkpt lat="64.143592016771436" lon="11.75090697593987">
        <ele>70.310000000000002</ele>
        <time>2017-06-29T10:26:07Z</time>
      </trkpt>
      <trkpt lat="64.143542982637882" lon="11.75086498260498">
        <ele>70.310000000000002</ele>
        <time>2017-06-29T10:26:34Z</time>
      </trkpt>
      <trkpt lat="64.143501995131373" lon="11.750792982056737">
        <ele>69.829999999999998</ele>
        <time>2017-06-29T10:26:35Z</time>
      </trkpt>
      <trkpt lat="64.14345296099782" lon="11.750645963475108">
        <ele>69.349999999999994</ele>
        <time>2017-06-29T10:26:36Z</time>
      </trkpt>
      <trkpt lat="64.143088012933731" lon="11.748839998617768">
        <ele>64.069999999999993</ele>
        <time>2017-06-29T10:26:43Z</time>
      </trkpt>
      <trkpt lat="64.142466997727752" lon="11.746345041319728">
        <ele>56.859999999999999</ele>
        <time>2017-06-29T10:26:50Z</time>
      </trkpt>
      <trkpt lat="64.141369974240661" lon="11.742373025044799">
        <ele>46.280000000000001</ele>
        <time>2017-06-29T10:27:00Z</time>
      </trkpt>
      <trkpt lat="64.140361966565251" lon="11.740025002509356">
        <ele>38.109999999999999</ele>
        <time>2017-06-29T10:27:07Z</time>
      </trkpt>
      <trkpt lat="64.139822004362941" lon="11.737555023282766">
        <ele>36.670000000000002</ele>
        <time>2017-06-29T10:27:13Z</time>
      </trkpt>
      <trkpt lat="64.139411961659789" lon="11.733118984848261">
        <ele>37.149999999999999</ele>
        <time>2017-06-29T10:27:22Z</time>
      </trkpt>
      <trkpt lat="64.138646023347974" lon="11.726783020421863">
        <ele>33.780000000000001</ele>
        <time>2017-06-29T10:27:35Z</time>
      </trkpt>
      <trkpt lat="64.137824010103941" lon="11.720125023275614">
        <ele>32.82</ele>
        <time>2017-06-29T10:27:48Z</time>
      </trkpt>
      <trkpt lat="64.137148009613156" lon="11.717004021629691">
        <ele>35.229999999999997</ele>
        <time>2017-06-29T10:27:54Z</time>
      </trkpt>
      <trkpt lat="64.135694000869989" lon="11.712506040930748">
        <ele>38.590000000000003</ele>
        <time>2017-06-29T10:28:04Z</time>
      </trkpt>
      <trkpt lat="64.135149009525776" lon="11.709249000996351">
        <ele>44.840000000000003</ele>
        <time>2017-06-29T10:28:11Z</time>
      </trkpt>
      <trkpt lat="64.134766040369868" lon="11.704350030049682">
        <ele>46.759999999999998</ele>
        <time>2017-06-29T10:28:22Z</time>
      </trkpt>
      <trkpt lat="64.134355997666717" lon="11.700273994356394">
        <ele>43.880000000000003</ele>
        <time>2017-06-29T10:28:29Z</time>
      </trkpt>
      <trkpt lat="64.134049974381924" lon="11.697202026844025">
        <ele>44.840000000000003</ele>
        <time>2017-06-29T10:28:35Z</time>
      </trkpt>
      <trkpt lat="64.133469024673104" lon="11.694030985236168">
        <ele>41.950000000000003</ele>
        <time>2017-06-29T10:28:42Z</time>
      </trkpt>
      <trkpt lat="64.132500998675823" lon="11.691957972943783">
        <ele>35.710000000000001</ele>
        <time>2017-06-29T10:28:48Z</time>
      </trkpt>
      <trkpt lat="64.131339015439153" lon="11.688908971846104">
        <ele>29.460000000000001</ele>
        <time>2017-06-29T10:28:56Z</time>
      </trkpt>
      <trkpt lat="64.130836017429829" lon="11.685077017173171">
        <ele>32.340000000000003</ele>
        <time>2017-06-29T10:29:04Z</time>
      </trkpt>
      <trkpt lat="64.130135960876942" lon="11.679049003869295">
        <ele>36.670000000000002</ele>
        <time>2017-06-29T10:29:17Z</time>
      </trkpt>
      <trkpt lat="64.129654001444578" lon="11.674810023978353">
        <ele>37.630000000000003</ele>
        <time>2017-06-29T10:29:25Z</time>
      </trkpt>
      <trkpt lat="64.129506982862949" lon="11.670618988573551">
        <ele>38.590000000000003</ele>
        <time>2017-06-29T10:29:33Z</time>
      </trkpt>
      <trkpt lat="64.129810994490981" lon="11.66661998257041">
        <ele>41.950000000000003</ele>
        <time>2017-06-29T10:29:41Z</time>
      </trkpt>
      <trkpt lat="64.130225982517004" lon="11.662823986262083">
        <ele>41.950000000000003</ele>
        <time>2017-06-29T10:29:47Z</time>
      </trkpt>
      <trkpt lat="64.130632001906633" lon="11.658702017739415">
        <ele>43.880000000000003</ele>
        <time>2017-06-29T10:29:55Z</time>
      </trkpt>
      <trkpt lat="64.131320994347334" lon="11.653855014592409">
        <ele>45.32</ele>
        <time>2017-06-29T10:30:06Z</time>
      </trkpt>
      <trkpt lat="64.132292959839106" lon="11.649721981957555">
        <ele>37.630000000000003</ele>
        <time>2017-06-29T10:30:16Z</time>
      </trkpt>
      <trkpt lat="64.132607029750943" lon="11.64670298807323">
        <ele>33.299999999999997</ele>
        <time>2017-06-29T10:30:23Z</time>
      </trkpt>
      <trkpt lat="64.132420029491186" lon="11.643573017790914">
        <ele>33.780000000000001</ele>
        <time>2017-06-29T10:30:30Z</time>
      </trkpt>
      <trkpt lat="64.131769007071853" lon="11.640720991417766">
        <ele>36.189999999999998</ele>
        <time>2017-06-29T10:30:37Z</time>
      </trkpt>
      <trkpt lat="64.13043200969696" lon="11.637384993955493">
        <ele>47.719999999999999</ele>
        <time>2017-06-29T10:30:47Z</time>
      </trkpt>
      <trkpt lat="64.129683002829552" lon="11.634661965072155">
        <ele>56.859999999999999</ele>
        <time>2017-06-29T10:30:55Z</time>
      </trkpt>
      <trkpt lat="64.129370022565126" lon="11.63159997202456">
        <ele>65.989999999999995</ele>
        <time>2017-06-29T10:31:03Z</time>
      </trkpt>
      <trkpt lat="64.129379997029901" lon="11.628884989768267">
        <ele>73.200000000000003</ele>
        <time>2017-06-29T10:31:10Z</time>
      </trkpt>
      <trkpt lat="64.129188973456621" lon="11.625732975080609">
        <ele>81.849999999999994</ele>
        <time>2017-06-29T10:31:18Z</time>
      </trkpt>
      <trkpt lat="64.128553960472345" lon="11.622936017811298">
        <ele>89.060000000000002</ele>
        <time>2017-06-29T10:31:26Z</time>
      </trkpt>
      <trkpt lat="64.127464983612299" lon="11.620595036074519">
        <ele>96.75</ele>
        <time>2017-06-29T10:31:34Z</time>
      </trkpt>
      <trkpt lat="64.125814000144601" lon="11.617902014404535">
        <ele>99.150000000000006</ele>
        <time>2017-06-29T10:31:44Z</time>
      </trkpt>
      <trkpt lat="64.124140972271562" lon="11.614723009988666">
        <ele>90.980000000000004</ele>
        <time>2017-06-29T10:31:54Z</time>
      </trkpt>
      <trkpt lat="64.123066999018192" lon="11.61123001947999">
        <ele>76.560000000000002</ele>
        <time>2017-06-29T10:32:02Z</time>
      </trkpt>
      <trkpt lat="64.121543001383543" lon="11.604434978216887">
        <ele>51.090000000000003</ele>
        <time>2017-06-29T10:32:15Z</time>
      </trkpt>
      <trkpt lat="64.121118960902095" lon="11.599816968664527">
        <ele>40.030000000000001</ele>
        <time>2017-06-29T10:32:23Z</time>
      </trkpt>
      <trkpt lat="64.120647981762886" lon="11.593315964564681">
        <ele>38.590000000000003</ele>
        <time>2017-06-29T10:32:35Z</time>
      </trkpt>
      <trkpt lat="64.1198839712888" lon="11.589892040938139">
        <ele>39.07</ele>
        <time>2017-06-29T10:32:43Z</time>
      </trkpt>
      <trkpt lat="64.118712013587356" lon="11.586970025673509">
        <ele>37.630000000000003</ele>
        <time>2017-06-29T10:32:51Z</time>
      </trkpt>
      <trkpt lat="64.116395004093647" lon="11.58192403614521">
        <ele>35.229999999999997</ele>
        <time>2017-06-29T10:33:04Z</time>
      </trkpt>
      <trkpt lat="64.115140987560153" lon="11.580511014908552">
        <ele>29.940000000000001</ele>
        <time>2017-06-29T10:33:10Z</time>
      </trkpt>
      <trkpt lat="64.113510036841035" lon="11.578579992055893">
        <ele>32.340000000000003</ele>
        <time>2017-06-29T10:33:18Z</time>
      </trkpt>
      <trkpt lat="64.111454961821437" lon="11.574249984696507">
        <ele>31.379999999999999</ele>
        <time>2017-06-29T10:33:30Z</time>
      </trkpt>
      <trkpt lat="64.108256008476019" lon="11.567416973412037">
        <ele>32.82</ele>
        <time>2017-06-29T10:33:49Z</time>
      </trkpt>
      <trkpt lat="64.106555990874767" lon="11.563170030713081">
        <ele>41.950000000000003</ele>
        <time>2017-06-29T10:34:00Z</time>
      </trkpt>
      <trkpt lat="64.105971017852426" lon="11.560643976554275">
        <ele>48.200000000000003</ele>
        <time>2017-06-29T10:34:06Z</time>
      </trkpt>
      <trkpt lat="64.105917038396001" lon="11.560181966051459">
        <ele>49.159999999999997</ele>
        <time>2017-06-29T10:34:07Z</time>
      </trkpt>
      <trkpt lat="64.105613026767969" lon="11.556082963943481">
        <ele>53.490000000000002</ele>
        <time>2017-06-29T10:34:15Z</time>
      </trkpt>
      <trkpt lat="64.105384033173323" lon="11.553624970838428">
        <ele>53.490000000000002</ele>
        <time>2017-06-29T10:34:20Z</time>
      </trkpt>
      <trkpt lat="64.105299962684512" lon="11.553191039711237">
        <ele>53.969999999999999</ele>
        <time>2017-06-29T10:34:21Z</time>
      </trkpt>
      <trkpt lat="64.105197032913566" lon="11.552773034200072">
        <ele>54.93</ele>
        <time>2017-06-29T10:34:22Z</time>
      </trkpt>
      <trkpt lat="64.104872988536954" lon="11.551536032930017">
        <ele>57.340000000000003</ele>
        <time>2017-06-29T10:34:25Z</time>
      </trkpt>
      <trkpt lat="64.104794031009078" lon="11.551092965528369">
        <ele>57.82</ele>
        <time>2017-06-29T10:34:26Z</time>
      </trkpt>
      <trkpt lat="64.104737034067512" lon="11.550633972510695">
        <ele>57.82</ele>
        <time>2017-06-29T10:34:27Z</time>
      </trkpt>
      <trkpt lat="64.104697974398732" lon="11.550151007249951">
        <ele>58.299999999999997</ele>
        <time>2017-06-29T10:34:28Z</time>
      </trkpt>
      <trkpt lat="64.104672996327281" lon="11.549651026725769">
        <ele>58.299999999999997</ele>
        <time>2017-06-29T10:34:29Z</time>
      </trkpt>
      <trkpt lat="64.104652963578701" lon="11.54913897626102">
        <ele>58.780000000000001</ele>
        <time>2017-06-29T10:34:30Z</time>
      </trkpt>
      <trkpt lat="64.104717001318932" lon="11.546115959063172">
        <ele>59.740000000000002</ele>
        <time>2017-06-29T10:34:36Z</time>
      </trkpt>
      <trkpt lat="64.104776009917259" lon="11.545651014894247">
        <ele>59.740000000000002</ele>
        <time>2017-06-29T10:34:37Z</time>
      </trkpt>
      <trkpt lat="64.104845998808742" lon="11.545216999948025">
        <ele>59.740000000000002</ele>
        <time>2017-06-29T10:34:38Z</time>
      </trkpt>
      <trkpt lat="64.105218993499875" lon="11.543049020692706">
        <ele>61.659999999999997</ele>
        <time>2017-06-29T10:34:44Z</time>
      </trkpt>
      <trkpt lat="64.105232991278172" lon="11.542695974931121">
        <ele>61.659999999999997</ele>
        <time>2017-06-29T10:34:45Z</time>
      </trkpt>
      <trkpt lat="64.105225028470159" lon="11.542360028252006">
        <ele>62.140000000000001</ele>
        <time>2017-06-29T10:34:46Z</time>
      </trkpt>
      <trkpt lat="64.105185968801379" lon="11.542041013017297">
        <ele>62.140000000000001</ele>
        <time>2017-06-29T10:34:47Z</time>
      </trkpt>
      <trkpt lat="64.105125032365322" lon="11.541735995560884">
        <ele>61.659999999999997</ele>
        <time>2017-06-29T10:34:48Z</time>
      </trkpt>
      <trkpt lat="64.105041967704892" lon="11.541460985317826">
        <ele>61.659999999999997</ele>
        <time>2017-06-29T10:34:49Z</time>
      </trkpt>
      <trkpt lat="64.104935014620423" lon="11.541223023086786">
        <ele>61.18</ele>
        <time>2017-06-29T10:34:50Z</time>
      </trkpt>
      <trkpt lat="64.104810040444136" lon="11.54103803448379">
        <ele>60.700000000000003</ele>
        <time>2017-06-29T10:34:51Z</time>
      </trkpt>
      <trkpt lat="64.104667967185378" lon="11.540890010073781">
        <ele>60.219999999999999</ele>
        <time>2017-06-29T10:34:52Z</time>
      </trkpt>
      <trkpt lat="64.104510974138975" lon="11.540780961513519">
        <ele>59.259999999999998</ele>
        <time>2017-06-29T10:34:53Z</time>
      </trkpt>
      <trkpt lat="64.104339983314276" lon="11.540702003985643">
        <ele>58.299999999999997</ele>
        <time>2017-06-29T10:34:54Z</time>
      </trkpt>
      <trkpt lat="64.102842975407839" lon="11.539616966620088">
        <ele>53.969999999999999</ele>
        <time>2017-06-29T10:35:02Z</time>
      </trkpt>
      <trkpt lat="64.100850010290742" lon="11.537244971841574">
        <ele>50.130000000000003</ele>
        <time>2017-06-29T10:35:14Z</time>
      </trkpt>
      <trkpt lat="64.099305979907513" lon="11.53418499045074">
        <ele>47.719999999999999</ele>
        <time>2017-06-29T10:35:25Z</time>
      </trkpt>
      <trkpt lat="64.098350023850799" lon="11.530755031853914">
        <ele>46.280000000000001</ele>
        <time>2017-06-29T10:35:33Z</time>
      </trkpt>
      <trkpt lat="64.097218969836831" lon="11.527133965864778">
        <ele>49.159999999999997</ele>
        <time>2017-06-29T10:35:42Z</time>
      </trkpt>
      <trkpt lat="64.096058998256922" lon="11.525091966614127">
        <ele>47.719999999999999</ele>
        <time>2017-06-29T10:35:49Z</time>
      </trkpt>
      <trkpt lat="64.095873003825545" lon="11.524931034073234">
        <ele>47.240000000000002</ele>
        <time>2017-06-29T10:35:50Z</time>
      </trkpt>
      <trkpt lat="64.095679968595505" lon="11.524803964421153">
        <ele>47.240000000000002</ele>
        <time>2017-06-29T10:35:51Z</time>
      </trkpt>
      <trkpt lat="64.095477964729071" lon="11.524707991629839">
        <ele>46.759999999999998</ele>
        <time>2017-06-29T10:35:52Z</time>
      </trkpt>
      <trkpt lat="64.095274033024907" lon="11.524652000516653">
        <ele>46.280000000000001</ele>
        <time>2017-06-29T10:35:53Z</time>
      </trkpt>
      <trkpt lat="64.095064988359809" lon="11.52464403770864">
        <ele>45.799999999999997</ele>
        <time>2017-06-29T10:35:54Z</time>
      </trkpt>
      <trkpt lat="64.094856027513742" lon="11.524663986638188">
        <ele>45.32</ele>
        <time>2017-06-29T10:35:55Z</time>
      </trkpt>
      <trkpt lat="64.094644971191883" lon="11.524707991629839">
        <ele>45.32</ele>
        <time>2017-06-29T10:35:56Z</time>
      </trkpt>
      <trkpt lat="64.093094989657402" lon="11.524613024666905">
        <ele>45.799999999999997</ele>
        <time>2017-06-29T10:36:03Z</time>
      </trkpt>
      <trkpt lat="64.089992009103298" lon="11.522588962689042">
        <ele>51.090000000000003</ele>
        <time>2017-06-29T10:36:17Z</time>
      </trkpt>
      <trkpt lat="64.084892040118575" lon="11.519251959398389">
        <ele>49.159999999999997</ele>
        <time>2017-06-29T10:36:40Z</time>
      </trkpt>
      <trkpt lat="64.08161798492074" lon="11.516938973218203">
        <ele>53.490000000000002</ele>
        <time>2017-06-29T10:36:55Z</time>
      </trkpt>
      <trkpt lat="64.079991979524493" lon="11.514436975121498">
        <ele>57.340000000000003</ele>
        <time>2017-06-29T10:37:04Z</time>
      </trkpt>
      <trkpt lat="64.078492959961295" lon="11.512482985854149">
        <ele>61.18</ele>
        <time>2017-06-29T10:37:12Z</time>
      </trkpt>
      <trkpt lat="64.077193010598421" lon="11.512288022786379">
        <ele>65.989999999999995</ele>
        <time>2017-06-29T10:37:18Z</time>
      </trkpt>
      <trkpt lat="64.075765991583467" lon="11.513221012428403">
        <ele>70.790000000000006</ele>
        <time>2017-06-29T10:37:25Z</time>
      </trkpt>
      <trkpt lat="64.075343040749431" lon="11.513352021574974">
        <ele>72.239999999999995</ele>
        <time>2017-06-29T10:37:27Z</time>
      </trkpt>
      <trkpt lat="64.0751270391047" lon="11.513358978554606">
        <ele>73.200000000000003</ele>
        <time>2017-06-29T10:37:28Z</time>
      </trkpt>
      <trkpt lat="64.07491397112608" lon="11.513326959684491">
        <ele>74.159999999999997</ele>
        <time>2017-06-29T10:37:29Z</time>
      </trkpt>
      <trkpt lat="64.074706016108394" lon="11.513260994106531">
        <ele>75.599999999999994</ele>
        <time>2017-06-29T10:37:30Z</time>
      </trkpt>
      <trkpt lat="64.074502000585198" lon="11.513157980516553">
        <ele>76.560000000000002</ele>
        <time>2017-06-29T10:37:31Z</time>
      </trkpt>
      <trkpt lat="64.074303014203906" lon="11.513008028268814">
        <ele>78.480000000000004</ele>
        <time>2017-06-29T10:37:32Z</time>
      </trkpt>
      <trkpt lat="64.074107967317104" lon="11.512823961675167">
        <ele>80.409999999999997</ele>
        <time>2017-06-29T10:37:33Z</time>
      </trkpt>
      <trkpt lat="64.073919039219618" lon="11.512622041627765">
        <ele>81.849999999999994</ele>
        <time>2017-06-29T10:37:34Z</time>
      </trkpt>
      <trkpt lat="64.072226984426379" lon="11.511169038712978">
        <ele>87.620000000000005</ele>
        <time>2017-06-29T10:37:43Z</time>
      </trkpt>
      <trkpt lat="64.070398975163698" lon="11.510849017649889">
        <ele>88.099999999999994</ele>
        <time>2017-06-29T10:37:53Z</time>
      </trkpt>
      <trkpt lat="64.068823009729385" lon="11.509688040241599">
        <ele>90.019999999999996</ele>
        <time>2017-06-29T10:38:02Z</time>
      </trkpt>
      <trkpt lat="64.067074041813612" lon="11.508620018139482">
        <ele>95.790000000000006</ele>
        <time>2017-06-29T10:38:12Z</time>
      </trkpt>
      <trkpt lat="64.065982969477773" lon="11.507218983024359">
        <ele>104.44</ele>
        <time>2017-06-29T10:38:20Z</time>
      </trkpt>
      <trkpt lat="64.064907990396023" lon="11.505557019263506">
        <ele>108.77</ele>
        <time>2017-06-29T10:38:31Z</time>
      </trkpt>
      <trkpt lat="64.06464303843677" lon="11.505071958526969">
        <ele>107.81</ele>
        <time>2017-06-29T10:38:39Z</time>
      </trkpt>
      <trkpt lat="64.064647983759642" lon="11.505086962133646">
        <ele>107.81</ele>
        <time>2017-06-29T10:38:51Z</time>
      </trkpt>
      <trkpt lat="64.064637003466487" lon="11.505108000710607">
        <ele>107.81</ele>
        <time>2017-06-29T10:38:57Z</time>
      </trkpt>
      <trkpt lat="64.064635997638106" lon="11.505161980167031">
        <ele>107.81</ele>
        <time>2017-06-29T10:38:58Z</time>
      </trkpt>
      <trkpt lat="64.064656030386686" lon="11.505232974886894">
        <ele>107.81</ele>
        <time>2017-06-29T10:38:59Z</time>
      </trkpt>
      <trkpt lat="64.064702969044447" lon="11.50530899874866">
        <ele>107.81</ele>
        <time>2017-06-29T10:39:00Z</time>
      </trkpt>
      <trkpt lat="64.064756026491523" lon="11.505402959883213">
        <ele>107.31999999999999</ele>
        <time>2017-06-29T10:39:01Z</time>
      </trkpt>
      <trkpt lat="64.065536968410015" lon="11.506638033315539">
        <ele>105.88</ele>
        <time>2017-06-29T10:39:13Z</time>
      </trkpt>
      <trkpt lat="64.06556798145175" lon="11.506721014156938">
        <ele>105.88</ele>
        <time>2017-06-29T10:39:14Z</time>
      </trkpt>
      <trkpt lat="64.065581979230046" lon="11.506810029968619">
        <ele>105.88</ele>
        <time>2017-06-29T10:39:15Z</time>
      </trkpt>
      <trkpt lat="64.065581979230046" lon="11.506893010810018">
        <ele>105.88</ele>
        <time>2017-06-29T10:39:16Z</time>
      </trkpt>
      <trkpt lat="64.065562030300498" lon="11.506964005529881">
        <ele>104.92</ele>
        <time>2017-06-29T10:39:17Z</time>
      </trkpt>
      <trkpt lat="64.065535962581635" lon="11.507012033835053">
        <ele>105.40000000000001</ele>
        <time>2017-06-29T10:39:18Z</time>
      </trkpt>
      <trkpt lat="64.065496986731887" lon="11.507027959451079">
        <ele>105.40000000000001</ele>
        <time>2017-06-29T10:39:19Z</time>
      </trkpt>
      <trkpt lat="64.065466979518533" lon="11.507021002471447">
        <ele>105.88</ele>
        <time>2017-06-29T10:39:20Z</time>
      </trkpt>
      <trkpt lat="64.065437978133559" lon="11.506998036056757">
        <ele>105.88</ele>
        <time>2017-06-29T10:39:21Z</time>
      </trkpt>
      <trkpt lat="64.065403025597334" lon="11.506957970559597">
        <ele>105.88</ele>
        <time>2017-06-29T10:39:22Z</time>
      </trkpt>
      <trkpt lat="64.065370000898838" lon="11.506908014416695">
        <ele>105.88</ele>
        <time>2017-06-29T10:39:23Z</time>
      </trkpt>
      <trkpt lat="64.065340999513865" lon="11.506842970848083">
        <ele>105.88</ele>
        <time>2017-06-29T10:39:24Z</time>
      </trkpt>
      <trkpt lat="64.065314009785652" lon="11.506780022755265">
        <ele>105.88</ele>
        <time>2017-06-29T10:39:25Z</time>
      </trkpt>
      <trkpt lat="64.065063977614045" lon="11.506417002528906">
        <ele>107.31999999999999</ele>
        <time>2017-06-29T10:39:36Z</time>
      </trkpt>
      <trkpt lat="64.065016033127904" lon="11.506564021110535">
        <ele>107.81</ele>
        <time>2017-06-29T10:39:44Z</time>
      </trkpt>
      <trkpt lat="64.064998012036085" lon="11.506567960605025">
        <ele>108.29000000000001</ele>
        <time>2017-06-29T10:40:13Z</time>
      </trkpt>
      <trkpt lat="64.064955012872815" lon="11.506510963663459">
        <ele>107.31999999999999</ele>
        <time>2017-06-29T10:41:22Z</time>
      </trkpt>
      <trkpt lat="64.064950989559293" lon="11.506515992805362">
        <ele>106.84</ele>
        <time>2017-06-29T10:42:43Z</time>
      </trkpt>
      <trkpt lat="64.064949983730912" lon="11.506524961441755">
        <ele>106.36</ele>
        <time>2017-06-29T10:43:46Z</time>
      </trkpt>
      <trkpt lat="64.064941015094519" lon="11.506568966433406">
        <ele>105.88</ele>
        <time>2017-06-29T10:44:26Z</time>
      </trkpt>
      <trkpt lat="64.064942020922899" lon="11.506585981696844">
        <ele>105.88</ele>
        <time>2017-06-29T10:45:25Z</time>
      </trkpt>
      <trkpt lat="64.065132960677147" lon="11.506853029131889">
        <ele>138.56999999999999</ele>
        <time>2017-06-29T11:00:23Z</time>
      </trkpt>
      <trkpt lat="64.065047968178988" lon="11.506851017475128">
        <ele>127.03</ele>
        <time>2017-06-29T11:02:14Z</time>
      </trkpt>
      <trkpt lat="64.065047968178988" lon="11.506840959191322">
        <ele>126.55</ele>
        <time>2017-06-29T11:04:10Z</time>
      </trkpt>
      <trkpt lat="64.065048974007368" lon="11.506830984726548">
        <ele>126.06999999999999</ele>
        <time>2017-06-29T11:05:47Z</time>
      </trkpt>
      <trkpt lat="64.065050985664129" lon="11.506821010261774">
        <ele>126.55</ele>
        <time>2017-06-29T11:07:30Z</time>
      </trkpt>
      <trkpt lat="64.065056014806032" lon="11.50681396946311">
        <ele>127.03</ele>
        <time>2017-06-29T11:09:09Z</time>
      </trkpt>
      <trkpt lat="64.065066995099187" lon="11.506825033575296">
        <ele>128.47</ele>
        <time>2017-06-29T11:10:27Z</time>
      </trkpt>
      <trkpt lat="64.065074035897851" lon="11.506824027746916">
        <ele>128.47</ele>
        <time>2017-06-29T11:11:08Z</time>
      </trkpt>
      <trkpt lat="64.065140001475811" lon="11.506941039115191">
        <ele>127.98999999999999</ele>
        <time>2017-06-29T11:11:12Z</time>
      </trkpt>
      <trkpt lat="64.065368995070457" lon="11.507319984957576">
        <ele>127.98999999999999</ele>
        <time>2017-06-29T11:11:19Z</time>
      </trkpt>
      <trkpt lat="64.065405959263444" lon="11.507369019091129">
        <ele>127.51000000000001</ele>
        <time>2017-06-29T11:11:20Z</time>
      </trkpt>
      <trkpt lat="64.065452981740236" lon="11.507401037961245">
        <ele>127.51000000000001</ele>
        <time>2017-06-29T11:11:21Z</time>
      </trkpt>
      <trkpt lat="64.065504027530551" lon="11.507415035739541">
        <ele>127.03</ele>
        <time>2017-06-29T11:11:22Z</time>
      </trkpt>
      <trkpt lat="64.065553983673453" lon="11.507411012426019">
        <ele>126.55</ele>
        <time>2017-06-29T11:11:23Z</time>
      </trkpt>
      <trkpt lat="64.065603017807007" lon="11.507389973849058">
        <ele>126.06999999999999</ele>
        <time>2017-06-29T11:11:24Z</time>
      </trkpt>
      <trkpt lat="64.065645011141896" lon="11.507356027141213">
        <ele>126.06999999999999</ele>
        <time>2017-06-29T11:11:25Z</time>
      </trkpt>
      <trkpt lat="64.065679041668773" lon="11.507315039634705">
        <ele>125.11</ele>
        <time>2017-06-29T11:11:26Z</time>
      </trkpt>
      <trkpt lat="64.065707037225366" lon="11.507260976359248">
        <ele>124.63</ele>
        <time>2017-06-29T11:11:27Z</time>
      </trkpt>
      <trkpt lat="64.065731009468436" lon="11.507208002731204">
        <ele>124.63</ele>
        <time>2017-06-29T11:11:28Z</time>
      </trkpt>
      <trkpt lat="64.065752970054746" lon="11.507146982476115">
        <ele>124.15000000000001</ele>
        <time>2017-06-29T11:11:29Z</time>
      </trkpt>
      <trkpt lat="64.065797980874777" lon="11.506912037730217">
        <ele>124.15000000000001</ele>
        <time>2017-06-29T11:11:33Z</time>
      </trkpt>
      <trkpt lat="64.065780965611339" lon="11.506808018311858">
        <ele>123.67</ele>
        <time>2017-06-29T11:11:34Z</time>
      </trkpt>
      <trkpt lat="64.065736960619688" lon="11.506695030257106">
        <ele>123.19</ele>
        <time>2017-06-29T11:11:35Z</time>
      </trkpt>
      <trkpt lat="64.065663032233715" lon="11.50657600723207">
        <ele>122.70999999999999</ele>
        <time>2017-06-29T11:11:36Z</time>
      </trkpt>
      <trkpt lat="64.065579967573285" lon="11.506451033055782">
        <ele>123.19</ele>
        <time>2017-06-29T11:11:37Z</time>
      </trkpt>
      <trkpt lat="64.064701041206717" lon="11.505118981003761">
        <ele>122.22</ele>
        <time>2017-06-29T11:11:45Z</time>
      </trkpt>
      <trkpt lat="64.063578033819795" lon="11.502885958179832">
        <ele>119.34</ele>
        <time>2017-06-29T11:11:54Z</time>
      </trkpt>
      <trkpt lat="64.062226032838225" lon="11.498272977769375">
        <ele>108.29000000000001</ele>
        <time>2017-06-29T11:12:08Z</time>
      </trkpt>
      <trkpt lat="64.060731958597898" lon="11.493951017037034">
        <ele>102.52</ele>
        <time>2017-06-29T11:12:22Z</time>
      </trkpt>
      <trkpt lat="64.059608029201627" lon="11.491866018623114">
        <ele>103</ele>
        <time>2017-06-29T11:12:31Z</time>
      </trkpt>
      <trkpt lat="64.059450030326843" lon="11.491719000041485">
        <ele>103</ele>
        <time>2017-06-29T11:12:32Z</time>
      </trkpt>
      <trkpt lat="64.059279961511493" lon="11.491616992279887">
        <ele>101.56</ele>
        <time>2017-06-29T11:12:33Z</time>
      </trkpt>
      <trkpt lat="64.059104025363922" lon="11.491550020873547">
        <ele>100.59999999999999</ele>
        <time>2017-06-29T11:12:34Z</time>
      </trkpt>
      <trkpt lat="64.058925993740559" lon="11.491516996175051">
        <ele>100.11</ele>
        <time>2017-06-29T11:12:35Z</time>
      </trkpt>
      <trkpt lat="64.056456014513969" lon="11.490958007052541">
        <ele>100.11</ele>
        <time>2017-06-29T11:12:49Z</time>
      </trkpt>
      <trkpt lat="64.055036036297679" lon="11.490434976294637">
        <ele>99.629999999999995</ele>
        <time>2017-06-29T11:12:58Z</time>
      </trkpt>
      <trkpt lat="64.053963990882039" lon="11.490791961550713">
        <ele>99.150000000000006</ele>
        <time>2017-06-29T11:13:05Z</time>
      </trkpt>
      <trkpt lat="64.052810976281762" lon="11.4923329744488">
        <ele>98.670000000000002</ele>
        <time>2017-06-29T11:13:12Z</time>
      </trkpt>
      <trkpt lat="64.050901997834444" lon="11.494532972574234">
        <ele>99.150000000000006</ele>
        <time>2017-06-29T11:13:24Z</time>
      </trkpt>
      <trkpt lat="64.049781002104282" lon="11.494750985875726">
        <ele>98.670000000000002</ele>
        <time>2017-06-29T11:13:30Z</time>
      </trkpt>
      <trkpt lat="64.049586961045861" lon="11.494693988934159">
        <ele>98.189999999999998</ele>
        <time>2017-06-29T11:13:31Z</time>
      </trkpt>
      <trkpt lat="64.04799398034811" lon="11.493638958781958">
        <ele>95.790000000000006</ele>
        <time>2017-06-29T11:13:39Z</time>
      </trkpt>
      <trkpt lat="64.045560965314507" lon="11.491237040609121">
        <ele>90.5</ele>
        <time>2017-06-29T11:13:52Z</time>
      </trkpt>
      <trkpt lat="64.042683960869908" lon="11.488548964262009">
        <ele>90.019999999999996</ele>
        <time>2017-06-29T11:14:07Z</time>
      </trkpt>
      <trkpt lat="64.039822965860367" lon="11.485770028084517">
        <ele>76.560000000000002</ele>
        <time>2017-06-29T11:14:22Z</time>
      </trkpt>
      <trkpt lat="64.038823004812002" lon="11.483648987486959">
        <ele>70.310000000000002</ele>
        <time>2017-06-29T11:14:29Z</time>
      </trkpt>
      <trkpt lat="64.03798003681004" lon="11.480330005288124">
        <ele>59.740000000000002</ele>
        <time>2017-06-29T11:14:38Z</time>
      </trkpt>
      <trkpt lat="64.036954008042812" lon="11.47673299536109">
        <ele>48.200000000000003</ele>
        <time>2017-06-29T11:14:47Z</time>
      </trkpt>
      <trkpt lat="64.036186980083585" lon="11.475156024098396">
        <ele>42.439999999999998</ele>
        <time>2017-06-29T11:14:52Z</time>
      </trkpt>
      <trkpt lat="64.034446980804205" lon="11.473149983212352">
        <ele>35.710000000000001</ele>
        <time>2017-06-29T11:15:01Z</time>
      </trkpt>
      <trkpt lat="64.032861962914467" lon="11.472644973546267">
        <ele>35.710000000000001</ele>
        <time>2017-06-29T11:15:09Z</time>
      </trkpt>
      <trkpt lat="64.031136967241764" lon="11.473290966823697">
        <ele>28.98</ele>
        <time>2017-06-29T11:15:18Z</time>
      </trkpt>
      <trkpt lat="64.029663009569049" lon="11.474848994985223">
        <ele>33.780000000000001</ele>
        <time>2017-06-29T11:15:27Z</time>
      </trkpt>
      <trkpt lat="64.028879972174764" lon="11.476122960448265">
        <ele>32.340000000000003</ele>
        <time>2017-06-29T11:15:35Z</time>
      </trkpt>
      <trkpt lat="64.028661036863923" lon="11.476473994553089">
        <ele>31.859999999999999</ele>
        <time>2017-06-29T11:15:38Z</time>
      </trkpt>
      <trkpt lat="64.028580989688635" lon="11.476563010364771">
        <ele>31.859999999999999</ele>
        <time>2017-06-29T11:15:39Z</time>
      </trkpt>
      <trkpt lat="64.028317965567112" lon="11.476938016712666">
        <ele>31.379999999999999</ele>
        <time>2017-06-29T11:15:43Z</time>
      </trkpt>
      <trkpt lat="64.028285024687648" lon="11.477110013365746">
        <ele>31.859999999999999</ele>
        <time>2017-06-29T11:15:44Z</time>
      </trkpt>
      <trkpt lat="64.028258034959435" lon="11.477296007797122">
        <ele>31.379999999999999</ele>
        <time>2017-06-29T11:15:45Z</time>
      </trkpt>
      <trkpt lat="64.028113028034568" lon="11.477888021618128">
        <ele>30.420000000000002</ele>
        <time>2017-06-29T11:15:48Z</time>
      </trkpt>
      <trkpt lat="64.022584995254874" lon="11.487964997068048">
        <ele>0.62</ele>
        <time>2017-06-29T11:16:36Z</time>
      </trkpt>
      <trkpt lat="64.02148000895977" lon="11.490158960223198">
        <ele>-1.79</ele>
        <time>2017-06-29T11:16:49Z</time>
      </trkpt>
      <trkpt lat="64.021318992599845" lon="11.490407986566424">
        <ele>-0.82</ele>
        <time>2017-06-29T11:16:52Z</time>
      </trkpt>
      <trkpt lat="64.021266018971801" lon="11.490449979901314">
        <ele>-0.34</ele>
        <time>2017-06-29T11:16:53Z</time>
      </trkpt>
      <trkpt lat="64.021212961524725" lon="11.490472024306655">
        <ele>-0.34</ele>
        <time>2017-06-29T11:16:54Z</time>
      </trkpt>
      <trkpt lat="64.021038031205535" lon="11.490584006533027">
        <ele>-0.34</ele>
        <time>2017-06-29T11:16:57Z</time>
      </trkpt>
      <trkpt lat="64.020982962101698" lon="11.490690037608147">
        <ele>-1.3</ele>
        <time>2017-06-29T11:16:58Z</time>
      </trkpt>
      <trkpt lat="64.020925965160131" lon="11.490825992077589">
        <ele>-1.3</ele>
        <time>2017-06-29T11:16:59Z</time>
      </trkpt>
      <trkpt lat="64.020679034292698" lon="11.491187000647187">
        <ele>-1.3</ele>
        <time>2017-06-29T11:17:02Z</time>
      </trkpt>
      <trkpt lat="64.020587000995874" lon="11.491260007023811">
        <ele>-1.3</ele>
        <time>2017-06-29T11:17:03Z</time>
      </trkpt>
      <trkpt lat="64.020498991012573" lon="11.491311974823475">
        <ele>-0.82</ele>
        <time>2017-06-29T11:17:04Z</time>
      </trkpt>
      <trkpt lat="64.019638001918793" lon="11.491252966225147">
        <ele>-0.82</ele>
        <time>2017-06-29T11:17:14Z</time>
      </trkpt>
      <trkpt lat="64.019103990867734" lon="11.4907839987427">
        <ele>-0.34</ele>
        <time>2017-06-29T11:17:23Z</time>
      </trkpt>
      <trkpt lat="64.019045988097787" lon="11.490702023729682">
        <ele>-0.34</ele>
        <time>2017-06-29T11:17:24Z</time>
      </trkpt>
      <trkpt lat="64.01892302557826" lon="11.490521980449557">
        <ele>1.1</ele>
        <time>2017-06-29T11:17:26Z</time>
      </trkpt>
      <trkpt lat="64.018853958696127" lon="11.490458026528358">
        <ele>1.58</ele>
        <time>2017-06-29T11:17:27Z</time>
      </trkpt>
      <trkpt lat="64.018777012825012" lon="11.490438999608159">
        <ele>2.06</ele>
        <time>2017-06-29T11:17:28Z</time>
      </trkpt>
      <trkpt lat="64.018525974825025" lon="11.490379991009831">
        <ele>3.02</ele>
        <time>2017-06-29T11:17:31Z</time>
      </trkpt>
      <trkpt lat="64.0184529684484" lon="11.490321988239884">
        <ele>3.5</ele>
        <time>2017-06-29T11:17:32Z</time>
      </trkpt>
      <trkpt lat="64.017934966832399" lon="11.489909011870623">
        <ele>6.39</ele>
        <time>2017-06-29T11:17:41Z</time>
      </trkpt>
      <trkpt lat="64.017501035705209" lon="11.489703990519047">
        <ele>10.23</ele>
        <time>2017-06-29T11:17:55Z</time>
      </trkpt>
      <trkpt lat="64.016889994964004" lon="11.489670965820551">
        <ele>12.15</ele>
        <time>2017-06-29T11:18:08Z</time>
      </trkpt>
      <trkpt lat="64.015995981171727" lon="11.48943199776113">
        <ele>10.710000000000001</ele>
        <time>2017-06-29T11:18:23Z</time>
      </trkpt>
      <trkpt lat="64.015926998108625" lon="11.489448007196188">
        <ele>10.23</ele>
        <time>2017-06-29T11:18:24Z</time>
      </trkpt>
      <trkpt lat="64.015862038359046" lon="11.489496035501361">
        <ele>9.75</ele>
        <time>2017-06-29T11:18:25Z</time>
      </trkpt>
      <trkpt lat="64.015647964552045" lon="11.489678006619215">
        <ele>8.789999999999999</ele>
        <time>2017-06-29T11:18:29Z</time>
      </trkpt>
      <trkpt lat="64.015599014237523" lon="11.489702984690666">
        <ele>8.789999999999999</ele>
        <time>2017-06-29T11:18:30Z</time>
      </trkpt>
      <trkpt lat="64.01507799513638" lon="11.489929966628551">
        <ele>9.27</ele>
        <time>2017-06-29T11:18:43Z</time>
      </trkpt>
      <trkpt lat="64.014179036021233" lon="11.490264991298318">
        <ele>10.23</ele>
        <time>2017-06-29T11:18:57Z</time>
      </trkpt>
      <trkpt lat="64.013489037752151" lon="11.490951972082257">
        <ele>7.35</ele>
        <time>2017-06-29T11:19:07Z</time>
      </trkpt>
      <trkpt lat="64.013428017497063" lon="11.491058003157377">
        <ele>7.35</ele>
        <time>2017-06-29T11:19:08Z</time>
      </trkpt>
      <trkpt lat="64.013378983363509" lon="11.491202004253864">
        <ele>6.87</ele>
        <time>2017-06-29T11:19:09Z</time>
      </trkpt>
      <trkpt lat="64.013339001685381" lon="11.491370983421803">
        <ele>6.39</ele>
        <time>2017-06-29T11:19:10Z</time>
      </trkpt>
      <trkpt lat="64.013298014178872" lon="11.491556977853179">
        <ele>5.91</ele>
        <time>2017-06-29T11:19:11Z</time>
      </trkpt>
      <trkpt lat="64.012939017266035" lon="11.492641009390354">
        <ele>5.42</ele>
        <time>2017-06-29T11:19:17Z</time>
      </trkpt>
      <trkpt lat="64.012854024767876" lon="11.492793979123235">
        <ele>5.42</ele>
        <time>2017-06-29T11:19:18Z</time>
      </trkpt>
      <trkpt lat="64.011361040174961" lon="11.494934968650341">
        <ele>2.54</ele>
        <time>2017-06-29T11:19:34Z</time>
      </trkpt>
      <trkpt lat="64.010914033278823" lon="11.495525976642966">
        <ele>3.5</ele>
        <time>2017-06-29T11:19:39Z</time>
      </trkpt>
      <trkpt lat="64.010829962790012" lon="11.495594959706068">
        <ele>3.5</ele>
        <time>2017-06-29T11:19:40Z</time>
      </trkpt>
      <trkpt lat="64.010596023872495" lon="11.495800986886024">
        <ele>3.02</ele>
        <time>2017-06-29T11:19:43Z</time>
      </trkpt>
      <trkpt lat="64.010536009445786" lon="11.495939958840609">
        <ele>2.54</ele>
        <time>2017-06-29T11:19:44Z</time>
      </trkpt>
      <trkpt lat="64.010316990315914" lon="11.496394006535411">
        <ele>2.06</ele>
        <time>2017-06-29T11:19:47Z</time>
      </trkpt>
      <trkpt lat="64.008980998769403" lon="11.498316982761025">
        <ele>0.14</ele>
        <time>2017-06-29T11:20:01Z</time>
      </trkpt>
      <trkpt lat="64.007876012474298" lon="11.499608969315886">
        <ele>-6.59</ele>
        <time>2017-06-29T11:20:12Z</time>
      </trkpt>
      <trkpt lat="64.006875967606902" lon="11.499826982617378">
        <ele>-6.11</ele>
        <time>2017-06-29T11:20:22Z</time>
      </trkpt>
      <trkpt lat="64.006781000643969" lon="11.49987299926579">
        <ele>-6.11</ele>
        <time>2017-06-29T11:20:23Z</time>
      </trkpt>
      <trkpt lat="64.006400965154171" lon="11.499760011211038">
        <ele>-3.23</ele>
        <time>2017-06-29T11:20:27Z</time>
      </trkpt>
      <trkpt lat="64.006023025140166" lon="11.499368995428085">
        <ele>1.1</ele>
        <time>2017-06-29T11:20:35Z</time>
      </trkpt>
      <trkpt lat="64.005835019052029" lon="11.499169003218412">
        <ele>2.54</ele>
        <time>2017-06-29T11:20:46Z</time>
      </trkpt>
      <trkpt lat="64.005557997152209" lon="11.498629041016102">
        <ele>4.46</ele>
        <time>2017-06-29T11:20:54Z</time>
      </trkpt>
      <trkpt lat="64.005525978282094" lon="11.498520998284221">
        <ele>3.98</ele>
        <time>2017-06-29T11:20:55Z</time>
      </trkpt>
      <trkpt lat="64.005501000210643" lon="11.498393006622791">
        <ele>3.98</ele>
        <time>2017-06-29T11:20:56Z</time>
      </trkpt>
      <trkpt lat="64.005484990775585" lon="11.49826099164784">
        <ele>3.98</ele>
        <time>2017-06-29T11:20:57Z</time>
      </trkpt>
      <trkpt lat="64.005470992997289" lon="11.498130988329649">
        <ele>3.98</ele>
        <time>2017-06-29T11:20:58Z</time>
      </trkpt>
      <trkpt lat="64.005436040461063" lon="11.497899983078241">
        <ele>3.5</ele>
        <time>2017-06-29T11:21:00Z</time>
      </trkpt>
      <trkpt lat="64.005408966913819" lon="11.497791018337011">
        <ele>3.5</ele>
        <time>2017-06-29T11:21:01Z</time>
      </trkpt>
      <trkpt lat="64.005369991064072" lon="11.497719017788768">
        <ele>3.5</ele>
        <time>2017-06-29T11:21:02Z</time>
      </trkpt>
      <trkpt lat="64.00532498024404" lon="11.497676018625498">
        <ele>3.5</ele>
        <time>2017-06-29T11:21:03Z</time>
      </trkpt>
      <trkpt lat="64.005275024101138" lon="11.497673001140356">
        <ele>3.5</ele>
        <time>2017-06-29T11:21:04Z</time>
      </trkpt>
      <trkpt lat="64.005229007452726" lon="11.49772304110229">
        <ele>3.02</ele>
        <time>2017-06-29T11:21:05Z</time>
      </trkpt>
      <trkpt lat="64.005192965269089" lon="11.497823037207127">
        <ele>2.54</ele>
        <time>2017-06-29T11:21:06Z</time>
      </trkpt>
      <trkpt lat="64.005164969712496" lon="11.497957985848188">
        <ele>2.54</ele>
        <time>2017-06-29T11:21:07Z</time>
      </trkpt>
      <trkpt lat="64.005145020782948" lon="11.49810902774334">
        <ele>2.54</ele>
        <time>2017-06-29T11:21:08Z</time>
      </trkpt>
      <trkpt lat="64.005131023004651" lon="11.498270966112614">
        <ele>2.06</ele>
        <time>2017-06-29T11:21:09Z</time>
      </trkpt>
      <trkpt lat="64.005120964720845" lon="11.498424019664526">
        <ele>1.58</ele>
        <time>2017-06-29T11:21:10Z</time>
      </trkpt>
      <trkpt lat="64.005113001912832" lon="11.498576989397407">
        <ele>1.58</ele>
        <time>2017-06-29T11:21:11Z</time>
      </trkpt>
      <trkpt lat="64.005102021619678" lon="11.498843031004071">
        <ele>0.62</ele>
        <time>2017-06-29T11:21:13Z</time>
      </trkpt>
      <trkpt lat="64.005080983042717" lon="11.498956019058824">
        <ele>-0.34</ele>
        <time>2017-06-29T11:21:14Z</time>
      </trkpt>
      <trkpt lat="64.005061034113169" lon="11.499060960486531">
        <ele>-0.34</ele>
        <time>2017-06-29T11:21:15Z</time>
      </trkpt>
      <trkpt lat="64.005024991929531" lon="11.49912198074162">
        <ele>-0.34</ele>
        <time>2017-06-29T11:21:16Z</time>
      </trkpt>
      <trkpt lat="64.004985010251403" lon="11.499149976298213">
        <ele>-0.34</ele>
        <time>2017-06-29T11:21:17Z</time>
      </trkpt>
      <trkpt lat="64.004934970289469" lon="11.499133966863155">
        <ele>0.14</ele>
        <time>2017-06-29T11:21:18Z</time>
      </trkpt>
      <trkpt lat="64.004876967519522" lon="11.499098008498549">
        <ele>-0.34</ele>
        <time>2017-06-29T11:21:19Z</time>
      </trkpt>
      <trkpt lat="64.004815025255084" lon="11.499041011556983">
        <ele>-0.34</ele>
        <time>2017-06-29T11:21:20Z</time>
      </trkpt>
      <trkpt lat="64.004751993343234" lon="11.498971022665501">
        <ele>-0.34</ele>
        <time>2017-06-29T11:21:21Z</time>
      </trkpt>
      <trkpt lat="64.003940038383007" lon="11.49776503443718">
        <ele>8.310000000000001</ele>
        <time>2017-06-29T11:21:31Z</time>
      </trkpt>
      <trkpt lat="64.003858985379338" lon="11.497589014470577">
        <ele>9.75</ele>
        <time>2017-06-29T11:21:32Z</time>
      </trkpt>
      <trkpt lat="64.003711966797709" lon="11.497170003131032">
        <ele>11.67</ele>
        <time>2017-06-29T11:21:34Z</time>
      </trkpt>
      <trkpt lat="64.003650024533272" lon="11.496932040899992">
        <ele>12.630000000000001</ele>
        <time>2017-06-29T11:21:35Z</time>
      </trkpt>
      <trkpt lat="64.003500994294882" lon="11.496129976585507">
        <ele>17.440000000000001</ele>
        <time>2017-06-29T11:21:38Z</time>
      </trkpt>
      <trkpt lat="64.003467969596386" lon="11.495843986049294">
        <ele>18.879999999999999</ele>
        <time>2017-06-29T11:21:39Z</time>
      </trkpt>
      <trkpt lat="64.00345497764647" lon="11.495547015219927">
        <ele>20.32</ele>
        <time>2017-06-29T11:21:40Z</time>
      </trkpt>
      <trkpt lat="64.003457995131612" lon="11.495250966399908">
        <ele>21.289999999999999</ele>
        <time>2017-06-29T11:21:41Z</time>
      </trkpt>
      <trkpt lat="64.003453971818089" lon="11.494968999177217">
        <ele>22.25</ele>
        <time>2017-06-29T11:21:42Z</time>
      </trkpt>
      <trkpt lat="64.003440979868174" lon="11.494687031954527">
        <ele>23.210000000000001</ele>
        <time>2017-06-29T11:21:43Z</time>
      </trkpt>
      <trkpt lat="64.003408038988709" lon="11.494430964812636">
        <ele>24.170000000000002</ele>
        <time>2017-06-29T11:21:44Z</time>
      </trkpt>
      <trkpt lat="64.003355987370014" lon="11.494196020066738">
        <ele>25.129999999999999</ele>
        <time>2017-06-29T11:21:45Z</time>
      </trkpt>
      <trkpt lat="64.003281975165009" lon="11.493984963744879">
        <ele>25.129999999999999</ele>
        <time>2017-06-29T11:21:46Z</time>
      </trkpt>
      <trkpt lat="64.003190025687218" lon="11.493799975141883">
        <ele>25.609999999999999</ele>
        <time>2017-06-29T11:21:47Z</time>
      </trkpt>
      <trkpt lat="64.003085000440478" lon="11.493625966832042">
        <ele>26.09</ele>
        <time>2017-06-29T11:21:48Z</time>
      </trkpt>
      <trkpt lat="64.002968994900584" lon="11.493466962128878">
        <ele>26.57</ele>
        <time>2017-06-29T11:21:49Z</time>
      </trkpt>
      <trkpt lat="64.002845026552677" lon="11.493312986567616">
        <ele>27.050000000000001</ele>
        <time>2017-06-29T11:21:50Z</time>
      </trkpt>
      <trkpt lat="64.001951012760401" lon="11.491522025316954">
        <ele>33.299999999999997</ele>
        <time>2017-06-29T11:21:58Z</time>
      </trkpt>
      <trkpt lat="64.001394035294652" lon="11.490412009879947">
        <ele>39.07</ele>
        <time>2017-06-29T11:22:03Z</time>
      </trkpt>
      <trkpt lat="64.001251962035894" lon="11.490242024883628">
        <ele>40.030000000000001</ele>
        <time>2017-06-29T11:22:04Z</time>
      </trkpt>
      <trkpt lat="64.000270022079349" lon="11.489354968070984">
        <ele>47.719999999999999</ele>
        <time>2017-06-29T11:22:12Z</time>
      </trkpt>
      <trkpt lat="64.000111017376184" lon="11.489171991124749">
        <ele>50.130000000000003</ele>
        <time>2017-06-29T11:22:14Z</time>
      </trkpt>
      <trkpt lat="64.000045973807573" lon="11.489059003069997">
        <ele>52.530000000000001</ele>
        <time>2017-06-29T11:22:15Z</time>
      </trkpt>
      <trkpt lat="63.999983025714755" lon="11.488936962559819">
        <ele>53.009999999999998</ele>
        <time>2017-06-29T11:22:16Z</time>
      </trkpt>
      <trkpt lat="63.999924017116427" lon="11.488803019747138">
        <ele>53.969999999999999</ele>
        <time>2017-06-29T11:22:17Z</time>
      </trkpt>
      <trkpt lat="63.999867020174861" lon="11.488660024479032">
        <ele>54.93</ele>
        <time>2017-06-29T11:22:18Z</time>
      </trkpt>
      <trkpt lat="63.999419007450342" lon="11.486736964434385">
        <ele>65.510000000000005</ele>
        <time>2017-06-29T11:22:29Z</time>
      </trkpt>
      <trkpt lat="63.998636975884438" lon="11.484200013801455">
        <ele>66.469999999999999</ele>
        <time>2017-06-29T11:22:42Z</time>
      </trkpt>
      <trkpt lat="63.998069018125534" lon="11.483228970319033">
        <ele>67.430000000000007</ele>
        <time>2017-06-29T11:22:48Z</time>
      </trkpt>
      <trkpt lat="63.997987965121865" lon="11.483042975887656">
        <ele>67.909999999999997</ele>
        <time>2017-06-29T11:22:49Z</time>
      </trkpt>
      <trkpt lat="63.997916970402002" lon="11.482844995334744">
        <ele>68.390000000000001</ele>
        <time>2017-06-29T11:22:50Z</time>
      </trkpt>
      <trkpt lat="63.997486978769302" lon="11.48090198636055">
        <ele>65.030000000000001</ele>
        <time>2017-06-29T11:22:59Z</time>
      </trkpt>
      <trkpt lat="63.997411960735917" lon="11.480497978627682">
        <ele>62.140000000000001</ele>
        <time>2017-06-29T11:23:06Z</time>
      </trkpt>
      <trkpt lat="63.997392011806369" lon="11.480288011953235">
        <ele>60.700000000000003</ele>
        <time>2017-06-29T11:24:02Z</time>
      </trkpt>
      <trkpt lat="63.997212974354625" lon="11.478624036535621">
        <ele>56.369999999999997</ele>
        <time>2017-06-29T11:24:10Z</time>
      </trkpt>
      <trkpt lat="63.997227977961302" lon="11.475798999890685">
        <ele>42.920000000000002</ele>
        <time>2017-06-29T11:24:21Z</time>
      </trkpt>
      <trkpt lat="63.997604995965958" lon="11.472801966592669">
        <ele>25.609999999999999</ele>
        <time>2017-06-29T11:24:33Z</time>
      </trkpt>
      <trkpt lat="63.997602984309196" lon="11.472556041553617">
        <ele>24.170000000000002</ele>
        <time>2017-06-29T11:24:34Z</time>
      </trkpt>
      <trkpt lat="63.997590998187661" lon="11.472310032695532">
        <ele>23.690000000000001</ele>
        <time>2017-06-29T11:24:35Z</time>
      </trkpt>
      <trkpt lat="63.997561996802688" lon="11.472077015787363">
        <ele>22.73</ele>
        <time>2017-06-29T11:24:36Z</time>
      </trkpt>
      <trkpt lat="63.997520003467798" lon="11.471859002485871">
        <ele>22.25</ele>
        <time>2017-06-29T11:24:37Z</time>
      </trkpt>
      <trkpt lat="63.99745998904109" lon="11.471643000841141">
        <ele>21.289999999999999</ele>
        <time>2017-06-29T11:24:38Z</time>
      </trkpt>
      <trkpt lat="63.997391005977988" lon="11.471439991146326">
        <ele>20.809999999999999</ele>
        <time>2017-06-29T11:24:39Z</time>
      </trkpt>
      <trkpt lat="63.997313976287842" lon="11.471241004765034">
        <ele>19.359999999999999</ele>
        <time>2017-06-29T11:24:40Z</time>
      </trkpt>
      <trkpt lat="63.99722496047616" lon="11.471046963706613">
        <ele>18.399999999999999</ele>
        <time>2017-06-29T11:24:41Z</time>
      </trkpt>
      <trkpt lat="63.997126976028085" lon="11.4708680100739">
        <ele>17.920000000000002</ele>
        <time>2017-06-29T11:24:42Z</time>
      </trkpt>
      <trkpt lat="63.996274033561349" lon="11.469335965812206">
        <ele>18.879999999999999</ele>
        <time>2017-06-29T11:24:52Z</time>
      </trkpt>
      <trkpt lat="63.996226005256176" lon="11.469289027154446">
        <ele>18.879999999999999</ele>
        <time>2017-06-29T11:24:53Z</time>
      </trkpt>
      <trkpt lat="63.996172025799751" lon="11.4693000074476">
        <ele>19.359999999999999</ele>
        <time>2017-06-29T11:24:54Z</time>
      </trkpt>
      <trkpt lat="63.996117040514946" lon="11.469372007995844">
        <ele>19.359999999999999</ele>
        <time>2017-06-29T11:24:55Z</time>
      </trkpt>
      <trkpt lat="63.996067000553012" lon="11.46949497051537">
        <ele>18.879999999999999</ele>
        <time>2017-06-29T11:24:56Z</time>
      </trkpt>
      <trkpt lat="63.996026013046503" lon="11.469633020460606">
        <ele>19.84</ele>
        <time>2017-06-29T11:24:57Z</time>
      </trkpt>
      <trkpt lat="63.995981002226472" lon="11.46979495882988">
        <ele>20.32</ele>
        <time>2017-06-29T11:24:58Z</time>
      </trkpt>
      <trkpt lat="63.995499964803457" lon="11.471514003351331">
        <ele>27.050000000000001</ele>
        <time>2017-06-29T11:25:07Z</time>
      </trkpt>
      <trkpt lat="63.995426036417484" lon="11.471706032752991">
        <ele>27.530000000000001</ele>
        <time>2017-06-29T11:25:08Z</time>
      </trkpt>
      <trkpt lat="63.995341965928674" lon="11.471875011920929">
        <ele>28.98</ele>
        <time>2017-06-29T11:25:09Z</time>
      </trkpt>
      <trkpt lat="63.995254039764404" lon="11.47202898748219">
        <ele>29.460000000000001</ele>
        <time>2017-06-29T11:25:10Z</time>
      </trkpt>
      <trkpt lat="63.9951610006392" lon="11.472176006063819">
        <ele>30.420000000000002</ele>
        <time>2017-06-29T11:25:11Z</time>
      </trkpt>
      <trkpt lat="63.995062010362744" lon="11.472321012988687">
        <ele>31.379999999999999</ele>
        <time>2017-06-29T11:25:12Z</time>
      </trkpt>
      <trkpt lat="63.99443001486361" lon="11.473040012642741">
        <ele>34.259999999999998</ele>
        <time>2017-06-29T11:25:18Z</time>
      </trkpt>
      <trkpt lat="63.994291964918375" lon="11.47312399931252">
        <ele>34.740000000000002</ele>
        <time>2017-06-29T11:25:19Z</time>
      </trkpt>
      <trkpt lat="63.994142012670636" lon="11.47318996489048">
        <ele>35.229999999999997</ele>
        <time>2017-06-29T11:25:20Z</time>
      </trkpt>
      <trkpt lat="63.993982002139091" lon="11.473218966275454">
        <ele>35.710000000000001</ele>
        <time>2017-06-29T11:25:21Z</time>
      </trkpt>
      <trkpt lat="63.993816040456295" lon="11.473233969882131">
        <ele>35.710000000000001</ele>
        <time>2017-06-29T11:25:22Z</time>
      </trkpt>
      <trkpt lat="63.992142006754875" lon="11.473088040947914">
        <ele>40.990000000000002</ele>
        <time>2017-06-29T11:25:31Z</time>
      </trkpt>
      <trkpt lat="63.990824036300182" lon="11.472400976344943">
        <ele>45.799999999999997</ele>
        <time>2017-06-29T11:25:38Z</time>
      </trkpt>
      <trkpt lat="63.990633012726903" lon="11.472379015758634">
        <ele>45.799999999999997</ele>
        <time>2017-06-29T11:25:39Z</time>
      </trkpt>
      <trkpt lat="63.990435032173991" lon="11.472407011315227">
        <ele>45.799999999999997</ele>
        <time>2017-06-29T11:25:40Z</time>
      </trkpt>
      <trkpt lat="63.990239985287189" lon="11.472461996600032">
        <ele>45.799999999999997</ele>
        <time>2017-06-29T11:25:41Z</time>
      </trkpt>
      <trkpt lat="63.9900460280478" lon="11.472556041553617">
        <ele>46.280000000000001</ele>
        <time>2017-06-29T11:25:42Z</time>
      </trkpt>
      <trkpt lat="63.98985399864614" lon="11.472699036821723">
        <ele>46.280000000000001</ele>
        <time>2017-06-29T11:25:43Z</time>
      </trkpt>
      <trkpt lat="63.989666998386383" lon="11.472872039303184">
        <ele>46.759999999999998</ele>
        <time>2017-06-29T11:25:44Z</time>
      </trkpt>
      <trkpt lat="63.989484021440148" lon="11.473083011806011">
        <ele>47.240000000000002</ele>
        <time>2017-06-29T11:25:45Z</time>
      </trkpt>
      <trkpt lat="63.989304983988404" lon="11.473303958773613">
        <ele>47.719999999999999</ele>
        <time>2017-06-29T11:25:46Z</time>
      </trkpt>
      <trkpt lat="63.986343992874026" lon="11.476598968729377">
        <ele>46.280000000000001</ele>
        <time>2017-06-29T11:26:02Z</time>
      </trkpt>
      <trkpt lat="63.986164033412933" lon="11.476681027561426">
        <ele>46.759999999999998</ele>
        <time>2017-06-29T11:26:03Z</time>
      </trkpt>
      <trkpt lat="63.98598700761795" lon="11.476716985926032">
        <ele>47.240000000000002</ele>
        <time>2017-06-29T11:26:04Z</time>
      </trkpt>
      <trkpt lat="63.985812999308109" lon="11.476702988147736">
        <ele>47.719999999999999</ele>
        <time>2017-06-29T11:26:05Z</time>
      </trkpt>
      <trkpt lat="63.985644020140171" lon="11.476643979549408">
        <ele>48.200000000000003</ele>
        <time>2017-06-29T11:26:06Z</time>
      </trkpt>
      <trkpt lat="63.985480992123485" lon="11.476548006758094">
        <ele>49.159999999999997</ele>
        <time>2017-06-29T11:26:07Z</time>
      </trkpt>
      <trkpt lat="63.985325004905462" lon="11.476421020925045">
        <ele>50.609999999999999</ele>
        <time>2017-06-29T11:26:08Z</time>
      </trkpt>
      <trkpt lat="63.985177986323833" lon="11.476270984858274">
        <ele>52.049999999999997</ele>
        <time>2017-06-29T11:26:09Z</time>
      </trkpt>
      <trkpt lat="63.98504002019763" lon="11.476098988205194">
        <ele>54.450000000000003</ele>
        <time>2017-06-29T11:26:10Z</time>
      </trkpt>
      <trkpt lat="63.984916973859072" lon="11.47591601125896">
        <ele>56.859999999999999</ele>
        <time>2017-06-29T11:26:11Z</time>
      </trkpt>
      <trkpt lat="63.983504958450794" lon="11.473205974325538">
        <ele>72.719999999999999</ele>
        <time>2017-06-29T11:26:24Z</time>
      </trkpt>
      <trkpt lat="63.982089003548026" lon="11.469781966879964">
        <ele>80.409999999999997</ele>
        <time>2017-06-29T11:26:36Z</time>
      </trkpt>
      <trkpt lat="63.980970019474626" lon="11.466748975217342">
        <ele>101.08</ele>
        <time>2017-06-29T11:26:46Z</time>
      </trkpt>
      <trkpt lat="63.980910005047917" lon="11.46644102409482">
        <ele>102.04000000000001</ele>
        <time>2017-06-29T11:26:47Z</time>
      </trkpt>
      <trkpt lat="63.980861976742744" lon="11.466110022738576">
        <ele>102.52</ele>
        <time>2017-06-29T11:26:48Z</time>
      </trkpt>
      <trkpt lat="63.98083096370101" lon="11.465750019997358">
        <ele>102.52</ele>
        <time>2017-06-29T11:26:49Z</time>
      </trkpt>
      <trkpt lat="63.980806991457939" lon="11.465374007821083">
        <ele>102.52</ele>
        <time>2017-06-29T11:26:50Z</time>
      </trkpt>
      <trkpt lat="63.980304999276996" lon="11.461551021784544">
        <ele>112.61</ele>
        <time>2017-06-29T11:27:00Z</time>
      </trkpt>
      <trkpt lat="63.979735029861331" lon="11.459314981475472">
        <ele>121.26000000000001</ele>
        <time>2017-06-29T11:27:07Z</time>
      </trkpt>
      <trkpt lat="63.97885300219059" lon="11.45687903277576">
        <ele>123.67</ele>
        <time>2017-06-29T11:27:15Z</time>
      </trkpt>
      <trkpt lat="63.977905008941889" lon="11.454450041055679">
        <ele>128.47</ele>
        <time>2017-06-29T11:27:23Z</time>
      </trkpt>
      <trkpt lat="63.977755978703499" lon="11.454246025532484">
        <ele>128.94999999999999</ele>
        <time>2017-06-29T11:27:24Z</time>
      </trkpt>
      <trkpt lat="63.977596974000335" lon="11.45406698808074">
        <ele>129.43000000000001</ele>
        <time>2017-06-29T11:27:25Z</time>
      </trkpt>
      <trkpt lat="63.975680032745004" lon="11.452576015144587">
        <ele>134.72</ele>
        <time>2017-06-29T11:27:35Z</time>
      </trkpt>
      <trkpt lat="63.974315961822867" lon="11.451519979164004">
        <ele>143.84999999999999</ele>
        <time>2017-06-29T11:27:43Z</time>
      </trkpt>
      <trkpt lat="63.973251041024923" lon="11.450954033061862">
        <ele>148.18000000000001</ele>
        <time>2017-06-29T11:27:50Z</time>
      </trkpt>
      <trkpt lat="63.970240009948611" lon="11.44989799708128">
        <ele>154.43000000000001</ele>
        <time>2017-06-29T11:28:08Z</time>
      </trkpt>
      <trkpt lat="63.967398963868618" lon="11.449106996878982">
        <ele>146.25999999999999</ele>
        <time>2017-06-29T11:28:24Z</time>
      </trkpt>
      <trkpt lat="63.963732970878482" lon="11.448036963120103">
        <ele>136.63999999999999</ele>
        <time>2017-06-29T11:28:43Z</time>
      </trkpt>
      <trkpt lat="63.961601033806801" lon="11.447467999532819">
        <ele>127.98999999999999</ele>
        <time>2017-06-29T11:28:55Z</time>
      </trkpt>
      <trkpt lat="63.96104103885591" lon="11.447249986231327">
        <ele>127.03</ele>
        <time>2017-06-29T11:29:00Z</time>
      </trkpt>
      <trkpt lat="63.960987981408834" lon="11.447173962369561">
        <ele>127.03</ele>
        <time>2017-06-29T11:29:01Z</time>
      </trkpt>
      <trkpt lat="63.960951017215848" lon="11.447076983749866">
        <ele>127.03</ele>
        <time>2017-06-29T11:29:02Z</time>
      </trkpt>
      <trkpt lat="63.960926961153746" lon="11.446947986260056">
        <ele>127.03</ele>
        <time>2017-06-29T11:29:03Z</time>
      </trkpt>
      <trkpt lat="63.960909023880959" lon="11.446789987385273">
        <ele>126.55</ele>
        <time>2017-06-29T11:29:04Z</time>
      </trkpt>
      <trkpt lat="63.96089100278914" lon="11.446615979075432">
        <ele>126.55</ele>
        <time>2017-06-29T11:29:05Z</time>
      </trkpt>
      <trkpt lat="63.960539968684316" lon="11.444674981757998">
        <ele>125.11</ele>
        <time>2017-06-29T11:29:14Z</time>
      </trkpt>
      <trkpt lat="63.959981985390186" lon="11.44225001335144">
        <ele>129.91999999999999</ele>
        <time>2017-06-29T11:29:26Z</time>
      </trkpt>
      <trkpt lat="63.959357030689716" lon="11.43958599306643">
        <ele>120.78</ele>
        <time>2017-06-29T11:29:37Z</time>
      </trkpt>
      <trkpt lat="63.958941958844662" lon="11.436825999990106">
        <ele>119.81999999999999</ele>
        <time>2017-06-29T11:29:49Z</time>
      </trkpt>
      <trkpt lat="63.958801981061697" lon="11.435211980715394">
        <ele>116.94</ele>
        <time>2017-06-29T11:29:59Z</time>
      </trkpt>
      <trkpt lat="63.958581034094095" lon="11.43262499012053">
        <ele>107.81</ele>
        <time>2017-06-29T11:30:12Z</time>
      </trkpt>
      <trkpt lat="63.958204016089439" lon="11.42929301597178">
        <ele>98.670000000000002</ele>
        <time>2017-06-29T11:30:29Z</time>
      </trkpt>
      <trkpt lat="63.957493985071778" lon="11.42712595872581">
        <ele>95.310000000000002</ele>
        <time>2017-06-29T11:30:40Z</time>
      </trkpt>
      <trkpt lat="63.95668001845479" lon="11.425615958869457">
        <ele>91.459999999999994</ele>
        <time>2017-06-29T11:30:51Z</time>
      </trkpt>
      <trkpt lat="63.956232005730271" lon="11.425092006102204">
        <ele>90.980000000000004</ele>
        <time>2017-06-29T11:30:57Z</time>
      </trkpt>
      <trkpt lat="63.955384008586407" lon="11.424609962850809">
        <ele>82.810000000000002</ele>
        <time>2017-06-29T11:31:05Z</time>
      </trkpt>
      <trkpt lat="63.953513000160456" lon="11.424206960946321">
        <ele>68.390000000000001</ele>
        <time>2017-06-29T11:31:22Z</time>
      </trkpt>
      <trkpt lat="63.952394016087055" lon="11.424497980624437">
        <ele>60.219999999999999</ele>
        <time>2017-06-29T11:31:33Z</time>
      </trkpt>
      <trkpt lat="63.951694965362549" lon="11.424511978402734">
        <ele>54.93</ele>
        <time>2017-06-29T11:31:40Z</time>
      </trkpt>
      <trkpt lat="63.95077102817595" lon="11.424143007025123">
        <ele>47.240000000000002</ele>
        <time>2017-06-29T11:31:51Z</time>
      </trkpt>
      <trkpt lat="63.949985979124904" lon="11.423186967149377">
        <ele>41.469999999999999</ele>
        <time>2017-06-29T11:32:03Z</time>
      </trkpt>
      <trkpt lat="63.949649026617408" lon="11.422497974708676">
        <ele>38.590000000000003</ele>
        <time>2017-06-29T11:32:09Z</time>
      </trkpt>
      <trkpt lat="63.949575014412403" lon="11.422411976382136">
        <ele>38.109999999999999</ele>
        <time>2017-06-29T11:32:10Z</time>
      </trkpt>
      <trkpt lat="63.949021976441145" lon="11.421907972544432">
        <ele>32.82</ele>
        <time>2017-06-29T11:32:18Z</time>
      </trkpt>
      <trkpt lat="63.948932038620114" lon="11.421856004744768">
        <ele>31.859999999999999</ele>
        <time>2017-06-29T11:32:19Z</time>
      </trkpt>
      <trkpt lat="63.94778598099947" lon="11.421718038618565">
        <ele>23.210000000000001</ele>
        <time>2017-06-29T11:32:32Z</time>
      </trkpt>
      <trkpt lat="63.946299031376839" lon="11.421810993924737">
        <ele>24.170000000000002</ele>
        <time>2017-06-29T11:32:47Z</time>
      </trkpt>
      <trkpt lat="63.945156997069716" lon="11.420593019574881">
        <ele>22.25</ele>
        <time>2017-06-29T11:32:57Z</time>
      </trkpt>
      <trkpt lat="63.945062030106783" lon="11.420414987951517">
        <ele>22.25</ele>
        <time>2017-06-29T11:32:58Z</time>
      </trkpt>
      <trkpt lat="63.944978965446353" lon="11.420235028490424">
        <ele>22.25</ele>
        <time>2017-06-29T11:32:59Z</time>
      </trkpt>
      <trkpt lat="63.944704039022326" lon="11.419532960280776">
        <ele>20.809999999999999</ele>
        <time>2017-06-29T11:33:05Z</time>
      </trkpt>
      <trkpt lat="63.944574035704136" lon="11.419442016631365">
        <ele>20.809999999999999</ele>
        <time>2017-06-29T11:33:11Z</time>
      </trkpt>
      <trkpt lat="63.944490971043706" lon="11.419459031894803">
        <ele>20.32</ele>
        <time>2017-06-29T11:33:12Z</time>
      </trkpt>
      <trkpt lat="63.944397009909153" lon="11.419498007744551">
        <ele>20.32</ele>
        <time>2017-06-29T11:33:13Z</time>
      </trkpt>
      <trkpt lat="63.943480029702187" lon="11.419931016862392">
        <ele>20.809999999999999</ele>
        <time>2017-06-29T11:33:20Z</time>
      </trkpt>
      <trkpt lat="63.94048199057579" lon="11.420828970149159">
        <ele>20.809999999999999</ele>
        <time>2017-06-29T11:33:39Z</time>
      </trkpt>
      <trkpt lat="63.939559981226921" lon="11.421039020642638">
        <ele>19.84</ele>
        <time>2017-06-29T11:33:47Z</time>
      </trkpt>
      <trkpt lat="63.939425032585859" lon="11.42104497179389">
        <ele>19.84</ele>
        <time>2017-06-29T11:33:54Z</time>
      </trkpt>
      <trkpt lat="63.939403994008899" lon="11.421015970408916">
        <ele>19.359999999999999</ele>
        <time>2017-06-29T11:34:08Z</time>
      </trkpt>
      <trkpt lat="63.939391002058983" lon="11.420994009822607">
        <ele>19.359999999999999</ele>
        <time>2017-06-29T11:34:14Z</time>
      </trkpt>
      <trkpt lat="63.939357977360487" lon="11.420957967638969">
        <ele>19.359999999999999</ele>
        <time>2017-06-29T11:34:15Z</time>
      </trkpt>
      <trkpt lat="63.939301986247301" lon="11.420933995395899">
        <ele>19.359999999999999</ele>
        <time>2017-06-29T11:34:16Z</time>
      </trkpt>
      <trkpt lat="63.939225040376186" lon="11.420931983739138">
        <ele>19.359999999999999</ele>
        <time>2017-06-29T11:34:17Z</time>
      </trkpt>
      <trkpt lat="63.939138958230615" lon="11.420941036194563">
        <ele>19.359999999999999</ele>
        <time>2017-06-29T11:34:18Z</time>
      </trkpt>
      <trkpt lat="63.938157018274069" lon="11.421147985383868">
        <ele>21.289999999999999</ele>
        <time>2017-06-29T11:34:26Z</time>
      </trkpt>
      <trkpt lat="63.937323018908501" lon="11.421341020613909">
        <ele>21.77</ele>
        <time>2017-06-29T11:34:33Z</time>
      </trkpt>
      <trkpt lat="63.935735989362001" lon="11.421779980883002">
        <ele>21.289999999999999</ele>
        <time>2017-06-29T11:34:43Z</time>
      </trkpt>
      <trkpt lat="63.933687033131719" lon="11.422324972227216">
        <ele>20.32</ele>
        <time>2017-06-29T11:34:53Z</time>
      </trkpt>
      <trkpt lat="63.930650018155575" lon="11.423142962157726">
        <ele>22.25</ele>
        <time>2017-06-29T11:35:07Z</time>
      </trkpt>
      <trkpt lat="63.929462973028421" lon="11.424381975084543">
        <ele>21.77</ele>
        <time>2017-06-29T11:35:13Z</time>
      </trkpt>
      <trkpt lat="63.926413971930742" lon="11.427781004458666">
        <ele>25.129999999999999</ele>
        <time>2017-06-29T11:35:28Z</time>
      </trkpt>
      <trkpt lat="63.92559296451509" lon="11.428393973037601">
        <ele>27.050000000000001</ele>
        <time>2017-06-29T11:35:33Z</time>
      </trkpt>
      <trkpt lat="63.925451980903745" lon="11.428600000217557">
        <ele>27.530000000000001</ele>
        <time>2017-06-29T11:35:34Z</time>
      </trkpt>
      <trkpt lat="63.925321977585554" lon="11.428841985762119">
        <ele>27.530000000000001</ele>
        <time>2017-06-29T11:35:35Z</time>
      </trkpt>
      <trkpt lat="63.925200020894408" lon="11.429108027368784">
        <ele>28.02</ele>
        <time>2017-06-29T11:35:36Z</time>
      </trkpt>
      <trkpt lat="63.925085021182895" lon="11.429375996813178">
        <ele>28.5</ele>
        <time>2017-06-29T11:35:37Z</time>
      </trkpt>
      <trkpt lat="63.924249010160565" lon="11.431321017444134">
        <ele>31.859999999999999</ele>
        <time>2017-06-29T11:35:46Z</time>
      </trkpt>
      <trkpt lat="63.923488017171621" lon="11.432466991245747">
        <ele>33.299999999999997</ele>
        <time>2017-06-29T11:35:54Z</time>
      </trkpt>
      <trkpt lat="63.923375029116869" lon="11.432543015107512">
        <ele>33.780000000000001</ele>
        <time>2017-06-29T11:35:55Z</time>
      </trkpt>
      <trkpt lat="63.923259023576975" lon="11.432596994563937">
        <ele>34.259999999999998</ele>
        <time>2017-06-29T11:35:56Z</time>
      </trkpt>
      <trkpt lat="63.923140000551939" lon="11.432642005383968">
        <ele>34.259999999999998</ele>
        <time>2017-06-29T11:35:57Z</time>
      </trkpt>
      <trkpt lat="63.923017960041761" lon="11.432662960141897">
        <ele>34.740000000000002</ele>
        <time>2017-06-29T11:35:58Z</time>
      </trkpt>
      <trkpt lat="63.922893991693854" lon="11.432668995112181">
        <ele>35.229999999999997</ele>
        <time>2017-06-29T11:35:59Z</time>
      </trkpt>
      <trkpt lat="63.922770023345947" lon="11.432659020647407">
        <ele>35.229999999999997</ele>
        <time>2017-06-29T11:36:00Z</time>
      </trkpt>
      <trkpt lat="63.922645971179008" lon="11.432637982070446">
        <ele>35.710000000000001</ele>
        <time>2017-06-29T11:36:01Z</time>
      </trkpt>
      <trkpt lat="63.920418983325362" lon="11.432331958785653">
        <ele>39.549999999999997</ele>
        <time>2017-06-29T11:36:18Z</time>
      </trkpt>
      <trkpt lat="63.918679989874363" lon="11.433104015886784">
        <ele>39.07</ele>
        <time>2017-06-29T11:36:32Z</time>
      </trkpt>
      <trkpt lat="63.917046021670103" lon="11.434143036603928">
        <ele>39.549999999999997</ele>
        <time>2017-06-29T11:36:46Z</time>
      </trkpt>
      <trkpt lat="63.915697960183024" lon="11.435534013435245">
        <ele>37.149999999999999</ele>
        <time>2017-06-29T11:36:55Z</time>
      </trkpt>
      <trkpt lat="63.913527969270945" lon="11.43799502402544">
        <ele>39.07</ele>
        <time>2017-06-29T11:37:09Z</time>
      </trkpt>
      <trkpt lat="63.911440037190914" lon="11.439964016899467">
        <ele>38.590000000000003</ele>
        <time>2017-06-29T11:37:21Z</time>
      </trkpt>
      <trkpt lat="63.909530974924564" lon="11.440542032942176">
        <ele>44.359999999999999</ele>
        <time>2017-06-29T11:37:29Z</time>
      </trkpt>
      <trkpt lat="63.908224990591407" lon="11.440805979073048">
        <ele>47.240000000000002</ele>
        <time>2017-06-29T11:37:35Z</time>
      </trkpt>
      <trkpt lat="63.90683501958847" lon="11.441137986257672">
        <ele>53.009999999999998</ele>
        <time>2017-06-29T11:37:44Z</time>
      </trkpt>
      <trkpt lat="63.905162997543812" lon="11.440879991278052">
        <ele>59.740000000000002</ele>
        <time>2017-06-29T11:37:54Z</time>
      </trkpt>
      <trkpt lat="63.901644023135304" lon="11.439409973099828">
        <ele>57.340000000000003</ele>
        <time>2017-06-29T11:38:14Z</time>
      </trkpt>
      <trkpt lat="63.898664005100727" lon="11.438193004578352">
        <ele>54.450000000000003</ele>
        <time>2017-06-29T11:38:29Z</time>
      </trkpt>
      <trkpt lat="63.896416984498501" lon="11.436828011646867">
        <ele>57.82</ele>
        <time>2017-06-29T11:38:41Z</time>
      </trkpt>
      <trkpt lat="63.894541030749679" lon="11.434335988014936">
        <ele>65.510000000000005</ele>
        <time>2017-06-29T11:38:52Z</time>
      </trkpt>
      <trkpt lat="63.893517013639212" lon="11.433129999786615">
        <ele>65.989999999999995</ele>
        <time>2017-06-29T11:39:00Z</time>
      </trkpt>
      <trkpt lat="63.892438011243939" lon="11.431408021599054">
        <ele>67.430000000000007</ele>
        <time>2017-06-29T11:39:09Z</time>
      </trkpt>
      <trkpt lat="63.891362026333809" lon="11.428847014904022">
        <ele>71.269999999999996</ele>
        <time>2017-06-29T11:39:18Z</time>
      </trkpt>
      <trkpt lat="63.890862967818975" lon="11.428181994706392">
        <ele>72.719999999999999</ele>
        <time>2017-06-29T11:39:21Z</time>
      </trkpt>
      <trkpt lat="63.889377024024725" lon="11.426876010373235">
        <ele>74.640000000000001</ele>
        <time>2017-06-29T11:39:28Z</time>
      </trkpt>
      <trkpt lat="63.88829399831593" lon="11.425303984433413">
        <ele>77.519999999999996</ele>
        <time>2017-06-29T11:39:35Z</time>
      </trkpt>
      <trkpt lat="63.88814203441143" lon="11.42519099637866">
        <ele>78</ele>
        <time>2017-06-29T11:39:36Z</time>
      </trkpt>
      <trkpt lat="63.887980012223125" lon="11.425113966688514">
        <ele>78.480000000000004</ele>
        <time>2017-06-29T11:39:37Z</time>
      </trkpt>
      <trkpt lat="63.887817990034819" lon="11.425073985010386">
        <ele>78.969999999999999</ele>
        <time>2017-06-29T11:39:38Z</time>
      </trkpt>
      <trkpt lat="63.887653034180403" lon="11.425057975575328">
        <ele>79.930000000000007</ele>
        <time>2017-06-29T11:39:39Z</time>
      </trkpt>
      <trkpt lat="63.886201959103346" lon="11.425418984144926">
        <ele>85.689999999999998</ele>
        <time>2017-06-29T11:39:48Z</time>
      </trkpt>
      <trkpt lat="63.884229026734829" lon="11.427362998947501">
        <ele>92.420000000000002</ele>
        <time>2017-06-29T11:40:01Z</time>
      </trkpt>
      <trkpt lat="63.882695976644754" lon="11.428668983280659">
        <ele>90.019999999999996</ele>
        <time>2017-06-29T11:40:10Z</time>
      </trkpt>
      <trkpt lat="63.882510988041759" lon="11.428707959130406">
        <ele>89.540000000000006</ele>
        <time>2017-06-29T11:40:11Z</time>
      </trkpt>
      <trkpt lat="63.882324993610382" lon="11.428705025464296">
        <ele>88.579999999999998</ele>
        <time>2017-06-29T11:40:12Z</time>
      </trkpt>
      <trkpt lat="63.882142016664147" lon="11.42865196801722">
        <ele>88.099999999999994</ele>
        <time>2017-06-29T11:40:13Z</time>
      </trkpt>
      <trkpt lat="63.881958033889532" lon="11.428545014932752">
        <ele>87.140000000000001</ele>
        <time>2017-06-29T11:40:14Z</time>
      </trkpt>
      <trkpt lat="63.881774973124266" lon="11.428395984694362">
        <ele>86.659999999999997</ele>
        <time>2017-06-29T11:40:15Z</time>
      </trkpt>
      <trkpt lat="63.881595013663173" lon="11.428223988041282">
        <ele>86.180000000000007</ele>
        <time>2017-06-29T11:40:16Z</time>
      </trkpt>
      <trkpt lat="63.881413964554667" lon="11.428019972518086">
        <ele>85.689999999999998</ele>
        <time>2017-06-29T11:40:17Z</time>
      </trkpt>
      <trkpt lat="63.881240962073207" lon="11.427787961438298">
        <ele>85.209999999999994</ele>
        <time>2017-06-29T11:40:18Z</time>
      </trkpt>
      <trkpt lat="63.881079023703933" lon="11.427524015307426">
        <ele>84.730000000000004</ele>
        <time>2017-06-29T11:40:19Z</time>
      </trkpt>
      <trkpt lat="63.88092496432364" lon="11.427211035043001">
        <ele>84.730000000000004</ele>
        <time>2017-06-29T11:40:20Z</time>
      </trkpt>
      <trkpt lat="63.880780963227153" lon="11.426867041736841">
        <ele>84.25</ele>
        <time>2017-06-29T11:40:21Z</time>
      </trkpt>
      <trkpt lat="63.880649032071233" lon="11.426492035388947">
        <ele>84.25</ele>
        <time>2017-06-29T11:40:22Z</time>
      </trkpt>
      <trkpt lat="63.880529003217816" lon="11.426101019605994">
        <ele>83.769999999999996</ele>
        <time>2017-06-29T11:40:23Z</time>
      </trkpt>
      <trkpt lat="63.88042900711298" lon="11.425661975517869">
        <ele>83.769999999999996</ele>
        <time>2017-06-29T11:40:24Z</time>
      </trkpt>
      <trkpt lat="63.880337979644537" lon="11.425227960571647">
        <ele>83.290000000000006</ele>
        <time>2017-06-29T11:40:25Z</time>
      </trkpt>
      <trkpt lat="63.879701038822532" lon="11.42080700956285">
        <ele>75.120000000000005</ele>
        <time>2017-06-29T11:40:35Z</time>
      </trkpt>
      <trkpt lat="63.87922503054142" lon="11.416450012475252">
        <ele>65.510000000000005</ele>
        <time>2017-06-29T11:40:45Z</time>
      </trkpt>
      <trkpt lat="63.879129979759455" lon="11.416033012792468">
        <ele>64.069999999999993</ele>
        <time>2017-06-29T11:40:46Z</time>
      </trkpt>
      <trkpt lat="63.879008023068309" lon="11.415635962039232">
        <ele>63.579999999999998</ele>
        <time>2017-06-29T11:40:47Z</time>
      </trkpt>
      <trkpt lat="63.878864021971822" lon="11.415252992883325">
        <ele>63.579999999999998</ele>
        <time>2017-06-29T11:40:48Z</time>
      </trkpt>
      <trkpt lat="63.8775700237602" lon="11.41234296374023">
        <ele>62.619999999999997</ele>
        <time>2017-06-29T11:40:55Z</time>
      </trkpt>
      <trkpt lat="63.876482974737883" lon="11.409912966191769">
        <ele>60.700000000000003</ele>
        <time>2017-06-29T11:41:02Z</time>
      </trkpt>
      <trkpt lat="63.875130973756313" lon="11.408159974962473">
        <ele>58.299999999999997</ele>
        <time>2017-06-29T11:41:10Z</time>
      </trkpt>
      <trkpt lat="63.871980970725417" lon="11.404837975278497">
        <ele>60.219999999999999</ele>
        <time>2017-06-29T11:41:28Z</time>
      </trkpt>
      <trkpt lat="63.870462002232671" lon="11.404072036966681">
        <ele>61.659999999999997</ele>
        <time>2017-06-29T11:41:36Z</time>
      </trkpt>
      <trkpt lat="63.866419997066259" lon="11.403630981221795">
        <ele>59.740000000000002</ele>
        <time>2017-06-29T11:41:57Z</time>
      </trkpt>
      <trkpt lat="63.862659959122539" lon="11.402740990743041">
        <ele>54.450000000000003</ele>
        <time>2017-06-29T11:42:17Z</time>
      </trkpt>
      <trkpt lat="63.860410004854202" lon="11.40138303861022">
        <ele>45.32</ele>
        <time>2017-06-29T11:42:31Z</time>
      </trkpt>
      <trkpt lat="63.859385987743735" lon="11.399813024327159">
        <ele>44.840000000000003</ele>
        <time>2017-06-29T11:42:39Z</time>
      </trkpt>
      <trkpt lat="63.858242025598884" lon="11.39854702167213">
        <ele>44.359999999999999</ele>
        <time>2017-06-29T11:42:48Z</time>
      </trkpt>
      <trkpt lat="63.856708975508809" lon="11.398185007274151">
        <ele>40.509999999999998</ele>
        <time>2017-06-29T11:42:58Z</time>
      </trkpt>
      <trkpt lat="63.854576032608747" lon="11.398352980613708">
        <ele>32.82</ele>
        <time>2017-06-29T11:43:11Z</time>
      </trkpt>
      <trkpt lat="63.852761015295982" lon="11.398954968899488">
        <ele>25.129999999999999</ele>
        <time>2017-06-29T11:43:22Z</time>
      </trkpt>
      <trkpt lat="63.852601004764438" lon="11.398910041898489">
        <ele>24.649999999999999</ele>
        <time>2017-06-29T11:43:23Z</time>
      </trkpt>
      <trkpt lat="63.852442000061274" lon="11.398829994723201">
        <ele>24.170000000000002</ele>
        <time>2017-06-29T11:43:24Z</time>
      </trkpt>
      <trkpt lat="63.850846001878381" lon="11.39839799143374">
        <ele>17.920000000000002</ele>
        <time>2017-06-29T11:43:34Z</time>
      </trkpt>
      <trkpt lat="63.849958023056388" lon="11.399288987740874">
        <ele>14.56</ele>
        <time>2017-06-29T11:43:40Z</time>
      </trkpt>
      <trkpt lat="63.849230976775289" lon="11.401056982576847">
        <ele>10.710000000000001</ele>
        <time>2017-06-29T11:43:47Z</time>
      </trkpt>
      <trkpt lat="63.848034041002393" lon="11.403436018154025">
        <ele>8.310000000000001</ele>
        <time>2017-06-29T11:43:58Z</time>
      </trkpt>
      <trkpt lat="63.845825996249914" lon="11.407966017723083">
        <ele>3.98</ele>
        <time>2017-06-29T11:44:17Z</time>
      </trkpt>
      <trkpt lat="63.844319013878703" lon="11.4100650139153">
        <ele>5.42</ele>
        <time>2017-06-29T11:44:27Z</time>
      </trkpt>
      <trkpt lat="63.842575997114182" lon="11.411255998536944">
        <ele>7.35</ele>
        <time>2017-06-29T11:44:37Z</time>
      </trkpt>
      <trkpt lat="63.840512037277222" lon="11.411476023495197">
        <ele>18.399999999999999</ele>
        <time>2017-06-29T11:44:48Z</time>
      </trkpt>
      <trkpt lat="63.839794965460896" lon="11.411512987688184">
        <ele>20.809999999999999</ele>
        <time>2017-06-29T11:44:52Z</time>
      </trkpt>
      <trkpt lat="63.839622968807817" lon="11.411594040691853">
        <ele>20.809999999999999</ele>
        <time>2017-06-29T11:44:53Z</time>
      </trkpt>
      <trkpt lat="63.839452983811498" lon="11.411701999604702">
        <ele>20.809999999999999</ele>
        <time>2017-06-29T11:44:54Z</time>
      </trkpt>
      <trkpt lat="63.837723964825273" lon="11.413568984717131">
        <ele>16.48</ele>
        <time>2017-06-29T11:45:05Z</time>
      </trkpt>
      <trkpt lat="63.835361022502184" lon="11.417750967666507">
        <ele>13.6</ele>
        <time>2017-06-29T11:45:23Z</time>
      </trkpt>
      <trkpt lat="63.83526898920536" lon="11.418071994557977">
        <ele>13.6</ele>
        <time>2017-06-29T11:45:24Z</time>
      </trkpt>
      <trkpt lat="63.83518198505044" lon="11.418413976207376">
        <ele>14.08</ele>
        <time>2017-06-29T11:45:25Z</time>
      </trkpt>
      <trkpt lat="63.83511995896697" lon="11.418770039454103">
        <ele>14.08</ele>
        <time>2017-06-29T11:45:26Z</time>
      </trkpt>
      <trkpt lat="63.83507402613759" lon="11.419164994731545">
        <ele>15.039999999999999</ele>
        <time>2017-06-29T11:45:27Z</time>
      </trkpt>
      <trkpt lat="63.835041001439095" lon="11.41953899525106">
        <ele>14.08</ele>
        <time>2017-06-29T11:45:28Z</time>
      </trkpt>
      <trkpt lat="63.835018035024405" lon="11.41994995996356">
        <ele>13.6</ele>
        <time>2017-06-29T11:45:29Z</time>
      </trkpt>
      <trkpt lat="63.835004959255457" lon="11.420341981574893">
        <ele>12.630000000000001</ele>
        <time>2017-06-29T11:45:30Z</time>
      </trkpt>
      <trkpt lat="63.834947040304542" lon="11.422837022691965">
        <ele>7.35</ele>
        <time>2017-06-29T11:45:36Z</time>
      </trkpt>
      <trkpt lat="63.834899011999369" lon="11.423242036253214">
        <ele>6.87</ele>
        <time>2017-06-29T11:45:37Z</time>
      </trkpt>
      <trkpt lat="63.834831034764647" lon="11.423632968217134">
        <ele>7.35</ele>
        <time>2017-06-29T11:45:38Z</time>
      </trkpt>
      <trkpt lat="63.834754005074501" lon="11.423999005928636">
        <ele>7.35</ele>
        <time>2017-06-29T11:45:39Z</time>
      </trkpt>
      <trkpt lat="63.834670018404722" lon="11.424358002841473">
        <ele>7.83</ele>
        <time>2017-06-29T11:45:40Z</time>
      </trkpt>
      <trkpt lat="63.833728982135653" lon="11.428340999409556">
        <ele>4.94</ele>
        <time>2017-06-29T11:45:52Z</time>
      </trkpt>
      <trkpt lat="63.832858018577099" lon="11.433852016925812">
        <ele>5.42</ele>
        <time>2017-06-29T11:46:08Z</time>
      </trkpt>
      <trkpt lat="63.832680992782116" lon="11.43726697191596">
        <ele>3.98</ele>
        <time>2017-06-29T11:46:17Z</time>
      </trkpt>
      <trkpt lat="63.832603041082621" lon="11.43761096522212">
        <ele>4.46</ele>
        <time>2017-06-29T11:46:18Z</time>
      </trkpt>
      <trkpt lat="63.832505978643894" lon="11.437944984063506">
        <ele>4.94</ele>
        <time>2017-06-29T11:46:19Z</time>
      </trkpt>
      <trkpt lat="63.831616993993521" lon="11.440038029104471">
        <ele>3.98</ele>
        <time>2017-06-29T11:46:26Z</time>
      </trkpt>
      <trkpt lat="63.830370018258691" lon="11.441936027258635">
        <ele>9.27</ele>
        <time>2017-06-29T11:46:34Z</time>
      </trkpt>
      <trkpt lat="63.828344028443098" lon="11.445031967014074">
        <ele>18.399999999999999</ele>
        <time>2017-06-29T11:46:46Z</time>
      </trkpt>
      <trkpt lat="63.826361959800124" lon="11.447085030376911">
        <ele>23.210000000000001</ele>
        <time>2017-06-29T11:46:57Z</time>
      </trkpt>
      <trkpt lat="63.824037993326783" lon="11.448477013036609">
        <ele>24.649999999999999</ele>
        <time>2017-06-29T11:47:10Z</time>
      </trkpt>
      <trkpt lat="63.820712976157665" lon="11.449716025963426">
        <ele>26.57</ele>
        <time>2017-06-29T11:47:28Z</time>
      </trkpt>
      <trkpt lat="63.818274009972811" lon="11.45002699457109">
        <ele>26.09</ele>
        <time>2017-06-29T11:47:42Z</time>
      </trkpt>
      <trkpt lat="63.815851975232363" lon="11.44994099624455">
        <ele>21.77</ele>
        <time>2017-06-29T11:47:56Z</time>
      </trkpt>
      <trkpt lat="63.813408985733986" lon="11.450255988165736">
        <ele>17.920000000000002</ele>
        <time>2017-06-29T11:48:10Z</time>
      </trkpt>
      <trkpt lat="63.811688013374805" lon="11.45178702659905">
        <ele>16</ele>
        <time>2017-06-29T11:48:21Z</time>
      </trkpt>
      <trkpt lat="63.809368992224336" lon="11.454881960526109">
        <ele>11.67</ele>
        <time>2017-06-29T11:48:37Z</time>
      </trkpt>
      <trkpt lat="63.807364040985703" lon="11.457047006115317">
        <ele>7.35</ele>
        <time>2017-06-29T11:48:49Z</time>
      </trkpt>
      <trkpt lat="63.805964011698961" lon="11.458109999075532">
        <ele>4.94</ele>
        <time>2017-06-29T11:48:57Z</time>
      </trkpt>
      <trkpt lat="63.804294001311064" lon="11.458922037854791">
        <ele>3.02</ele>
        <time>2017-06-29T11:49:04Z</time>
      </trkpt>
      <trkpt lat="63.802732033655047" lon="11.459280028939247">
        <ele>3.02</ele>
        <time>2017-06-29T11:49:12Z</time>
      </trkpt>
      <trkpt lat="63.800323996692896" lon="11.459290003404021">
        <ele>2.54</ele>
        <time>2017-06-29T11:49:26Z</time>
      </trkpt>
      <trkpt lat="63.798179989680648" lon="11.458713999018073">
        <ele>0.14</ele>
        <time>2017-06-29T11:49:38Z</time>
      </trkpt>
      <trkpt lat="63.796175960451365" lon="11.457702973857522">
        <ele>2.06</ele>
        <time>2017-06-29T11:49:49Z</time>
      </trkpt>
      <trkpt lat="63.793909996747971" lon="11.456877021118999">
        <ele>3.98</ele>
        <time>2017-06-29T11:50:00Z</time>
      </trkpt>
      <trkpt lat="63.792090034112334" lon="11.457043988630176">
        <ele>3.5</ele>
        <time>2017-06-29T11:50:09Z</time>
      </trkpt>
      <trkpt lat="63.790060020983219" lon="11.458257017657161">
        <ele>3.5</ele>
        <time>2017-06-29T11:50:20Z</time>
      </trkpt>
      <trkpt lat="63.788253972306848" lon="11.460286024957895">
        <ele>3.5</ele>
        <time>2017-06-29T11:50:31Z</time>
      </trkpt>
      <trkpt lat="63.78563697449863" lon="11.464229039847851">
        <ele>1.58</ele>
        <time>2017-06-29T11:50:49Z</time>
      </trkpt>
      <trkpt lat="63.782236017286777" lon="11.46923303604126">
        <ele>0.62</ele>
        <time>2017-06-29T11:51:12Z</time>
      </trkpt>
      <trkpt lat="63.780497023835778" lon="11.471089040860534">
        <ele>0.62</ele>
        <time>2017-06-29T11:51:23Z</time>
      </trkpt>
      <trkpt lat="63.778801029548049" lon="11.47168499417603">
        <ele>1.58</ele>
        <time>2017-06-29T11:51:33Z</time>
      </trkpt>
      <trkpt lat="63.776289978995919" lon="11.471287021413445">
        <ele>0.62</ele>
        <time>2017-06-29T11:51:47Z</time>
      </trkpt>
      <trkpt lat="63.773398976773024" lon="11.469722036272287">
        <ele>-0.34</ele>
        <time>2017-06-29T11:52:04Z</time>
      </trkpt>
      <trkpt lat="63.771617989987135" lon="11.467869970947504">
        <ele>0.62</ele>
        <time>2017-06-29T11:52:16Z</time>
      </trkpt>
      <trkpt lat="63.769858041778207" lon="11.465064967051148">
        <ele>0.62</ele>
        <time>2017-06-29T11:52:29Z</time>
      </trkpt>
      <trkpt lat="63.768505034968257" lon="11.46113402210176">
        <ele>1.1</ele>
        <time>2017-06-29T11:52:42Z</time>
      </trkpt>
      <trkpt lat="63.767177006229758" lon="11.455474980175495">
        <ele>1.1</ele>
        <time>2017-06-29T11:52:59Z</time>
      </trkpt>
      <trkpt lat="63.766122981905937" lon="11.450118022039533">
        <ele>0.14</ele>
        <time>2017-06-29T11:53:14Z</time>
      </trkpt>
      <trkpt lat="63.765663988888264" lon="11.444716975092888">
        <ele>-1.3</ele>
        <time>2017-06-29T11:53:28Z</time>
      </trkpt>
      <trkpt lat="63.765362994745374" lon="11.436917027458549">
        <ele>-2.75</ele>
        <time>2017-06-29T11:53:47Z</time>
      </trkpt>
      <trkpt lat="63.764939960092306" lon="11.43000204116106">
        <ele>-2.75</ele>
        <time>2017-06-29T11:54:04Z</time>
      </trkpt>
      <trkpt lat="63.764037983492017" lon="11.425013970583677">
        <ele>-0.82</ele>
        <time>2017-06-29T11:54:17Z</time>
      </trkpt>
      <trkpt lat="63.76303399913013" lon="11.421217974275351">
        <ele>6.39</ele>
        <time>2017-06-29T11:54:28Z</time>
      </trkpt>
      <trkpt lat="63.762373002246022" lon="11.417448967695236">
        <ele>12.630000000000001</ele>
        <time>2017-06-29T11:54:38Z</time>
      </trkpt>
      <trkpt lat="63.762148031964898" lon="11.413724971935153">
        <ele>17.920000000000002</ele>
        <time>2017-06-29T11:54:47Z</time>
      </trkpt>
      <trkpt lat="63.76157496124506" lon="11.409524967893958">
        <ele>24.170000000000002</ele>
        <time>2017-06-29T11:54:57Z</time>
      </trkpt>
      <trkpt lat="63.760288003832102" lon="11.402850039303303">
        <ele>33.780000000000001</ele>
        <time>2017-06-29T11:55:14Z</time>
      </trkpt>
      <trkpt lat="63.759363982826471" lon="11.398257007822394">
        <ele>38.109999999999999</ele>
        <time>2017-06-29T11:55:26Z</time>
      </trkpt>
      <trkpt lat="63.758669039234519" lon="11.395300040021539">
        <ele>40.030000000000001</ele>
        <time>2017-06-29T11:55:34Z</time>
      </trkpt>
      <trkpt lat="63.757801009342074" lon="11.391963958740234">
        <ele>52.049999999999997</ele>
        <time>2017-06-29T11:55:43Z</time>
      </trkpt>
      <trkpt lat="63.756806999444962" lon="11.388379018753767">
        <ele>57.340000000000003</ele>
        <time>2017-06-29T11:55:53Z</time>
      </trkpt>
      <trkpt lat="63.755645016208291" lon="11.384627027437091">
        <ele>53.490000000000002</ele>
        <time>2017-06-29T11:56:05Z</time>
      </trkpt>
      <trkpt lat="63.755117962136865" lon="11.383297992870212">
        <ele>52.049999999999997</ele>
        <time>2017-06-29T11:56:12Z</time>
      </trkpt>
      <trkpt lat="63.754933979362249" lon="11.382806980982423">
        <ele>51.57</ele>
        <time>2017-06-29T11:56:15Z</time>
      </trkpt>
      <trkpt lat="63.754850998520851" lon="11.382710002362728">
        <ele>52.049999999999997</ele>
        <time>2017-06-29T11:56:16Z</time>
      </trkpt>
      <trkpt lat="63.754755025729537" lon="11.382632972672582">
        <ele>52.049999999999997</ele>
        <time>2017-06-29T11:56:17Z</time>
      </trkpt>
      <trkpt lat="63.753611985594034" lon="11.381920007988811">
        <ele>49.649999999999999</ele>
        <time>2017-06-29T11:56:26Z</time>
      </trkpt>
      <trkpt lat="63.751846002414823" lon="11.380881993100047">
        <ele>46.759999999999998</ele>
        <time>2017-06-29T11:56:36Z</time>
      </trkpt>
      <trkpt lat="63.748622993007302" lon="11.378890033811331">
        <ele>47.240000000000002</ele>
        <time>2017-06-29T11:56:53Z</time>
      </trkpt>
      <trkpt lat="63.747568968683481" lon="11.377306021749973">
        <ele>50.609999999999999</ele>
        <time>2017-06-29T11:57:00Z</time>
      </trkpt>
      <trkpt lat="63.746989024803042" lon="11.375115998089314">
        <ele>53.009999999999998</ele>
        <time>2017-06-29T11:57:06Z</time>
      </trkpt>
      <trkpt lat="63.746712002903223" lon="11.371645973995328">
        <ele>53.969999999999999</ele>
        <time>2017-06-29T11:57:14Z</time>
      </trkpt>
      <trkpt lat="63.746269019320607" lon="11.368590015918016">
        <ele>53.969999999999999</ele>
        <time>2017-06-29T11:57:21Z</time>
      </trkpt>
      <trkpt lat="63.745133019983768" lon="11.364418007433414">
        <ele>52.049999999999997</ele>
        <time>2017-06-29T11:57:31Z</time>
      </trkpt>
      <trkpt lat="63.744486020877957" lon="11.360442973673344">
        <ele>50.609999999999999</ele>
        <time>2017-06-29T11:57:40Z</time>
      </trkpt>
      <trkpt lat="63.743758974596858" lon="11.357731008902192">
        <ele>51.090000000000003</ele>
        <time>2017-06-29T11:57:47Z</time>
      </trkpt>
      <trkpt lat="63.742457013577223" lon="11.354675972834229">
        <ele>52.049999999999997</ele>
        <time>2017-06-29T11:57:56Z</time>
      </trkpt>
      <trkpt lat="63.741772966459394" lon="11.351606016978621">
        <ele>53.009999999999998</ele>
        <time>2017-06-29T11:58:03Z</time>
      </trkpt>
      <trkpt lat="63.741026977077127" lon="11.347604999318719">
        <ele>54.450000000000003</ele>
        <time>2017-06-29T11:58:12Z</time>
      </trkpt>
      <trkpt lat="63.73976499773562" lon="11.344197001308203">
        <ele>50.130000000000003</ele>
        <time>2017-06-29T11:58:21Z</time>
      </trkpt>
      <trkpt lat="63.738997969776392" lon="11.340723959729075">
        <ele>41.950000000000003</ele>
        <time>2017-06-29T11:58:29Z</time>
      </trkpt>
      <trkpt lat="63.738702004775405" lon="11.336838025599718">
        <ele>36.670000000000002</ele>
        <time>2017-06-29T11:58:37Z</time>
      </trkpt>
      <trkpt lat="63.738302020356059" lon="11.333231963217258">
        <ele>33.780000000000001</ele>
        <time>2017-06-29T11:58:44Z</time>
      </trkpt>
      <trkpt lat="63.737468020990491" lon="11.328772036358714">
        <ele>24.170000000000002</ele>
        <time>2017-06-29T11:58:53Z</time>
      </trkpt>
      <trkpt lat="63.736820016056299" lon="11.32481100037694">
        <ele>16</ele>
        <time>2017-06-29T11:59:01Z</time>
      </trkpt>
      <trkpt lat="63.73669202439487" lon="11.324377991259098">
        <ele>15.52</ele>
        <time>2017-06-29T11:59:02Z</time>
      </trkpt>
      <trkpt lat="63.735535992309451" lon="11.321788989007473">
        <ele>8.310000000000001</ele>
        <time>2017-06-29T11:59:09Z</time>
      </trkpt>
      <trkpt lat="63.733756011351943" lon="11.318030962720513">
        <ele>9.27</ele>
        <time>2017-06-29T11:59:20Z</time>
      </trkpt>
      <trkpt lat="63.732955036684871" lon="11.314530009403825">
        <ele>8.310000000000001</ele>
        <time>2017-06-29T11:59:28Z</time>
      </trkpt>
      <trkpt lat="63.732614982873201" lon="11.310488004237413">
        <ele>3.5</ele>
        <time>2017-06-29T11:59:36Z</time>
      </trkpt>
      <trkpt lat="63.732390012592077" lon="11.303591961041093">
        <ele>10.23</ele>
        <time>2017-06-29T11:59:50Z</time>
      </trkpt>
      <trkpt lat="63.732012994587421" lon="11.294591976329684">
        <ele>10.23</ele>
        <time>2017-06-29T12:00:09Z</time>
      </trkpt>
      <trkpt lat="63.731482001021504" lon="11.288475031033158">
        <ele>3.98</ele>
        <time>2017-06-29T12:00:22Z</time>
      </trkpt>
      <trkpt lat="63.731310004368424" lon="11.28321697935462">
        <ele>-3.23</ele>
        <time>2017-06-29T12:00:33Z</time>
      </trkpt>
      <trkpt lat="63.730732994154096" lon="11.279581999406219">
        <ele>-3.71</ele>
        <time>2017-06-29T12:00:41Z</time>
      </trkpt>
      <trkpt lat="63.730053976178169" lon="11.277808975428343">
        <ele>-2.27</ele>
        <time>2017-06-29T12:00:46Z</time>
      </trkpt>
      <trkpt lat="63.729896983131766" lon="11.277560032904148">
        <ele>-2.27</ele>
        <time>2017-06-29T12:00:47Z</time>
      </trkpt>
      <trkpt lat="63.72973202727735" lon="11.277345037087798">
        <ele>-2.27</ele>
        <time>2017-06-29T12:00:48Z</time>
      </trkpt>
      <trkpt lat="63.728334009647369" lon="11.275474028661847">
        <ele>3.98</ele>
        <time>2017-06-29T12:00:57Z</time>
      </trkpt>
      <trkpt lat="63.727612998336554" lon="11.273273024708033">
        <ele>7.83</ele>
        <time>2017-06-29T12:01:04Z</time>
      </trkpt>
      <trkpt lat="63.726622005924582" lon="11.268373969942331">
        <ele>11.67</ele>
        <time>2017-06-29T12:01:17Z</time>
      </trkpt>
      <trkpt lat="63.72575799934566" lon="11.263343989849091">
        <ele>13.119999999999999</ele>
        <time>2017-06-29T12:01:30Z</time>
      </trkpt>
      <trkpt lat="63.724828027188778" lon="11.258455999195576">
        <ele>12.15</ele>
        <time>2017-06-29T12:01:42Z</time>
      </trkpt>
      <trkpt lat="63.723896965384483" lon="11.253363993018866">
        <ele>10.23</ele>
        <time>2017-06-29T12:01:54Z</time>
      </trkpt>
      <trkpt lat="63.723763022571802" lon="11.253052018582821">
        <ele>10.23</ele>
        <time>2017-06-29T12:01:55Z</time>
      </trkpt>
      <trkpt lat="63.723612986505032" lon="11.25277298502624">
        <ele>10.23</ele>
        <time>2017-06-29T12:01:56Z</time>
      </trkpt>
      <trkpt lat="63.723439984023571" lon="11.252528987824917">
        <ele>9.75</ele>
        <time>2017-06-29T12:01:57Z</time>
      </trkpt>
      <trkpt lat="63.723248038440943" lon="11.25229898840189">
        <ele>9.27</ele>
        <time>2017-06-29T12:01:58Z</time>
      </trkpt>
      <trkpt lat="63.721538968384266" lon="11.249988013878465">
        <ele>7.35</ele>
        <time>2017-06-29T12:02:07Z</time>
      </trkpt>
      <trkpt lat="63.720012037083507" lon="11.247331034392118">
        <ele>10.710000000000001</ele>
        <time>2017-06-29T12:02:16Z</time>
      </trkpt>
      <trkpt lat="63.718680990859866" lon="11.243635034188628">
        <ele>18.399999999999999</ele>
        <time>2017-06-29T12:02:26Z</time>
      </trkpt>
      <trkpt lat="63.718086965382099" lon="11.24048201367259">
        <ele>25.609999999999999</ele>
        <time>2017-06-29T12:02:34Z</time>
      </trkpt>
      <trkpt lat="63.717804998159409" lon="11.237454973161221">
        <ele>31.379999999999999</ele>
        <time>2017-06-29T12:02:43Z</time>
      </trkpt>
      <trkpt lat="63.717521019279957" lon="11.232835035771132">
        <ele>37.149999999999999</ele>
        <time>2017-06-29T12:02:57Z</time>
      </trkpt>
      <trkpt lat="63.717202004045248" lon="11.227675974369049">
        <ele>36.189999999999998</ele>
        <time>2017-06-29T12:03:12Z</time>
      </trkpt>
      <trkpt lat="63.717103013768792" lon="11.225475976243615">
        <ele>36.189999999999998</ele>
        <time>2017-06-29T12:03:21Z</time>
      </trkpt>
      <trkpt lat="63.717110976576805" lon="11.225263997912407">
        <ele>35.710000000000001</ele>
        <time>2017-06-29T12:03:22Z</time>
      </trkpt>
      <trkpt lat="63.717138972133398" lon="11.224644994363189">
        <ele>35.229999999999997</ele>
        <time>2017-06-29T12:03:25Z</time>
      </trkpt>
      <trkpt lat="63.717125980183482" lon="11.224438967183232">
        <ele>35.229999999999997</ele>
        <time>2017-06-29T12:03:26Z</time>
      </trkpt>
      <trkpt lat="63.717089015990496" lon="11.224232017993927">
        <ele>35.710000000000001</ele>
        <time>2017-06-29T12:03:27Z</time>
      </trkpt>
      <trkpt lat="63.716973010450602" lon="11.223543025553226">
        <ele>35.710000000000001</ele>
        <time>2017-06-29T12:03:30Z</time>
      </trkpt>
      <trkpt lat="63.71694803237915" lon="11.223280001431704">
        <ele>35.710000000000001</ele>
        <time>2017-06-29T12:03:31Z</time>
      </trkpt>
      <trkpt lat="63.716752985492349" lon="11.219969987869263">
        <ele>34.259999999999998</ele>
        <time>2017-06-29T12:03:41Z</time>
      </trkpt>
      <trkpt lat="63.716318970546126" lon="11.213752962648869">
        <ele>32.82</ele>
        <time>2017-06-29T12:03:57Z</time>
      </trkpt>
      <trkpt lat="63.716158038005233" lon="11.209848001599312">
        <ele>27.050000000000001</ele>
        <time>2017-06-29T12:04:07Z</time>
      </trkpt>
      <trkpt lat="63.715630983933806" lon="11.20660001412034">
        <ele>21.289999999999999</ele>
        <time>2017-06-29T12:04:15Z</time>
      </trkpt>
      <trkpt lat="63.714083014056087" lon="11.199386967346072">
        <ele>13.6</ele>
        <time>2017-06-29T12:04:33Z</time>
      </trkpt>
      <trkpt lat="63.712555998936296" lon="11.194845987483859">
        <ele>10.710000000000001</ele>
        <time>2017-06-29T12:04:46Z</time>
      </trkpt>
      <trkpt lat="63.71104197576642" lon="11.190071990713477">
        <ele>3.5</ele>
        <time>2017-06-29T12:04:59Z</time>
      </trkpt>
      <trkpt lat="63.710723966360092" lon="11.186795001849532">
        <ele>3.02</ele>
        <time>2017-06-29T12:05:06Z</time>
      </trkpt>
      <trkpt lat="63.710918007418513" lon="11.184037020429969">
        <ele>4.94</ele>
        <time>2017-06-29T12:05:12Z</time>
      </trkpt>
      <trkpt lat="63.711742032319307" lon="11.179710030555725">
        <ele>7.35</ele>
        <time>2017-06-29T12:05:22Z</time>
      </trkpt>
      <trkpt lat="63.712002038955688" lon="11.175945969298482">
        <ele>9.75</ele>
        <time>2017-06-29T12:05:30Z</time>
      </trkpt>
      <trkpt lat="63.711682017892599" lon="11.171993985772133">
        <ele>9.75</ele>
        <time>2017-06-29T12:05:38Z</time>
      </trkpt>
      <trkpt lat="63.71067401021719" lon="11.166096981614828">
        <ele>8.789999999999999</ele>
        <time>2017-06-29T12:05:50Z</time>
      </trkpt>
      <trkpt lat="63.70970799587667" lon="11.163232969120145">
        <ele>7.35</ele>
        <time>2017-06-29T12:05:57Z</time>
      </trkpt>
      <trkpt lat="63.708549030125141" lon="11.161697991192341">
        <ele>4.46</ele>
        <time>2017-06-29T12:06:03Z</time>
      </trkpt>
      <trkpt lat="63.705636989325285" lon="11.158811012282968">
        <ele>-1.79</ele>
        <time>2017-06-29T12:06:18Z</time>
      </trkpt>
      <trkpt lat="63.70373597368598" lon="11.15610801614821">
        <ele>1.1</ele>
        <time>2017-06-29T12:06:29Z</time>
      </trkpt>
      <trkpt lat="63.70122198946774" lon="11.153075024485588">
        <ele>5.42</ele>
        <time>2017-06-29T12:06:43Z</time>
      </trkpt>
      <trkpt lat="63.699150988832116" lon="11.151712965220213">
        <ele>11.19</ele>
        <time>2017-06-29T12:06:54Z</time>
      </trkpt>
      <trkpt lat="63.696518987417221" lon="11.150312013924122">
        <ele>16</ele>
        <time>2017-06-29T12:07:08Z</time>
      </trkpt>
      <trkpt lat="63.694077003747225" lon="11.148317959159613">
        <ele>23.210000000000001</ele>
        <time>2017-06-29T12:07:22Z</time>
      </trkpt>
      <trkpt lat="63.691193964332342" lon="11.145666008815169">
        <ele>28.5</ele>
        <time>2017-06-29T12:07:38Z</time>
      </trkpt>
      <trkpt lat="63.688275972381234" lon="11.143005006015301">
        <ele>31.379999999999999</ele>
        <time>2017-06-29T12:07:54Z</time>
      </trkpt>
      <trkpt lat="63.685508016496897" lon="11.140260016545653">
        <ele>34.259999999999998</ele>
        <time>2017-06-29T12:08:09Z</time>
      </trkpt>
      <trkpt lat="63.68448399938643" lon="11.138131013140082">
        <ele>32.340000000000003</ele>
        <time>2017-06-29T12:08:16Z</time>
      </trkpt>
      <trkpt lat="63.68341002613306" lon="11.134152039885521">
        <ele>27.530000000000001</ele>
        <time>2017-06-29T12:08:26Z</time>
      </trkpt>
      <trkpt lat="63.682147040963173" lon="11.130226040259004">
        <ele>28.02</ele>
        <time>2017-06-29T12:08:37Z</time>
      </trkpt>
      <trkpt lat="63.680911967530847" lon="11.127292038872838">
        <ele>31.859999999999999</ele>
        <time>2017-06-29T12:08:47Z</time>
      </trkpt>
      <trkpt lat="63.68020998314023" lon="11.124267010018229">
        <ele>30.899999999999999</ele>
        <time>2017-06-29T12:08:55Z</time>
      </trkpt>
      <trkpt lat="63.678928976878524" lon="11.116912979632616">
        <ele>30.899999999999999</ele>
        <time>2017-06-29T12:09:13Z</time>
      </trkpt>
      <trkpt lat="63.677987018600106" lon="11.112405024468899">
        <ele>34.259999999999998</ele>
        <time>2017-06-29T12:09:24Z</time>
      </trkpt>
      <trkpt lat="63.676970964297652" lon="11.110261017456651">
        <ele>36.189999999999998</ele>
        <time>2017-06-29T12:09:31Z</time>
      </trkpt>
      <trkpt lat="63.675400028005242" lon="11.108515989035368">
        <ele>37.149999999999999</ele>
        <time>2017-06-29T12:09:40Z</time>
      </trkpt>
      <trkpt lat="63.673941995948553" lon="11.106383968144655">
        <ele>39.549999999999997</ele>
        <time>2017-06-29T12:09:49Z</time>
      </trkpt>
      <trkpt lat="63.672871962189674" lon="11.103240000084043">
        <ele>43.399999999999999</ele>
        <time>2017-06-29T12:09:58Z</time>
      </trkpt>
      <trkpt lat="63.671874012798071" lon="11.10175003297627">
        <ele>44.840000000000003</ele>
        <time>2017-06-29T12:10:04Z</time>
      </trkpt>
      <trkpt lat="63.67067196406424" lon="11.101246029138565">
        <ele>44.840000000000003</ele>
        <time>2017-06-29T12:10:10Z</time>
      </trkpt>
      <trkpt lat="63.667261032387614" lon="11.100816959515214">
        <ele>46.759999999999998</ele>
        <time>2017-06-29T12:10:25Z</time>
      </trkpt>
      <trkpt lat="63.664885014295578" lon="11.101071015000343">
        <ele>49.159999999999997</ele>
        <time>2017-06-29T12:10:34Z</time>
      </trkpt>
      <trkpt lat="63.663435028865933" lon="11.101940972730517">
        <ele>53.009999999999998</ele>
        <time>2017-06-29T12:10:41Z</time>
      </trkpt>
      <trkpt lat="63.662435989826918" lon="11.102834986522794">
        <ele>54.93</ele>
        <time>2017-06-29T12:10:48Z</time>
      </trkpt>
      <trkpt lat="63.662341022863984" lon="11.102964989840984">
        <ele>55.409999999999997</ele>
        <time>2017-06-29T12:10:49Z</time>
      </trkpt>
      <trkpt lat="63.662257958203554" lon="11.103117037564516">
        <ele>55.890000000000001</ele>
        <time>2017-06-29T12:10:50Z</time>
      </trkpt>
      <trkpt lat="63.662188975140452" lon="11.103288028389215">
        <ele>56.369999999999997</ele>
        <time>2017-06-29T12:10:51Z</time>
      </trkpt>
      <trkpt lat="63.662126027047634" lon="11.103485003113747">
        <ele>56.369999999999997</ele>
        <time>2017-06-29T12:10:52Z</time>
      </trkpt>
      <trkpt lat="63.662067018449306" lon="11.103704022243619">
        <ele>56.369999999999997</ele>
        <time>2017-06-29T12:10:53Z</time>
      </trkpt>
      <trkpt lat="63.662003986537457" lon="11.103956988081336">
        <ele>55.890000000000001</ele>
        <time>2017-06-29T12:10:54Z</time>
      </trkpt>
      <trkpt lat="63.661797037348151" lon="11.104862987995148">
        <ele>54.450000000000003</ele>
        <time>2017-06-29T12:10:57Z</time>
      </trkpt>
      <trkpt lat="63.661314994096756" lon="11.105907037854195">
        <ele>54.450000000000003</ele>
        <time>2017-06-29T12:11:01Z</time>
      </trkpt>
      <trkpt lat="63.661159006878734" lon="11.106055984273553">
        <ele>53.969999999999999</ele>
        <time>2017-06-29T12:11:02Z</time>
      </trkpt>
      <trkpt lat="63.660992961376905" lon="11.106141982600093">
        <ele>53.969999999999999</ele>
        <time>2017-06-29T12:11:03Z</time>
      </trkpt>
      <trkpt lat="63.660819958895445" lon="11.106174001470208">
        <ele>54.450000000000003</ele>
        <time>2017-06-29T12:11:04Z</time>
      </trkpt>
      <trkpt lat="63.660647962242365" lon="11.106140976771712">
        <ele>55.409999999999997</ele>
        <time>2017-06-29T12:11:05Z</time>
      </trkpt>
      <trkpt lat="63.660483006387949" lon="11.106051960960031">
        <ele>56.369999999999997</ele>
        <time>2017-06-29T12:11:06Z</time>
      </trkpt>
      <trkpt lat="63.660329030826688" lon="11.105904020369053">
        <ele>57.82</ele>
        <time>2017-06-29T12:11:07Z</time>
      </trkpt>
      <trkpt lat="63.66018301807344" lon="11.105714002624154">
        <ele>59.259999999999998</ele>
        <time>2017-06-29T12:11:08Z</time>
      </trkpt>
      <trkpt lat="63.660043962299824" lon="11.105477968230844">
        <ele>60.219999999999999</ele>
        <time>2017-06-29T12:11:09Z</time>
      </trkpt>
      <trkpt lat="63.659909013658762" lon="11.105226008221507">
        <ele>61.659999999999997</ele>
        <time>2017-06-29T12:11:10Z</time>
      </trkpt>
      <trkpt lat="63.658227017149329" lon="11.101999981328845">
        <ele>61.659999999999997</ele>
        <time>2017-06-29T12:11:22Z</time>
      </trkpt>
      <trkpt lat="63.657121025025845" lon="11.099671991541982">
        <ele>59.740000000000002</ele>
        <time>2017-06-29T12:11:29Z</time>
      </trkpt>
      <trkpt lat="63.655745973810554" lon="11.096780989319086">
        <ele>59.740000000000002</ele>
        <time>2017-06-29T12:11:39Z</time>
      </trkpt>
      <trkpt lat="63.65489898249507" lon="11.094515025615692">
        <ele>61.659999999999997</ele>
        <time>2017-06-29T12:11:46Z</time>
      </trkpt>
      <trkpt lat="63.654823964461684" lon="11.094132978469133">
        <ele>62.140000000000001</ele>
        <time>2017-06-29T12:11:47Z</time>
      </trkpt>
      <trkpt lat="63.654679963365197" lon="11.093357987701893">
        <ele>62.140000000000001</ele>
        <time>2017-06-29T12:11:49Z</time>
      </trkpt>
      <trkpt lat="63.654581978917122" lon="11.092983987182379">
        <ele>62.140000000000001</ele>
        <time>2017-06-29T12:11:50Z</time>
      </trkpt>
      <trkpt lat="63.653484033420682" lon="11.089378008618951">
        <ele>58.299999999999997</ele>
        <time>2017-06-29T12:11:59Z</time>
      </trkpt>
      <trkpt lat="63.651120001450181" lon="11.081853993237019">
        <ele>59.740000000000002</ele>
        <time>2017-06-29T12:12:18Z</time>
      </trkpt>
      <trkpt lat="63.649460971355438" lon="11.07829000800848">
        <ele>61.18</ele>
        <time>2017-06-29T12:12:29Z</time>
      </trkpt>
      <trkpt lat="63.648266969248652" lon="11.076353034004569">
        <ele>61.18</ele>
        <time>2017-06-29T12:12:38Z</time>
      </trkpt>
      <trkpt lat="63.648136965930462" lon="11.076078023761511">
        <ele>61.659999999999997</ele>
        <time>2017-06-29T12:12:40Z</time>
      </trkpt>
      <trkpt lat="63.648094972595572" lon="11.07594701461494">
        <ele>61.659999999999997</ele>
        <time>2017-06-29T12:12:41Z</time>
      </trkpt>
      <trkpt lat="63.647780986502767" lon="11.075251987203956">
        <ele>62.140000000000001</ele>
        <time>2017-06-29T12:12:46Z</time>
      </trkpt>
      <trkpt lat="63.646826036274433" lon="11.07403602451086">
        <ele>64.069999999999993</ele>
        <time>2017-06-29T12:12:53Z</time>
      </trkpt>
      <trkpt lat="63.645001966506243" lon="11.072366014122963">
        <ele>68.870000000000005</ele>
        <time>2017-06-29T12:13:03Z</time>
      </trkpt>
      <trkpt lat="63.642928032204509" lon="11.07134903781116">
        <ele>67.909999999999997</ele>
        <time>2017-06-29T12:13:13Z</time>
      </trkpt>
      <trkpt lat="63.641582988202572" lon="11.070084040984511">
        <ele>67.909999999999997</ele>
        <time>2017-06-29T12:13:20Z</time>
      </trkpt>
      <trkpt lat="63.63955800421536" lon="11.066827001050115">
        <ele>60.700000000000003</ele>
        <time>2017-06-29T12:13:31Z</time>
      </trkpt>
      <trkpt lat="63.63749798387289" lon="11.06395703740418">
        <ele>47.719999999999999</ele>
        <time>2017-06-29T12:13:42Z</time>
      </trkpt>
      <trkpt lat="63.636319991201162" lon="11.062227012589574">
        <ele>40.990000000000002</ele>
        <time>2017-06-29T12:13:50Z</time>
      </trkpt>
      <trkpt lat="63.635621024295688" lon="11.061518993228674">
        <ele>39.549999999999997</ele>
        <time>2017-06-29T12:13:56Z</time>
      </trkpt>
      <trkpt lat="63.635503007099032" lon="11.061498960480094">
        <ele>39.549999999999997</ele>
        <time>2017-06-29T12:13:57Z</time>
      </trkpt>
      <trkpt lat="63.635377027094364" lon="11.061524022370577">
        <ele>39.07</ele>
        <time>2017-06-29T12:13:58Z</time>
      </trkpt>
      <trkpt lat="63.635252974927425" lon="11.061589987948537">
        <ele>39.07</ele>
        <time>2017-06-29T12:13:59Z</time>
      </trkpt>
      <trkpt lat="63.635130012407899" lon="11.061701970174909">
        <ele>39.07</ele>
        <time>2017-06-29T12:14:00Z</time>
      </trkpt>
      <trkpt lat="63.635008977726102" lon="11.061846977099776">
        <ele>38.109999999999999</ele>
        <time>2017-06-29T12:14:01Z</time>
      </trkpt>
      <trkpt lat="63.63489598967135" lon="11.06202500872314">
        <ele>37.630000000000003</ele>
        <time>2017-06-29T12:14:02Z</time>
      </trkpt>
      <trkpt lat="63.63479096442461" lon="11.062217960134149">
        <ele>37.149999999999999</ele>
        <time>2017-06-29T12:14:03Z</time>
      </trkpt>
      <trkpt lat="63.634691974148154" lon="11.062416024506092">
        <ele>36.670000000000002</ele>
        <time>2017-06-29T12:14:04Z</time>
      </trkpt>
      <trkpt lat="63.634603964164853" lon="11.062624985352159">
        <ele>36.189999999999998</ele>
        <time>2017-06-29T12:14:05Z</time>
      </trkpt>
      <trkpt lat="63.634076993912458" lon="11.06372200883925">
        <ele>33.299999999999997</ele>
        <time>2017-06-29T12:14:12Z</time>
      </trkpt>
      <trkpt lat="63.633997030556202" lon="11.06380800716579">
        <ele>32.340000000000003</ele>
        <time>2017-06-29T12:14:13Z</time>
      </trkpt>
      <trkpt lat="63.633148027583957" lon="11.064025014638901">
        <ele>28.98</ele>
        <time>2017-06-29T12:14:22Z</time>
      </trkpt>
      <trkpt lat="63.632704960182309" lon="11.064062984660268">
        <ele>30.420000000000002</ele>
        <time>2017-06-29T12:14:30Z</time>
      </trkpt>
      <trkpt lat="63.632086962461472" lon="11.064508985728025">
        <ele>28.5</ele>
        <time>2017-06-29T12:14:40Z</time>
      </trkpt>
      <trkpt lat="63.630949035286903" lon="11.065326975658536">
        <ele>23.690000000000001</ele>
        <time>2017-06-29T12:14:53Z</time>
      </trkpt>
      <trkpt lat="63.629773976281285" lon="11.066199028864503">
        <ele>22.73</ele>
        <time>2017-06-29T12:15:02Z</time>
      </trkpt>
      <trkpt lat="63.628074964508414" lon="11.067478023469448">
        <ele>22.73</ele>
        <time>2017-06-29T12:15:14Z</time>
      </trkpt>
      <trkpt lat="63.626351980492473" lon="11.068820971995592">
        <ele>28.98</ele>
        <time>2017-06-29T12:15:27Z</time>
      </trkpt>
      <trkpt lat="63.626248966902494" lon="11.068985005840659">
        <ele>29.460000000000001</ele>
        <time>2017-06-29T12:15:28Z</time>
      </trkpt>
      <trkpt lat="63.625110033899546" lon="11.070599025115371">
        <ele>28.5</ele>
        <time>2017-06-29T12:15:37Z</time>
      </trkpt>
      <trkpt lat="63.623726014047861" lon="11.071678027510643">
        <ele>24.170000000000002</ele>
        <time>2017-06-29T12:15:46Z</time>
      </trkpt>
      <trkpt lat="63.622571993619204" lon="11.07175899669528">
        <ele>21.77</ele>
        <time>2017-06-29T12:15:53Z</time>
      </trkpt>
      <trkpt lat="63.62127497792244" lon="11.07079197652638">
        <ele>17.440000000000001</ele>
        <time>2017-06-29T12:16:01Z</time>
      </trkpt>
      <trkpt lat="63.620101008564234" lon="11.068704966455698">
        <ele>16</ele>
        <time>2017-06-29T12:16:09Z</time>
      </trkpt>
      <trkpt lat="63.618927961215377" lon="11.065393025055528">
        <ele>16.48</ele>
        <time>2017-06-29T12:16:19Z</time>
      </trkpt>
      <trkpt lat="63.618207033723593" lon="11.064147977158427">
        <ele>20.32</ele>
        <time>2017-06-29T12:16:24Z</time>
      </trkpt>
      <trkpt lat="63.618039982393384" lon="11.06400297023356">
        <ele>21.77</ele>
        <time>2017-06-29T12:16:25Z</time>
      </trkpt>
      <trkpt lat="63.617866979911923" lon="11.063890988007188">
        <ele>22.25</ele>
        <time>2017-06-29T12:16:26Z</time>
      </trkpt>
      <trkpt lat="63.61768702045083" lon="11.063810018822551">
        <ele>23.210000000000001</ele>
        <time>2017-06-29T12:16:27Z</time>
      </trkpt>
      <trkpt lat="63.617505971342325" lon="11.063748998567462">
        <ele>23.690000000000001</ele>
        <time>2017-06-29T12:16:28Z</time>
      </trkpt>
      <trkpt lat="63.616829970851541" lon="11.063469965010881">
        <ele>26.09</ele>
        <time>2017-06-29T12:16:32Z</time>
      </trkpt>
      <trkpt lat="63.616675995290279" lon="11.063325963914394">
        <ele>27.050000000000001</ele>
        <time>2017-06-29T12:16:33Z</time>
      </trkpt>
      <trkpt lat="63.616531994193792" lon="11.063152961432934">
        <ele>28.02</ele>
        <time>2017-06-29T12:16:34Z</time>
      </trkpt>
      <trkpt lat="63.616393022239208" lon="11.062945006415248">
        <ele>29.460000000000001</ele>
        <time>2017-06-29T12:16:35Z</time>
      </trkpt>
      <trkpt lat="63.616261007264256" lon="11.062708972021937">
        <ele>30.420000000000002</ele>
        <time>2017-06-29T12:16:36Z</time>
      </trkpt>
      <trkpt lat="63.616138966754079" lon="11.062463968992233">
        <ele>31.379999999999999</ele>
        <time>2017-06-29T12:16:37Z</time>
      </trkpt>
      <trkpt lat="63.615533038973808" lon="11.061314977705479">
        <ele>36.189999999999998</ele>
        <time>2017-06-29T12:16:42Z</time>
      </trkpt>
      <trkpt lat="63.615401023998857" lon="11.061157984659076">
        <ele>36.670000000000002</ele>
        <time>2017-06-29T12:16:43Z</time>
      </trkpt>
      <trkpt lat="63.615272026509047" lon="11.061044996604323">
        <ele>37.149999999999999</ele>
        <time>2017-06-29T12:16:44Z</time>
      </trkpt>
      <trkpt lat="63.615140011534095" lon="11.060976013541222">
        <ele>38.109999999999999</ele>
        <time>2017-06-29T12:16:45Z</time>
      </trkpt>
      <trkpt lat="63.614993998780847" lon="11.060920022428036">
        <ele>38.590000000000003</ele>
        <time>2017-06-29T12:16:46Z</time>
      </trkpt>
      <trkpt lat="63.613966964185238" lon="11.060838969424367">
        <ele>40.990000000000002</ele>
        <time>2017-06-29T12:16:52Z</time>
      </trkpt>
      <trkpt lat="63.613793039694428" lon="11.060760011896491">
        <ele>41.950000000000003</ele>
        <time>2017-06-29T12:16:53Z</time>
      </trkpt>
      <trkpt lat="63.613623976707458" lon="11.060638977214694">
        <ele>43.399999999999999</ele>
        <time>2017-06-29T12:16:54Z</time>
      </trkpt>
      <trkpt lat="63.613457009196281" lon="11.060477960854769">
        <ele>44.840000000000003</ele>
        <time>2017-06-29T12:16:55Z</time>
      </trkpt>
      <trkpt lat="63.613294987007976" lon="11.060291966423392">
        <ele>46.280000000000001</ele>
        <time>2017-06-29T12:16:56Z</time>
      </trkpt>
      <trkpt lat="63.613135982304811" lon="11.060084011405706">
        <ele>47.240000000000002</ele>
        <time>2017-06-29T12:16:57Z</time>
      </trkpt>
      <trkpt lat="63.612539023160934" lon="11.059134006500244">
        <ele>51.57</ele>
        <time>2017-06-29T12:17:01Z</time>
      </trkpt>
      <trkpt lat="63.612424023449421" lon="11.058850027620792">
        <ele>52.530000000000001</ele>
        <time>2017-06-29T12:17:02Z</time>
      </trkpt>
      <trkpt lat="63.612323021516204" lon="11.058542998507619">
        <ele>53.009999999999998</ele>
        <time>2017-06-29T12:17:03Z</time>
      </trkpt>
      <trkpt lat="63.612238029018044" lon="11.058207973837852">
        <ele>54.450000000000003</ele>
        <time>2017-06-29T12:17:04Z</time>
      </trkpt>
      <trkpt lat="63.612170973792672" lon="11.057864986360073">
        <ele>54.93</ele>
        <time>2017-06-29T12:17:05Z</time>
      </trkpt>
      <trkpt lat="63.612120011821389" lon="11.057520993053913">
        <ele>55.409999999999997</ele>
        <time>2017-06-29T12:17:06Z</time>
      </trkpt>
      <trkpt lat="63.612076006829739" lon="11.057188985869288">
        <ele>56.369999999999997</ele>
        <time>2017-06-29T12:17:07Z</time>
      </trkpt>
      <trkpt lat="63.611780041828752" lon="11.055051013827324">
        <ele>60.219999999999999</ele>
        <time>2017-06-29T12:17:14Z</time>
      </trkpt>
      <trkpt lat="63.611109992489219" lon="11.053033992648125">
        <ele>60.219999999999999</ele>
        <time>2017-06-29T12:17:23Z</time>
      </trkpt>
      <trkpt lat="63.610367020592093" lon="11.050932984799147">
        <ele>59.740000000000002</ele>
        <time>2017-06-29T12:17:34Z</time>
      </trkpt>
      <trkpt lat="63.609183998778462" lon="11.047209994867444">
        <ele>56.859999999999999</ele>
        <time>2017-06-29T12:17:48Z</time>
      </trkpt>
      <trkpt lat="63.608192000538111" lon="11.04361298494041">
        <ele>66.950000000000003</ele>
        <time>2017-06-29T12:18:00Z</time>
      </trkpt>
      <trkpt lat="63.608079012483358" lon="11.043362030759454">
        <ele>67.909999999999997</ele>
        <time>2017-06-29T12:18:01Z</time>
      </trkpt>
      <trkpt lat="63.60795496031642" lon="11.043136976659298">
        <ele>68.390000000000001</ele>
        <time>2017-06-29T12:18:02Z</time>
      </trkpt>
      <trkpt lat="63.60782403498888" lon="11.042938996106386">
        <ele>68.390000000000001</ele>
        <time>2017-06-29T12:18:03Z</time>
      </trkpt>
      <trkpt lat="63.607685985043645" lon="11.042746966704726">
        <ele>68.870000000000005</ele>
        <time>2017-06-29T12:18:04Z</time>
      </trkpt>
      <trkpt lat="63.606122005730867" lon="11.041030017659068">
        <ele>69.349999999999994</ele>
        <time>2017-06-29T12:18:14Z</time>
      </trkpt>
      <trkpt lat="63.603656971827149" lon="11.038433974608779">
        <ele>77.040000000000006</ele>
        <time>2017-06-29T12:18:30Z</time>
      </trkpt>
      <trkpt lat="63.603512970730662" lon="11.03839298710227">
        <ele>78</ele>
        <time>2017-06-29T12:18:31Z</time>
      </trkpt>
      <trkpt lat="63.603373998776078" lon="11.038403967395425">
        <ele>79.450000000000003</ele>
        <time>2017-06-29T12:18:32Z</time>
      </trkpt>
      <trkpt lat="63.603240977972746" lon="11.038461970165372">
        <ele>80.890000000000001</ele>
        <time>2017-06-29T12:18:33Z</time>
      </trkpt>
      <trkpt lat="63.603116003796458" lon="11.038562972098589">
        <ele>81.849999999999994</ele>
        <time>2017-06-29T12:18:34Z</time>
      </trkpt>
      <trkpt lat="63.602996980771422" lon="11.038703033700585">
        <ele>82.329999999999998</ele>
        <time>2017-06-29T12:18:35Z</time>
      </trkpt>
      <trkpt lat="63.602878041565418" lon="11.038867989555001">
        <ele>82.329999999999998</ele>
        <time>2017-06-29T12:18:36Z</time>
      </trkpt>
      <trkpt lat="63.602077988907695" lon="11.039774995297194">
        <ele>77.519999999999996</ele>
        <time>2017-06-29T12:18:41Z</time>
      </trkpt>
      <trkpt lat="63.600290967151523" lon="11.04180702008307">
        <ele>76.560000000000002</ele>
        <time>2017-06-29T12:18:50Z</time>
      </trkpt>
      <trkpt lat="63.59875900670886" lon="11.043637963011861">
        <ele>84.730000000000004</ele>
        <time>2017-06-29T12:19:00Z</time>
      </trkpt>
      <trkpt lat="63.598466981202364" lon="11.043901992961764">
        <ele>86.180000000000007</ele>
        <time>2017-06-29T12:19:02Z</time>
      </trkpt>
      <trkpt lat="63.598314011469483" lon="11.043991008773446">
        <ele>87.140000000000001</ele>
        <time>2017-06-29T12:19:03Z</time>
      </trkpt>
      <trkpt lat="63.598147965967655" lon="11.044045994058251">
        <ele>88.579999999999998</ele>
        <time>2017-06-29T12:19:04Z</time>
      </trkpt>
      <trkpt lat="63.597975969314575" lon="11.044049011543393">
        <ele>89.540000000000006</ele>
        <time>2017-06-29T12:19:05Z</time>
      </trkpt>
      <trkpt lat="63.597802966833115" lon="11.044025039300323">
        <ele>90.980000000000004</ele>
        <time>2017-06-29T12:19:06Z</time>
      </trkpt>
      <trkpt lat="63.597624013200402" lon="11.043963013216853">
        <ele>91.939999999999998</ele>
        <time>2017-06-29T12:19:07Z</time>
      </trkpt>
      <trkpt lat="63.597450004890561" lon="11.043875003233552">
        <ele>92.900000000000006</ele>
        <time>2017-06-29T12:19:08Z</time>
      </trkpt>
      <trkpt lat="63.597283037379384" lon="11.043752040714025">
        <ele>94.349999999999994</ele>
        <time>2017-06-29T12:19:09Z</time>
      </trkpt>
      <trkpt lat="63.597120009362698" lon="11.043599992990494">
        <ele>95.310000000000002</ele>
        <time>2017-06-29T12:19:10Z</time>
      </trkpt>
      <trkpt lat="63.596964022144675" lon="11.043436964973807">
        <ele>96.269999999999996</ele>
        <time>2017-06-29T12:19:11Z</time>
      </trkpt>
      <trkpt lat="63.595844032242894" lon="11.042120000347495">
        <ele>100.11</ele>
        <time>2017-06-29T12:19:19Z</time>
      </trkpt>
      <trkpt lat="63.595721991732717" lon="11.041882960125804">
        <ele>100.11</ele>
        <time>2017-06-29T12:19:20Z</time>
      </trkpt>
      <trkpt lat="63.595601040869951" lon="11.041610967367887">
        <ele>100.11</ele>
        <time>2017-06-29T12:19:21Z</time>
      </trkpt>
      <trkpt lat="63.594671990722418" lon="11.038934038951993">
        <ele>98.189999999999998</ele>
        <time>2017-06-29T12:19:29Z</time>
      </trkpt>
      <trkpt lat="63.593916026875377" lon="11.035788981243968">
        <ele>97.709999999999994</ele>
        <time>2017-06-29T12:19:36Z</time>
      </trkpt>
      <trkpt lat="63.593201972544193" lon="11.032177973538637">
        <ele>97.230000000000004</ele>
        <time>2017-06-29T12:19:45Z</time>
      </trkpt>
      <trkpt lat="63.592455983161926" lon="11.027569016441703">
        <ele>99.150000000000006</ele>
        <time>2017-06-29T12:19:57Z</time>
      </trkpt>
      <trkpt lat="63.592266971245408" lon="11.026842975988984">
        <ele>99.150000000000006</ele>
        <time>2017-06-29T12:19:59Z</time>
      </trkpt>
      <trkpt lat="63.592149959877133" lon="11.026520021259785">
        <ele>99.629999999999995</ele>
        <time>2017-06-29T12:20:00Z</time>
      </trkpt>
      <trkpt lat="63.590723024681211" lon="11.02281304076314">
        <ele>93.870000000000005</ele>
        <time>2017-06-29T12:20:11Z</time>
      </trkpt>
      <trkpt lat="63.589418968185782" lon="11.019467990845442">
        <ele>88.099999999999994</ele>
        <time>2017-06-29T12:20:22Z</time>
      </trkpt>
      <trkpt lat="63.587517030537128" lon="11.014655018225312">
        <ele>73.680000000000007</ele>
        <time>2017-06-29T12:20:38Z</time>
      </trkpt>
      <trkpt lat="63.585973000153899" lon="11.011693021282554">
        <ele>65.510000000000005</ele>
        <time>2017-06-29T12:20:50Z</time>
      </trkpt>
      <trkpt lat="63.58425697311759" lon="11.008916012942791">
        <ele>63.100000000000001</ele>
        <time>2017-06-29T12:21:03Z</time>
      </trkpt>
      <trkpt lat="63.582506999373436" lon="11.0059729591012">
        <ele>63.100000000000001</ele>
        <time>2017-06-29T12:21:16Z</time>
      </trkpt>
      <trkpt lat="63.581244014203548" lon="11.003171978518367">
        <ele>59.740000000000002</ele>
        <time>2017-06-29T12:21:25Z</time>
      </trkpt>
      <trkpt lat="63.580011958256364" lon="10.999889960512519">
        <ele>55.409999999999997</ele>
        <time>2017-06-29T12:21:33Z</time>
      </trkpt>
      <trkpt lat="63.578573958948255" lon="10.995641006156802">
        <ele>53.009999999999998</ele>
        <time>2017-06-29T12:21:45Z</time>
      </trkpt>
      <trkpt lat="63.577072005718946" lon="10.990455960854888">
        <ele>48.200000000000003</ele>
        <time>2017-06-29T12:21:59Z</time>
      </trkpt>
      <trkpt lat="63.576387958601117" lon="10.988683020696044">
        <ele>45.799999999999997</ele>
        <time>2017-06-29T12:22:05Z</time>
      </trkpt>
      <trkpt lat="63.574892962351441" lon="10.985080981627107">
        <ele>46.759999999999998</ele>
        <time>2017-06-29T12:22:18Z</time>
      </trkpt>
      <trkpt lat="63.573546996340156" lon="10.981541974470019">
        <ele>49.649999999999999</ele>
        <time>2017-06-29T12:22:31Z</time>
      </trkpt>
      <trkpt lat="63.572723977267742" lon="10.978692965582013">
        <ele>45.32</ele>
        <time>2017-06-29T12:22:40Z</time>
      </trkpt>
      <trkpt lat="63.572304965928197" lon="10.975166028365493">
        <ele>40.030000000000001</ele>
        <time>2017-06-29T12:22:49Z</time>
      </trkpt>
      <trkpt lat="63.57151597738266" lon="10.971856014803052">
        <ele>37.630000000000003</ele>
        <time>2017-06-29T12:22:58Z</time>
      </trkpt>
      <trkpt lat="63.570747021585703" lon="10.969031983986497">
        <ele>33.780000000000001</ele>
        <time>2017-06-29T12:23:06Z</time>
      </trkpt>
      <trkpt lat="63.569886032491922" lon="10.96568500623107">
        <ele>28.02</ele>
        <time>2017-06-29T12:23:15Z</time>
      </trkpt>
      <trkpt lat="63.569168960675597" lon="10.963216032832861">
        <ele>23.210000000000001</ele>
        <time>2017-06-29T12:23:22Z</time>
      </trkpt>
      <trkpt lat="63.568512992933393" lon="10.960601968690753">
        <ele>18.879999999999999</ele>
        <time>2017-06-29T12:23:29Z</time>
      </trkpt>
      <trkpt lat="63.567619984969497" lon="10.95743696205318">
        <ele>11.19</ele>
        <time>2017-06-29T12:23:38Z</time>
      </trkpt>
      <trkpt lat="63.567315973341465" lon="10.954705970361829">
        <ele>8.310000000000001</ele>
        <time>2017-06-29T12:23:45Z</time>
      </trkpt>
      <trkpt lat="63.567188987508416" lon="10.951752020046115">
        <ele>4.46</ele>
        <time>2017-06-29T12:23:52Z</time>
      </trkpt>
      <trkpt lat="63.567124027758837" lon="10.951348012313247">
        <ele>3.5</ele>
        <time>2017-06-29T12:23:53Z</time>
      </trkpt>
      <trkpt lat="63.567049009725451" lon="10.950954984873533">
        <ele>3.02</ele>
        <time>2017-06-29T12:23:54Z</time>
      </trkpt>
      <trkpt lat="63.566963011398911" lon="10.950575033202767">
        <ele>2.54</ele>
        <time>2017-06-29T12:23:55Z</time>
      </trkpt>
      <trkpt lat="63.566866032779217" lon="10.950210001319647">
        <ele>2.06</ele>
        <time>2017-06-29T12:23:56Z</time>
      </trkpt>
      <trkpt lat="63.566756984218955" lon="10.949863996356726">
        <ele>1.1</ele>
        <time>2017-06-29T12:23:57Z</time>
      </trkpt>
      <trkpt lat="63.566647013649344" lon="10.949542969465256">
        <ele>0.62</ele>
        <time>2017-06-29T12:23:58Z</time>
      </trkpt>
      <trkpt lat="63.565556025132537" lon="10.946426996961236">
        <ele>-2.27</ele>
        <time>2017-06-29T12:24:09Z</time>
      </trkpt>
      <trkpt lat="63.564517004415393" lon="10.943286968395114">
        <ele>-2.27</ele>
        <time>2017-06-29T12:24:21Z</time>
      </trkpt>
      <trkpt lat="63.563474966213107" lon="10.939692975953221">
        <ele>-0.34</ele>
        <time>2017-06-29T12:24:33Z</time>
      </trkpt>
      <trkpt lat="63.562311977148056" lon="10.937303965911269">
        <ele>-1.3</ele>
        <time>2017-06-29T12:24:43Z</time>
      </trkpt>
      <trkpt lat="63.561036000028253" lon="10.934938006103039">
        <ele>3.02</ele>
        <time>2017-06-29T12:24:54Z</time>
      </trkpt>
      <trkpt lat="63.560028998181224" lon="10.932801039889455">
        <ele>1.58</ele>
        <time>2017-06-29T12:25:03Z</time>
      </trkpt>
      <trkpt lat="63.559257024899125" lon="10.930557958781719">
        <ele>0.14</ele>
        <time>2017-06-29T12:25:11Z</time>
      </trkpt>
      <trkpt lat="63.55862402357161" lon="10.9275490231812">
        <ele>0.62</ele>
        <time>2017-06-29T12:25:20Z</time>
      </trkpt>
      <trkpt lat="63.557768985629082" lon="10.925313988700509">
        <ele>-0.34</ele>
        <time>2017-06-29T12:25:28Z</time>
      </trkpt>
      <trkpt lat="63.556930962949991" lon="10.92275901697576">
        <ele>-0.34</ele>
        <time>2017-06-29T12:25:36Z</time>
      </trkpt>
      <trkpt lat="63.556133005768061" lon="10.921277012676001">
        <ele>-2.75</ele>
        <time>2017-06-29T12:25:43Z</time>
      </trkpt>
      <trkpt lat="63.555375030264258" lon="10.919454032555223">
        <ele>-4.19</ele>
        <time>2017-06-29T12:25:50Z</time>
      </trkpt>
      <trkpt lat="63.554875971749425" lon="10.917384959757328">
        <ele>-4.19</ele>
        <time>2017-06-29T12:25:55Z</time>
      </trkpt>
      <trkpt lat="63.554034009575844" lon="10.913797002285719">
        <ele>-3.23</ele>
        <time>2017-06-29T12:26:04Z</time>
      </trkpt>
      <trkpt lat="63.553340993821621" lon="10.910442983731627">
        <ele>-1.79</ele>
        <time>2017-06-29T12:26:13Z</time>
      </trkpt>
      <trkpt lat="63.55267496779561" lon="10.908413976430893">
        <ele>-3.71</ele>
        <time>2017-06-29T12:26:20Z</time>
      </trkpt>
      <trkpt lat="63.551717000082135" lon="10.907089971005917">
        <ele>-6.11</ele>
        <time>2017-06-29T12:26:27Z</time>
      </trkpt>
      <trkpt lat="63.550354018807411" lon="10.905253998935223">
        <ele>-5.63</ele>
        <time>2017-06-29T12:26:37Z</time>
      </trkpt>
      <trkpt lat="63.549563018605113" lon="10.902796005830169">
        <ele>-4.67</ele>
        <time>2017-06-29T12:26:45Z</time>
      </trkpt>
      <trkpt lat="63.548718960955739" lon="10.901383990421891">
        <ele>-5.63</ele>
        <time>2017-06-29T12:26:51Z</time>
      </trkpt>
      <trkpt lat="63.547286996617913" lon="10.900276992470026">
        <ele>-8.029999999999999</ele>
        <time>2017-06-29T12:27:00Z</time>
      </trkpt>
      <trkpt lat="63.546241018921137" lon="10.898442026227713">
        <ele>-7.55</ele>
        <time>2017-06-29T12:27:08Z</time>
      </trkpt>
      <trkpt lat="63.545329989865422" lon="10.895464019849896">
        <ele>-5.63</ele>
        <time>2017-06-29T12:27:18Z</time>
      </trkpt>
      <trkpt lat="63.544413009658456" lon="10.890794964507222">
        <ele>-6.59</ele>
        <time>2017-06-29T12:27:32Z</time>
      </trkpt>
      <trkpt lat="63.544355006888509" lon="10.888165980577469">
        <ele>-5.63</ele>
        <time>2017-06-29T12:27:39Z</time>
      </trkpt>
      <trkpt lat="63.544796984642744" lon="10.885255029425025">
        <ele>-0.34</ele>
        <time>2017-06-29T12:27:47Z</time>
      </trkpt>
      <trkpt lat="63.545039976015687" lon="10.882960986346006">
        <ele>7.83</ele>
        <time>2017-06-29T12:27:54Z</time>
      </trkpt>
      <trkpt lat="63.545040981844068" lon="10.882651023566723">
        <ele>9.27</ele>
        <time>2017-06-29T12:27:55Z</time>
      </trkpt>
      <trkpt lat="63.545030001550913" lon="10.88234500028193">
        <ele>10.23</ele>
        <time>2017-06-29T12:27:56Z</time>
      </trkpt>
      <trkpt lat="63.545007035136223" lon="10.882047023624182">
        <ele>11.19</ele>
        <time>2017-06-29T12:27:57Z</time>
      </trkpt>
      <trkpt lat="63.544971998780966" lon="10.88176597841084">
        <ele>12.15</ele>
        <time>2017-06-29T12:27:58Z</time>
      </trkpt>
      <trkpt lat="63.544931011274457" lon="10.881505971774459">
        <ele>13.119999999999999</ele>
        <time>2017-06-29T12:27:59Z</time>
      </trkpt>
      <trkpt lat="63.544888012111187" lon="10.881259040907025">
        <ele>13.6</ele>
        <time>2017-06-29T12:28:00Z</time>
      </trkpt>
      <trkpt lat="63.544591041281819" lon="10.879778964444995">
        <ele>16</ele>
        <time>2017-06-29T12:28:06Z</time>
      </trkpt>
      <trkpt lat="63.544566985219717" lon="10.879494985565543">
        <ele>16.48</ele>
        <time>2017-06-29T12:28:07Z</time>
      </trkpt>
      <trkpt lat="63.544548964127898" lon="10.879191979765892">
        <ele>17.440000000000001</ele>
        <time>2017-06-29T12:28:08Z</time>
      </trkpt>
      <trkpt lat="63.544537983834743" lon="10.878871958702803">
        <ele>17.440000000000001</ele>
        <time>2017-06-29T12:28:09Z</time>
      </trkpt>
      <trkpt lat="63.544543012976646" lon="10.87854296900332">
        <ele>18.879999999999999</ele>
        <time>2017-06-29T12:28:10Z</time>
      </trkpt>
      <trkpt lat="63.544605961069465" lon="10.875659007579088">
        <ele>24.170000000000002</ele>
        <time>2017-06-29T12:28:17Z</time>
      </trkpt>
      <trkpt lat="63.544419966638088" lon="10.872800024226308">
        <ele>28.98</ele>
        <time>2017-06-29T12:28:24Z</time>
      </trkpt>
      <trkpt lat="63.543607005849481" lon="10.868312017992139">
        <ele>27.050000000000001</ele>
        <time>2017-06-29T12:28:36Z</time>
      </trkpt>
      <trkpt lat="63.542899992316961" lon="10.863966001197696">
        <ele>26.09</ele>
        <time>2017-06-29T12:28:47Z</time>
      </trkpt>
      <trkpt lat="63.542195996269584" lon="10.859597017988563">
        <ele>33.299999999999997</ele>
        <time>2017-06-29T12:28:58Z</time>
      </trkpt>
      <trkpt lat="63.54124397970736" lon="10.856571989133954">
        <ele>35.710000000000001</ele>
        <time>2017-06-29T12:29:05Z</time>
      </trkpt>
      <trkpt lat="63.539424017071724" lon="10.851806960999966">
        <ele>52.530000000000001</ele>
        <time>2017-06-29T12:29:17Z</time>
      </trkpt>
      <trkpt lat="63.537927009165287" lon="10.848884023725986">
        <ele>65.510000000000005</ele>
        <time>2017-06-29T12:29:26Z</time>
      </trkpt>
      <trkpt lat="63.535963967442513" lon="10.846595009788871">
        <ele>78.480000000000004</ele>
        <time>2017-06-29T12:29:36Z</time>
      </trkpt>
      <trkpt lat="63.534846995025873" lon="10.844256961718202">
        <ele>90.019999999999996</ele>
        <time>2017-06-29T12:29:43Z</time>
      </trkpt>
      <trkpt lat="63.533326014876366" lon="10.839810026809573">
        <ele>106.36</ele>
        <time>2017-06-29T12:29:54Z</time>
      </trkpt>
      <trkpt lat="63.531649969518185" lon="10.836441004648805">
        <ele>117.90000000000001</ele>
        <time>2017-06-29T12:30:04Z</time>
      </trkpt>
      <trkpt lat="63.531113024801016" lon="10.835660984739661">
        <ele>120.78</ele>
        <time>2017-06-29T12:30:07Z</time>
      </trkpt>
      <trkpt lat="63.530923007056117" lon="10.835488988086581">
        <ele>121.26000000000001</ele>
        <time>2017-06-29T12:30:08Z</time>
      </trkpt>
      <trkpt lat="63.530727960169315" lon="10.835353033617139">
        <ele>121.73999999999999</ele>
        <time>2017-06-29T12:30:09Z</time>
      </trkpt>
      <trkpt lat="63.530524028465152" lon="10.835268963128328">
        <ele>122.70999999999999</ele>
        <time>2017-06-29T12:30:10Z</time>
      </trkpt>
      <trkpt lat="63.530318001285195" lon="10.835221018642187">
        <ele>122.70999999999999</ele>
        <time>2017-06-29T12:30:11Z</time>
      </trkpt>
      <trkpt lat="63.530112979933619" lon="10.835224958136678">
        <ele>123.19</ele>
        <time>2017-06-29T12:30:12Z</time>
      </trkpt>
      <trkpt lat="63.529911981895566" lon="10.835268963128328">
        <ele>123.19</ele>
        <time>2017-06-29T12:30:13Z</time>
      </trkpt>
      <trkpt lat="63.529712995514274" lon="10.835365019738674">
        <ele>123.19</ele>
        <time>2017-06-29T12:30:14Z</time>
      </trkpt>
      <trkpt lat="63.529518032446504" lon="10.835499968379736">
        <ele>123.19</ele>
        <time>2017-06-29T12:30:15Z</time>
      </trkpt>
      <trkpt lat="63.529329020529985" lon="10.835672970861197">
        <ele>122.70999999999999</ele>
        <time>2017-06-29T12:30:16Z</time>
      </trkpt>
      <trkpt lat="63.529142020270228" lon="10.835884027183056">
        <ele>122.22</ele>
        <time>2017-06-29T12:30:17Z</time>
      </trkpt>
      <trkpt lat="63.528958037495613" lon="10.836116960272193">
        <ele>121.73999999999999</ele>
        <time>2017-06-29T12:30:18Z</time>
      </trkpt>
      <trkpt lat="63.52878000587225" lon="10.83638702519238">
        <ele>120.78</ele>
        <time>2017-06-29T12:30:19Z</time>
      </trkpt>
      <trkpt lat="63.528610020875931" lon="10.836677039042115">
        <ele>119.34</ele>
        <time>2017-06-29T12:30:20Z</time>
      </trkpt>
      <trkpt lat="63.528443975374103" lon="10.836987001821399">
        <ele>117.90000000000001</ele>
        <time>2017-06-29T12:30:21Z</time>
      </trkpt>
      <trkpt lat="63.526451010257006" lon="10.8411780372262">
        <ele>100.59999999999999</ele>
        <time>2017-06-29T12:30:34Z</time>
      </trkpt>
      <trkpt lat="63.524403981864452" lon="10.845374017953873">
        <ele>105.40000000000001</ele>
        <time>2017-06-29T12:30:48Z</time>
      </trkpt>
      <trkpt lat="63.521532006561756" lon="10.851141018792987">
        <ele>112.61</ele>
        <time>2017-06-29T12:31:08Z</time>
      </trkpt>
      <trkpt lat="63.519771974533796" lon="10.854682037606835">
        <ele>111.17</ele>
        <time>2017-06-29T12:31:22Z</time>
      </trkpt>
      <trkpt lat="63.51833900436759" lon="10.857026958838105">
        <ele>108.29000000000001</ele>
        <time>2017-06-29T12:31:34Z</time>
      </trkpt>
      <trkpt lat="63.517070990055799" lon="10.857889959588647">
        <ele>102.04000000000001</ele>
        <time>2017-06-29T12:31:43Z</time>
      </trkpt>
      <trkpt lat="63.514288030564785" lon="10.859048003330827">
        <ele>97.709999999999994</ele>
        <time>2017-06-29T12:32:03Z</time>
      </trkpt>
      <trkpt lat="63.513000989332795" lon="10.85888396948576">
        <ele>93.870000000000005</ele>
        <time>2017-06-29T12:32:11Z</time>
      </trkpt>
      <trkpt lat="63.511904971674085" lon="10.857669012621045">
        <ele>87.140000000000001</ele>
        <time>2017-06-29T12:32:18Z</time>
      </trkpt>
      <trkpt lat="63.511126963421702" lon="10.855633970350027">
        <ele>78.969999999999999</ele>
        <time>2017-06-29T12:32:25Z</time>
      </trkpt>
      <trkpt lat="63.510448029264808" lon="10.85357403382659">
        <ele>72.239999999999995</ele>
        <time>2017-06-29T12:32:32Z</time>
      </trkpt>
      <trkpt lat="63.510326994583011" lon="10.853354008868337">
        <ele>71.269999999999996</ele>
        <time>2017-06-29T12:32:33Z</time>
      </trkpt>
      <trkpt lat="63.51019699126482" lon="10.853149993345141">
        <ele>70.310000000000002</ele>
        <time>2017-06-29T12:32:34Z</time>
      </trkpt>
      <trkpt lat="63.510057013481855" lon="10.852973973378539">
        <ele>68.870000000000005</ele>
        <time>2017-06-29T12:32:35Z</time>
      </trkpt>
      <trkpt lat="63.509912006556988" lon="10.852817986160517">
        <ele>67.909999999999997</ele>
        <time>2017-06-29T12:32:36Z</time>
      </trkpt>
      <trkpt lat="63.509759958833456" lon="10.852696029469371">
        <ele>67.430000000000007</ele>
        <time>2017-06-29T12:32:37Z</time>
      </trkpt>
      <trkpt lat="63.509599026292562" lon="10.852599972859025">
        <ele>66.469999999999999</ele>
        <time>2017-06-29T12:32:38Z</time>
      </trkpt>
      <trkpt lat="63.509437004104257" lon="10.852541970089078">
        <ele>65.510000000000005</ele>
        <time>2017-06-29T12:32:39Z</time>
      </trkpt>
      <trkpt lat="63.509274981915951" lon="10.852511040866375">
        <ele>64.549999999999997</ele>
        <time>2017-06-29T12:32:40Z</time>
      </trkpt>
      <trkpt lat="63.509112959727645" lon="10.852512968704104">
        <ele>63.579999999999998</ele>
        <time>2017-06-29T12:32:41Z</time>
      </trkpt>
      <trkpt lat="63.508952027186751" lon="10.852543981745839">
        <ele>63.100000000000001</ele>
        <time>2017-06-29T12:32:42Z</time>
      </trkpt>
      <trkpt lat="63.508793022483587" lon="10.852617993950844">
        <ele>62.140000000000001</ele>
        <time>2017-06-29T12:32:43Z</time>
      </trkpt>
      <trkpt lat="63.508638963103294" lon="10.852727964520454">
        <ele>60.700000000000003</ele>
        <time>2017-06-29T12:32:44Z</time>
      </trkpt>
      <trkpt lat="63.508481970056891" lon="10.852870037779212">
        <ele>60.219999999999999</ele>
        <time>2017-06-29T12:32:45Z</time>
      </trkpt>
      <trkpt lat="63.50832799449563" lon="10.853035999462008">
        <ele>59.259999999999998</ele>
        <time>2017-06-29T12:32:46Z</time>
      </trkpt>
      <trkpt lat="63.50817896425724" lon="10.853231968358159">
        <ele>58.299999999999997</ele>
        <time>2017-06-29T12:32:47Z</time>
      </trkpt>
      <trkpt lat="63.508030017837882" lon="10.853452999144793">
        <ele>56.859999999999999</ele>
        <time>2017-06-29T12:32:48Z</time>
      </trkpt>
      <trkpt lat="63.505733041092753" lon="10.857042968273163">
        <ele>44.840000000000003</ele>
        <time>2017-06-29T12:33:04Z</time>
      </trkpt>
      <trkpt lat="63.504463015124202" lon="10.85813001729548">
        <ele>49.159999999999997</ele>
        <time>2017-06-29T12:33:12Z</time>
      </trkpt>
      <trkpt lat="63.503000037744641" lon="10.859426027163863">
        <ele>43.399999999999999</ele>
        <time>2017-06-29T12:33:22Z</time>
      </trkpt>
      <trkpt lat="63.502199985086918" lon="10.861162003129721">
        <ele>40.990000000000002</ele>
        <time>2017-06-29T12:33:30Z</time>
      </trkpt>
      <trkpt lat="63.501113019883633" lon="10.863159997388721">
        <ele>36.670000000000002</ele>
        <time>2017-06-29T12:33:42Z</time>
      </trkpt>
      <trkpt lat="63.499721037223935" lon="10.865018013864756">
        <ele>28.5</ele>
        <time>2017-06-29T12:33:53Z</time>
      </trkpt>
      <trkpt lat="63.499014023691416" lon="10.866820039227605">
        <ele>26.57</ele>
        <time>2017-06-29T12:34:00Z</time>
      </trkpt>
      <trkpt lat="63.498638011515141" lon="10.869247019290924">
        <ele>32.82</ele>
        <time>2017-06-29T12:34:07Z</time>
      </trkpt>
      <trkpt lat="63.498157979920506" lon="10.874652005732059">
        <ele>46.759999999999998</ele>
        <time>2017-06-29T12:34:21Z</time>
      </trkpt>
      <trkpt lat="63.497334038838744" lon="10.878169974312186">
        <ele>53.009999999999998</ele>
        <time>2017-06-29T12:34:31Z</time>
      </trkpt>
      <trkpt lat="63.496198961511254" lon="10.880867019295692">
        <ele>50.130000000000003</ele>
        <time>2017-06-29T12:34:41Z</time>
      </trkpt>
      <trkpt lat="63.494927007704973" lon="10.882711037993431">
        <ele>43.399999999999999</ele>
        <time>2017-06-29T12:34:51Z</time>
      </trkpt>
      <trkpt lat="63.493601996451616" lon="10.883643021807075">
        <ele>38.590000000000003</ele>
        <time>2017-06-29T12:35:00Z</time>
      </trkpt>
      <trkpt lat="63.49148103967309" lon="10.884350035339594">
        <ele>26.09</ele>
        <time>2017-06-29T12:35:11Z</time>
      </trkpt>
      <trkpt lat="63.48901298828423" lon="10.885184034705162">
        <ele>19.84</ele>
        <time>2017-06-29T12:35:23Z</time>
      </trkpt>
      <trkpt lat="63.486505961045623" lon="10.886417012661695">
        <ele>15.52</ele>
        <time>2017-06-29T12:35:34Z</time>
      </trkpt>
      <trkpt lat="63.485013982281089" lon="10.888245021924376">
        <ele>8.310000000000001</ele>
        <time>2017-06-29T12:35:41Z</time>
      </trkpt>
      <trkpt lat="63.483509011566639" lon="10.891314977779984">
        <ele>2.06</ele>
        <time>2017-06-29T12:35:49Z</time>
      </trkpt>
      <trkpt lat="63.481830032542348" lon="10.895281964913011">
        <ele>0.62</ele>
        <time>2017-06-29T12:35:59Z</time>
      </trkpt>
      <trkpt lat="63.479877971112728" lon="10.898597007617354">
        <ele>-1.3</ele>
        <time>2017-06-29T12:36:09Z</time>
      </trkpt>
      <trkpt lat="63.477546041831374" lon="10.90157400816679">
        <ele>-0.82</ele>
        <time>2017-06-29T12:36:21Z</time>
      </trkpt>
      <trkpt lat="63.476019026711583" lon="10.903176041319966">
        <ele>-0.34</ele>
        <time>2017-06-29T12:36:30Z</time>
      </trkpt>
      <trkpt lat="63.475192990154028" lon="10.903948014602065">
        <ele>0.14</ele>
        <time>2017-06-29T12:36:37Z</time>
      </trkpt>
      <trkpt lat="63.475130964070559" lon="10.903984978795052">
        <ele>0.14</ele>
        <time>2017-06-29T12:36:38Z</time>
      </trkpt>
      <trkpt lat="63.475097017362714" lon="10.903995037078857">
        <ele>-0.34</ele>
        <time>2017-06-29T12:36:39Z</time>
      </trkpt>
      <trkpt lat="63.475001966580749" lon="10.903998976573348">
        <ele>-0.82</ele>
        <time>2017-06-29T12:36:43Z</time>
      </trkpt>
      <trkpt lat="63.474946981295943" lon="10.903992019593716">
        <ele>-0.82</ele>
        <time>2017-06-29T12:36:44Z</time>
      </trkpt>
      <trkpt lat="63.474796023219824" lon="10.904039964079857">
        <ele>-0.34</ele>
        <time>2017-06-29T12:36:46Z</time>
      </trkpt>
      <trkpt lat="63.4747230168432" lon="10.904143983498216">
        <ele>-0.34</ele>
        <time>2017-06-29T12:36:47Z</time>
      </trkpt>
      <trkpt lat="63.474654033780098" lon="10.904296031221747">
        <ele>-0.34</ele>
        <time>2017-06-29T12:36:48Z</time>
      </trkpt>
      <trkpt lat="63.474577004089952" lon="10.90447599068284">
        <ele>0.14</ele>
        <time>2017-06-29T12:36:49Z</time>
      </trkpt>
      <trkpt lat="63.474482037127018" lon="10.904631977900863">
        <ele>0.14</ele>
        <time>2017-06-29T12:36:50Z</time>
      </trkpt>
      <trkpt lat="63.474370976909995" lon="10.904768016189337">
        <ele>0.14</ele>
        <time>2017-06-29T12:36:51Z</time>
      </trkpt>
      <trkpt lat="63.474252037703991" lon="10.904890978708863">
        <ele>0.62</ele>
        <time>2017-06-29T12:36:52Z</time>
      </trkpt>
      <trkpt lat="63.472900958731771" lon="10.906245997175574">
        <ele>-1.3</ele>
        <time>2017-06-29T12:37:01Z</time>
      </trkpt>
      <trkpt lat="63.467726977542043" lon="10.910909017547965">
        <ele>-0.34</ele>
        <time>2017-06-29T12:37:33Z</time>
      </trkpt>
      <trkpt lat="63.467179974541068" lon="10.911228032782674">
        <ele>-2.27</ele>
        <time>2017-06-29T12:37:39Z</time>
      </trkpt>
      <trkpt lat="63.467104034498334" lon="10.91124203056097">
        <ele>-2.75</ele>
        <time>2017-06-29T12:37:40Z</time>
      </trkpt>
      <trkpt lat="63.467020969837904" lon="10.911217974498868">
        <ele>-3.71</ele>
        <time>2017-06-29T12:37:41Z</time>
      </trkpt>
      <trkpt lat="63.466791976243258" lon="10.911216968670487">
        <ele>-2.75</ele>
        <time>2017-06-29T12:37:44Z</time>
      </trkpt>
      <trkpt lat="63.46673003397882" lon="10.911303972825408">
        <ele>-2.27</ele>
        <time>2017-06-29T12:37:45Z</time>
      </trkpt>
      <trkpt lat="63.466469021514058" lon="10.911662969738245">
        <ele>-2.27</ele>
        <time>2017-06-29T12:37:48Z</time>
      </trkpt>
      <trkpt lat="63.46634304150939" lon="10.91175701469183">
        <ele>-2.75</ele>
        <time>2017-06-29T12:37:49Z</time>
      </trkpt>
      <trkpt lat="63.465072009712458" lon="10.912480959668756">
        <ele>-1.3</ele>
        <time>2017-06-29T12:37:57Z</time>
      </trkpt>
      <trkpt lat="63.463337039574981" lon="10.912672989070415">
        <ele>-1.79</ele>
        <time>2017-06-29T12:38:06Z</time>
      </trkpt>
      <trkpt lat="63.46172796562314" lon="10.911806970834732">
        <ele>-2.75</ele>
        <time>2017-06-29T12:38:14Z</time>
      </trkpt>
      <trkpt lat="63.459894005209208" lon="10.909819034859538">
        <ele>-2.75</ele>
        <time>2017-06-29T12:38:24Z</time>
      </trkpt>
      <trkpt lat="63.458439996466041" lon="10.909042032435536">
        <ele>-6.11</ele>
        <time>2017-06-29T12:38:32Z</time>
      </trkpt>
      <trkpt lat="63.456448037177324" lon="10.908974977210164">
        <ele>-10.92</ele>
        <time>2017-06-29T12:38:42Z</time>
      </trkpt>
      <trkpt lat="63.454840974882245" lon="10.909475963562727">
        <ele>-8.51</ele>
        <time>2017-06-29T12:38:51Z</time>
      </trkpt>
      <trkpt lat="63.452883968129754" lon="10.909339003264904">
        <ele>-7.07</ele>
        <time>2017-06-29T12:39:01Z</time>
      </trkpt>
      <trkpt lat="63.451014971360564" lon="10.908056991174817">
        <ele>-4.67</ele>
        <time>2017-06-29T12:39:11Z</time>
      </trkpt>
      <trkpt lat="63.449675040319562" lon="10.905793961137533">
        <ele>-3.23</ele>
        <time>2017-06-29T12:39:20Z</time>
      </trkpt>
      <trkpt lat="63.448561001569033" lon="10.902499035000801">
        <ele>-1.79</ele>
        <time>2017-06-29T12:39:30Z</time>
      </trkpt>
      <trkpt lat="63.447861028835177" lon="10.898502040654421">
        <ele>-2.27</ele>
        <time>2017-06-29T12:39:40Z</time>
      </trkpt>
      <trkpt lat="63.446264024823904" lon="10.889616971835494">
        <ele>-4.67</ele>
        <time>2017-06-29T12:40:01Z</time>
      </trkpt>
      <trkpt lat="63.445673016831279" lon="10.886247027665377">
        <ele>-4.67</ele>
        <time>2017-06-29T12:40:10Z</time>
      </trkpt>
      <trkpt lat="63.444730974733829" lon="10.879245959222317">
        <ele>-5.15</ele>
        <time>2017-06-29T12:40:29Z</time>
      </trkpt>
      <trkpt lat="63.444051034748554" lon="10.874965991824865">
        <ele>-4.19</ele>
        <time>2017-06-29T12:40:41Z</time>
      </trkpt>
      <trkpt lat="63.443953972309828" lon="10.874629961326718">
        <ele>-4.19</ele>
        <time>2017-06-29T12:40:42Z</time>
      </trkpt>
      <trkpt lat="63.416528971865773" lon="10.826898040249944">
        <ele>24.170000000000002</ele>
        <time>2017-06-29T12:44:13Z</time>
      </trkpt>
      <trkpt lat="63.415098013356328" lon="10.824839025735855">
        <ele>24.170000000000002</ele>
        <time>2017-06-29T12:44:24Z</time>
      </trkpt>
      <trkpt lat="63.413434037938714" lon="10.821642000228167">
        <ele>24.649999999999999</ele>
        <time>2017-06-29T12:44:37Z</time>
      </trkpt>
      <trkpt lat="63.412399040535092" lon="10.819034976884723">
        <ele>27.530000000000001</ele>
        <time>2017-06-29T12:44:45Z</time>
      </trkpt>
      <trkpt lat="63.411055002361536" lon="10.816569020971656">
        <ele>32.82</ele>
        <time>2017-06-29T12:44:53Z</time>
      </trkpt>
      <trkpt lat="63.409785982221365" lon="10.815791012719274">
        <ele>35.710000000000001</ele>
        <time>2017-06-29T12:44:59Z</time>
      </trkpt>
      <trkpt lat="63.408493995666504" lon="10.816104998812079">
        <ele>35.710000000000001</ele>
        <time>2017-06-29T12:45:05Z</time>
      </trkpt>
      <trkpt lat="63.406604966148734" lon="10.816659964621067">
        <ele>33.299999999999997</ele>
        <time>2017-06-29T12:45:14Z</time>
      </trkpt>
      <trkpt lat="63.405397972092032" lon="10.815649023279548">
        <ele>32.82</ele>
        <time>2017-06-29T12:45:20Z</time>
      </trkpt>
      <trkpt lat="63.404481997713447" lon="10.813679024577141">
        <ele>34.259999999999998</ele>
        <time>2017-06-29T12:45:26Z</time>
      </trkpt>
      <trkpt lat="63.403859976679087" lon="10.810878966003656">
        <ele>37.149999999999999</ele>
        <time>2017-06-29T12:45:33Z</time>
      </trkpt>
      <trkpt lat="63.403390003368258" lon="10.806658007204533">
        <ele>41.950000000000003</ele>
        <time>2017-06-29T12:45:43Z</time>
      </trkpt>
      <trkpt lat="63.403300987556577" lon="10.802608039230108">
        <ele>47.719999999999999</ele>
        <time>2017-06-29T12:45:53Z</time>
      </trkpt>
      <trkpt lat="63.412241041660309" lon="10.770960990339518">
        <ele>110.69</ele>
        <time>2017-06-29T12:47:38Z</time>
      </trkpt>
      <trkpt lat="63.413802003487945" lon="10.769127029925585">
        <ele>122.70999999999999</ele>
        <time>2017-06-29T12:47:47Z</time>
      </trkpt>
      <trkpt lat="63.415433038026094" lon="10.768396966159344">
        <ele>136.16</ele>
        <time>2017-06-29T12:47:56Z</time>
      </trkpt>
      <trkpt lat="63.416785039007664" lon="10.767117971554399">
        <ele>143.37</ele>
        <time>2017-06-29T12:48:04Z</time>
      </trkpt>
      <trkpt lat="63.417907962575555" lon="10.764810014516115">
        <ele>150.58000000000001</ele>
        <time>2017-06-29T12:48:12Z</time>
      </trkpt>
      <trkpt lat="63.418731987476349" lon="10.761507963761687">
        <ele>153.47</ele>
        <time>2017-06-29T12:48:21Z</time>
      </trkpt>
      <trkpt lat="63.419513013213873" lon="10.756621984764934">
        <ele>158.27000000000001</ele>
        <time>2017-06-29T12:48:33Z</time>
      </trkpt>
      <trkpt lat="63.420206028968096" lon="10.750203961506486">
        <ele>162.12</ele>
        <time>2017-06-29T12:48:48Z</time>
      </trkpt>
      <trkpt lat="63.420248022302985" lon="10.746013009920716">
        <ele>160.19999999999999</ele>
        <time>2017-06-29T12:48:57Z</time>
      </trkpt>
      <trkpt lat="63.420016011223197" lon="10.741018988192081">
        <ele>155.38999999999999</ele>
        <time>2017-06-29T12:49:07Z</time>
      </trkpt>
      <trkpt lat="63.42019303701818" lon="10.737931011244655">
        <ele>155.87</ele>
        <time>2017-06-29T12:49:14Z</time>
      </trkpt>
      <trkpt lat="63.420768035575747" lon="10.735307978466153">
        <ele>153.94999999999999</ele>
        <time>2017-06-29T12:49:21Z</time>
      </trkpt>
      <trkpt lat="63.421864975243807" lon="10.732999015599489">
        <ele>153.94999999999999</ele>
        <time>2017-06-29T12:49:29Z</time>
      </trkpt>
      <trkpt lat="63.423476982861757" lon="10.730410013347864">
        <ele>151.53999999999999</ele>
        <time>2017-06-29T12:49:39Z</time>
      </trkpt>
      <trkpt lat="63.424462024122477" lon="10.727609032765031">
        <ele>144.81999999999999</ele>
        <time>2017-06-29T12:49:47Z</time>
      </trkpt>
      <trkpt lat="63.425055965781212" lon="10.724030965939164">
        <ele>134.24000000000001</ele>
        <time>2017-06-29T12:49:55Z</time>
      </trkpt>
      <trkpt lat="63.426041007041931" lon="10.717113967984915">
        <ele>117.42</ele>
        <time>2017-06-29T12:50:10Z</time>
      </trkpt>
      <trkpt lat="63.427504990249872" lon="10.710773980244994">
        <ele>110.20999999999999</ele>
        <time>2017-06-29T12:50:25Z</time>
      </trkpt>
      <trkpt lat="63.427635999396443" lon="10.707933017984033">
        <ele>106.36</ele>
        <time>2017-06-29T12:50:31Z</time>
      </trkpt>
      <trkpt lat="63.427224028855562" lon="10.704802963882685">
        <ele>100.11</ele>
        <time>2017-06-29T12:50:38Z</time>
      </trkpt>
      <trkpt lat="63.426035977900028" lon="10.69894602522254">
        <ele>88.579999999999998</ele>
        <time>2017-06-29T12:50:53Z</time>
      </trkpt>
      <trkpt lat="63.425731966271996" lon="10.69499496370554">
        <ele>83.769999999999996</ele>
        <time>2017-06-29T12:51:02Z</time>
      </trkpt>
      <trkpt lat="63.425759039819241" lon="10.690268995240331">
        <ele>89.060000000000002</ele>
        <time>2017-06-29T12:51:13Z</time>
      </trkpt>
      <trkpt lat="63.425814025104046" lon="10.684419013559818">
        <ele>98.189999999999998</ele>
        <time>2017-06-29T12:51:27Z</time>
      </trkpt>
      <trkpt lat="63.425840009003878" lon="10.680482033640146">
        <ele>101.56</ele>
        <time>2017-06-29T12:51:36Z</time>
      </trkpt>
      <trkpt lat="63.426057016476989" lon="10.67524703219533">
        <ele>111.17</ele>
        <time>2017-06-29T12:51:48Z</time>
      </trkpt>
      <trkpt lat="63.42657501809299" lon="10.670444034039974">
        <ele>121.26000000000001</ele>
        <time>2017-06-29T12:51:59Z</time>
      </trkpt>
      <trkpt lat="63.426517015323043" lon="10.666305972263217">
        <ele>129.91999999999999</ele>
        <time>2017-06-29T12:52:08Z</time>
      </trkpt>
      <trkpt lat="63.426453983411193" lon="10.661512026563287">
        <ele>139.05000000000001</ele>
        <time>2017-06-29T12:52:18Z</time>
      </trkpt>
      <trkpt lat="63.426781967282295" lon="10.657542021945119">
        <ele>147.69999999999999</ele>
        <time>2017-06-29T12:52:27Z</time>
      </trkpt>
      <trkpt lat="63.426913982257247" lon="10.652494020760059">
        <ele>152.03</ele>
        <time>2017-06-29T12:52:39Z</time>
      </trkpt>
      <trkpt lat="63.426572000607848" lon="10.648723002523184">
        <ele>148.18000000000001</ele>
        <time>2017-06-29T12:52:49Z</time>
      </trkpt>
      <trkpt lat="63.425828022882342" lon="10.645260019227862">
        <ele>138.56999999999999</ele>
        <time>2017-06-29T12:52:59Z</time>
      </trkpt>
      <trkpt lat="63.424568977206945" lon="10.641756970435381">
        <ele>125.11</ele>
        <time>2017-06-29T12:53:10Z</time>
      </trkpt>
      <trkpt lat="63.422967027872801" lon="10.637046005576849">
        <ele>107.81</ele>
        <time>2017-06-29T12:53:24Z</time>
      </trkpt>
      <trkpt lat="63.422591015696526" lon="10.63406397588551">
        <ele>99.150000000000006</ele>
        <time>2017-06-29T12:53:31Z</time>
      </trkpt>
      <trkpt lat="63.422543993219733" lon="10.629130974411964">
        <ele>91.939999999999998</ele>
        <time>2017-06-29T12:53:42Z</time>
      </trkpt>
      <trkpt lat="63.422349030151963" lon="10.622340040281415">
        <ele>94.829999999999998</ele>
        <time>2017-06-29T12:53:58Z</time>
      </trkpt>
      <trkpt lat="63.421799009665847" lon="10.615755971521139">
        <ele>99.629999999999995</ele>
        <time>2017-06-29T12:54:15Z</time>
      </trkpt>
      <trkpt lat="63.423237008973956" lon="10.581113984808326">
        <ele>103</ele>
        <time>2017-06-29T12:55:51Z</time>
      </trkpt>
      <trkpt lat="63.423864981159568" lon="10.577622000128031">
        <ele>100.59999999999999</ele>
        <time>2017-06-29T12:55:59Z</time>
      </trkpt>
      <trkpt lat="63.425056971609592" lon="10.573772024363279">
        <ele>99.150000000000006</ele>
        <time>2017-06-29T12:56:08Z</time>
      </trkpt>
      <trkpt lat="63.425635993480682" lon="10.570724029093981">
        <ele>94.829999999999998</ele>
        <time>2017-06-29T12:56:15Z</time>
      </trkpt>
      <trkpt lat="63.425629958510399" lon="10.567433964461088">
        <ele>86.659999999999997</ele>
        <time>2017-06-29T12:56:22Z</time>
      </trkpt>
      <trkpt lat="63.425120003521442" lon="10.564682018011808">
        <ele>79.450000000000003</ele>
        <time>2017-06-29T12:56:28Z</time>
      </trkpt>
      <trkpt lat="63.423784011974931" lon="10.561165977269411">
        <ele>66.950000000000003</ele>
        <time>2017-06-29T12:56:37Z</time>
      </trkpt>
      <trkpt lat="63.422925034537911" lon="10.557742975652218">
        <ele>61.18</ele>
        <time>2017-06-29T12:56:45Z</time>
      </trkpt>
      <trkpt lat="63.422607025131583" lon="10.553912026807666">
        <ele>59.259999999999998</ele>
        <time>2017-06-29T12:56:53Z</time>
      </trkpt>
      <trkpt lat="63.422854961827397" lon="10.550092980265617">
        <ele>60.700000000000003</ele>
        <time>2017-06-29T12:57:01Z</time>
      </trkpt>
      <trkpt lat="63.423184035345912" lon="10.545987021178007">
        <ele>61.18</ele>
        <time>2017-06-29T12:57:11Z</time>
      </trkpt>
      <trkpt lat="63.42331001535058" lon="10.543499020859599">
        <ele>62.619999999999997</ele>
        <time>2017-06-29T12:57:20Z</time>
      </trkpt>
      <trkpt lat="63.42335301451385" lon="10.543209007009864">
        <ele>63.100000000000001</ele>
        <time>2017-06-29T12:57:23Z</time>
      </trkpt>
      <trkpt lat="63.42339601367712" lon="10.543106999248266">
        <ele>62.619999999999997</ele>
        <time>2017-06-29T12:57:24Z</time>
      </trkpt>
      <trkpt lat="63.423457033932209" lon="10.543019995093346">
        <ele>62.140000000000001</ele>
        <time>2017-06-29T12:57:25Z</time>
      </trkpt>
      <trkpt lat="63.42384796589613" lon="10.542455976828933">
        <ele>59.740000000000002</ele>
        <time>2017-06-29T12:57:31Z</time>
      </trkpt>
      <trkpt lat="63.423908986151218" lon="10.542403003200889">
        <ele>59.259999999999998</ele>
        <time>2017-06-29T12:57:32Z</time>
      </trkpt>
      <trkpt lat="63.423969000577927" lon="10.542378025129437">
        <ele>59.259999999999998</ele>
        <time>2017-06-29T12:57:33Z</time>
      </trkpt>
      <trkpt lat="63.424024991691113" lon="10.542371990159154">
        <ele>59.740000000000002</ele>
        <time>2017-06-29T12:57:34Z</time>
      </trkpt>
      <trkpt lat="63.424077965319157" lon="10.542358998209238">
        <ele>59.740000000000002</ele>
        <time>2017-06-29T12:57:35Z</time>
      </trkpt>
      <trkpt lat="63.424121970310807" lon="10.542326979339123">
        <ele>59.259999999999998</ele>
        <time>2017-06-29T12:57:36Z</time>
      </trkpt>
      <trkpt lat="63.424158012494445" lon="10.542275011539459">
        <ele>59.259999999999998</ele>
        <time>2017-06-29T12:57:37Z</time>
      </trkpt>
      <trkpt lat="63.424181984737515" lon="10.542207034304738">
        <ele>59.259999999999998</ele>
        <time>2017-06-29T12:57:38Z</time>
      </trkpt>
      <trkpt lat="63.42419296503067" lon="10.542135033756495">
        <ele>59.259999999999998</ele>
        <time>2017-06-29T12:57:39Z</time>
      </trkpt>
      <trkpt lat="63.42419003136456" lon="10.542049035429955">
        <ele>58.780000000000001</ele>
        <time>2017-06-29T12:57:40Z</time>
      </trkpt>
      <trkpt lat="63.424164969474077" lon="10.541949039325118">
        <ele>58.780000000000001</ele>
        <time>2017-06-29T12:57:41Z</time>
      </trkpt>
      <trkpt lat="63.424122976139188" lon="10.541851976886392">
        <ele>58.780000000000001</ele>
        <time>2017-06-29T12:57:42Z</time>
      </trkpt>
      <trkpt lat="63.424070002511144" lon="10.541754998266697">
        <ele>58.299999999999997</ele>
        <time>2017-06-29T12:57:43Z</time>
      </trkpt>
      <trkpt lat="63.423812007531524" lon="10.541283013299108">
        <ele>56.859999999999999</ele>
        <time>2017-06-29T12:57:47Z</time>
      </trkpt>
      <trkpt lat="63.423735983669758" lon="10.541175976395607">
        <ele>56.369999999999997</ele>
        <time>2017-06-29T12:57:48Z</time>
      </trkpt>
      <trkpt lat="63.423656020313501" lon="10.541081009432673">
        <ele>55.890000000000001</ele>
        <time>2017-06-29T12:57:49Z</time>
      </trkpt>
      <trkpt lat="63.423565998673439" lon="10.541000962257385">
        <ele>54.93</ele>
        <time>2017-06-29T12:57:50Z</time>
      </trkpt>
      <trkpt lat="63.423468014225364" lon="10.540939019992948">
        <ele>54.450000000000003</ele>
        <time>2017-06-29T12:57:51Z</time>
      </trkpt>
      <trkpt lat="63.423363994807005" lon="10.540885962545872">
        <ele>53.969999999999999</ele>
        <time>2017-06-29T12:57:52Z</time>
      </trkpt>
      <trkpt lat="63.42268799431622" lon="10.54055898450315">
        <ele>53.969999999999999</ele>
        <time>2017-06-29T12:57:58Z</time>
      </trkpt>
      <trkpt lat="63.4225819632411" lon="10.540456976741552">
        <ele>53.969999999999999</ele>
        <time>2017-06-29T12:57:59Z</time>
      </trkpt>
      <trkpt lat="63.422480961307883" lon="10.540325967594981">
        <ele>53.490000000000002</ele>
        <time>2017-06-29T12:58:00Z</time>
      </trkpt>
      <trkpt lat="63.422388006001711" lon="10.540167968720198">
        <ele>53.009999999999998</ele>
        <time>2017-06-29T12:58:01Z</time>
      </trkpt>
      <trkpt lat="63.422298990190029" lon="10.539984991773963">
        <ele>52.049999999999997</ele>
        <time>2017-06-29T12:58:02Z</time>
      </trkpt>
      <trkpt lat="63.422219026833773" lon="10.539777036756277">
        <ele>51.090000000000003</ele>
        <time>2017-06-29T12:58:03Z</time>
      </trkpt>
      <trkpt lat="63.422146020457149" lon="10.53954703733325">
        <ele>50.130000000000003</ele>
        <time>2017-06-29T12:58:04Z</time>
      </trkpt>
      <trkpt lat="63.422083994373679" lon="10.539292981848121">
        <ele>49.159999999999997</ele>
        <time>2017-06-29T12:58:05Z</time>
      </trkpt>
      <trkpt lat="63.422034038230777" lon="10.539020989090204">
        <ele>48.200000000000003</ele>
        <time>2017-06-29T12:58:06Z</time>
      </trkpt>
      <trkpt lat="63.421996990218759" lon="10.538729969412088">
        <ele>47.240000000000002</ele>
        <time>2017-06-29T12:58:07Z</time>
      </trkpt>
      <trkpt lat="63.42197603546083" lon="10.538426041603088">
        <ele>46.280000000000001</ele>
        <time>2017-06-29T12:58:08Z</time>
      </trkpt>
      <trkpt lat="63.421961031854153" lon="10.538126975297928">
        <ele>45.32</ele>
        <time>2017-06-29T12:58:09Z</time>
      </trkpt>
      <trkpt lat="63.421950973570347" lon="10.537820030003786">
        <ele>44.359999999999999</ele>
        <time>2017-06-29T12:58:10Z</time>
      </trkpt>
      <trkpt lat="63.421799009665847" lon="10.536081036552787">
        <ele>39.549999999999997</ele>
        <time>2017-06-29T12:58:16Z</time>
      </trkpt>
      <trkpt lat="63.421747041866183" lon="10.53583100438118">
        <ele>39.07</ele>
        <time>2017-06-29T12:58:17Z</time>
      </trkpt>
      <trkpt lat="63.421513019129634" lon="10.534610012546182">
        <ele>37.630000000000003</ele>
        <time>2017-06-29T12:58:22Z</time>
      </trkpt>
      <trkpt lat="63.421496003866196" lon="10.534370038658381">
        <ele>37.630000000000003</ele>
        <time>2017-06-29T12:58:23Z</time>
      </trkpt>
      <trkpt lat="63.421497009694576" lon="10.53415403701365">
        <ele>37.149999999999999</ele>
        <time>2017-06-29T12:58:24Z</time>
      </trkpt>
      <trkpt lat="63.421512013301253" lon="10.533958990126848">
        <ele>37.149999999999999</ele>
        <time>2017-06-29T12:58:25Z</time>
      </trkpt>
      <trkpt lat="63.421532968059182" lon="10.533789005130529">
        <ele>37.149999999999999</ele>
        <time>2017-06-29T12:58:26Z</time>
      </trkpt>
      <trkpt lat="63.421537997201085" lon="10.533393966034055">
        <ele>36.670000000000002</ele>
        <time>2017-06-29T12:58:28Z</time>
      </trkpt>
      <trkpt lat="63.421531040221453" lon="10.532659040763974">
        <ele>36.189999999999998</ele>
        <time>2017-06-29T12:58:31Z</time>
      </trkpt>
      <trkpt lat="63.421556018292904" lon="10.532375983893871">
        <ele>35.710000000000001</ele>
        <time>2017-06-29T12:58:32Z</time>
      </trkpt>
      <trkpt lat="63.421595999971032" lon="10.532095022499561">
        <ele>35.229999999999997</ele>
        <time>2017-06-29T12:58:33Z</time>
      </trkpt>
      <trkpt lat="63.421647967770696" lon="10.5318149831146">
        <ele>34.740000000000002</ele>
        <time>2017-06-29T12:58:34Z</time>
      </trkpt>
      <trkpt lat="63.421707982197404" lon="10.531528992578387">
        <ele>33.299999999999997</ele>
        <time>2017-06-29T12:58:35Z</time>
      </trkpt>
      <trkpt lat="63.421989027410746" lon="10.529232015833259">
        <ele>27.530000000000001</ele>
        <time>2017-06-29T12:58:42Z</time>
      </trkpt>
      <trkpt lat="63.421988021582365" lon="10.527913961559534">
        <ele>27.050000000000001</ele>
        <time>2017-06-29T12:58:46Z</time>
      </trkpt>
      <trkpt lat="63.422008976340294" lon="10.527625037357211">
        <ele>27.050000000000001</ele>
        <time>2017-06-29T12:58:47Z</time>
      </trkpt>
      <trkpt lat="63.422044012695551" lon="10.527357989922166">
        <ele>27.050000000000001</ele>
        <time>2017-06-29T12:58:48Z</time>
      </trkpt>
      <trkpt lat="63.422094974666834" lon="10.527131007984281">
        <ele>27.050000000000001</ele>
        <time>2017-06-29T12:58:49Z</time>
      </trkpt>
      <trkpt lat="63.422154989093542" lon="10.526921963319182">
        <ele>26.57</ele>
        <time>2017-06-29T12:58:50Z</time>
      </trkpt>
      <trkpt lat="63.422209974378347" lon="10.526696993038058">
        <ele>26.57</ele>
        <time>2017-06-29T12:58:51Z</time>
      </trkpt>
      <trkpt lat="63.422250039875507" lon="10.526449978351593">
        <ele>27.050000000000001</ele>
        <time>2017-06-29T12:58:52Z</time>
      </trkpt>
      <trkpt lat="63.422289015725255" lon="10.526186032220721">
        <ele>27.050000000000001</ele>
        <time>2017-06-29T12:58:53Z</time>
      </trkpt>
      <trkpt lat="63.422340983524919" lon="10.525914961472154">
        <ele>27.050000000000001</ele>
        <time>2017-06-29T12:58:54Z</time>
      </trkpt>
      <trkpt lat="63.422395968809724" lon="10.52562402561307">
        <ele>27.050000000000001</ele>
        <time>2017-06-29T12:58:55Z</time>
      </trkpt>
      <trkpt lat="63.423090996220708" lon="10.52227696403861">
        <ele>23.210000000000001</ele>
        <time>2017-06-29T12:59:05Z</time>
      </trkpt>
      <trkpt lat="63.423872021958232" lon="10.518560009077191">
        <ele>25.129999999999999</ele>
        <time>2017-06-29T12:59:17Z</time>
      </trkpt>
      <trkpt lat="63.423928013071418" lon="10.51829899661243">
        <ele>25.129999999999999</ele>
        <time>2017-06-29T12:59:18Z</time>
      </trkpt>
      <trkpt lat="63.423994984477758" lon="10.518073020502925">
        <ele>25.609999999999999</ele>
        <time>2017-06-29T12:59:19Z</time>
      </trkpt>
      <trkpt lat="63.424071008339524" lon="10.517888031899929">
        <ele>26.09</ele>
        <time>2017-06-29T12:59:20Z</time>
      </trkpt>
      <trkpt lat="63.424153989180923" lon="10.517716035246849">
        <ele>26.09</ele>
        <time>2017-06-29T12:59:21Z</time>
      </trkpt>
      <trkpt lat="63.424238981679082" lon="10.517540015280247">
        <ele>26.09</ele>
        <time>2017-06-29T12:59:22Z</time>
      </trkpt>
      <trkpt lat="63.424315005540848" lon="10.517331976443529">
        <ele>26.09</ele>
        <time>2017-06-29T12:59:23Z</time>
      </trkpt>
      <trkpt lat="63.42438398860395" lon="10.517089990898967">
        <ele>26.57</ele>
        <time>2017-06-29T12:59:24Z</time>
      </trkpt>
      <trkpt lat="63.424454983323812" lon="10.516833001747727">
        <ele>27.050000000000001</ele>
        <time>2017-06-29T12:59:25Z</time>
      </trkpt>
      <trkpt lat="63.425011038780212" lon="10.514047024771571">
        <ele>34.259999999999998</ele>
        <time>2017-06-29T12:59:34Z</time>
      </trkpt>
      <trkpt lat="63.425614032894373" lon="10.51030701957643">
        <ele>43.880000000000003</ele>
        <time>2017-06-29T12:59:46Z</time>
      </trkpt>
      <trkpt lat="63.425959032028913" lon="10.508273988962173">
        <ele>46.280000000000001</ele>
        <time>2017-06-29T12:59:55Z</time>
      </trkpt>
      <trkpt lat="63.426596978679299" lon="10.504469024017453">
        <ele>55.890000000000001</ele>
        <time>2017-06-29T13:00:12Z</time>
      </trkpt>
      <trkpt lat="63.426996041089296" lon="10.5024029687047">
        <ele>63.100000000000001</ele>
        <time>2017-06-29T13:00:21Z</time>
      </trkpt>
      <trkpt lat="63.427553018555045" lon="10.500172041356564">
        <ele>58.780000000000001</ele>
        <time>2017-06-29T13:00:31Z</time>
      </trkpt>
      <trkpt lat="63.428132040426135" lon="10.49821000546217">
        <ele>51.57</ele>
        <time>2017-06-29T13:00:42Z</time>
      </trkpt>
      <trkpt lat="63.428534958511591" lon="10.497018015012145">
        <ele>49.159999999999997</ele>
        <time>2017-06-29T13:00:50Z</time>
      </trkpt>
      <trkpt lat="63.428572006523609" lon="10.496975015848875">
        <ele>48.68</ele>
        <time>2017-06-29T13:00:59Z</time>
      </trkpt>
      <trkpt lat="63.42859597876668" lon="10.496903015300632">
        <ele>49.159999999999997</ele>
        <time>2017-06-29T13:01:17Z</time>
      </trkpt>
      <trkpt lat="63.428876018151641" lon="10.495944963768125">
        <ele>48.200000000000003</ele>
        <time>2017-06-29T13:01:25Z</time>
      </trkpt>
      <trkpt lat="63.429546989500523" lon="10.493658967316151">
        <ele>48.200000000000003</ele>
        <time>2017-06-29T13:01:38Z</time>
      </trkpt>
      <trkpt lat="63.430146966129541" lon="10.490958988666534">
        <ele>52.049999999999997</ele>
        <time>2017-06-29T13:01:48Z</time>
      </trkpt>
      <trkpt lat="63.430580981075764" lon="10.488303015008569">
        <ele>52.530000000000001</ele>
        <time>2017-06-29T13:01:59Z</time>
      </trkpt>
      <trkpt lat="63.430612999945879" lon="10.48819899559021">
        <ele>52.530000000000001</ele>
        <time>2017-06-29T13:02:00Z</time>
      </trkpt>
      <trkpt lat="63.430634960532188" lon="10.488139986991882">
        <ele>52.530000000000001</ele>
        <time>2017-06-29T13:02:01Z</time>
      </trkpt>
      <trkpt lat="63.430720958858728" lon="10.488009983673692">
        <ele>52.049999999999997</ele>
        <time>2017-06-29T13:02:08Z</time>
      </trkpt>
      <trkpt lat="63.430875018239021" lon="10.487758023664355">
        <ele>52.530000000000001</ele>
        <time>2017-06-29T13:02:11Z</time>
      </trkpt>
      <trkpt lat="63.430921034887433" lon="10.487616034224629">
        <ele>53.009999999999998</ele>
        <time>2017-06-29T13:02:12Z</time>
      </trkpt>
      <trkpt lat="63.430953975766897" lon="10.487444037571549">
        <ele>53.490000000000002</ele>
        <time>2017-06-29T13:02:13Z</time>
      </trkpt>
      <trkpt lat="63.43098096549511" lon="10.487248990684748">
        <ele>53.969999999999999</ele>
        <time>2017-06-29T13:02:14Z</time>
      </trkpt>
      <trkpt lat="63.430997980758548" lon="10.487041035667062">
        <ele>53.969999999999999</ele>
        <time>2017-06-29T13:02:15Z</time>
      </trkpt>
      <trkpt lat="63.431004015728831" lon="10.486832996830344">
        <ele>54.450000000000003</ele>
        <time>2017-06-29T13:02:16Z</time>
      </trkpt>
      <trkpt lat="63.430998986586928" lon="10.486639039590955">
        <ele>54.450000000000003</ele>
        <time>2017-06-29T13:02:17Z</time>
      </trkpt>
      <trkpt lat="63.43098197132349" lon="10.486438041552901">
        <ele>54.450000000000003</ele>
        <time>2017-06-29T13:02:18Z</time>
      </trkpt>
      <trkpt lat="63.430960010737181" lon="10.486237965524197">
        <ele>54.450000000000003</ele>
        <time>2017-06-29T13:02:19Z</time>
      </trkpt>
      <trkpt lat="63.430928997695446" lon="10.485776960849762">
        <ele>53.969999999999999</ele>
        <time>2017-06-29T13:02:21Z</time>
      </trkpt>
      <trkpt lat="63.430926986038685" lon="10.485517038032413">
        <ele>53.969999999999999</ele>
        <time>2017-06-29T13:02:22Z</time>
      </trkpt>
      <trkpt lat="63.43108800239861" lon="10.482487985864282">
        <ele>52.049999999999997</ele>
        <time>2017-06-29T13:02:32Z</time>
      </trkpt>
      <trkpt lat="63.431500978767872" lon="10.478498032316566">
        <ele>51.090000000000003</ele>
        <time>2017-06-29T13:02:43Z</time>
      </trkpt>
      <trkpt lat="63.431942034512758" lon="10.474486034363508">
        <ele>51.090000000000003</ele>
        <time>2017-06-29T13:02:54Z</time>
      </trkpt>
      <trkpt lat="63.432603031396866" lon="10.469123041257262">
        <ele>39.07</ele>
        <time>2017-06-29T13:03:10Z</time>
      </trkpt>
      <trkpt lat="63.433577008545399" lon="10.464016031473875">
        <ele>33.299999999999997</ele>
        <time>2017-06-29T13:03:26Z</time>
      </trkpt>
      <trkpt lat="63.434302965179086" lon="10.461098039522767">
        <ele>34.740000000000002</ele>
        <time>2017-06-29T13:03:37Z</time>
      </trkpt>
      <trkpt lat="63.434564983472228" lon="10.460008978843689">
        <ele>34.740000000000002</ele>
        <time>2017-06-29T13:03:42Z</time>
      </trkpt>
      <trkpt lat="63.434603037312627" lon="10.459778979420662">
        <ele>34.740000000000002</ele>
        <time>2017-06-29T13:03:43Z</time>
      </trkpt>
      <trkpt lat="63.435014002025127" lon="10.457664979621768">
        <ele>32.340000000000003</ele>
        <time>2017-06-29T13:03:53Z</time>
      </trkpt>
      <trkpt lat="63.435184992849827" lon="10.457167010754347">
        <ele>28.98</ele>
        <time>2017-06-29T13:04:01Z</time>
      </trkpt>
      <trkpt lat="63.435217011719942" lon="10.457192994654179">
        <ele>28.5</ele>
        <time>2017-06-29T13:04:02Z</time>
      </trkpt>
      <trkpt lat="63.435235032811761" lon="10.457214033231139">
        <ele>28.02</ele>
        <time>2017-06-29T13:04:03Z</time>
      </trkpt>
      <trkpt lat="63.435269985347986" lon="10.457171034067869">
        <ele>27.530000000000001</ele>
        <time>2017-06-29T13:04:04Z</time>
      </trkpt>
      <trkpt lat="63.435293035581708" lon="10.457148989662528">
        <ele>27.050000000000001</ele>
        <time>2017-06-29T13:04:05Z</time>
      </trkpt>
      <trkpt lat="63.435221035033464" lon="10.457118982449174">
        <ele>26.09</ele>
        <time>2017-06-29T13:04:06Z</time>
      </trkpt>
      <trkpt lat="63.435184992849827" lon="10.457106996327639">
        <ele>25.609999999999999</ele>
        <time>2017-06-29T13:04:07Z</time>
      </trkpt>
      <trkpt lat="63.435092037543654" lon="10.457138009369373">
        <ele>24.170000000000002</ele>
        <time>2017-06-29T13:04:09Z</time>
      </trkpt>
      <trkpt lat="63.434137003496289" lon="10.456574996933341">
        <ele>28.02</ele>
        <time>2017-06-29T13:04:16Z</time>
      </trkpt>
      <trkpt lat="63.432896984741092" lon="10.455836970359087">
        <ele>38.109999999999999</ele>
        <time>2017-06-29T13:04:28Z</time>
      </trkpt>
      <trkpt lat="63.431545989587903" lon="10.455265995115042">
        <ele>43.399999999999999</ele>
        <time>2017-06-29T13:04:41Z</time>
      </trkpt>
      <trkpt lat="63.431413974612951" lon="10.455208998173475">
        <ele>44.359999999999999</ele>
        <time>2017-06-29T13:04:49Z</time>
      </trkpt>
      <trkpt lat="63.431155979633331" lon="10.455084023997188">
        <ele>44.359999999999999</ele>
        <time>2017-06-29T13:05:03Z</time>
      </trkpt>
      <trkpt lat="63.430740991607308" lon="10.454881014302373">
        <ele>43.399999999999999</ele>
        <time>2017-06-29T13:05:13Z</time>
      </trkpt>
      <trkpt lat="63.43031301163137" lon="10.454494021832943">
        <ele>44.359999999999999</ele>
        <time>2017-06-29T13:05:26Z</time>
      </trkpt>
      <trkpt lat="63.430237993597984" lon="10.454179029911757">
        <ele>44.359999999999999</ele>
        <time>2017-06-29T13:05:37Z</time>
      </trkpt>
      <trkpt lat="63.430238999426365" lon="10.454028993844986">
        <ele>45.32</ele>
        <time>2017-06-29T13:05:40Z</time>
      </trkpt>
      <trkpt lat="63.430244028568268" lon="10.45390997081995">
        <ele>45.799999999999997</ele>
        <time>2017-06-29T13:05:41Z</time>
      </trkpt>
      <trkpt lat="63.4302509855479" lon="10.452172989025712">
        <ele>49.159999999999997</ele>
        <time>2017-06-29T13:05:52Z</time>
      </trkpt>
      <trkpt lat="63.430204968899488" lon="10.451659010723233">
        <ele>50.130000000000003</ele>
        <time>2017-06-29T13:05:56Z</time>
      </trkpt>
      <trkpt lat="63.430212009698153" lon="10.451537976041436">
        <ele>50.130000000000003</ele>
        <time>2017-06-29T13:05:57Z</time>
      </trkpt>
      <trkpt lat="63.430252997204661" lon="10.450839009135962">
        <ele>50.130000000000003</ele>
        <time>2017-06-29T13:06:02Z</time>
      </trkpt>
      <trkpt lat="63.430290967226028" lon="10.450692996382713">
        <ele>50.609999999999999</ele>
        <time>2017-06-29T13:06:03Z</time>
      </trkpt>
      <trkpt lat="63.430338995531201" lon="10.450548995286226">
        <ele>50.609999999999999</ele>
        <time>2017-06-29T13:06:04Z</time>
      </trkpt>
      <trkpt lat="63.430394986644387" lon="10.450404994189739">
        <ele>51.090000000000003</ele>
        <time>2017-06-29T13:06:05Z</time>
      </trkpt>
      <trkpt lat="63.43046598136425" lon="10.45027800835669">
        <ele>52.049999999999997</ele>
        <time>2017-06-29T13:06:06Z</time>
      </trkpt>
      <trkpt lat="63.430535970255733" lon="10.450154040008783">
        <ele>52.049999999999997</ele>
        <time>2017-06-29T13:06:07Z</time>
      </trkpt>
      <trkpt lat="63.43061501160264" lon="10.450045997276902">
        <ele>52.530000000000001</ele>
        <time>2017-06-29T13:06:08Z</time>
      </trkpt>
      <trkpt lat="63.430695980787277" lon="10.449958993121982">
        <ele>52.530000000000001</ele>
        <time>2017-06-29T13:06:09Z</time>
      </trkpt>
      <trkpt lat="63.430778961628675" lon="10.449893027544022">
        <ele>52.049999999999997</ele>
        <time>2017-06-29T13:06:10Z</time>
      </trkpt>
      <trkpt lat="63.430864959955215" lon="10.449824966490269">
        <ele>52.049999999999997</ele>
        <time>2017-06-29T13:06:11Z</time>
      </trkpt>
      <trkpt lat="63.430951964110136" lon="10.449775010347366">
        <ele>52.530000000000001</ele>
        <time>2017-06-29T13:06:12Z</time>
      </trkpt>
      <trkpt lat="63.431550012901425" lon="10.449406038969755">
        <ele>54.450000000000003</ele>
        <time>2017-06-29T13:06:19Z</time>
      </trkpt>
      <trkpt lat="63.431769032031298" lon="10.449261032044888">
        <ele>54.93</ele>
        <time>2017-06-29T13:06:22Z</time>
      </trkpt>
      <trkpt lat="63.431819994002581" lon="10.449143014848232">
        <ele>54.93</ele>
        <time>2017-06-29T13:06:23Z</time>
      </trkpt>
      <trkpt lat="63.43205401673913" lon="10.448616966605186">
        <ele>55.890000000000001</ele>
        <time>2017-06-29T13:06:27Z</time>
      </trkpt>
      <trkpt lat="63.432993041351438" lon="10.446977969259024">
        <ele>62.140000000000001</ele>
        <time>2017-06-29T13:06:42Z</time>
      </trkpt>
      <trkpt lat="63.433199990540743" lon="10.446489974856377">
        <ele>62.619999999999997</ele>
        <time>2017-06-29T13:06:48Z</time>
      </trkpt>
      <trkpt lat="63.433200996369123" lon="10.44638997875154">
        <ele>63.100000000000001</ele>
        <time>2017-06-29T13:06:49Z</time>
      </trkpt>
      <trkpt lat="63.433183981105685" lon="10.446275984868407">
        <ele>63.100000000000001</ele>
        <time>2017-06-29T13:06:50Z</time>
      </trkpt>
      <trkpt lat="63.433154979720712" lon="10.446143969893456">
        <ele>63.100000000000001</ele>
        <time>2017-06-29T13:06:51Z</time>
      </trkpt>
      <trkpt lat="63.433116003870964" lon="10.446018995717168">
        <ele>63.100000000000001</ele>
        <time>2017-06-29T13:06:52Z</time>
      </trkpt>
      <trkpt lat="63.433066969737411" lon="10.4458930157125">
        <ele>62.619999999999997</ele>
        <time>2017-06-29T13:06:53Z</time>
      </trkpt>
      <trkpt lat="63.433015001937747" lon="10.445772986859083">
        <ele>62.140000000000001</ele>
        <time>2017-06-29T13:06:54Z</time>
      </trkpt>
      <trkpt lat="63.432652987539768" lon="10.444803033024073">
        <ele>62.619999999999997</ele>
        <time>2017-06-29T13:07:02Z</time>
      </trkpt>
      <trkpt lat="63.432641001418233" lon="10.444703958928585">
        <ele>62.619999999999997</ele>
        <time>2017-06-29T13:07:03Z</time>
      </trkpt>
      <trkpt lat="63.432645024731755" lon="10.444612009450793">
        <ele>63.100000000000001</ele>
        <time>2017-06-29T13:07:04Z</time>
      </trkpt>
      <trkpt lat="63.432662962004542" lon="10.444531040266156">
        <ele>63.579999999999998</ele>
        <time>2017-06-29T13:07:05Z</time>
      </trkpt>
      <trkpt lat="63.432695986703038" lon="10.444460967555642">
        <ele>63.579999999999998</ele>
        <time>2017-06-29T13:07:06Z</time>
      </trkpt>
      <trkpt lat="63.432737980037928" lon="10.444385027512908">
        <ele>63.579999999999998</ele>
        <time>2017-06-29T13:07:07Z</time>
      </trkpt>
      <trkpt lat="63.433496039360762" lon="10.443341983482242">
        <ele>67.909999999999997</ele>
        <time>2017-06-29T13:07:21Z</time>
      </trkpt>
      <trkpt lat="63.433586983010173" lon="10.443212985992432">
        <ele>68.390000000000001</ele>
        <time>2017-06-29T13:07:23Z</time>
      </trkpt>
      <trkpt lat="63.433621013537049" lon="10.443137967959046">
        <ele>68.390000000000001</ele>
        <time>2017-06-29T13:07:24Z</time>
      </trkpt>
      <trkpt lat="63.43364498578012" lon="10.443045012652874">
        <ele>68.870000000000005</ele>
        <time>2017-06-29T13:07:25Z</time>
      </trkpt>
      <trkpt lat="63.433649009093642" lon="10.442926995456219">
        <ele>68.870000000000005</ele>
        <time>2017-06-29T13:07:26Z</time>
      </trkpt>
      <trkpt lat="63.433640962466598" lon="10.442792968824506">
        <ele>68.870000000000005</ele>
        <time>2017-06-29T13:07:27Z</time>
      </trkpt>
      <trkpt lat="63.43362201936543" lon="10.442651985213161">
        <ele>68.870000000000005</ele>
        <time>2017-06-29T13:07:28Z</time>
      </trkpt>
      <trkpt lat="63.43342998996377" lon="10.440863035619259">
        <ele>66.950000000000003</ele>
        <time>2017-06-29T13:07:43Z</time>
      </trkpt>
      <trkpt lat="63.433246007189155" lon="10.440010009333491">
        <ele>66.469999999999999</ele>
        <time>2017-06-29T13:07:52Z</time>
      </trkpt>
      <trkpt lat="63.433113992214203" lon="10.439463006332517">
        <ele>65.510000000000005</ele>
        <time>2017-06-29T13:08:00Z</time>
      </trkpt>
      <trkpt lat="63.433121033012867" lon="10.439431993290782">
        <ele>65.030000000000001</ele>
        <time>2017-06-29T13:08:23Z</time>
      </trkpt>
      <trkpt lat="63.433077028021216" lon="10.439415983855724">
        <ele>64.549999999999997</ele>
        <time>2017-06-29T13:09:01Z</time>
      </trkpt>
      <trkpt lat="63.433061018586159" lon="10.439459988847375">
        <ele>65.030000000000001</ele>
        <time>2017-06-29T13:09:06Z</time>
      </trkpt>
      <trkpt lat="63.432949958369136" lon="10.439561996608973">
        <ele>64.549999999999997</ele>
        <time>2017-06-29T13:09:09Z</time>
      </trkpt>
      <trkpt lat="63.432039013132453" lon="10.439989976584911">
        <ele>65.989999999999995</ele>
        <time>2017-06-29T13:09:22Z</time>
      </trkpt>
      <trkpt lat="63.431931976228952" lon="10.44002995826304">
        <ele>65.989999999999995</ele>
        <time>2017-06-29T13:09:24Z</time>
      </trkpt>
      <trkpt lat="63.431881014257669" lon="10.440026018768549">
        <ele>65.989999999999995</ele>
        <time>2017-06-29T13:09:25Z</time>
      </trkpt>
      <trkpt lat="63.431829968467355" lon="10.440009003505111">
        <ele>66.469999999999999</ele>
        <time>2017-06-29T13:09:26Z</time>
      </trkpt>
      <trkpt lat="63.431773977354169" lon="10.43996499851346">
        <ele>66.469999999999999</ele>
        <time>2017-06-29T13:09:27Z</time>
      </trkpt>
      <trkpt lat="63.431712035089731" lon="10.439908001571894">
        <ele>66.950000000000003</ele>
        <time>2017-06-29T13:09:28Z</time>
      </trkpt>
      <trkpt lat="63.431644979864359" lon="10.43983499519527">
        <ele>67.430000000000007</ele>
        <time>2017-06-29T13:09:29Z</time>
      </trkpt>
      <trkpt lat="63.431160002946854" lon="10.439311964437366">
        <ele>69.349999999999994</ele>
        <time>2017-06-29T13:09:36Z</time>
      </trkpt>
      <trkpt lat="63.431102000176907" lon="10.439266031607985">
        <ele>69.349999999999994</ele>
        <time>2017-06-29T13:09:37Z</time>
      </trkpt>
      <trkpt lat="63.431049026548862" lon="10.439245998859406">
        <ele>69.829999999999998</ele>
        <time>2017-06-29T13:09:38Z</time>
      </trkpt>
      <trkpt lat="63.430950036272407" lon="10.4391910135746">
        <ele>69.829999999999998</ele>
        <time>2017-06-29T13:09:40Z</time>
      </trkpt>
      <trkpt lat="63.430902007967234" lon="10.439119013026357">
        <ele>69.829999999999998</ele>
        <time>2017-06-29T13:09:41Z</time>
      </trkpt>
      <trkpt lat="63.43085297383368" lon="10.43901901692152">
        <ele>70.310000000000002</ele>
        <time>2017-06-29T13:09:42Z</time>
      </trkpt>
      <trkpt lat="63.430631021037698" lon="10.438517024740577">
        <ele>71.760000000000005</ele>
        <time>2017-06-29T13:09:46Z</time>
      </trkpt>
      <trkpt lat="63.430560026317835" lon="10.438403030857444">
        <ele>72.239999999999995</ele>
        <time>2017-06-29T13:09:47Z</time>
      </trkpt>
      <trkpt lat="63.430487019941211" lon="10.438300017267466">
        <ele>72.719999999999999</ele>
        <time>2017-06-29T13:09:48Z</time>
      </trkpt>
      <trkpt lat="63.430223995819688" lon="10.437973039224744">
        <ele>73.200000000000003</ele>
        <time>2017-06-29T13:09:53Z</time>
      </trkpt>
      <trkpt lat="63.43020798638463" lon="10.437895003706217">
        <ele>73.680000000000007</ele>
        <time>2017-06-29T13:09:54Z</time>
      </trkpt>
      <trkpt lat="63.430204968899488" lon="10.437823003157973">
        <ele>74.159999999999997</ele>
        <time>2017-06-29T13:09:55Z</time>
      </trkpt>
      <trkpt lat="63.430215027183294" lon="10.437753014266491">
        <ele>74.159999999999997</ele>
        <time>2017-06-29T13:09:56Z</time>
      </trkpt>
      <trkpt lat="63.430241011083126" lon="10.437704985961318">
        <ele>74.640000000000001</ele>
        <time>2017-06-29T13:09:57Z</time>
      </trkpt>
      <trkpt lat="63.430277975276113" lon="10.437671961262822">
        <ele>75.120000000000005</ele>
        <time>2017-06-29T13:09:58Z</time>
      </trkpt>
      <trkpt lat="63.430319968611002" lon="10.437648994848132">
        <ele>75.599999999999994</ele>
        <time>2017-06-29T13:09:59Z</time>
      </trkpt>
      <trkpt lat="63.430366991087794" lon="10.437624016776681">
        <ele>76.079999999999998</ele>
        <time>2017-06-29T13:10:00Z</time>
      </trkpt>
      <trkpt lat="63.43104500323534" lon="10.437567019835114">
        <ele>77.519999999999996</ele>
        <time>2017-06-29T13:10:10Z</time>
      </trkpt>
      <trkpt lat="63.4318189881742" lon="10.437996005639434">
        <ele>75.120000000000005</ele>
        <time>2017-06-29T13:10:22Z</time>
      </trkpt>
      <trkpt lat="63.432364985346794" lon="10.438198009505868">
        <ele>70.790000000000006</ele>
        <time>2017-06-29T13:10:36Z</time>
      </trkpt>
      <trkpt lat="63.432841999456286" lon="10.438093990087509">
        <ele>69.349999999999994</ele>
        <time>2017-06-29T13:10:49Z</time>
      </trkpt>
      <trkpt lat="63.432861026376486" lon="10.438042022287846">
        <ele>69.829999999999998</ele>
        <time>2017-06-29T13:10:52Z</time>
      </trkpt>
      <trkpt lat="63.43289396725595" lon="10.437929034233093">
        <ele>69.829999999999998</ele>
        <time>2017-06-29T13:11:06Z</time>
      </trkpt>
      <trkpt lat="63.432892039418221" lon="10.437925010919571">
        <ele>69.349999999999994</ele>
        <time>2017-06-29T13:12:18Z</time>
      </trkpt>
    </trkseg>
  </trk>

</gpx>